<?xml version="1.0" encoding="UTF-8" standalone="no" ?>
<gpx xmlns="http://www.topografix.com/GPX/1/1" xmlns:xsi="http://www.w3.org/2001/XMLSchema-instance" xsi:schemaLocation="http://www.topografix.com/GPX/1/1 http://www.topografix.com/GPX/1/1/gpx.xsd" version="1.1" creator="VisuGPX - https://www.visugpx.com">
  <metadata>
    <name>BERVILLE</name>
    <desc><![CDATA[<p>Heure de départ: 14:16 8 août 2021<br/>Heure d'arrivée: 18:22 8 août 2021<br/>Distance: 62,5 km (04:06)<br/>Temps déplacement: 03:54<br/>Vitesse moyenne: 15,21 km/h<br/>Vitesse moyenne mouv.: 15,99 km/h<br/>Vitesse Max.: 46,14 km/h<br/>Altitude minimale: 49 m<br/>Altitude maximale: 199 m<br/>Vitesse de montée: 624,8 m/h<br/>Vitesse de descente: 1103,9 m/h<br/>Gain d'altitude: 975 m<br/>Perte d'altitude: 975 m<br/>Temps de montée: 01:33<br/>Temps de descente: 00:53<br/></p><hr align="center" width="480" style="height: 2px; width: 517px"/>]]></desc>
  </metadata>
  <trk>
    <name><![CDATA[RETOUR]]></name>
    <desc><![CDATA[<p>Heure de départ: 14:16 8 août 2021<br/>Heure d'arrivée: 18:22 8 août 2021<br/>Distance: 62,5 km (04:06)<br/>Temps déplacement: 03:54<br/>Vitesse moyenne: 15,21 km/h<br/>Vitesse moyenne mouv.: 15,99 km/h<br/>Vitesse Max.: 46,14 km/h<br/>Altitude minimale: 49 m<br/>Altitude maximale: 199 m<br/>Vitesse de montée: 624,8 m/h<br/>Vitesse de descente: 1103,9 m/h<br/>Gain d'altitude: 975 m<br/>Perte d'altitude: 975 m<br/>Temps de montée: 01:33<br/>Temps de descente: 00:53<br/></p><hr align="center" width="480" style="height: 2px; width: 517px"/>]]></desc>
    <trkseg>
      <trkpt lat="49.01793" lon="0.04427">
        <ele>72.38</ele>
        <time>2021-08-08T14:53:34Z</time>
      </trkpt>
      <trkpt lat="49.01791" lon="0.04425">
        <ele>72.14</ele>
        <time>2021-08-08T14:53:35Z</time>
      </trkpt>
      <trkpt lat="49.01787" lon="0.04421">
        <ele>71.82</ele>
        <time>2021-08-08T14:53:36Z</time>
      </trkpt>
      <trkpt lat="49.01782" lon="0.04421">
        <ele>71.57</ele>
        <time>2021-08-08T14:53:37Z</time>
      </trkpt>
      <trkpt lat="49.01777" lon="0.0442">
        <ele>71.36</ele>
        <time>2021-08-08T14:53:38Z</time>
      </trkpt>
      <trkpt lat="49.01772" lon="0.04419">
        <ele>71.34</ele>
        <time>2021-08-08T14:53:39Z</time>
      </trkpt>
      <trkpt lat="49.01768" lon="0.04419">
        <ele>71.43</ele>
        <time>2021-08-08T14:53:40Z</time>
      </trkpt>
      <trkpt lat="49.01763" lon="0.04419">
        <ele>71.59</ele>
        <time>2021-08-08T14:53:41Z</time>
      </trkpt>
      <trkpt lat="49.01759" lon="0.04419">
        <ele>71.74</ele>
        <time>2021-08-08T14:53:42Z</time>
      </trkpt>
      <trkpt lat="49.01754" lon="0.0442">
        <ele>71.9</ele>
        <time>2021-08-08T14:53:43Z</time>
      </trkpt>
      <trkpt lat="49.01749" lon="0.0442">
        <ele>72.09</ele>
        <time>2021-08-08T14:53:44Z</time>
      </trkpt>
      <trkpt lat="49.01745" lon="0.04421">
        <ele>72.36</ele>
        <time>2021-08-08T14:53:45Z</time>
      </trkpt>
      <trkpt lat="49.01742" lon="0.04421">
        <ele>72.6</ele>
        <time>2021-08-08T14:53:46Z</time>
      </trkpt>
      <trkpt lat="49.01739" lon="0.04421">
        <ele>72.82</ele>
        <time>2021-08-08T14:53:47Z</time>
      </trkpt>
      <trkpt lat="49.01735" lon="0.04421">
        <ele>73.03</ele>
        <time>2021-08-08T14:53:48Z</time>
      </trkpt>
      <trkpt lat="49.01732" lon="0.04422">
        <ele>73.24</ele>
        <time>2021-08-08T14:53:49Z</time>
      </trkpt>
      <trkpt lat="49.01729" lon="0.04423">
        <ele>73.47</ele>
        <time>2021-08-08T14:53:50Z</time>
      </trkpt>
      <trkpt lat="49.01725" lon="0.04423">
        <ele>73.72</ele>
        <time>2021-08-08T14:53:51Z</time>
      </trkpt>
      <trkpt lat="49.01721" lon="0.04424">
        <ele>73.95</ele>
        <time>2021-08-08T14:53:52Z</time>
      </trkpt>
      <trkpt lat="49.01718" lon="0.04424">
        <ele>74.19</ele>
        <time>2021-08-08T14:53:53Z</time>
      </trkpt>
      <trkpt lat="49.01714" lon="0.04425">
        <ele>74.4</ele>
        <time>2021-08-08T14:53:54Z</time>
      </trkpt>
      <trkpt lat="49.0171" lon="0.04424">
        <ele>74.64</ele>
        <time>2021-08-08T14:53:55Z</time>
      </trkpt>
      <trkpt lat="49.01707" lon="0.04424">
        <ele>74.84</ele>
        <time>2021-08-08T14:53:56Z</time>
      </trkpt>
      <trkpt lat="49.01704" lon="0.04424">
        <ele>75.03</ele>
        <time>2021-08-08T14:53:57Z</time>
      </trkpt>
      <trkpt lat="49.01701" lon="0.04425">
        <ele>75.2</ele>
        <time>2021-08-08T14:53:58Z</time>
      </trkpt>
      <trkpt lat="49.01698" lon="0.04425">
        <ele>75.38</ele>
        <time>2021-08-08T14:53:59Z</time>
      </trkpt>
      <trkpt lat="49.01695" lon="0.04425">
        <ele>75.57</ele>
        <time>2021-08-08T14:54:00Z</time>
      </trkpt>
      <trkpt lat="49.01693" lon="0.04426">
        <ele>75.73</ele>
        <time>2021-08-08T14:54:01Z</time>
      </trkpt>
      <trkpt lat="49.0169" lon="0.04426">
        <ele>75.92</ele>
        <time>2021-08-08T14:54:02Z</time>
      </trkpt>
      <trkpt lat="49.01688" lon="0.04425">
        <ele>76.15</ele>
        <time>2021-08-08T14:54:03Z</time>
      </trkpt>
      <trkpt lat="49.01686" lon="0.04426">
        <ele>76.34</ele>
        <time>2021-08-08T14:54:04Z</time>
      </trkpt>
      <trkpt lat="49.01683" lon="0.04426">
        <ele>76.55</ele>
        <time>2021-08-08T14:54:05Z</time>
      </trkpt>
      <trkpt lat="49.0168" lon="0.04427">
        <ele>76.75</ele>
        <time>2021-08-08T14:54:06Z</time>
      </trkpt>
      <trkpt lat="49.01677" lon="0.04426">
        <ele>76.98</ele>
        <time>2021-08-08T14:54:07Z</time>
      </trkpt>
      <trkpt lat="49.01675" lon="0.04427">
        <ele>77.19</ele>
        <time>2021-08-08T14:54:08Z</time>
      </trkpt>
      <trkpt lat="49.01672" lon="0.04426">
        <ele>77.44</ele>
        <time>2021-08-08T14:54:09Z</time>
      </trkpt>
      <trkpt lat="49.01669" lon="0.04426">
        <ele>77.71</ele>
        <time>2021-08-08T14:54:10Z</time>
      </trkpt>
      <trkpt lat="49.01666" lon="0.04426">
        <ele>77.95</ele>
        <time>2021-08-08T14:54:11Z</time>
      </trkpt>
      <trkpt lat="49.01663" lon="0.04427">
        <ele>78.15</ele>
        <time>2021-08-08T14:54:12Z</time>
      </trkpt>
      <trkpt lat="49.01659" lon="0.04429">
        <ele>78.42</ele>
        <time>2021-08-08T14:54:13Z</time>
      </trkpt>
      <trkpt lat="49.01657" lon="0.0443">
        <ele>78.64</ele>
        <time>2021-08-08T14:54:14Z</time>
      </trkpt>
      <trkpt lat="49.01653" lon="0.04432">
        <ele>78.89</ele>
        <time>2021-08-08T14:54:15Z</time>
      </trkpt>
      <trkpt lat="49.01651" lon="0.04433">
        <ele>79.07</ele>
        <time>2021-08-08T14:54:16Z</time>
      </trkpt>
      <trkpt lat="49.01648" lon="0.04433">
        <ele>79.25</ele>
        <time>2021-08-08T14:54:17Z</time>
      </trkpt>
      <trkpt lat="49.01646" lon="0.04434">
        <ele>79.44</ele>
        <time>2021-08-08T14:54:18Z</time>
      </trkpt>
      <trkpt lat="49.01643" lon="0.04435">
        <ele>79.65</ele>
        <time>2021-08-08T14:54:19Z</time>
      </trkpt>
      <trkpt lat="49.0164" lon="0.04435">
        <ele>79.84</ele>
        <time>2021-08-08T14:54:20Z</time>
      </trkpt>
      <trkpt lat="49.01638" lon="0.04436">
        <ele>79.98</ele>
        <time>2021-08-08T14:54:21Z</time>
      </trkpt>
      <trkpt lat="49.01636" lon="0.04437">
        <ele>80.1</ele>
        <time>2021-08-08T14:54:22Z</time>
      </trkpt>
      <trkpt lat="49.01633" lon="0.04437">
        <ele>80.21</ele>
        <time>2021-08-08T14:54:23Z</time>
      </trkpt>
      <trkpt lat="49.0163" lon="0.04438">
        <ele>80.33</ele>
        <time>2021-08-08T14:54:24Z</time>
      </trkpt>
      <trkpt lat="49.01627" lon="0.04439">
        <ele>80.45</ele>
        <time>2021-08-08T14:54:25Z</time>
      </trkpt>
      <trkpt lat="49.01624" lon="0.04439">
        <ele>80.57</ele>
        <time>2021-08-08T14:54:26Z</time>
      </trkpt>
      <trkpt lat="49.01621" lon="0.04438">
        <ele>80.71</ele>
        <time>2021-08-08T14:54:27Z</time>
      </trkpt>
      <trkpt lat="49.01619" lon="0.04437">
        <ele>80.84</ele>
        <time>2021-08-08T14:54:28Z</time>
      </trkpt>
      <trkpt lat="49.01616" lon="0.04437">
        <ele>80.98</ele>
        <time>2021-08-08T14:54:29Z</time>
      </trkpt>
      <trkpt lat="49.01613" lon="0.04433">
        <ele>81.19</ele>
        <time>2021-08-08T14:54:30Z</time>
      </trkpt>
      <trkpt lat="49.0161" lon="0.04432">
        <ele>81.41</ele>
        <time>2021-08-08T14:54:31Z</time>
      </trkpt>
      <trkpt lat="49.01607" lon="0.04431">
        <ele>81.61</ele>
        <time>2021-08-08T14:54:32Z</time>
      </trkpt>
      <trkpt lat="49.01604" lon="0.04431">
        <ele>81.78</ele>
        <time>2021-08-08T14:54:33Z</time>
      </trkpt>
      <trkpt lat="49.01601" lon="0.04431">
        <ele>81.95</ele>
        <time>2021-08-08T14:54:34Z</time>
      </trkpt>
      <trkpt lat="49.01598" lon="0.04431">
        <ele>82.1</ele>
        <time>2021-08-08T14:54:35Z</time>
      </trkpt>
      <trkpt lat="49.01595" lon="0.04432">
        <ele>82.26</ele>
        <time>2021-08-08T14:54:36Z</time>
      </trkpt>
      <trkpt lat="49.01592" lon="0.04431">
        <ele>82.43</ele>
        <time>2021-08-08T14:54:37Z</time>
      </trkpt>
      <trkpt lat="49.0159" lon="0.0443">
        <ele>82.59</ele>
        <time>2021-08-08T14:54:38Z</time>
      </trkpt>
      <trkpt lat="49.01586" lon="0.0443">
        <ele>82.76</ele>
        <time>2021-08-08T14:54:39Z</time>
      </trkpt>
      <trkpt lat="49.01583" lon="0.0443">
        <ele>82.95</ele>
        <time>2021-08-08T14:54:40Z</time>
      </trkpt>
      <trkpt lat="49.01579" lon="0.0443">
        <ele>83.2</ele>
        <time>2021-08-08T14:54:41Z</time>
      </trkpt>
      <trkpt lat="49.01576" lon="0.04429">
        <ele>83.45</ele>
        <time>2021-08-08T14:54:42Z</time>
      </trkpt>
      <trkpt lat="49.01572" lon="0.0443">
        <ele>83.68</ele>
        <time>2021-08-08T14:54:43Z</time>
      </trkpt>
      <trkpt lat="49.01569" lon="0.0443">
        <ele>83.91</ele>
        <time>2021-08-08T14:54:44Z</time>
      </trkpt>
      <trkpt lat="49.01566" lon="0.0443">
        <ele>84.15</ele>
        <time>2021-08-08T14:54:45Z</time>
      </trkpt>
      <trkpt lat="49.01563" lon="0.0443">
        <ele>84.38</ele>
        <time>2021-08-08T14:54:46Z</time>
      </trkpt>
      <trkpt lat="49.01559" lon="0.0443">
        <ele>84.62</ele>
        <time>2021-08-08T14:54:47Z</time>
      </trkpt>
      <trkpt lat="49.01556" lon="0.0443">
        <ele>84.85</ele>
        <time>2021-08-08T14:54:48Z</time>
      </trkpt>
      <trkpt lat="49.01553" lon="0.04429">
        <ele>85.11</ele>
        <time>2021-08-08T14:54:49Z</time>
      </trkpt>
      <trkpt lat="49.01549" lon="0.04429">
        <ele>85.42</ele>
        <time>2021-08-08T14:54:50Z</time>
      </trkpt>
      <trkpt lat="49.01546" lon="0.04429">
        <ele>85.7</ele>
        <time>2021-08-08T14:54:51Z</time>
      </trkpt>
      <trkpt lat="49.01543" lon="0.04429">
        <ele>85.99</ele>
        <time>2021-08-08T14:54:52Z</time>
      </trkpt>
      <trkpt lat="49.0154" lon="0.04429">
        <ele>86.27</ele>
        <time>2021-08-08T14:54:53Z</time>
      </trkpt>
      <trkpt lat="49.01536" lon="0.04428">
        <ele>86.56</ele>
        <time>2021-08-08T14:54:54Z</time>
      </trkpt>
      <trkpt lat="49.01533" lon="0.04428">
        <ele>86.83</ele>
        <time>2021-08-08T14:54:55Z</time>
      </trkpt>
      <trkpt lat="49.0153" lon="0.04429">
        <ele>87.1</ele>
        <time>2021-08-08T14:54:56Z</time>
      </trkpt>
      <trkpt lat="49.01528" lon="0.04429">
        <ele>87.35</ele>
        <time>2021-08-08T14:54:57Z</time>
      </trkpt>
      <trkpt lat="49.01525" lon="0.04429">
        <ele>87.59</ele>
        <time>2021-08-08T14:54:58Z</time>
      </trkpt>
      <trkpt lat="49.01522" lon="0.04429">
        <ele>87.86</ele>
        <time>2021-08-08T14:54:59Z</time>
      </trkpt>
      <trkpt lat="49.01519" lon="0.0443">
        <ele>88.13</ele>
        <time>2021-08-08T14:55:00Z</time>
      </trkpt>
      <trkpt lat="49.01516" lon="0.0443">
        <ele>88.39</ele>
        <time>2021-08-08T14:55:01Z</time>
      </trkpt>
      <trkpt lat="49.01514" lon="0.0443">
        <ele>88.65</ele>
        <time>2021-08-08T14:55:02Z</time>
      </trkpt>
      <trkpt lat="49.01511" lon="0.04431">
        <ele>88.88</ele>
        <time>2021-08-08T14:55:03Z</time>
      </trkpt>
      <trkpt lat="49.01509" lon="0.04431">
        <ele>89.09</ele>
        <time>2021-08-08T14:55:04Z</time>
      </trkpt>
      <trkpt lat="49.01507" lon="0.04432">
        <ele>89.31</ele>
        <time>2021-08-08T14:55:05Z</time>
      </trkpt>
      <trkpt lat="49.01504" lon="0.04432">
        <ele>89.55</ele>
        <time>2021-08-08T14:55:06Z</time>
      </trkpt>
      <trkpt lat="49.01501" lon="0.04432">
        <ele>89.78</ele>
        <time>2021-08-08T14:55:07Z</time>
      </trkpt>
      <trkpt lat="49.01499" lon="0.04433">
        <ele>90.12</ele>
        <time>2021-08-08T14:55:08Z</time>
      </trkpt>
      <trkpt lat="49.01496" lon="0.04433">
        <ele>90.56</ele>
        <time>2021-08-08T14:55:09Z</time>
      </trkpt>
      <trkpt lat="49.01494" lon="0.04433">
        <ele>91.03</ele>
        <time>2021-08-08T14:55:10Z</time>
      </trkpt>
      <trkpt lat="49.01492" lon="0.04434">
        <ele>91.44</ele>
        <time>2021-08-08T14:55:11Z</time>
      </trkpt>
      <trkpt lat="49.01489" lon="0.04435">
        <ele>91.87</ele>
        <time>2021-08-08T14:55:12Z</time>
      </trkpt>
      <trkpt lat="49.01487" lon="0.04435">
        <ele>92.33</ele>
        <time>2021-08-08T14:55:13Z</time>
      </trkpt>
      <trkpt lat="49.01484" lon="0.04436">
        <ele>92.8</ele>
        <time>2021-08-08T14:55:14Z</time>
      </trkpt>
      <trkpt lat="49.01482" lon="0.04436">
        <ele>93.25</ele>
        <time>2021-08-08T14:55:15Z</time>
      </trkpt>
      <trkpt lat="49.01479" lon="0.04436">
        <ele>93.72</ele>
        <time>2021-08-08T14:55:16Z</time>
      </trkpt>
      <trkpt lat="49.01477" lon="0.04435">
        <ele>94.19</ele>
        <time>2021-08-08T14:55:17Z</time>
      </trkpt>
      <trkpt lat="49.01475" lon="0.04434">
        <ele>94.59</ele>
        <time>2021-08-08T14:55:18Z</time>
      </trkpt>
      <trkpt lat="49.01473" lon="0.04434">
        <ele>95</ele>
        <time>2021-08-08T14:55:19Z</time>
      </trkpt>
      <trkpt lat="49.01471" lon="0.04433">
        <ele>95.41</ele>
        <time>2021-08-08T14:55:20Z</time>
      </trkpt>
      <trkpt lat="49.01469" lon="0.04433">
        <ele>95.85</ele>
        <time>2021-08-08T14:55:21Z</time>
      </trkpt>
      <trkpt lat="49.01467" lon="0.04433">
        <ele>96.35</ele>
        <time>2021-08-08T14:55:22Z</time>
      </trkpt>
      <trkpt lat="49.01465" lon="0.04432">
        <ele>96.76</ele>
        <time>2021-08-08T14:55:23Z</time>
      </trkpt>
      <trkpt lat="49.01464" lon="0.04432">
        <ele>97.12</ele>
        <time>2021-08-08T14:55:24Z</time>
      </trkpt>
      <trkpt lat="49.01463" lon="0.04431">
        <ele>97.45</ele>
        <time>2021-08-08T14:55:25Z</time>
      </trkpt>
      <trkpt lat="49.01461" lon="0.04431">
        <ele>97.77</ele>
        <time>2021-08-08T14:55:26Z</time>
      </trkpt>
      <trkpt lat="49.0146" lon="0.0443">
        <ele>98.06</ele>
        <time>2021-08-08T14:55:27Z</time>
      </trkpt>
      <trkpt lat="49.01459" lon="0.0443">
        <ele>98.3</ele>
        <time>2021-08-08T14:55:28Z</time>
      </trkpt>
      <trkpt lat="49.01457" lon="0.0443">
        <ele>98.58</ele>
        <time>2021-08-08T14:55:29Z</time>
      </trkpt>
      <trkpt lat="49.01456" lon="0.04429">
        <ele>98.89</ele>
        <time>2021-08-08T14:55:30Z</time>
      </trkpt>
      <trkpt lat="49.01455" lon="0.04427">
        <ele>99.27</ele>
        <time>2021-08-08T14:55:31Z</time>
      </trkpt>
      <trkpt lat="49.01453" lon="0.04426">
        <ele>99.59</ele>
        <time>2021-08-08T14:55:32Z</time>
      </trkpt>
      <trkpt lat="49.01452" lon="0.04425">
        <ele>99.91</ele>
        <time>2021-08-08T14:55:33Z</time>
      </trkpt>
      <trkpt lat="49.01451" lon="0.04423">
        <ele>100.16</ele>
        <time>2021-08-08T14:55:34Z</time>
      </trkpt>
      <trkpt lat="49.0145" lon="0.04423">
        <ele>100.45</ele>
        <time>2021-08-08T14:55:35Z</time>
      </trkpt>
      <trkpt lat="49.01449" lon="0.04422">
        <ele>100.72</ele>
        <time>2021-08-08T14:55:36Z</time>
      </trkpt>
      <trkpt lat="49.01448" lon="0.04421">
        <ele>100.96</ele>
        <time>2021-08-08T14:55:37Z</time>
      </trkpt>
      <trkpt lat="49.01447" lon="0.04421">
        <ele>101.2</ele>
        <time>2021-08-08T14:55:38Z</time>
      </trkpt>
      <trkpt lat="49.01445" lon="0.04419">
        <ele>101.58</ele>
        <time>2021-08-08T14:55:39Z</time>
      </trkpt>
      <trkpt lat="49.01443" lon="0.04418">
        <ele>101.95</ele>
        <time>2021-08-08T14:55:40Z</time>
      </trkpt>
      <trkpt lat="49.01442" lon="0.04418">
        <ele>102.24</ele>
        <time>2021-08-08T14:55:41Z</time>
      </trkpt>
      <trkpt lat="49.0144" lon="0.04417">
        <ele>102.52</ele>
        <time>2021-08-08T14:55:42Z</time>
      </trkpt>
      <trkpt lat="49.01438" lon="0.04417">
        <ele>102.76</ele>
        <time>2021-08-08T14:55:43Z</time>
      </trkpt>
      <trkpt lat="49.01437" lon="0.04416">
        <ele>102.97</ele>
        <time>2021-08-08T14:55:44Z</time>
      </trkpt>
      <trkpt lat="49.01436" lon="0.04415">
        <ele>103.12</ele>
        <time>2021-08-08T14:55:45Z</time>
      </trkpt>
      <trkpt lat="49.01434" lon="0.04414">
        <ele>103.32</ele>
        <time>2021-08-08T14:55:46Z</time>
      </trkpt>
      <trkpt lat="49.01432" lon="0.04414">
        <ele>103.54</ele>
        <time>2021-08-08T14:55:47Z</time>
      </trkpt>
      <trkpt lat="49.01431" lon="0.04414">
        <ele>103.79</ele>
        <time>2021-08-08T14:55:48Z</time>
      </trkpt>
      <trkpt lat="49.01429" lon="0.04414">
        <ele>104.01</ele>
        <time>2021-08-08T14:55:49Z</time>
      </trkpt>
      <trkpt lat="49.01427" lon="0.04414">
        <ele>104.27</ele>
        <time>2021-08-08T14:55:50Z</time>
      </trkpt>
      <trkpt lat="49.01426" lon="0.04414">
        <ele>104.47</ele>
        <time>2021-08-08T14:55:51Z</time>
      </trkpt>
      <trkpt lat="49.01425" lon="0.04415">
        <ele>104.65</ele>
        <time>2021-08-08T14:55:52Z</time>
      </trkpt>
      <trkpt lat="49.01424" lon="0.04414">
        <ele>104.84</ele>
        <time>2021-08-08T14:55:53Z</time>
      </trkpt>
      <trkpt lat="49.01422" lon="0.04413">
        <ele>105.09</ele>
        <time>2021-08-08T14:55:54Z</time>
      </trkpt>
      <trkpt lat="49.0142" lon="0.04411">
        <ele>105.32</ele>
        <time>2021-08-08T14:55:55Z</time>
      </trkpt>
      <trkpt lat="49.01419" lon="0.0441">
        <ele>105.57</ele>
        <time>2021-08-08T14:55:56Z</time>
      </trkpt>
      <trkpt lat="49.01417" lon="0.0441">
        <ele>105.87</ele>
        <time>2021-08-08T14:55:57Z</time>
      </trkpt>
      <trkpt lat="49.01415" lon="0.0441">
        <ele>106.15</ele>
        <time>2021-08-08T14:55:58Z</time>
      </trkpt>
      <trkpt lat="49.01413" lon="0.04409">
        <ele>106.45</ele>
        <time>2021-08-08T14:55:59Z</time>
      </trkpt>
      <trkpt lat="49.01411" lon="0.04409">
        <ele>106.72</ele>
        <time>2021-08-08T14:56:00Z</time>
      </trkpt>
      <trkpt lat="49.01409" lon="0.04408">
        <ele>106.97</ele>
        <time>2021-08-08T14:56:01Z</time>
      </trkpt>
      <trkpt lat="49.01407" lon="0.04408">
        <ele>107.23</ele>
        <time>2021-08-08T14:56:02Z</time>
      </trkpt>
      <trkpt lat="49.01406" lon="0.04407">
        <ele>107.5</ele>
        <time>2021-08-08T14:56:03Z</time>
      </trkpt>
      <trkpt lat="49.01404" lon="0.04408">
        <ele>107.78</ele>
        <time>2021-08-08T14:56:04Z</time>
      </trkpt>
      <trkpt lat="49.01402" lon="0.04407">
        <ele>108.01</ele>
        <time>2021-08-08T14:56:05Z</time>
      </trkpt>
      <trkpt lat="49.01401" lon="0.04405">
        <ele>108.2</ele>
        <time>2021-08-08T14:56:06Z</time>
      </trkpt>
      <trkpt lat="49.014" lon="0.04404">
        <ele>108.37</ele>
        <time>2021-08-08T14:56:07Z</time>
      </trkpt>
      <trkpt lat="49.01398" lon="0.04404">
        <ele>108.56</ele>
        <time>2021-08-08T14:56:08Z</time>
      </trkpt>
      <trkpt lat="49.01397" lon="0.04403">
        <ele>108.8</ele>
        <time>2021-08-08T14:56:09Z</time>
      </trkpt>
      <trkpt lat="49.01394" lon="0.04403">
        <ele>109.09</ele>
        <time>2021-08-08T14:56:10Z</time>
      </trkpt>
      <trkpt lat="49.01392" lon="0.04403">
        <ele>109.4</ele>
        <time>2021-08-08T14:56:11Z</time>
      </trkpt>
      <trkpt lat="49.0139" lon="0.04402">
        <ele>109.67</ele>
        <time>2021-08-08T14:56:12Z</time>
      </trkpt>
      <trkpt lat="49.01388" lon="0.04402">
        <ele>109.96</ele>
        <time>2021-08-08T14:56:13Z</time>
      </trkpt>
      <trkpt lat="49.01386" lon="0.04401">
        <ele>110.25</ele>
        <time>2021-08-08T14:56:14Z</time>
      </trkpt>
      <trkpt lat="49.01384" lon="0.044">
        <ele>110.55</ele>
        <time>2021-08-08T14:56:15Z</time>
      </trkpt>
      <trkpt lat="49.01383" lon="0.044">
        <ele>110.79</ele>
        <time>2021-08-08T14:56:16Z</time>
      </trkpt>
      <trkpt lat="49.01382" lon="0.044">
        <ele>110.97</ele>
        <time>2021-08-08T14:56:17Z</time>
      </trkpt>
      <trkpt lat="49.01381" lon="0.04401">
        <ele>111.12</ele>
        <time>2021-08-08T14:56:18Z</time>
      </trkpt>
      <trkpt lat="49.01379" lon="0.04401">
        <ele>111.3</ele>
        <time>2021-08-08T14:56:19Z</time>
      </trkpt>
      <trkpt lat="49.01377" lon="0.04401">
        <ele>111.6</ele>
        <time>2021-08-08T14:56:20Z</time>
      </trkpt>
      <trkpt lat="49.01375" lon="0.04402">
        <ele>111.9</ele>
        <time>2021-08-08T14:56:21Z</time>
      </trkpt>
      <trkpt lat="49.01373" lon="0.04403">
        <ele>112.15</ele>
        <time>2021-08-08T14:56:22Z</time>
      </trkpt>
      <trkpt lat="49.01372" lon="0.04403">
        <ele>112.38</ele>
        <time>2021-08-08T14:56:23Z</time>
      </trkpt>
      <trkpt lat="49.01369" lon="0.04403">
        <ele>112.69</ele>
        <time>2021-08-08T14:56:24Z</time>
      </trkpt>
      <trkpt lat="49.01367" lon="0.04403">
        <ele>113</ele>
        <time>2021-08-08T14:56:25Z</time>
      </trkpt>
      <trkpt lat="49.01365" lon="0.04403">
        <ele>113.26</ele>
        <time>2021-08-08T14:56:26Z</time>
      </trkpt>
      <trkpt lat="49.01364" lon="0.04402">
        <ele>113.49</ele>
        <time>2021-08-08T14:56:27Z</time>
      </trkpt>
      <trkpt lat="49.01362" lon="0.04401">
        <ele>113.76</ele>
        <time>2021-08-08T14:56:28Z</time>
      </trkpt>
      <trkpt lat="49.0136" lon="0.044">
        <ele>114.01</ele>
        <time>2021-08-08T14:56:29Z</time>
      </trkpt>
      <trkpt lat="49.01358" lon="0.044">
        <ele>114.23</ele>
        <time>2021-08-08T14:56:30Z</time>
      </trkpt>
      <trkpt lat="49.01356" lon="0.044">
        <ele>114.43</ele>
        <time>2021-08-08T14:56:31Z</time>
      </trkpt>
      <trkpt lat="49.01354" lon="0.04399">
        <ele>114.65</ele>
        <time>2021-08-08T14:56:32Z</time>
      </trkpt>
      <trkpt lat="49.01352" lon="0.04397">
        <ele>114.86</ele>
        <time>2021-08-08T14:56:33Z</time>
      </trkpt>
      <trkpt lat="49.01351" lon="0.04397">
        <ele>115.05</ele>
        <time>2021-08-08T14:56:34Z</time>
      </trkpt>
      <trkpt lat="49.01349" lon="0.04396">
        <ele>115.23</ele>
        <time>2021-08-08T14:56:35Z</time>
      </trkpt>
      <trkpt lat="49.01347" lon="0.04396">
        <ele>115.42</ele>
        <time>2021-08-08T14:56:36Z</time>
      </trkpt>
      <trkpt lat="49.01345" lon="0.04395">
        <ele>115.64</ele>
        <time>2021-08-08T14:56:37Z</time>
      </trkpt>
      <trkpt lat="49.01343" lon="0.04394">
        <ele>115.88</ele>
        <time>2021-08-08T14:56:38Z</time>
      </trkpt>
      <trkpt lat="49.01341" lon="0.04395">
        <ele>116.11</ele>
        <time>2021-08-08T14:56:39Z</time>
      </trkpt>
      <trkpt lat="49.01338" lon="0.04395">
        <ele>116.35</ele>
        <time>2021-08-08T14:56:40Z</time>
      </trkpt>
      <trkpt lat="49.01336" lon="0.04395">
        <ele>116.6</ele>
        <time>2021-08-08T14:56:41Z</time>
      </trkpt>
      <trkpt lat="49.01333" lon="0.04396">
        <ele>116.9</ele>
        <time>2021-08-08T14:56:42Z</time>
      </trkpt>
      <trkpt lat="49.01331" lon="0.04396">
        <ele>117.22</ele>
        <time>2021-08-08T14:56:43Z</time>
      </trkpt>
      <trkpt lat="49.01328" lon="0.04397">
        <ele>117.52</ele>
        <time>2021-08-08T14:56:44Z</time>
      </trkpt>
      <trkpt lat="49.01326" lon="0.04397">
        <ele>117.8</ele>
        <time>2021-08-08T14:56:45Z</time>
      </trkpt>
      <trkpt lat="49.01324" lon="0.04397">
        <ele>118.08</ele>
        <time>2021-08-08T14:56:46Z</time>
      </trkpt>
      <trkpt lat="49.01322" lon="0.04398">
        <ele>118.36</ele>
        <time>2021-08-08T14:56:47Z</time>
      </trkpt>
      <trkpt lat="49.01321" lon="0.04398">
        <ele>118.6</ele>
        <time>2021-08-08T14:56:48Z</time>
      </trkpt>
      <trkpt lat="49.01318" lon="0.04398">
        <ele>118.85</ele>
        <time>2021-08-08T14:56:49Z</time>
      </trkpt>
      <trkpt lat="49.01316" lon="0.04398">
        <ele>119.14</ele>
        <time>2021-08-08T14:56:50Z</time>
      </trkpt>
      <trkpt lat="49.01314" lon="0.04398">
        <ele>119.41</ele>
        <time>2021-08-08T14:56:51Z</time>
      </trkpt>
      <trkpt lat="49.01312" lon="0.04397">
        <ele>119.74</ele>
        <time>2021-08-08T14:56:52Z</time>
      </trkpt>
      <trkpt lat="49.01309" lon="0.04396">
        <ele>120.09</ele>
        <time>2021-08-08T14:56:53Z</time>
      </trkpt>
      <trkpt lat="49.01307" lon="0.04395">
        <ele>120.43</ele>
        <time>2021-08-08T14:56:54Z</time>
      </trkpt>
      <trkpt lat="49.01305" lon="0.04394">
        <ele>120.75</ele>
        <time>2021-08-08T14:56:55Z</time>
      </trkpt>
      <trkpt lat="49.01303" lon="0.04392">
        <ele>121.02</ele>
        <time>2021-08-08T14:56:56Z</time>
      </trkpt>
      <trkpt lat="49.01301" lon="0.04392">
        <ele>121.28</ele>
        <time>2021-08-08T14:56:57Z</time>
      </trkpt>
      <trkpt lat="49.01299" lon="0.04392">
        <ele>121.51</ele>
        <time>2021-08-08T14:56:58Z</time>
      </trkpt>
      <trkpt lat="49.01296" lon="0.04391">
        <ele>121.78</ele>
        <time>2021-08-08T14:56:59Z</time>
      </trkpt>
      <trkpt lat="49.01294" lon="0.04391">
        <ele>122.05</ele>
        <time>2021-08-08T14:57:00Z</time>
      </trkpt>
      <trkpt lat="49.01291" lon="0.04391">
        <ele>122.32</ele>
        <time>2021-08-08T14:57:01Z</time>
      </trkpt>
      <trkpt lat="49.01289" lon="0.0439">
        <ele>122.58</ele>
        <time>2021-08-08T14:57:02Z</time>
      </trkpt>
      <trkpt lat="49.01287" lon="0.0439">
        <ele>122.84</ele>
        <time>2021-08-08T14:57:03Z</time>
      </trkpt>
      <trkpt lat="49.01285" lon="0.0439">
        <ele>123.05</ele>
        <time>2021-08-08T14:57:04Z</time>
      </trkpt>
      <trkpt lat="49.01283" lon="0.04391">
        <ele>123.25</ele>
        <time>2021-08-08T14:57:05Z</time>
      </trkpt>
      <trkpt lat="49.0128" lon="0.0439">
        <ele>123.52</ele>
        <time>2021-08-08T14:57:06Z</time>
      </trkpt>
      <trkpt lat="49.01278" lon="0.0439">
        <ele>123.78</ele>
        <time>2021-08-08T14:57:07Z</time>
      </trkpt>
      <trkpt lat="49.01276" lon="0.0439">
        <ele>123.96</ele>
        <time>2021-08-08T14:57:08Z</time>
      </trkpt>
      <trkpt lat="49.01273" lon="0.04391">
        <ele>124.13</ele>
        <time>2021-08-08T14:57:09Z</time>
      </trkpt>
      <trkpt lat="49.01271" lon="0.04391">
        <ele>124.26</ele>
        <time>2021-08-08T14:57:10Z</time>
      </trkpt>
      <trkpt lat="49.01269" lon="0.04392">
        <ele>124.39</ele>
        <time>2021-08-08T14:57:11Z</time>
      </trkpt>
      <trkpt lat="49.01267" lon="0.04392">
        <ele>124.52</ele>
        <time>2021-08-08T14:57:12Z</time>
      </trkpt>
      <trkpt lat="49.01265" lon="0.04392">
        <ele>124.65</ele>
        <time>2021-08-08T14:57:13Z</time>
      </trkpt>
      <trkpt lat="49.01263" lon="0.04392">
        <ele>124.79</ele>
        <time>2021-08-08T14:57:14Z</time>
      </trkpt>
      <trkpt lat="49.01262" lon="0.04392">
        <ele>124.94</ele>
        <time>2021-08-08T14:57:15Z</time>
      </trkpt>
      <trkpt lat="49.01259" lon="0.04392">
        <ele>125.1</ele>
        <time>2021-08-08T14:57:16Z</time>
      </trkpt>
      <trkpt lat="49.01257" lon="0.04393">
        <ele>125.24</ele>
        <time>2021-08-08T14:57:17Z</time>
      </trkpt>
      <trkpt lat="49.01255" lon="0.04393">
        <ele>125.39</ele>
        <time>2021-08-08T14:57:18Z</time>
      </trkpt>
      <trkpt lat="49.01253" lon="0.04393">
        <ele>125.55</ele>
        <time>2021-08-08T14:57:19Z</time>
      </trkpt>
      <trkpt lat="49.01251" lon="0.04393">
        <ele>125.71</ele>
        <time>2021-08-08T14:57:20Z</time>
      </trkpt>
      <trkpt lat="49.01249" lon="0.04393">
        <ele>125.91</ele>
        <time>2021-08-08T14:57:21Z</time>
      </trkpt>
      <trkpt lat="49.01246" lon="0.04393">
        <ele>126.12</ele>
        <time>2021-08-08T14:57:22Z</time>
      </trkpt>
      <trkpt lat="49.01244" lon="0.04393">
        <ele>126.36</ele>
        <time>2021-08-08T14:57:23Z</time>
      </trkpt>
      <trkpt lat="49.01242" lon="0.04392">
        <ele>126.61</ele>
        <time>2021-08-08T14:57:24Z</time>
      </trkpt>
      <trkpt lat="49.0124" lon="0.04392">
        <ele>126.87</ele>
        <time>2021-08-08T14:57:25Z</time>
      </trkpt>
      <trkpt lat="49.01238" lon="0.04392">
        <ele>127.09</ele>
        <time>2021-08-08T14:57:26Z</time>
      </trkpt>
      <trkpt lat="49.01235" lon="0.04392">
        <ele>127.33</ele>
        <time>2021-08-08T14:57:27Z</time>
      </trkpt>
      <trkpt lat="49.01233" lon="0.04393">
        <ele>127.54</ele>
        <time>2021-08-08T14:57:28Z</time>
      </trkpt>
      <trkpt lat="49.01231" lon="0.04393">
        <ele>127.75</ele>
        <time>2021-08-08T14:57:29Z</time>
      </trkpt>
      <trkpt lat="49.01228" lon="0.04393">
        <ele>127.99</ele>
        <time>2021-08-08T14:57:30Z</time>
      </trkpt>
      <trkpt lat="49.01226" lon="0.04393">
        <ele>128.26</ele>
        <time>2021-08-08T14:57:31Z</time>
      </trkpt>
      <trkpt lat="49.01224" lon="0.04391">
        <ele>128.54</ele>
        <time>2021-08-08T14:57:32Z</time>
      </trkpt>
      <trkpt lat="49.01221" lon="0.0439">
        <ele>128.86</ele>
        <time>2021-08-08T14:57:33Z</time>
      </trkpt>
      <trkpt lat="49.01218" lon="0.04389">
        <ele>129.15</ele>
        <time>2021-08-08T14:57:34Z</time>
      </trkpt>
      <trkpt lat="49.01216" lon="0.04388">
        <ele>129.39</ele>
        <time>2021-08-08T14:57:35Z</time>
      </trkpt>
      <trkpt lat="49.01214" lon="0.04387">
        <ele>129.61</ele>
        <time>2021-08-08T14:57:36Z</time>
      </trkpt>
      <trkpt lat="49.01213" lon="0.04387">
        <ele>129.77</ele>
        <time>2021-08-08T14:57:37Z</time>
      </trkpt>
      <trkpt lat="49.01211" lon="0.04387">
        <ele>129.91</ele>
        <time>2021-08-08T14:57:38Z</time>
      </trkpt>
      <trkpt lat="49.0121" lon="0.04386">
        <ele>130.03</ele>
        <time>2021-08-08T14:57:39Z</time>
      </trkpt>
      <trkpt lat="49.01208" lon="0.04385">
        <ele>130.2</ele>
        <time>2021-08-08T14:57:40Z</time>
      </trkpt>
      <trkpt lat="49.01207" lon="0.04384">
        <ele>130.37</ele>
        <time>2021-08-08T14:57:41Z</time>
      </trkpt>
      <trkpt lat="49.01206" lon="0.04383">
        <ele>130.54</ele>
        <time>2021-08-08T14:57:42Z</time>
      </trkpt>
      <trkpt lat="49.01204" lon="0.04382">
        <ele>130.75</ele>
        <time>2021-08-08T14:57:43Z</time>
      </trkpt>
      <trkpt lat="49.01203" lon="0.04381">
        <ele>130.91</ele>
        <time>2021-08-08T14:57:44Z</time>
      </trkpt>
      <trkpt lat="49.012" lon="0.04381">
        <ele>131.06</ele>
        <time>2021-08-08T14:57:45Z</time>
      </trkpt>
      <trkpt lat="49.01198" lon="0.04382">
        <ele>131.19</ele>
        <time>2021-08-08T14:57:46Z</time>
      </trkpt>
      <trkpt lat="49.01197" lon="0.04381">
        <ele>131.32</ele>
        <time>2021-08-08T14:57:47Z</time>
      </trkpt>
      <trkpt lat="49.01194" lon="0.04381">
        <ele>131.5</ele>
        <time>2021-08-08T14:57:48Z</time>
      </trkpt>
      <trkpt lat="49.01193" lon="0.0438">
        <ele>131.67</ele>
        <time>2021-08-08T14:57:49Z</time>
      </trkpt>
      <trkpt lat="49.0119" lon="0.0438">
        <ele>131.87</ele>
        <time>2021-08-08T14:57:50Z</time>
      </trkpt>
      <trkpt lat="49.01188" lon="0.04378">
        <ele>132.11</ele>
        <time>2021-08-08T14:57:51Z</time>
      </trkpt>
      <trkpt lat="49.01186" lon="0.04377">
        <ele>132.34</ele>
        <time>2021-08-08T14:57:52Z</time>
      </trkpt>
      <trkpt lat="49.01184" lon="0.04377">
        <ele>132.56</ele>
        <time>2021-08-08T14:57:53Z</time>
      </trkpt>
      <trkpt lat="49.01181" lon="0.04375">
        <ele>132.8</ele>
        <time>2021-08-08T14:57:54Z</time>
      </trkpt>
      <trkpt lat="49.0118" lon="0.04374">
        <ele>133.02</ele>
        <time>2021-08-08T14:57:55Z</time>
      </trkpt>
      <trkpt lat="49.01177" lon="0.04374">
        <ele>133.25</ele>
        <time>2021-08-08T14:57:56Z</time>
      </trkpt>
      <trkpt lat="49.01175" lon="0.04373">
        <ele>133.45</ele>
        <time>2021-08-08T14:57:57Z</time>
      </trkpt>
      <trkpt lat="49.01173" lon="0.04373">
        <ele>133.62</ele>
        <time>2021-08-08T14:57:58Z</time>
      </trkpt>
      <trkpt lat="49.01171" lon="0.04373">
        <ele>133.78</ele>
        <time>2021-08-08T14:57:59Z</time>
      </trkpt>
      <trkpt lat="49.01168" lon="0.04374">
        <ele>133.93</ele>
        <time>2021-08-08T14:58:00Z</time>
      </trkpt>
      <trkpt lat="49.01167" lon="0.04374">
        <ele>134.06</ele>
        <time>2021-08-08T14:58:01Z</time>
      </trkpt>
      <trkpt lat="49.01165" lon="0.04374">
        <ele>134.11</ele>
        <time>2021-08-08T14:58:02Z</time>
      </trkpt>
      <trkpt lat="49.01162" lon="0.04375">
        <ele>134.14</ele>
        <time>2021-08-08T14:58:03Z</time>
      </trkpt>
      <trkpt lat="49.0116" lon="0.04376">
        <ele>134.17</ele>
        <time>2021-08-08T14:58:04Z</time>
      </trkpt>
      <trkpt lat="49.01157" lon="0.04377">
        <ele>134.2</ele>
        <time>2021-08-08T14:58:05Z</time>
      </trkpt>
      <trkpt lat="49.01155" lon="0.04377">
        <ele>134.22</ele>
        <time>2021-08-08T14:58:06Z</time>
      </trkpt>
      <trkpt lat="49.01153" lon="0.04378">
        <ele>134.28</ele>
        <time>2021-08-08T14:58:07Z</time>
      </trkpt>
      <trkpt lat="49.01149" lon="0.04376">
        <ele>134.45</ele>
        <time>2021-08-08T14:58:08Z</time>
      </trkpt>
      <trkpt lat="49.01147" lon="0.04375">
        <ele>134.62</ele>
        <time>2021-08-08T14:58:09Z</time>
      </trkpt>
      <trkpt lat="49.01144" lon="0.04376">
        <ele>134.72</ele>
        <time>2021-08-08T14:58:10Z</time>
      </trkpt>
      <trkpt lat="49.01141" lon="0.04376">
        <ele>134.82</ele>
        <time>2021-08-08T14:58:11Z</time>
      </trkpt>
      <trkpt lat="49.01137" lon="0.04376">
        <ele>134.93</ele>
        <time>2021-08-08T14:58:12Z</time>
      </trkpt>
      <trkpt lat="49.01134" lon="0.04375">
        <ele>135.02</ele>
        <time>2021-08-08T14:58:13Z</time>
      </trkpt>
      <trkpt lat="49.01131" lon="0.04375">
        <ele>135.11</ele>
        <time>2021-08-08T14:58:14Z</time>
      </trkpt>
      <trkpt lat="49.01128" lon="0.04375">
        <ele>135.18</ele>
        <time>2021-08-08T14:58:15Z</time>
      </trkpt>
      <trkpt lat="49.01125" lon="0.04376">
        <ele>135.19</ele>
        <time>2021-08-08T14:58:16Z</time>
      </trkpt>
      <trkpt lat="49.01121" lon="0.04375">
        <ele>135.26</ele>
        <time>2021-08-08T14:58:17Z</time>
      </trkpt>
      <trkpt lat="49.01118" lon="0.04375">
        <ele>135.32</ele>
        <time>2021-08-08T14:58:18Z</time>
      </trkpt>
      <trkpt lat="49.01116" lon="0.04375">
        <ele>135.37</ele>
        <time>2021-08-08T14:58:19Z</time>
      </trkpt>
      <trkpt lat="49.01113" lon="0.04375">
        <ele>135.44</ele>
        <time>2021-08-08T14:58:20Z</time>
      </trkpt>
      <trkpt lat="49.0111" lon="0.04375">
        <ele>135.54</ele>
        <time>2021-08-08T14:58:21Z</time>
      </trkpt>
      <trkpt lat="49.01106" lon="0.04374">
        <ele>135.72</ele>
        <time>2021-08-08T14:58:22Z</time>
      </trkpt>
      <trkpt lat="49.01103" lon="0.04374">
        <ele>135.83</ele>
        <time>2021-08-08T14:58:23Z</time>
      </trkpt>
      <trkpt lat="49.01099" lon="0.04374">
        <ele>136</ele>
        <time>2021-08-08T14:58:24Z</time>
      </trkpt>
      <trkpt lat="49.01096" lon="0.04373">
        <ele>136.21</ele>
        <time>2021-08-08T14:58:25Z</time>
      </trkpt>
      <trkpt lat="49.01092" lon="0.04371">
        <ele>136.48</ele>
        <time>2021-08-08T14:58:26Z</time>
      </trkpt>
      <trkpt lat="49.01088" lon="0.0437">
        <ele>136.74</ele>
        <time>2021-08-08T14:58:27Z</time>
      </trkpt>
      <trkpt lat="49.01084" lon="0.0437">
        <ele>136.93</ele>
        <time>2021-08-08T14:58:28Z</time>
      </trkpt>
      <trkpt lat="49.01081" lon="0.0437">
        <ele>137.08</ele>
        <time>2021-08-08T14:58:29Z</time>
      </trkpt>
      <trkpt lat="49.01078" lon="0.0437">
        <ele>137.19</ele>
        <time>2021-08-08T14:58:30Z</time>
      </trkpt>
      <trkpt lat="49.01076" lon="0.0437">
        <ele>137.3</ele>
        <time>2021-08-08T14:58:31Z</time>
      </trkpt>
      <trkpt lat="49.01074" lon="0.04368">
        <ele>137.48</ele>
        <time>2021-08-08T14:58:32Z</time>
      </trkpt>
      <trkpt lat="49.01072" lon="0.04368">
        <ele>137.64</ele>
        <time>2021-08-08T14:58:33Z</time>
      </trkpt>
      <trkpt lat="49.01069" lon="0.04367">
        <ele>137.79</ele>
        <time>2021-08-08T14:58:34Z</time>
      </trkpt>
      <trkpt lat="49.01066" lon="0.04366">
        <ele>137.99</ele>
        <time>2021-08-08T14:58:35Z</time>
      </trkpt>
      <trkpt lat="49.01064" lon="0.04366">
        <ele>138.11</ele>
        <time>2021-08-08T14:58:36Z</time>
      </trkpt>
      <trkpt lat="49.01061" lon="0.04366">
        <ele>138.22</ele>
        <time>2021-08-08T14:58:37Z</time>
      </trkpt>
      <trkpt lat="49.01057" lon="0.04365">
        <ele>138.39</ele>
        <time>2021-08-08T14:58:38Z</time>
      </trkpt>
      <trkpt lat="49.01054" lon="0.04365">
        <ele>138.6</ele>
        <time>2021-08-08T14:58:39Z</time>
      </trkpt>
      <trkpt lat="49.01051" lon="0.04364">
        <ele>138.83</ele>
        <time>2021-08-08T14:58:40Z</time>
      </trkpt>
      <trkpt lat="49.01049" lon="0.04364">
        <ele>139.03</ele>
        <time>2021-08-08T14:58:41Z</time>
      </trkpt>
      <trkpt lat="49.01046" lon="0.04364">
        <ele>139.22</ele>
        <time>2021-08-08T14:58:42Z</time>
      </trkpt>
      <trkpt lat="49.01044" lon="0.04365">
        <ele>139.34</ele>
        <time>2021-08-08T14:58:43Z</time>
      </trkpt>
      <trkpt lat="49.01041" lon="0.04365">
        <ele>139.52</ele>
        <time>2021-08-08T14:58:44Z</time>
      </trkpt>
      <trkpt lat="49.01036" lon="0.04365">
        <ele>139.79</ele>
        <time>2021-08-08T14:58:45Z</time>
      </trkpt>
      <trkpt lat="49.01033" lon="0.04364">
        <ele>140.05</ele>
        <time>2021-08-08T14:58:46Z</time>
      </trkpt>
      <trkpt lat="49.0103" lon="0.04365">
        <ele>140.25</ele>
        <time>2021-08-08T14:58:47Z</time>
      </trkpt>
      <trkpt lat="49.01026" lon="0.04365">
        <ele>140.53</ele>
        <time>2021-08-08T14:58:48Z</time>
      </trkpt>
      <trkpt lat="49.01023" lon="0.04363">
        <ele>141.13</ele>
        <time>2021-08-08T14:58:49Z</time>
      </trkpt>
      <trkpt lat="49.0102" lon="0.04363">
        <ele>141.7</ele>
        <time>2021-08-08T14:58:50Z</time>
      </trkpt>
      <trkpt lat="49.01017" lon="0.04362">
        <ele>142.22</ele>
        <time>2021-08-08T14:58:51Z</time>
      </trkpt>
      <trkpt lat="49.01014" lon="0.04361">
        <ele>142.7</ele>
        <time>2021-08-08T14:58:52Z</time>
      </trkpt>
      <trkpt lat="49.01012" lon="0.04361">
        <ele>143.09</ele>
        <time>2021-08-08T14:58:53Z</time>
      </trkpt>
      <trkpt lat="49.01009" lon="0.04361">
        <ele>143.52</ele>
        <time>2021-08-08T14:58:54Z</time>
      </trkpt>
      <trkpt lat="49.01007" lon="0.04361">
        <ele>143.9</ele>
        <time>2021-08-08T14:58:55Z</time>
      </trkpt>
      <trkpt lat="49.01004" lon="0.04361">
        <ele>144.23</ele>
        <time>2021-08-08T14:58:56Z</time>
      </trkpt>
      <trkpt lat="49.01002" lon="0.04361">
        <ele>144.56</ele>
        <time>2021-08-08T14:58:57Z</time>
      </trkpt>
      <trkpt lat="49.01" lon="0.0436">
        <ele>144.9</ele>
        <time>2021-08-08T14:58:58Z</time>
      </trkpt>
      <trkpt lat="49.00999" lon="0.04358">
        <ele>145.33</ele>
        <time>2021-08-08T14:58:59Z</time>
      </trkpt>
      <trkpt lat="49.00997" lon="0.04359">
        <ele>145.58</ele>
        <time>2021-08-08T14:59:00Z</time>
      </trkpt>
      <trkpt lat="49.00995" lon="0.0436">
        <ele>145.8</ele>
        <time>2021-08-08T14:59:01Z</time>
      </trkpt>
      <trkpt lat="49.00992" lon="0.04359">
        <ele>146.19</ele>
        <time>2021-08-08T14:59:02Z</time>
      </trkpt>
      <trkpt lat="49.00991" lon="0.04358">
        <ele>146.5</ele>
        <time>2021-08-08T14:59:03Z</time>
      </trkpt>
      <trkpt lat="49.00989" lon="0.04357">
        <ele>146.93</ele>
        <time>2021-08-08T14:59:04Z</time>
      </trkpt>
      <trkpt lat="49.00986" lon="0.04355">
        <ele>147.42</ele>
        <time>2021-08-08T14:59:05Z</time>
      </trkpt>
      <trkpt lat="49.00984" lon="0.04354">
        <ele>147.93</ele>
        <time>2021-08-08T14:59:06Z</time>
      </trkpt>
      <trkpt lat="49.00981" lon="0.04353">
        <ele>148.39</ele>
        <time>2021-08-08T14:59:07Z</time>
      </trkpt>
      <trkpt lat="49.00979" lon="0.04352">
        <ele>148.83</ele>
        <time>2021-08-08T14:59:08Z</time>
      </trkpt>
      <trkpt lat="49.00977" lon="0.04351">
        <ele>149.23</ele>
        <time>2021-08-08T14:59:09Z</time>
      </trkpt>
      <trkpt lat="49.00974" lon="0.04351">
        <ele>149.62</ele>
        <time>2021-08-08T14:59:10Z</time>
      </trkpt>
      <trkpt lat="49.00973" lon="0.04352">
        <ele>149.87</ele>
        <time>2021-08-08T14:59:11Z</time>
      </trkpt>
      <trkpt lat="49.00971" lon="0.04352">
        <ele>150.02</ele>
        <time>2021-08-08T14:59:12Z</time>
      </trkpt>
      <trkpt lat="49.0097" lon="0.04353">
        <ele>150.09</ele>
        <time>2021-08-08T14:59:13Z</time>
      </trkpt>
      <trkpt lat="49.00969" lon="0.04354">
        <ele>150.13</ele>
        <time>2021-08-08T14:59:14Z</time>
      </trkpt>
      <trkpt lat="49.00968" lon="0.04354">
        <ele>150.23</ele>
        <time>2021-08-08T14:59:15Z</time>
      </trkpt>
      <trkpt lat="49.00966" lon="0.04354">
        <ele>150.4</ele>
        <time>2021-08-08T14:59:16Z</time>
      </trkpt>
      <trkpt lat="49.00964" lon="0.04354">
        <ele>150.62</ele>
        <time>2021-08-08T14:59:17Z</time>
      </trkpt>
      <trkpt lat="49.00963" lon="0.04354">
        <ele>150.78</ele>
        <time>2021-08-08T14:59:18Z</time>
      </trkpt>
      <trkpt lat="49.00961" lon="0.04354">
        <ele>150.87</ele>
        <time>2021-08-08T14:59:19Z</time>
      </trkpt>
      <trkpt lat="49.00959" lon="0.04355">
        <ele>151.04</ele>
        <time>2021-08-08T14:59:20Z</time>
      </trkpt>
      <trkpt lat="49.00957" lon="0.04355">
        <ele>151.2</ele>
        <time>2021-08-08T14:59:21Z</time>
      </trkpt>
      <trkpt lat="49.00955" lon="0.04356">
        <ele>151.36</ele>
        <time>2021-08-08T14:59:22Z</time>
      </trkpt>
      <trkpt lat="49.00953" lon="0.04357">
        <ele>151.5</ele>
        <time>2021-08-08T14:59:23Z</time>
      </trkpt>
      <trkpt lat="49.00952" lon="0.04357">
        <ele>151.61</ele>
        <time>2021-08-08T14:59:24Z</time>
      </trkpt>
      <trkpt lat="49.0095" lon="0.04358">
        <ele>151.69</ele>
        <time>2021-08-08T14:59:25Z</time>
      </trkpt>
      <trkpt lat="49.00949" lon="0.04358">
        <ele>151.82</ele>
        <time>2021-08-08T14:59:26Z</time>
      </trkpt>
      <trkpt lat="49.00947" lon="0.04358">
        <ele>152</ele>
        <time>2021-08-08T14:59:27Z</time>
      </trkpt>
      <trkpt lat="49.00945" lon="0.04358">
        <ele>152.13</ele>
        <time>2021-08-08T14:59:28Z</time>
      </trkpt>
      <trkpt lat="49.00944" lon="0.04359">
        <ele>152.25</ele>
        <time>2021-08-08T14:59:29Z</time>
      </trkpt>
      <trkpt lat="49.00942" lon="0.0436">
        <ele>152.37</ele>
        <time>2021-08-08T14:59:30Z</time>
      </trkpt>
      <trkpt lat="49.0094" lon="0.04361">
        <ele>152.56</ele>
        <time>2021-08-08T14:59:31Z</time>
      </trkpt>
      <trkpt lat="49.00938" lon="0.04362">
        <ele>152.82</ele>
        <time>2021-08-08T14:59:32Z</time>
      </trkpt>
      <trkpt lat="49.00936" lon="0.04362">
        <ele>153.04</ele>
        <time>2021-08-08T14:59:33Z</time>
      </trkpt>
      <trkpt lat="49.00934" lon="0.04362">
        <ele>153.28</ele>
        <time>2021-08-08T14:59:34Z</time>
      </trkpt>
      <trkpt lat="49.00934" lon="0.04361">
        <ele>153.48</ele>
        <time>2021-08-08T14:59:35Z</time>
      </trkpt>
      <trkpt lat="49.00932" lon="0.04361">
        <ele>153.67</ele>
        <time>2021-08-08T14:59:36Z</time>
      </trkpt>
      <trkpt lat="49.00931" lon="0.04362">
        <ele>153.81</ele>
        <time>2021-08-08T14:59:37Z</time>
      </trkpt>
      <trkpt lat="49.0093" lon="0.04362">
        <ele>153.99</ele>
        <time>2021-08-08T14:59:38Z</time>
      </trkpt>
      <trkpt lat="49.00928" lon="0.04362">
        <ele>154.17</ele>
        <time>2021-08-08T14:59:39Z</time>
      </trkpt>
      <trkpt lat="49.00927" lon="0.04361">
        <ele>154.44</ele>
        <time>2021-08-08T14:59:40Z</time>
      </trkpt>
      <trkpt lat="49.00925" lon="0.04361">
        <ele>154.68</ele>
        <time>2021-08-08T14:59:41Z</time>
      </trkpt>
      <trkpt lat="49.00924" lon="0.04361">
        <ele>154.89</ele>
        <time>2021-08-08T14:59:42Z</time>
      </trkpt>
      <trkpt lat="49.00923" lon="0.04361">
        <ele>155.09</ele>
        <time>2021-08-08T14:59:43Z</time>
      </trkpt>
      <trkpt lat="49.00921" lon="0.04361">
        <ele>155.26</ele>
        <time>2021-08-08T14:59:44Z</time>
      </trkpt>
      <trkpt lat="49.0092" lon="0.04362">
        <ele>155.4</ele>
        <time>2021-08-08T14:59:45Z</time>
      </trkpt>
      <trkpt lat="49.00919" lon="0.04363">
        <ele>155.47</ele>
        <time>2021-08-08T14:59:46Z</time>
      </trkpt>
      <trkpt lat="49.00918" lon="0.04363">
        <ele>155.59</ele>
        <time>2021-08-08T14:59:47Z</time>
      </trkpt>
      <trkpt lat="49.00917" lon="0.04364">
        <ele>155.71</ele>
        <time>2021-08-08T14:59:48Z</time>
      </trkpt>
      <trkpt lat="49.00915" lon="0.04364">
        <ele>155.83</ele>
        <time>2021-08-08T14:59:49Z</time>
      </trkpt>
      <trkpt lat="49.00913" lon="0.04366">
        <ele>155.94</ele>
        <time>2021-08-08T14:59:50Z</time>
      </trkpt>
      <trkpt lat="49.00912" lon="0.04367">
        <ele>156.04</ele>
        <time>2021-08-08T14:59:51Z</time>
      </trkpt>
      <trkpt lat="49.00911" lon="0.04368">
        <ele>156.08</ele>
        <time>2021-08-08T14:59:52Z</time>
      </trkpt>
      <trkpt lat="49.00909" lon="0.0437">
        <ele>156.12</ele>
        <time>2021-08-08T14:59:53Z</time>
      </trkpt>
      <trkpt lat="49.00908" lon="0.04371">
        <ele>156.2</ele>
        <time>2021-08-08T14:59:54Z</time>
      </trkpt>
      <trkpt lat="49.00906" lon="0.04371">
        <ele>156.46</ele>
        <time>2021-08-08T14:59:55Z</time>
      </trkpt>
      <trkpt lat="49.00904" lon="0.04371">
        <ele>156.64</ele>
        <time>2021-08-08T14:59:56Z</time>
      </trkpt>
      <trkpt lat="49.00902" lon="0.04372">
        <ele>156.85</ele>
        <time>2021-08-08T14:59:57Z</time>
      </trkpt>
      <trkpt lat="49.009" lon="0.04373">
        <ele>157.05</ele>
        <time>2021-08-08T14:59:58Z</time>
      </trkpt>
      <trkpt lat="49.00897" lon="0.04373">
        <ele>157.35</ele>
        <time>2021-08-08T14:59:59Z</time>
      </trkpt>
      <trkpt lat="49.00895" lon="0.04373">
        <ele>157.66</ele>
        <time>2021-08-08T15:00:00Z</time>
      </trkpt>
      <trkpt lat="49.00893" lon="0.04374">
        <ele>157.91</ele>
        <time>2021-08-08T15:00:01Z</time>
      </trkpt>
      <trkpt lat="49.00891" lon="0.04374">
        <ele>158.18</ele>
        <time>2021-08-08T15:00:02Z</time>
      </trkpt>
      <trkpt lat="49.00888" lon="0.04376">
        <ele>158.35</ele>
        <time>2021-08-08T15:00:03Z</time>
      </trkpt>
      <trkpt lat="49.00887" lon="0.04377">
        <ele>158.46</ele>
        <time>2021-08-08T15:00:04Z</time>
      </trkpt>
      <trkpt lat="49.00885" lon="0.04378">
        <ele>158.55</ele>
        <time>2021-08-08T15:00:05Z</time>
      </trkpt>
      <trkpt lat="49.00883" lon="0.04379">
        <ele>158.64</ele>
        <time>2021-08-08T15:00:06Z</time>
      </trkpt>
      <trkpt lat="49.0088" lon="0.0438">
        <ele>158.74</ele>
        <time>2021-08-08T15:00:07Z</time>
      </trkpt>
      <trkpt lat="49.00879" lon="0.04381">
        <ele>158.82</ele>
        <time>2021-08-08T15:00:08Z</time>
      </trkpt>
      <trkpt lat="49.00877" lon="0.04382">
        <ele>158.88</ele>
        <time>2021-08-08T15:00:09Z</time>
      </trkpt>
      <trkpt lat="49.00875" lon="0.04383">
        <ele>158.93</ele>
        <time>2021-08-08T15:00:10Z</time>
      </trkpt>
      <trkpt lat="49.00873" lon="0.04385">
        <ele>159.01</ele>
        <time>2021-08-08T15:00:11Z</time>
      </trkpt>
      <trkpt lat="49.00871" lon="0.04388">
        <ele>159.05</ele>
        <time>2021-08-08T15:00:12Z</time>
      </trkpt>
      <trkpt lat="49.00869" lon="0.0439">
        <ele>159.08</ele>
        <time>2021-08-08T15:00:13Z</time>
      </trkpt>
      <trkpt lat="49.00865" lon="0.04395">
        <ele>159.1</ele>
        <time>2021-08-08T15:00:15Z</time>
      </trkpt>
      <trkpt lat="49.0085" lon="0.04397">
        <ele>174.05859375</ele>
      </trkpt>
      <trkpt lat="49.00805" lon="0.04317">
        <ele>176.58984375</ele>
      </trkpt>
      <trkpt lat="49.00806" lon="0.04208">
        <ele>176.51953125</ele>
      </trkpt>
      <trkpt lat="49.00795" lon="0.04145">
        <ele>174.48828125</ele>
      </trkpt>
      <trkpt lat="49.00775" lon="0.04114">
        <ele>171.86328125</ele>
      </trkpt>
      <trkpt lat="49.00767" lon="0.04053">
        <ele>164.81640625</ele>
      </trkpt>
      <trkpt lat="49.00663" lon="0.04089">
        <ele>156.5703125</ele>
      </trkpt>
      <trkpt lat="49.00604" lon="0.04111">
        <ele>151.515625</ele>
      </trkpt>
      <trkpt lat="49.00588" lon="0.04109">
        <ele>148.82421875</ele>
      </trkpt>
      <trkpt lat="49.00545" lon="0.04124">
        <ele>144.921875</ele>
      </trkpt>
      <trkpt lat="49.00531" lon="0.04128">
        <ele>143.640625</ele>
      </trkpt>
      <trkpt lat="49.00479" lon="0.0415">
        <ele>141.59765625</ele>
      </trkpt>
      <trkpt lat="49.00446" lon="0.04086">
        <ele>127.12890625</ele>
      </trkpt>
      <trkpt lat="49.00411" lon="0.03945">
        <ele>104.9375</ele>
      </trkpt>
      <trkpt lat="49.00366" lon="0.03936">
        <ele>102.89453125</ele>
      </trkpt>
      <trkpt lat="49.00356" lon="0.0403">
        <ele>110.53515625</ele>
      </trkpt>
      <trkpt lat="49.00356" lon="0.04073">
        <ele>114.42578125</ele>
      </trkpt>
      <trkpt lat="49.00365" lon="0.0424">
        <ele>139.07421875</ele>
      </trkpt>
      <trkpt lat="49.00362" lon="0.04432">
        <ele>160.6875</ele>
      </trkpt>
      <trkpt lat="49.00357" lon="0.04479">
        <ele>164.21875</ele>
      </trkpt>
      <trkpt lat="49.00365" lon="0.04592">
        <ele>172.51953125</ele>
      </trkpt>
      <trkpt lat="49.00368" lon="0.04631">
        <ele>174.19921875</ele>
      </trkpt>
      <trkpt lat="49.00376" lon="0.04693">
        <ele>176.2734375</ele>
      </trkpt>
      <trkpt lat="49.0036" lon="0.04752">
        <ele>177.25390625</ele>
      </trkpt>
      <trkpt lat="49.00352" lon="0.04853">
        <ele>179</ele>
      </trkpt>
      <trkpt lat="49.0046" lon="0.04775">
        <ele>179.61328125</ele>
      </trkpt>
      <trkpt lat="49.00481" lon="0.04712">
        <ele>179.7578125</ele>
      </trkpt>
      <trkpt lat="49.00608" lon="0.0461">
        <ele>177.82421875</ele>
      </trkpt>
      <trkpt lat="49.00724" lon="0.04493">
        <ele>177.02734375</ele>
      </trkpt>
      <trkpt lat="49.00783" lon="0.04508">
        <ele>175.63671875</ele>
      </trkpt>
      <trkpt lat="49.00826" lon="0.04461">
        <ele>174.02734375</ele>
      </trkpt>
      <trkpt lat="49.00849" lon="0.04422">
        <ele>159.58</ele>
        <time>2021-08-08T15:02:28Z</time>
      </trkpt>
      <trkpt lat="49.00849" lon="0.04425">
        <ele>159.4</ele>
        <time>2021-08-08T15:02:29Z</time>
      </trkpt>
      <trkpt lat="49.00849" lon="0.04428">
        <ele>159.24</ele>
        <time>2021-08-08T15:02:30Z</time>
      </trkpt>
      <trkpt lat="49.00849" lon="0.04432">
        <ele>159.08</ele>
        <time>2021-08-08T15:02:31Z</time>
      </trkpt>
      <trkpt lat="49.00849" lon="0.04435">
        <ele>158.92</ele>
        <time>2021-08-08T15:02:32Z</time>
      </trkpt>
      <trkpt lat="49.00849" lon="0.04438">
        <ele>158.74</ele>
        <time>2021-08-08T15:02:33Z</time>
      </trkpt>
      <trkpt lat="49.0085" lon="0.04442">
        <ele>158.47</ele>
        <time>2021-08-08T15:02:34Z</time>
      </trkpt>
      <trkpt lat="49.0085" lon="0.04447">
        <ele>158.32</ele>
        <time>2021-08-08T15:02:35Z</time>
      </trkpt>
      <trkpt lat="49.0085" lon="0.04453">
        <ele>158.33</ele>
        <time>2021-08-08T15:02:36Z</time>
      </trkpt>
      <trkpt lat="49.00851" lon="0.04458">
        <ele>158.29</ele>
        <time>2021-08-08T15:02:37Z</time>
      </trkpt>
      <trkpt lat="49.00851" lon="0.04463">
        <ele>158.34</ele>
        <time>2021-08-08T15:02:38Z</time>
      </trkpt>
      <trkpt lat="49.00851" lon="0.04468">
        <ele>158.38</ele>
        <time>2021-08-08T15:02:39Z</time>
      </trkpt>
      <trkpt lat="49.00851" lon="0.04474">
        <ele>158.46</ele>
        <time>2021-08-08T15:02:40Z</time>
      </trkpt>
      <trkpt lat="49.00852" lon="0.0448">
        <ele>158.53</ele>
        <time>2021-08-08T15:02:41Z</time>
      </trkpt>
      <trkpt lat="49.00852" lon="0.04486">
        <ele>158.62</ele>
        <time>2021-08-08T15:02:42Z</time>
      </trkpt>
      <trkpt lat="49.00852" lon="0.04494">
        <ele>158.81</ele>
        <time>2021-08-08T15:02:43Z</time>
      </trkpt>
      <trkpt lat="49.00852" lon="0.045">
        <ele>158.96</ele>
        <time>2021-08-08T15:02:44Z</time>
      </trkpt>
      <trkpt lat="49.00853" lon="0.04506">
        <ele>158.97</ele>
        <time>2021-08-08T15:02:45Z</time>
      </trkpt>
      <trkpt lat="49.00854" lon="0.04512">
        <ele>158.94</ele>
        <time>2021-08-08T15:02:46Z</time>
      </trkpt>
      <trkpt lat="49.00854" lon="0.04518">
        <ele>158.9</ele>
        <time>2021-08-08T15:02:47Z</time>
      </trkpt>
      <trkpt lat="49.00855" lon="0.04524">
        <ele>158.9</ele>
        <time>2021-08-08T15:02:48Z</time>
      </trkpt>
      <trkpt lat="49.00855" lon="0.0453">
        <ele>158.86</ele>
        <time>2021-08-08T15:02:49Z</time>
      </trkpt>
      <trkpt lat="49.00856" lon="0.04536">
        <ele>158.81</ele>
        <time>2021-08-08T15:02:50Z</time>
      </trkpt>
      <trkpt lat="49.00857" lon="0.04542">
        <ele>158.75</ele>
        <time>2021-08-08T15:02:51Z</time>
      </trkpt>
      <trkpt lat="49.00858" lon="0.04548">
        <ele>158.6</ele>
        <time>2021-08-08T15:02:52Z</time>
      </trkpt>
      <trkpt lat="49.00859" lon="0.04555">
        <ele>158.42</ele>
        <time>2021-08-08T15:02:53Z</time>
      </trkpt>
      <trkpt lat="49.00861" lon="0.04561">
        <ele>158.02</ele>
        <time>2021-08-08T15:02:54Z</time>
      </trkpt>
      <trkpt lat="49.00862" lon="0.04569">
        <ele>157.58</ele>
        <time>2021-08-08T15:02:55Z</time>
      </trkpt>
      <trkpt lat="49.00863" lon="0.04576">
        <ele>157.2</ele>
        <time>2021-08-08T15:02:56Z</time>
      </trkpt>
      <trkpt lat="49.00863" lon="0.04583">
        <ele>156.92</ele>
        <time>2021-08-08T15:02:57Z</time>
      </trkpt>
      <trkpt lat="49.00861" lon="0.04591">
        <ele>156.8</ele>
        <time>2021-08-08T15:02:58Z</time>
      </trkpt>
      <trkpt lat="49.00859" lon="0.04598">
        <ele>156.74</ele>
        <time>2021-08-08T15:02:59Z</time>
      </trkpt>
      <trkpt lat="49.00858" lon="0.04607">
        <ele>156.68</ele>
        <time>2021-08-08T15:03:00Z</time>
      </trkpt>
      <trkpt lat="49.00856" lon="0.04614">
        <ele>156.67</ele>
        <time>2021-08-08T15:03:01Z</time>
      </trkpt>
      <trkpt lat="49.00855" lon="0.04621">
        <ele>156.53</ele>
        <time>2021-08-08T15:03:02Z</time>
      </trkpt>
      <trkpt lat="49.00854" lon="0.04628">
        <ele>156.32</ele>
        <time>2021-08-08T15:03:03Z</time>
      </trkpt>
      <trkpt lat="49.00853" lon="0.04634">
        <ele>156.15</ele>
        <time>2021-08-08T15:03:04Z</time>
      </trkpt>
      <trkpt lat="49.00852" lon="0.0464">
        <ele>155.94</ele>
        <time>2021-08-08T15:03:05Z</time>
      </trkpt>
      <trkpt lat="49.00851" lon="0.04648">
        <ele>155.56</ele>
        <time>2021-08-08T15:03:06Z</time>
      </trkpt>
      <trkpt lat="49.0085" lon="0.04656">
        <ele>155.12</ele>
        <time>2021-08-08T15:03:07Z</time>
      </trkpt>
      <trkpt lat="49.00849" lon="0.04663">
        <ele>154.77</ele>
        <time>2021-08-08T15:03:08Z</time>
      </trkpt>
      <trkpt lat="49.00847" lon="0.0467">
        <ele>154.26</ele>
        <time>2021-08-08T15:03:09Z</time>
      </trkpt>
      <trkpt lat="49.00846" lon="0.04677">
        <ele>153.5</ele>
        <time>2021-08-08T15:03:10Z</time>
      </trkpt>
      <trkpt lat="49.00842" lon="0.04685">
        <ele>152.76</ele>
        <time>2021-08-08T15:03:11Z</time>
      </trkpt>
      <trkpt lat="49.00839" lon="0.04692">
        <ele>152.07</ele>
        <time>2021-08-08T15:03:12Z</time>
      </trkpt>
      <trkpt lat="49.00834" lon="0.047">
        <ele>151.42</ele>
        <time>2021-08-08T15:03:13Z</time>
      </trkpt>
      <trkpt lat="49.0083" lon="0.04705">
        <ele>150.9</ele>
        <time>2021-08-08T15:03:14Z</time>
      </trkpt>
      <trkpt lat="49.00824" lon="0.04712">
        <ele>150.3</ele>
        <time>2021-08-08T15:03:15Z</time>
      </trkpt>
      <trkpt lat="49.00817" lon="0.04722">
        <ele>149.59</ele>
        <time>2021-08-08T15:03:16Z</time>
      </trkpt>
      <trkpt lat="49.00809" lon="0.04732">
        <ele>149</ele>
        <time>2021-08-08T15:03:17Z</time>
      </trkpt>
      <trkpt lat="49.00802" lon="0.0474">
        <ele>148.51</ele>
        <time>2021-08-08T15:03:18Z</time>
      </trkpt>
      <trkpt lat="49.00796" lon="0.04748">
        <ele>148.06</ele>
        <time>2021-08-08T15:03:19Z</time>
      </trkpt>
      <trkpt lat="49.0079" lon="0.04756">
        <ele>147.77</ele>
        <time>2021-08-08T15:03:20Z</time>
      </trkpt>
      <trkpt lat="49.00787" lon="0.04763">
        <ele>147.55</ele>
        <time>2021-08-08T15:03:21Z</time>
      </trkpt>
      <trkpt lat="49.00785" lon="0.04768">
        <ele>147.28</ele>
        <time>2021-08-08T15:03:22Z</time>
      </trkpt>
      <trkpt lat="49.00787" lon="0.04775">
        <ele>146.78</ele>
        <time>2021-08-08T15:03:23Z</time>
      </trkpt>
      <trkpt lat="49.00788" lon="0.0478">
        <ele>146.39</ele>
        <time>2021-08-08T15:03:24Z</time>
      </trkpt>
      <trkpt lat="49.0079" lon="0.04785">
        <ele>146.09</ele>
        <time>2021-08-08T15:03:25Z</time>
      </trkpt>
      <trkpt lat="49.00793" lon="0.04791">
        <ele>145.78</ele>
        <time>2021-08-08T15:03:26Z</time>
      </trkpt>
      <trkpt lat="49.00796" lon="0.04798">
        <ele>145.39</ele>
        <time>2021-08-08T15:03:27Z</time>
      </trkpt>
      <trkpt lat="49.00799" lon="0.04804">
        <ele>144.93</ele>
        <time>2021-08-08T15:03:28Z</time>
      </trkpt>
      <trkpt lat="49.00803" lon="0.04811">
        <ele>144.39</ele>
        <time>2021-08-08T15:03:29Z</time>
      </trkpt>
      <trkpt lat="49.00806" lon="0.04817">
        <ele>143.75</ele>
        <time>2021-08-08T15:03:30Z</time>
      </trkpt>
      <trkpt lat="49.0081" lon="0.04822">
        <ele>143.11</ele>
        <time>2021-08-08T15:03:31Z</time>
      </trkpt>
      <trkpt lat="49.00814" lon="0.04827">
        <ele>142.36</ele>
        <time>2021-08-08T15:03:32Z</time>
      </trkpt>
      <trkpt lat="49.00819" lon="0.04831">
        <ele>141.58</ele>
        <time>2021-08-08T15:03:33Z</time>
      </trkpt>
      <trkpt lat="49.00823" lon="0.04836">
        <ele>140.81</ele>
        <time>2021-08-08T15:03:34Z</time>
      </trkpt>
      <trkpt lat="49.00826" lon="0.0484">
        <ele>140.07</ele>
        <time>2021-08-08T15:03:35Z</time>
      </trkpt>
      <trkpt lat="49.0083" lon="0.04843">
        <ele>139.37</ele>
        <time>2021-08-08T15:03:36Z</time>
      </trkpt>
      <trkpt lat="49.00834" lon="0.04846">
        <ele>138.73</ele>
        <time>2021-08-08T15:03:37Z</time>
      </trkpt>
      <trkpt lat="49.00837" lon="0.04851">
        <ele>138.09</ele>
        <time>2021-08-08T15:03:38Z</time>
      </trkpt>
      <trkpt lat="49.00839" lon="0.04854">
        <ele>137.49</ele>
        <time>2021-08-08T15:03:39Z</time>
      </trkpt>
      <trkpt lat="49.00842" lon="0.04858">
        <ele>136.87</ele>
        <time>2021-08-08T15:03:40Z</time>
      </trkpt>
      <trkpt lat="49.00844" lon="0.04862">
        <ele>136.35</ele>
        <time>2021-08-08T15:03:41Z</time>
      </trkpt>
      <trkpt lat="49.00847" lon="0.04867">
        <ele>136.17</ele>
        <time>2021-08-08T15:03:42Z</time>
      </trkpt>
      <trkpt lat="49.00849" lon="0.04872">
        <ele>136.15</ele>
        <time>2021-08-08T15:03:43Z</time>
      </trkpt>
      <trkpt lat="49.00852" lon="0.04876">
        <ele>136.16</ele>
        <time>2021-08-08T15:03:44Z</time>
      </trkpt>
      <trkpt lat="49.00854" lon="0.04883">
        <ele>136.37</ele>
        <time>2021-08-08T15:03:45Z</time>
      </trkpt>
      <trkpt lat="49.00855" lon="0.04889">
        <ele>136.7</ele>
        <time>2021-08-08T15:03:46Z</time>
      </trkpt>
      <trkpt lat="49.00856" lon="0.04895">
        <ele>136.97</ele>
        <time>2021-08-08T15:03:47Z</time>
      </trkpt>
      <trkpt lat="49.00857" lon="0.04901">
        <ele>137.32</ele>
        <time>2021-08-08T15:03:48Z</time>
      </trkpt>
      <trkpt lat="49.00858" lon="0.04909">
        <ele>137.71</ele>
        <time>2021-08-08T15:03:49Z</time>
      </trkpt>
      <trkpt lat="49.00861" lon="0.04917">
        <ele>137.94</ele>
        <time>2021-08-08T15:03:50Z</time>
      </trkpt>
      <trkpt lat="49.00863" lon="0.04925">
        <ele>138.15</ele>
        <time>2021-08-08T15:03:51Z</time>
      </trkpt>
      <trkpt lat="49.00866" lon="0.04931">
        <ele>138.31</ele>
        <time>2021-08-08T15:03:52Z</time>
      </trkpt>
      <trkpt lat="49.00869" lon="0.04938">
        <ele>138.38</ele>
        <time>2021-08-08T15:03:53Z</time>
      </trkpt>
      <trkpt lat="49.00872" lon="0.04947">
        <ele>138.56</ele>
        <time>2021-08-08T15:03:54Z</time>
      </trkpt>
      <trkpt lat="49.00874" lon="0.04954">
        <ele>138.74</ele>
        <time>2021-08-08T15:03:55Z</time>
      </trkpt>
      <trkpt lat="49.00876" lon="0.0496">
        <ele>138.89</ele>
        <time>2021-08-08T15:03:56Z</time>
      </trkpt>
      <trkpt lat="49.00879" lon="0.04965">
        <ele>138.89</ele>
        <time>2021-08-08T15:03:57Z</time>
      </trkpt>
      <trkpt lat="49.00882" lon="0.04968">
        <ele>138.72</ele>
        <time>2021-08-08T15:03:58Z</time>
      </trkpt>
      <trkpt lat="49.00888" lon="0.04972">
        <ele>138.33</ele>
        <time>2021-08-08T15:03:59Z</time>
      </trkpt>
      <trkpt lat="49.00892" lon="0.04974">
        <ele>137.97</ele>
        <time>2021-08-08T15:04:00Z</time>
      </trkpt>
      <trkpt lat="49.00895" lon="0.04977">
        <ele>137.75</ele>
        <time>2021-08-08T15:04:01Z</time>
      </trkpt>
      <trkpt lat="49.00899" lon="0.04979">
        <ele>137.51</ele>
        <time>2021-08-08T15:04:02Z</time>
      </trkpt>
      <trkpt lat="49.00903" lon="0.04981">
        <ele>137.2</ele>
        <time>2021-08-08T15:04:03Z</time>
      </trkpt>
      <trkpt lat="49.00907" lon="0.04982">
        <ele>136.92</ele>
        <time>2021-08-08T15:04:04Z</time>
      </trkpt>
      <trkpt lat="49.00913" lon="0.04986">
        <ele>136.55</ele>
        <time>2021-08-08T15:04:05Z</time>
      </trkpt>
      <trkpt lat="49.00919" lon="0.0499">
        <ele>136.32</ele>
        <time>2021-08-08T15:04:06Z</time>
      </trkpt>
      <trkpt lat="49.00923" lon="0.04994">
        <ele>136.35</ele>
        <time>2021-08-08T15:04:07Z</time>
      </trkpt>
      <trkpt lat="49.00927" lon="0.04997">
        <ele>136.4</ele>
        <time>2021-08-08T15:04:08Z</time>
      </trkpt>
      <trkpt lat="49.00932" lon="0.05">
        <ele>136.42</ele>
        <time>2021-08-08T15:04:09Z</time>
      </trkpt>
      <trkpt lat="49.00935" lon="0.05001">
        <ele>136.39</ele>
        <time>2021-08-08T15:04:10Z</time>
      </trkpt>
      <trkpt lat="49.00941" lon="0.05003">
        <ele>136.29</ele>
        <time>2021-08-08T15:04:11Z</time>
      </trkpt>
      <trkpt lat="49.00945" lon="0.05005">
        <ele>136.21</ele>
        <time>2021-08-08T15:04:12Z</time>
      </trkpt>
      <trkpt lat="49.00949" lon="0.05008">
        <ele>136.08</ele>
        <time>2021-08-08T15:04:13Z</time>
      </trkpt>
      <trkpt lat="49.00955" lon="0.05013">
        <ele>135.95</ele>
        <time>2021-08-08T15:04:14Z</time>
      </trkpt>
      <trkpt lat="49.00957" lon="0.05018">
        <ele>136</ele>
        <time>2021-08-08T15:04:15Z</time>
      </trkpt>
      <trkpt lat="49.0096" lon="0.05021">
        <ele>136.05</ele>
        <time>2021-08-08T15:04:16Z</time>
      </trkpt>
      <trkpt lat="49.00963" lon="0.05024">
        <ele>136.11</ele>
        <time>2021-08-08T15:04:17Z</time>
      </trkpt>
      <trkpt lat="49.00967" lon="0.05027">
        <ele>136.16</ele>
        <time>2021-08-08T15:04:18Z</time>
      </trkpt>
      <trkpt lat="49.00971" lon="0.0503">
        <ele>136.13</ele>
        <time>2021-08-08T15:04:19Z</time>
      </trkpt>
      <trkpt lat="49.00975" lon="0.05031">
        <ele>136.04</ele>
        <time>2021-08-08T15:04:20Z</time>
      </trkpt>
      <trkpt lat="49.00978" lon="0.05033">
        <ele>135.99</ele>
        <time>2021-08-08T15:04:21Z</time>
      </trkpt>
      <trkpt lat="49.00981" lon="0.05035">
        <ele>135.95</ele>
        <time>2021-08-08T15:04:22Z</time>
      </trkpt>
      <trkpt lat="49.00984" lon="0.05037">
        <ele>135.94</ele>
        <time>2021-08-08T15:04:23Z</time>
      </trkpt>
      <trkpt lat="49.00986" lon="0.0504">
        <ele>135.95</ele>
        <time>2021-08-08T15:04:24Z</time>
      </trkpt>
      <trkpt lat="49.00989" lon="0.05044">
        <ele>135.97</ele>
        <time>2021-08-08T15:04:25Z</time>
      </trkpt>
      <trkpt lat="49.00992" lon="0.05047">
        <ele>135.98</ele>
        <time>2021-08-08T15:04:26Z</time>
      </trkpt>
      <trkpt lat="49.00995" lon="0.0505">
        <ele>135.99</ele>
        <time>2021-08-08T15:04:27Z</time>
      </trkpt>
      <trkpt lat="49.00998" lon="0.05053">
        <ele>135.99</ele>
        <time>2021-08-08T15:04:28Z</time>
      </trkpt>
      <trkpt lat="49.01" lon="0.05056">
        <ele>135.99</ele>
        <time>2021-08-08T15:04:29Z</time>
      </trkpt>
      <trkpt lat="49.01003" lon="0.05059">
        <ele>136.15</ele>
        <time>2021-08-08T15:04:30Z</time>
      </trkpt>
      <trkpt lat="49.01006" lon="0.05063">
        <ele>136.47</ele>
        <time>2021-08-08T15:04:31Z</time>
      </trkpt>
      <trkpt lat="49.01008" lon="0.05068">
        <ele>136.86</ele>
        <time>2021-08-08T15:04:32Z</time>
      </trkpt>
      <trkpt lat="49.0101" lon="0.05073">
        <ele>137.32</ele>
        <time>2021-08-08T15:04:33Z</time>
      </trkpt>
      <trkpt lat="49.01012" lon="0.05079">
        <ele>137.88</ele>
        <time>2021-08-08T15:04:34Z</time>
      </trkpt>
      <trkpt lat="49.01014" lon="0.05083">
        <ele>138.32</ele>
        <time>2021-08-08T15:04:35Z</time>
      </trkpt>
      <trkpt lat="49.01017" lon="0.05092">
        <ele>138.8</ele>
        <time>2021-08-08T15:04:36Z</time>
      </trkpt>
      <trkpt lat="49.01018" lon="0.05095">
        <ele>139.07</ele>
        <time>2021-08-08T15:04:37Z</time>
      </trkpt>
      <trkpt lat="49.01019" lon="0.05097">
        <ele>139.22</ele>
        <time>2021-08-08T15:04:38Z</time>
      </trkpt>
      <trkpt lat="49.01021" lon="0.05098">
        <ele>139.28</ele>
        <time>2021-08-08T15:04:39Z</time>
      </trkpt>
      <trkpt lat="49.01023" lon="0.05099">
        <ele>139.3</ele>
        <time>2021-08-08T15:04:40Z</time>
      </trkpt>
      <trkpt lat="49.01024" lon="0.05099">
        <ele>139.29</ele>
        <time>2021-08-08T15:04:41Z</time>
      </trkpt>
      <trkpt lat="49.01027" lon="0.051">
        <ele>139.23</ele>
        <time>2021-08-08T15:04:42Z</time>
      </trkpt>
      <trkpt lat="49.01029" lon="0.05101">
        <ele>139.22</ele>
        <time>2021-08-08T15:04:43Z</time>
      </trkpt>
      <trkpt lat="49.01032" lon="0.05103">
        <ele>139.24</ele>
        <time>2021-08-08T15:04:44Z</time>
      </trkpt>
      <trkpt lat="49.01036" lon="0.05106">
        <ele>139.3</ele>
        <time>2021-08-08T15:04:45Z</time>
      </trkpt>
      <trkpt lat="49.0104" lon="0.05109">
        <ele>139.36</ele>
        <time>2021-08-08T15:04:46Z</time>
      </trkpt>
      <trkpt lat="49.01044" lon="0.05112">
        <ele>139.43</ele>
        <time>2021-08-08T15:04:47Z</time>
      </trkpt>
      <trkpt lat="49.01047" lon="0.05115">
        <ele>139.62</ele>
        <time>2021-08-08T15:04:48Z</time>
      </trkpt>
      <trkpt lat="49.01049" lon="0.05118">
        <ele>139.85</ele>
        <time>2021-08-08T15:04:49Z</time>
      </trkpt>
      <trkpt lat="49.01052" lon="0.05121">
        <ele>140.12</ele>
        <time>2021-08-08T15:04:50Z</time>
      </trkpt>
      <trkpt lat="49.01053" lon="0.05124">
        <ele>140.34</ele>
        <time>2021-08-08T15:04:51Z</time>
      </trkpt>
      <trkpt lat="49.01056" lon="0.05128">
        <ele>140.7</ele>
        <time>2021-08-08T15:04:52Z</time>
      </trkpt>
      <trkpt lat="49.01058" lon="0.05131">
        <ele>140.97</ele>
        <time>2021-08-08T15:04:53Z</time>
      </trkpt>
      <trkpt lat="49.01059" lon="0.05133">
        <ele>141.21</ele>
        <time>2021-08-08T15:04:54Z</time>
      </trkpt>
      <trkpt lat="49.01064" lon="0.05134">
        <ele>141.24</ele>
        <time>2021-08-08T15:04:55Z</time>
      </trkpt>
      <trkpt lat="49.01068" lon="0.05137">
        <ele>141.31</ele>
        <time>2021-08-08T15:04:56Z</time>
      </trkpt>
      <trkpt lat="49.0107" lon="0.05138">
        <ele>141.38</ele>
        <time>2021-08-08T15:04:57Z</time>
      </trkpt>
      <trkpt lat="49.01073" lon="0.05138">
        <ele>141.33</ele>
        <time>2021-08-08T15:04:58Z</time>
      </trkpt>
      <trkpt lat="49.01076" lon="0.05139">
        <ele>141.28</ele>
        <time>2021-08-08T15:04:59Z</time>
      </trkpt>
      <trkpt lat="49.01079" lon="0.05139">
        <ele>141.2</ele>
        <time>2021-08-08T15:05:00Z</time>
      </trkpt>
      <trkpt lat="49.01082" lon="0.05139">
        <ele>141.15</ele>
        <time>2021-08-08T15:05:01Z</time>
      </trkpt>
      <trkpt lat="49.01085" lon="0.0514">
        <ele>141.19</ele>
        <time>2021-08-08T15:05:02Z</time>
      </trkpt>
      <trkpt lat="49.01087" lon="0.0514">
        <ele>141.19</ele>
        <time>2021-08-08T15:05:03Z</time>
      </trkpt>
      <trkpt lat="49.01089" lon="0.0514">
        <ele>141.13</ele>
        <time>2021-08-08T15:05:04Z</time>
      </trkpt>
      <trkpt lat="49.01092" lon="0.05138">
        <ele>140.99</ele>
        <time>2021-08-08T15:05:05Z</time>
      </trkpt>
      <trkpt lat="49.01095" lon="0.05137">
        <ele>140.86</ele>
        <time>2021-08-08T15:05:06Z</time>
      </trkpt>
      <trkpt lat="49.01098" lon="0.05136">
        <ele>140.75</ele>
        <time>2021-08-08T15:05:07Z</time>
      </trkpt>
      <trkpt lat="49.01101" lon="0.05136">
        <ele>140.71</ele>
        <time>2021-08-08T15:05:08Z</time>
      </trkpt>
      <trkpt lat="49.01105" lon="0.05139">
        <ele>140.96</ele>
        <time>2021-08-08T15:05:09Z</time>
      </trkpt>
      <trkpt lat="49.01109" lon="0.05142">
        <ele>141.32</ele>
        <time>2021-08-08T15:05:10Z</time>
      </trkpt>
      <trkpt lat="49.01113" lon="0.05146">
        <ele>141.78</ele>
        <time>2021-08-08T15:05:11Z</time>
      </trkpt>
      <trkpt lat="49.01116" lon="0.05147">
        <ele>142.03</ele>
        <time>2021-08-08T15:05:12Z</time>
      </trkpt>
      <trkpt lat="49.01119" lon="0.05149">
        <ele>142.38</ele>
        <time>2021-08-08T15:05:13Z</time>
      </trkpt>
      <trkpt lat="49.01123" lon="0.05153">
        <ele>142.87</ele>
        <time>2021-08-08T15:05:14Z</time>
      </trkpt>
      <trkpt lat="49.01127" lon="0.05156">
        <ele>143.27</ele>
        <time>2021-08-08T15:05:15Z</time>
      </trkpt>
      <trkpt lat="49.01131" lon="0.05161">
        <ele>143.93</ele>
        <time>2021-08-08T15:05:16Z</time>
      </trkpt>
      <trkpt lat="49.01134" lon="0.05164">
        <ele>144.43</ele>
        <time>2021-08-08T15:05:17Z</time>
      </trkpt>
      <trkpt lat="49.01138" lon="0.05167">
        <ele>144.84</ele>
        <time>2021-08-08T15:05:18Z</time>
      </trkpt>
      <trkpt lat="49.01141" lon="0.05169">
        <ele>145.16</ele>
        <time>2021-08-08T15:05:19Z</time>
      </trkpt>
      <trkpt lat="49.01144" lon="0.05171">
        <ele>145.34</ele>
        <time>2021-08-08T15:05:20Z</time>
      </trkpt>
      <trkpt lat="49.01147" lon="0.05171">
        <ele>145.3</ele>
        <time>2021-08-08T15:05:21Z</time>
      </trkpt>
      <trkpt lat="49.01153" lon="0.0517">
        <ele>145.1</ele>
        <time>2021-08-08T15:05:22Z</time>
      </trkpt>
      <trkpt lat="49.01158" lon="0.0517">
        <ele>144.86</ele>
        <time>2021-08-08T15:05:23Z</time>
      </trkpt>
      <trkpt lat="49.01164" lon="0.05168">
        <ele>144.5</ele>
        <time>2021-08-08T15:05:24Z</time>
      </trkpt>
      <trkpt lat="49.01172" lon="0.05168">
        <ele>144.2</ele>
        <time>2021-08-08T15:05:25Z</time>
      </trkpt>
      <trkpt lat="49.01177" lon="0.05169">
        <ele>144.01</ele>
        <time>2021-08-08T15:05:26Z</time>
      </trkpt>
      <trkpt lat="49.01183" lon="0.0517">
        <ele>143.88</ele>
        <time>2021-08-08T15:05:27Z</time>
      </trkpt>
      <trkpt lat="49.01188" lon="0.05171">
        <ele>143.78</ele>
        <time>2021-08-08T15:05:28Z</time>
      </trkpt>
      <trkpt lat="49.01193" lon="0.05173">
        <ele>143.72</ele>
        <time>2021-08-08T15:05:29Z</time>
      </trkpt>
      <trkpt lat="49.01199" lon="0.05175">
        <ele>143.51</ele>
        <time>2021-08-08T15:05:30Z</time>
      </trkpt>
      <trkpt lat="49.01205" lon="0.05178">
        <ele>143.2</ele>
        <time>2021-08-08T15:05:31Z</time>
      </trkpt>
      <trkpt lat="49.01211" lon="0.05181">
        <ele>142.85</ele>
        <time>2021-08-08T15:05:32Z</time>
      </trkpt>
      <trkpt lat="49.01217" lon="0.05185">
        <ele>142.57</ele>
        <time>2021-08-08T15:05:33Z</time>
      </trkpt>
      <trkpt lat="49.01223" lon="0.05189">
        <ele>142.35</ele>
        <time>2021-08-08T15:05:34Z</time>
      </trkpt>
      <trkpt lat="49.0123" lon="0.05191">
        <ele>141.98</ele>
        <time>2021-08-08T15:05:35Z</time>
      </trkpt>
      <trkpt lat="49.01236" lon="0.05196">
        <ele>141.83</ele>
        <time>2021-08-08T15:05:36Z</time>
      </trkpt>
      <trkpt lat="49.01241" lon="0.052">
        <ele>141.81</ele>
        <time>2021-08-08T15:05:37Z</time>
      </trkpt>
      <trkpt lat="49.01247" lon="0.05204">
        <ele>141.77</ele>
        <time>2021-08-08T15:05:38Z</time>
      </trkpt>
      <trkpt lat="49.01253" lon="0.05207">
        <ele>141.64</ele>
        <time>2021-08-08T15:05:39Z</time>
      </trkpt>
      <trkpt lat="49.01257" lon="0.05209">
        <ele>141.48</ele>
        <time>2021-08-08T15:05:40Z</time>
      </trkpt>
      <trkpt lat="49.01263" lon="0.05212">
        <ele>141.4</ele>
        <time>2021-08-08T15:05:41Z</time>
      </trkpt>
      <trkpt lat="49.01267" lon="0.05216">
        <ele>141.35</ele>
        <time>2021-08-08T15:05:42Z</time>
      </trkpt>
      <trkpt lat="49.01271" lon="0.05219">
        <ele>141.34</ele>
        <time>2021-08-08T15:05:43Z</time>
      </trkpt>
      <trkpt lat="49.01276" lon="0.05221">
        <ele>141.12</ele>
        <time>2021-08-08T15:05:44Z</time>
      </trkpt>
      <trkpt lat="49.01281" lon="0.05223">
        <ele>140.79</ele>
        <time>2021-08-08T15:05:45Z</time>
      </trkpt>
      <trkpt lat="49.01286" lon="0.05224">
        <ele>140.41</ele>
        <time>2021-08-08T15:05:46Z</time>
      </trkpt>
      <trkpt lat="49.01291" lon="0.05225">
        <ele>140.02</ele>
        <time>2021-08-08T15:05:47Z</time>
      </trkpt>
      <trkpt lat="49.01296" lon="0.05226">
        <ele>139.63</ele>
        <time>2021-08-08T15:05:48Z</time>
      </trkpt>
      <trkpt lat="49.01301" lon="0.05227">
        <ele>139.23</ele>
        <time>2021-08-08T15:05:49Z</time>
      </trkpt>
      <trkpt lat="49.01305" lon="0.05229">
        <ele>138.89</ele>
        <time>2021-08-08T15:05:50Z</time>
      </trkpt>
      <trkpt lat="49.0131" lon="0.05231">
        <ele>138.61</ele>
        <time>2021-08-08T15:05:51Z</time>
      </trkpt>
      <trkpt lat="49.01314" lon="0.05233">
        <ele>138.35</ele>
        <time>2021-08-08T15:05:52Z</time>
      </trkpt>
      <trkpt lat="49.01319" lon="0.05235">
        <ele>138.05</ele>
        <time>2021-08-08T15:05:53Z</time>
      </trkpt>
      <trkpt lat="49.01325" lon="0.05237">
        <ele>137.71</ele>
        <time>2021-08-08T15:05:54Z</time>
      </trkpt>
      <trkpt lat="49.01329" lon="0.0524">
        <ele>137.45</ele>
        <time>2021-08-08T15:05:55Z</time>
      </trkpt>
      <trkpt lat="49.01334" lon="0.05242">
        <ele>137.18</ele>
        <time>2021-08-08T15:05:56Z</time>
      </trkpt>
      <trkpt lat="49.0134" lon="0.05244">
        <ele>136.99</ele>
        <time>2021-08-08T15:05:57Z</time>
      </trkpt>
      <trkpt lat="49.01345" lon="0.05246">
        <ele>136.81</ele>
        <time>2021-08-08T15:05:58Z</time>
      </trkpt>
      <trkpt lat="49.0135" lon="0.05248">
        <ele>136.67</ele>
        <time>2021-08-08T15:05:59Z</time>
      </trkpt>
      <trkpt lat="49.01355" lon="0.05251">
        <ele>136.62</ele>
        <time>2021-08-08T15:06:00Z</time>
      </trkpt>
      <trkpt lat="49.0136" lon="0.05253">
        <ele>136.66</ele>
        <time>2021-08-08T15:06:01Z</time>
      </trkpt>
      <trkpt lat="49.01365" lon="0.05256">
        <ele>136.71</ele>
        <time>2021-08-08T15:06:02Z</time>
      </trkpt>
      <trkpt lat="49.0137" lon="0.05258">
        <ele>136.73</ele>
        <time>2021-08-08T15:06:03Z</time>
      </trkpt>
      <trkpt lat="49.01375" lon="0.0526">
        <ele>136.68</ele>
        <time>2021-08-08T15:06:04Z</time>
      </trkpt>
      <trkpt lat="49.0138" lon="0.05262">
        <ele>136.58</ele>
        <time>2021-08-08T15:06:05Z</time>
      </trkpt>
      <trkpt lat="49.01385" lon="0.05264">
        <ele>136.44</ele>
        <time>2021-08-08T15:06:06Z</time>
      </trkpt>
      <trkpt lat="49.0139" lon="0.05266">
        <ele>136.29</ele>
        <time>2021-08-08T15:06:07Z</time>
      </trkpt>
      <trkpt lat="49.01395" lon="0.05267">
        <ele>136.29</ele>
        <time>2021-08-08T15:06:08Z</time>
      </trkpt>
      <trkpt lat="49.01399" lon="0.05269">
        <ele>136.31</ele>
        <time>2021-08-08T15:06:09Z</time>
      </trkpt>
      <trkpt lat="49.01404" lon="0.0527">
        <ele>136.38</ele>
        <time>2021-08-08T15:06:10Z</time>
      </trkpt>
      <trkpt lat="49.01408" lon="0.05272">
        <ele>136.47</ele>
        <time>2021-08-08T15:06:11Z</time>
      </trkpt>
      <trkpt lat="49.01412" lon="0.05274">
        <ele>136.59</ele>
        <time>2021-08-08T15:06:12Z</time>
      </trkpt>
      <trkpt lat="49.01416" lon="0.05276">
        <ele>136.69</ele>
        <time>2021-08-08T15:06:13Z</time>
      </trkpt>
      <trkpt lat="49.0142" lon="0.05278">
        <ele>136.8</ele>
        <time>2021-08-08T15:06:14Z</time>
      </trkpt>
      <trkpt lat="49.01425" lon="0.05279">
        <ele>136.9</ele>
        <time>2021-08-08T15:06:15Z</time>
      </trkpt>
      <trkpt lat="49.01428" lon="0.05282">
        <ele>137.08</ele>
        <time>2021-08-08T15:06:16Z</time>
      </trkpt>
      <trkpt lat="49.0143" lon="0.05285">
        <ele>137.39</ele>
        <time>2021-08-08T15:06:17Z</time>
      </trkpt>
      <trkpt lat="49.01432" lon="0.05288">
        <ele>137.78</ele>
        <time>2021-08-08T15:06:18Z</time>
      </trkpt>
      <trkpt lat="49.01435" lon="0.05292">
        <ele>138.16</ele>
        <time>2021-08-08T15:06:19Z</time>
      </trkpt>
      <trkpt lat="49.01438" lon="0.05294">
        <ele>138.45</ele>
        <time>2021-08-08T15:06:20Z</time>
      </trkpt>
      <trkpt lat="49.01441" lon="0.05296">
        <ele>138.65</ele>
        <time>2021-08-08T15:06:21Z</time>
      </trkpt>
      <trkpt lat="49.01445" lon="0.05297">
        <ele>138.69</ele>
        <time>2021-08-08T15:06:22Z</time>
      </trkpt>
      <trkpt lat="49.01447" lon="0.05296">
        <ele>138.46</ele>
        <time>2021-08-08T15:06:23Z</time>
      </trkpt>
      <trkpt lat="49.0145" lon="0.05295">
        <ele>138.18</ele>
        <time>2021-08-08T15:06:24Z</time>
      </trkpt>
      <trkpt lat="49.01453" lon="0.05294">
        <ele>137.85</ele>
        <time>2021-08-08T15:06:25Z</time>
      </trkpt>
      <trkpt lat="49.01454" lon="0.05294">
        <ele>137.62</ele>
        <time>2021-08-08T15:06:26Z</time>
      </trkpt>
      <trkpt lat="49.01456" lon="0.05294">
        <ele>137.49</ele>
        <time>2021-08-08T15:06:27Z</time>
      </trkpt>
      <trkpt lat="49.01457" lon="0.05295">
        <ele>137.51</ele>
        <time>2021-08-08T15:06:28Z</time>
      </trkpt>
      <trkpt lat="49.01458" lon="0.05297">
        <ele>137.57</ele>
        <time>2021-08-08T15:06:29Z</time>
      </trkpt>
      <trkpt lat="49.0146" lon="0.05302">
        <ele>137.8</ele>
        <time>2021-08-08T15:06:30Z</time>
      </trkpt>
      <trkpt lat="49.01462" lon="0.05306">
        <ele>138.06</ele>
        <time>2021-08-08T15:06:31Z</time>
      </trkpt>
      <trkpt lat="49.01463" lon="0.05309">
        <ele>138.33</ele>
        <time>2021-08-08T15:06:32Z</time>
      </trkpt>
      <trkpt lat="49.01463" lon="0.05313">
        <ele>138.65</ele>
        <time>2021-08-08T15:06:33Z</time>
      </trkpt>
      <trkpt lat="49.01464" lon="0.05316">
        <ele>138.89</ele>
        <time>2021-08-08T15:06:34Z</time>
      </trkpt>
      <trkpt lat="49.01464" lon="0.05318">
        <ele>139.14</ele>
        <time>2021-08-08T15:06:35Z</time>
      </trkpt>
      <trkpt lat="49.01464" lon="0.05321">
        <ele>139.38</ele>
        <time>2021-08-08T15:06:36Z</time>
      </trkpt>
      <trkpt lat="49.01465" lon="0.05323">
        <ele>139.6</ele>
        <time>2021-08-08T15:06:37Z</time>
      </trkpt>
      <trkpt lat="49.01465" lon="0.05325">
        <ele>139.82</ele>
        <time>2021-08-08T15:06:38Z</time>
      </trkpt>
      <trkpt lat="49.01465" lon="0.05328">
        <ele>140.11</ele>
        <time>2021-08-08T15:06:39Z</time>
      </trkpt>
      <trkpt lat="49.01465" lon="0.05332">
        <ele>140.47</ele>
        <time>2021-08-08T15:06:40Z</time>
      </trkpt>
      <trkpt lat="49.01465" lon="0.05336">
        <ele>140.89</ele>
        <time>2021-08-08T15:06:41Z</time>
      </trkpt>
      <trkpt lat="49.01464" lon="0.0534">
        <ele>141.27</ele>
        <time>2021-08-08T15:06:42Z</time>
      </trkpt>
      <trkpt lat="49.01464" lon="0.05344">
        <ele>141.63</ele>
        <time>2021-08-08T15:06:43Z</time>
      </trkpt>
      <trkpt lat="49.01464" lon="0.05348">
        <ele>141.9</ele>
        <time>2021-08-08T15:06:44Z</time>
      </trkpt>
      <trkpt lat="49.01464" lon="0.05351">
        <ele>142.22</ele>
        <time>2021-08-08T15:06:45Z</time>
      </trkpt>
      <trkpt lat="49.01464" lon="0.05354">
        <ele>142.48</ele>
        <time>2021-08-08T15:06:46Z</time>
      </trkpt>
      <trkpt lat="49.01464" lon="0.05357">
        <ele>142.71</ele>
        <time>2021-08-08T15:06:47Z</time>
      </trkpt>
      <trkpt lat="49.01463" lon="0.0536">
        <ele>143.05</ele>
        <time>2021-08-08T15:06:48Z</time>
      </trkpt>
      <trkpt lat="49.01463" lon="0.05364">
        <ele>143.5</ele>
        <time>2021-08-08T15:06:49Z</time>
      </trkpt>
      <trkpt lat="49.01462" lon="0.05368">
        <ele>143.93</ele>
        <time>2021-08-08T15:06:50Z</time>
      </trkpt>
      <trkpt lat="49.01463" lon="0.05371">
        <ele>144.27</ele>
        <time>2021-08-08T15:06:51Z</time>
      </trkpt>
      <trkpt lat="49.01463" lon="0.05375">
        <ele>144.6</ele>
        <time>2021-08-08T15:06:52Z</time>
      </trkpt>
      <trkpt lat="49.01463" lon="0.05378">
        <ele>144.95</ele>
        <time>2021-08-08T15:06:53Z</time>
      </trkpt>
      <trkpt lat="49.01464" lon="0.05382">
        <ele>145.29</ele>
        <time>2021-08-08T15:06:54Z</time>
      </trkpt>
      <trkpt lat="49.01464" lon="0.05385">
        <ele>145.58</ele>
        <time>2021-08-08T15:06:55Z</time>
      </trkpt>
      <trkpt lat="49.01464" lon="0.05388">
        <ele>145.92</ele>
        <time>2021-08-08T15:06:56Z</time>
      </trkpt>
      <trkpt lat="49.01463" lon="0.05391">
        <ele>146.34</ele>
        <time>2021-08-08T15:06:57Z</time>
      </trkpt>
      <trkpt lat="49.01463" lon="0.05395">
        <ele>146.72</ele>
        <time>2021-08-08T15:06:58Z</time>
      </trkpt>
      <trkpt lat="49.01464" lon="0.05397">
        <ele>146.98</ele>
        <time>2021-08-08T15:06:59Z</time>
      </trkpt>
      <trkpt lat="49.01464" lon="0.05401">
        <ele>147.27</ele>
        <time>2021-08-08T15:07:00Z</time>
      </trkpt>
      <trkpt lat="49.01464" lon="0.05404">
        <ele>147.62</ele>
        <time>2021-08-08T15:07:01Z</time>
      </trkpt>
      <trkpt lat="49.01465" lon="0.05407">
        <ele>147.9</ele>
        <time>2021-08-08T15:07:02Z</time>
      </trkpt>
      <trkpt lat="49.01466" lon="0.0541">
        <ele>148.13</ele>
        <time>2021-08-08T15:07:03Z</time>
      </trkpt>
      <trkpt lat="49.01466" lon="0.05413">
        <ele>148.47</ele>
        <time>2021-08-08T15:07:04Z</time>
      </trkpt>
      <trkpt lat="49.01465" lon="0.05417">
        <ele>148.93</ele>
        <time>2021-08-08T15:07:05Z</time>
      </trkpt>
      <trkpt lat="49.01463" lon="0.0542">
        <ele>149.39</ele>
        <time>2021-08-08T15:07:06Z</time>
      </trkpt>
      <trkpt lat="49.01461" lon="0.05423">
        <ele>149.88</ele>
        <time>2021-08-08T15:07:07Z</time>
      </trkpt>
      <trkpt lat="49.0146" lon="0.05425">
        <ele>150.26</ele>
        <time>2021-08-08T15:07:08Z</time>
      </trkpt>
      <trkpt lat="49.01459" lon="0.05428">
        <ele>150.57</ele>
        <time>2021-08-08T15:07:09Z</time>
      </trkpt>
      <trkpt lat="49.01459" lon="0.05431">
        <ele>150.85</ele>
        <time>2021-08-08T15:07:10Z</time>
      </trkpt>
      <trkpt lat="49.01458" lon="0.05434">
        <ele>151.18</ele>
        <time>2021-08-08T15:07:11Z</time>
      </trkpt>
      <trkpt lat="49.01458" lon="0.05437">
        <ele>151.44</ele>
        <time>2021-08-08T15:07:12Z</time>
      </trkpt>
      <trkpt lat="49.01459" lon="0.05441">
        <ele>151.62</ele>
        <time>2021-08-08T15:07:13Z</time>
      </trkpt>
      <trkpt lat="49.01459" lon="0.05444">
        <ele>151.8</ele>
        <time>2021-08-08T15:07:14Z</time>
      </trkpt>
      <trkpt lat="49.0146" lon="0.05447">
        <ele>151.76</ele>
        <time>2021-08-08T15:07:15Z</time>
      </trkpt>
      <trkpt lat="49.01462" lon="0.05451">
        <ele>151.55</ele>
        <time>2021-08-08T15:07:16Z</time>
      </trkpt>
      <trkpt lat="49.01464" lon="0.05455">
        <ele>151.23</ele>
        <time>2021-08-08T15:07:17Z</time>
      </trkpt>
      <trkpt lat="49.01466" lon="0.05459">
        <ele>150.93</ele>
        <time>2021-08-08T15:07:18Z</time>
      </trkpt>
      <trkpt lat="49.01469" lon="0.05463">
        <ele>150.56</ele>
        <time>2021-08-08T15:07:19Z</time>
      </trkpt>
      <trkpt lat="49.01472" lon="0.05464">
        <ele>150.15</ele>
        <time>2021-08-08T15:07:20Z</time>
      </trkpt>
      <trkpt lat="49.01476" lon="0.05466">
        <ele>149.59</ele>
        <time>2021-08-08T15:07:21Z</time>
      </trkpt>
      <trkpt lat="49.01479" lon="0.05467">
        <ele>149.06</ele>
        <time>2021-08-08T15:07:22Z</time>
      </trkpt>
      <trkpt lat="49.01482" lon="0.0547">
        <ele>148.42</ele>
        <time>2021-08-08T15:07:23Z</time>
      </trkpt>
      <trkpt lat="49.01486" lon="0.05473">
        <ele>147.78</ele>
        <time>2021-08-08T15:07:24Z</time>
      </trkpt>
      <trkpt lat="49.0149" lon="0.05477">
        <ele>147.1</ele>
        <time>2021-08-08T15:07:25Z</time>
      </trkpt>
      <trkpt lat="49.01495" lon="0.05481">
        <ele>146.45</ele>
        <time>2021-08-08T15:07:26Z</time>
      </trkpt>
      <trkpt lat="49.015" lon="0.05487">
        <ele>145.79</ele>
        <time>2021-08-08T15:07:27Z</time>
      </trkpt>
      <trkpt lat="49.01506" lon="0.05491">
        <ele>145.11</ele>
        <time>2021-08-08T15:07:28Z</time>
      </trkpt>
      <trkpt lat="49.0151" lon="0.05496">
        <ele>144.58</ele>
        <time>2021-08-08T15:07:29Z</time>
      </trkpt>
      <trkpt lat="49.01515" lon="0.05502">
        <ele>144.13</ele>
        <time>2021-08-08T15:07:30Z</time>
      </trkpt>
      <trkpt lat="49.0152" lon="0.05506">
        <ele>143.67</ele>
        <time>2021-08-08T15:07:31Z</time>
      </trkpt>
      <trkpt lat="49.01525" lon="0.05511">
        <ele>143.28</ele>
        <time>2021-08-08T15:07:32Z</time>
      </trkpt>
      <trkpt lat="49.01531" lon="0.05517">
        <ele>142.92</ele>
        <time>2021-08-08T15:07:33Z</time>
      </trkpt>
      <trkpt lat="49.01536" lon="0.05525">
        <ele>142.66</ele>
        <time>2021-08-08T15:07:34Z</time>
      </trkpt>
      <trkpt lat="49.01542" lon="0.05536">
        <ele>142.36</ele>
        <time>2021-08-08T15:07:35Z</time>
      </trkpt>
      <trkpt lat="49.01548" lon="0.05547">
        <ele>141.92</ele>
        <time>2021-08-08T15:07:36Z</time>
      </trkpt>
      <trkpt lat="49.01553" lon="0.05557">
        <ele>141.5</ele>
        <time>2021-08-08T15:07:37Z</time>
      </trkpt>
      <trkpt lat="49.01556" lon="0.05571">
        <ele>141.1</ele>
        <time>2021-08-08T15:07:38Z</time>
      </trkpt>
      <trkpt lat="49.01561" lon="0.05582">
        <ele>140.57</ele>
        <time>2021-08-08T15:07:39Z</time>
      </trkpt>
      <trkpt lat="49.01568" lon="0.0559">
        <ele>139.97</ele>
        <time>2021-08-08T15:07:40Z</time>
      </trkpt>
      <trkpt lat="49.01574" lon="0.05597">
        <ele>139.32</ele>
        <time>2021-08-08T15:07:41Z</time>
      </trkpt>
      <trkpt lat="49.01581" lon="0.05605">
        <ele>138.59</ele>
        <time>2021-08-08T15:07:42Z</time>
      </trkpt>
      <trkpt lat="49.01587" lon="0.05614">
        <ele>138.06</ele>
        <time>2021-08-08T15:07:43Z</time>
      </trkpt>
      <trkpt lat="49.01593" lon="0.05624">
        <ele>137.86</ele>
        <time>2021-08-08T15:07:44Z</time>
      </trkpt>
      <trkpt lat="49.01599" lon="0.05634">
        <ele>137.77</ele>
        <time>2021-08-08T15:07:45Z</time>
      </trkpt>
      <trkpt lat="49.01605" lon="0.05644">
        <ele>137.38</ele>
        <time>2021-08-08T15:07:46Z</time>
      </trkpt>
      <trkpt lat="49.01614" lon="0.05655">
        <ele>136.53</ele>
        <time>2021-08-08T15:07:47Z</time>
      </trkpt>
      <trkpt lat="49.01623" lon="0.05665">
        <ele>135.59</ele>
        <time>2021-08-08T15:07:48Z</time>
      </trkpt>
      <trkpt lat="49.01631" lon="0.05672">
        <ele>134.87</ele>
        <time>2021-08-08T15:07:49Z</time>
      </trkpt>
      <trkpt lat="49.01639" lon="0.05678">
        <ele>134.27</ele>
        <time>2021-08-08T15:07:50Z</time>
      </trkpt>
      <trkpt lat="49.01645" lon="0.05684">
        <ele>133.87</ele>
        <time>2021-08-08T15:07:51Z</time>
      </trkpt>
      <trkpt lat="49.01652" lon="0.05693">
        <ele>133.61</ele>
        <time>2021-08-08T15:07:52Z</time>
      </trkpt>
      <trkpt lat="49.01655" lon="0.05702">
        <ele>133.47</ele>
        <time>2021-08-08T15:07:53Z</time>
      </trkpt>
      <trkpt lat="49.01657" lon="0.05711">
        <ele>133.39</ele>
        <time>2021-08-08T15:07:54Z</time>
      </trkpt>
      <trkpt lat="49.01658" lon="0.0572">
        <ele>133.33</ele>
        <time>2021-08-08T15:07:55Z</time>
      </trkpt>
      <trkpt lat="49.01658" lon="0.05729">
        <ele>133.31</ele>
        <time>2021-08-08T15:07:56Z</time>
      </trkpt>
      <trkpt lat="49.01658" lon="0.05739">
        <ele>133.32</ele>
        <time>2021-08-08T15:07:57Z</time>
      </trkpt>
      <trkpt lat="49.01657" lon="0.0575">
        <ele>133.33</ele>
        <time>2021-08-08T15:07:58Z</time>
      </trkpt>
      <trkpt lat="49.01657" lon="0.0576">
        <ele>133.09</ele>
        <time>2021-08-08T15:07:59Z</time>
      </trkpt>
      <trkpt lat="49.01657" lon="0.0577">
        <ele>132.77</ele>
        <time>2021-08-08T15:08:00Z</time>
      </trkpt>
      <trkpt lat="49.01656" lon="0.05779">
        <ele>132.45</ele>
        <time>2021-08-08T15:08:01Z</time>
      </trkpt>
      <trkpt lat="49.01655" lon="0.05788">
        <ele>132.18</ele>
        <time>2021-08-08T15:08:02Z</time>
      </trkpt>
      <trkpt lat="49.01655" lon="0.05793">
        <ele>131.96</ele>
        <time>2021-08-08T15:08:03Z</time>
      </trkpt>
      <trkpt lat="49.01653" lon="0.05798">
        <ele>131.83</ele>
        <time>2021-08-08T15:08:04Z</time>
      </trkpt>
      <trkpt lat="49.01648" lon="0.058">
        <ele>131.86</ele>
        <time>2021-08-08T15:08:05Z</time>
      </trkpt>
      <trkpt lat="49.01643" lon="0.058">
        <ele>131.99</ele>
        <time>2021-08-08T15:08:06Z</time>
      </trkpt>
      <trkpt lat="49.01639" lon="0.058">
        <ele>132.13</ele>
        <time>2021-08-08T15:08:07Z</time>
      </trkpt>
      <trkpt lat="49.01635" lon="0.058">
        <ele>132.29</ele>
        <time>2021-08-08T15:08:08Z</time>
      </trkpt>
      <trkpt lat="49.0163" lon="0.058">
        <ele>132.45</ele>
        <time>2021-08-08T15:08:09Z</time>
      </trkpt>
      <trkpt lat="49.01626" lon="0.058">
        <ele>132.6</ele>
        <time>2021-08-08T15:08:10Z</time>
      </trkpt>
      <trkpt lat="49.01622" lon="0.05799">
        <ele>132.77</ele>
        <time>2021-08-08T15:08:11Z</time>
      </trkpt>
      <trkpt lat="49.01618" lon="0.05799">
        <ele>132.94</ele>
        <time>2021-08-08T15:08:12Z</time>
      </trkpt>
      <trkpt lat="49.01614" lon="0.05798">
        <ele>133.12</ele>
        <time>2021-08-08T15:08:13Z</time>
      </trkpt>
      <trkpt lat="49.01609" lon="0.05797">
        <ele>133.26</ele>
        <time>2021-08-08T15:08:14Z</time>
      </trkpt>
      <trkpt lat="49.01604" lon="0.05796">
        <ele>133.32</ele>
        <time>2021-08-08T15:08:15Z</time>
      </trkpt>
      <trkpt lat="49.01599" lon="0.05795">
        <ele>133.35</ele>
        <time>2021-08-08T15:08:16Z</time>
      </trkpt>
      <trkpt lat="49.01595" lon="0.05794">
        <ele>133.39</ele>
        <time>2021-08-08T15:08:17Z</time>
      </trkpt>
      <trkpt lat="49.01591" lon="0.05793">
        <ele>133.42</ele>
        <time>2021-08-08T15:08:18Z</time>
      </trkpt>
      <trkpt lat="49.01586" lon="0.05792">
        <ele>133.47</ele>
        <time>2021-08-08T15:08:19Z</time>
      </trkpt>
      <trkpt lat="49.01582" lon="0.0579">
        <ele>133.54</ele>
        <time>2021-08-08T15:08:20Z</time>
      </trkpt>
      <trkpt lat="49.01578" lon="0.05788">
        <ele>133.69</ele>
        <time>2021-08-08T15:08:21Z</time>
      </trkpt>
      <trkpt lat="49.01573" lon="0.05786">
        <ele>133.87</ele>
        <time>2021-08-08T15:08:22Z</time>
      </trkpt>
      <trkpt lat="49.01568" lon="0.05785">
        <ele>134.08</ele>
        <time>2021-08-08T15:08:23Z</time>
      </trkpt>
      <trkpt lat="49.01564" lon="0.05782">
        <ele>134.32</ele>
        <time>2021-08-08T15:08:24Z</time>
      </trkpt>
      <trkpt lat="49.01559" lon="0.0578">
        <ele>134.6</ele>
        <time>2021-08-08T15:08:25Z</time>
      </trkpt>
      <trkpt lat="49.01554" lon="0.05778">
        <ele>134.88</ele>
        <time>2021-08-08T15:08:26Z</time>
      </trkpt>
      <trkpt lat="49.01549" lon="0.05776">
        <ele>135.02</ele>
        <time>2021-08-08T15:08:27Z</time>
      </trkpt>
      <trkpt lat="49.01544" lon="0.05774">
        <ele>135.11</ele>
        <time>2021-08-08T15:08:28Z</time>
      </trkpt>
      <trkpt lat="49.01539" lon="0.05773">
        <ele>135.16</ele>
        <time>2021-08-08T15:08:29Z</time>
      </trkpt>
      <trkpt lat="49.01534" lon="0.05772">
        <ele>135.2</ele>
        <time>2021-08-08T15:08:30Z</time>
      </trkpt>
      <trkpt lat="49.01529" lon="0.05771">
        <ele>135.24</ele>
        <time>2021-08-08T15:08:31Z</time>
      </trkpt>
      <trkpt lat="49.01524" lon="0.0577">
        <ele>135.28</ele>
        <time>2021-08-08T15:08:32Z</time>
      </trkpt>
      <trkpt lat="49.01519" lon="0.0577">
        <ele>135.33</ele>
        <time>2021-08-08T15:08:33Z</time>
      </trkpt>
      <trkpt lat="49.01514" lon="0.0577">
        <ele>135.4</ele>
        <time>2021-08-08T15:08:34Z</time>
      </trkpt>
      <trkpt lat="49.01509" lon="0.05769">
        <ele>135.47</ele>
        <time>2021-08-08T15:08:35Z</time>
      </trkpt>
      <trkpt lat="49.01504" lon="0.0577">
        <ele>135.5</ele>
        <time>2021-08-08T15:08:36Z</time>
      </trkpt>
      <trkpt lat="49.01499" lon="0.05771">
        <ele>135.51</ele>
        <time>2021-08-08T15:08:37Z</time>
      </trkpt>
      <trkpt lat="49.01494" lon="0.05772">
        <ele>135.45</ele>
        <time>2021-08-08T15:08:38Z</time>
      </trkpt>
      <trkpt lat="49.01489" lon="0.05773">
        <ele>135.36</ele>
        <time>2021-08-08T15:08:39Z</time>
      </trkpt>
      <trkpt lat="49.01483" lon="0.05774">
        <ele>135.28</ele>
        <time>2021-08-08T15:08:40Z</time>
      </trkpt>
      <trkpt lat="49.01478" lon="0.05775">
        <ele>135.22</ele>
        <time>2021-08-08T15:08:41Z</time>
      </trkpt>
      <trkpt lat="49.01473" lon="0.05776">
        <ele>135.17</ele>
        <time>2021-08-08T15:08:42Z</time>
      </trkpt>
      <trkpt lat="49.01469" lon="0.05776">
        <ele>135.15</ele>
        <time>2021-08-08T15:08:43Z</time>
      </trkpt>
      <trkpt lat="49.01464" lon="0.05775">
        <ele>135.18</ele>
        <time>2021-08-08T15:08:44Z</time>
      </trkpt>
      <trkpt lat="49.01459" lon="0.05774">
        <ele>135.24</ele>
        <time>2021-08-08T15:08:45Z</time>
      </trkpt>
      <trkpt lat="49.01454" lon="0.05773">
        <ele>135.31</ele>
        <time>2021-08-08T15:08:46Z</time>
      </trkpt>
      <trkpt lat="49.01449" lon="0.05772">
        <ele>135.41</ele>
        <time>2021-08-08T15:08:47Z</time>
      </trkpt>
      <trkpt lat="49.01444" lon="0.0577">
        <ele>135.51</ele>
        <time>2021-08-08T15:08:48Z</time>
      </trkpt>
      <trkpt lat="49.0144" lon="0.05768">
        <ele>135.59</ele>
        <time>2021-08-08T15:08:49Z</time>
      </trkpt>
      <trkpt lat="49.01435" lon="0.05767">
        <ele>135.62</ele>
        <time>2021-08-08T15:08:50Z</time>
      </trkpt>
      <trkpt lat="49.0143" lon="0.05765">
        <ele>135.65</ele>
        <time>2021-08-08T15:08:51Z</time>
      </trkpt>
      <trkpt lat="49.01425" lon="0.05763">
        <ele>135.68</ele>
        <time>2021-08-08T15:08:52Z</time>
      </trkpt>
      <trkpt lat="49.0142" lon="0.0576">
        <ele>135.69</ele>
        <time>2021-08-08T15:08:53Z</time>
      </trkpt>
      <trkpt lat="49.01416" lon="0.05758">
        <ele>135.72</ele>
        <time>2021-08-08T15:08:54Z</time>
      </trkpt>
      <trkpt lat="49.01411" lon="0.05755">
        <ele>135.79</ele>
        <time>2021-08-08T15:08:55Z</time>
      </trkpt>
      <trkpt lat="49.01407" lon="0.05753">
        <ele>135.87</ele>
        <time>2021-08-08T15:08:56Z</time>
      </trkpt>
      <trkpt lat="49.01403" lon="0.0575">
        <ele>135.97</ele>
        <time>2021-08-08T15:08:57Z</time>
      </trkpt>
      <trkpt lat="49.01398" lon="0.05747">
        <ele>136.22</ele>
        <time>2021-08-08T15:08:58Z</time>
      </trkpt>
      <trkpt lat="49.01394" lon="0.05744">
        <ele>136.51</ele>
        <time>2021-08-08T15:08:59Z</time>
      </trkpt>
      <trkpt lat="49.01389" lon="0.05742">
        <ele>136.76</ele>
        <time>2021-08-08T15:09:00Z</time>
      </trkpt>
      <trkpt lat="49.01384" lon="0.05739">
        <ele>137.13</ele>
        <time>2021-08-08T15:09:01Z</time>
      </trkpt>
      <trkpt lat="49.01379" lon="0.05737">
        <ele>137.53</ele>
        <time>2021-08-08T15:09:02Z</time>
      </trkpt>
      <trkpt lat="49.01374" lon="0.05736">
        <ele>137.91</ele>
        <time>2021-08-08T15:09:03Z</time>
      </trkpt>
      <trkpt lat="49.01369" lon="0.05734">
        <ele>138.3</ele>
        <time>2021-08-08T15:09:04Z</time>
      </trkpt>
      <trkpt lat="49.01364" lon="0.05733">
        <ele>138.61</ele>
        <time>2021-08-08T15:09:05Z</time>
      </trkpt>
      <trkpt lat="49.01361" lon="0.05732">
        <ele>138.83</ele>
        <time>2021-08-08T15:09:06Z</time>
      </trkpt>
      <trkpt lat="49.01356" lon="0.05732">
        <ele>138.92</ele>
        <time>2021-08-08T15:09:07Z</time>
      </trkpt>
      <trkpt lat="49.01351" lon="0.05733">
        <ele>138.87</ele>
        <time>2021-08-08T15:09:08Z</time>
      </trkpt>
      <trkpt lat="49.01346" lon="0.05733">
        <ele>138.82</ele>
        <time>2021-08-08T15:09:09Z</time>
      </trkpt>
      <trkpt lat="49.0134" lon="0.05734">
        <ele>138.72</ele>
        <time>2021-08-08T15:09:10Z</time>
      </trkpt>
      <trkpt lat="49.01335" lon="0.05735">
        <ele>138.67</ele>
        <time>2021-08-08T15:09:11Z</time>
      </trkpt>
      <trkpt lat="49.01329" lon="0.05737">
        <ele>138.55</ele>
        <time>2021-08-08T15:09:12Z</time>
      </trkpt>
      <trkpt lat="49.01324" lon="0.05738">
        <ele>138.45</ele>
        <time>2021-08-08T15:09:13Z</time>
      </trkpt>
      <trkpt lat="49.01318" lon="0.0574">
        <ele>138.3</ele>
        <time>2021-08-08T15:09:14Z</time>
      </trkpt>
      <trkpt lat="49.01313" lon="0.05742">
        <ele>138.13</ele>
        <time>2021-08-08T15:09:15Z</time>
      </trkpt>
      <trkpt lat="49.01308" lon="0.05744">
        <ele>137.96</ele>
        <time>2021-08-08T15:09:16Z</time>
      </trkpt>
      <trkpt lat="49.01303" lon="0.05745">
        <ele>137.83</ele>
        <time>2021-08-08T15:09:17Z</time>
      </trkpt>
      <trkpt lat="49.01298" lon="0.05747">
        <ele>137.73</ele>
        <time>2021-08-08T15:09:18Z</time>
      </trkpt>
      <trkpt lat="49.01293" lon="0.05749">
        <ele>137.62</ele>
        <time>2021-08-08T15:09:19Z</time>
      </trkpt>
      <trkpt lat="49.01288" lon="0.05751">
        <ele>137.59</ele>
        <time>2021-08-08T15:09:20Z</time>
      </trkpt>
      <trkpt lat="49.01282" lon="0.05753">
        <ele>137.61</ele>
        <time>2021-08-08T15:09:21Z</time>
      </trkpt>
      <trkpt lat="49.01276" lon="0.05755">
        <ele>137.65</ele>
        <time>2021-08-08T15:09:22Z</time>
      </trkpt>
      <trkpt lat="49.01271" lon="0.05756">
        <ele>137.59</ele>
        <time>2021-08-08T15:09:23Z</time>
      </trkpt>
      <trkpt lat="49.01265" lon="0.05758">
        <ele>137.46</ele>
        <time>2021-08-08T15:09:24Z</time>
      </trkpt>
      <trkpt lat="49.01259" lon="0.05761">
        <ele>137.3</ele>
        <time>2021-08-08T15:09:25Z</time>
      </trkpt>
      <trkpt lat="49.01254" lon="0.05762">
        <ele>137.18</ele>
        <time>2021-08-08T15:09:26Z</time>
      </trkpt>
      <trkpt lat="49.01249" lon="0.05763">
        <ele>137.1</ele>
        <time>2021-08-08T15:09:27Z</time>
      </trkpt>
      <trkpt lat="49.01244" lon="0.05764">
        <ele>137.11</ele>
        <time>2021-08-08T15:09:28Z</time>
      </trkpt>
      <trkpt lat="49.01239" lon="0.05766">
        <ele>137.07</ele>
        <time>2021-08-08T15:09:29Z</time>
      </trkpt>
      <trkpt lat="49.01233" lon="0.05767">
        <ele>137</ele>
        <time>2021-08-08T15:09:30Z</time>
      </trkpt>
      <trkpt lat="49.01228" lon="0.05769">
        <ele>136.95</ele>
        <time>2021-08-08T15:09:31Z</time>
      </trkpt>
      <trkpt lat="49.01223" lon="0.05769">
        <ele>136.94</ele>
        <time>2021-08-08T15:09:32Z</time>
      </trkpt>
      <trkpt lat="49.01218" lon="0.05769">
        <ele>137.04</ele>
        <time>2021-08-08T15:09:33Z</time>
      </trkpt>
      <trkpt lat="49.01213" lon="0.05767">
        <ele>137.25</ele>
        <time>2021-08-08T15:09:34Z</time>
      </trkpt>
      <trkpt lat="49.01209" lon="0.05766">
        <ele>137.47</ele>
        <time>2021-08-08T15:09:35Z</time>
      </trkpt>
      <trkpt lat="49.01205" lon="0.05764">
        <ele>137.7</ele>
        <time>2021-08-08T15:09:36Z</time>
      </trkpt>
      <trkpt lat="49.01202" lon="0.05762">
        <ele>137.92</ele>
        <time>2021-08-08T15:09:37Z</time>
      </trkpt>
      <trkpt lat="49.01198" lon="0.0576">
        <ele>138.12</ele>
        <time>2021-08-08T15:09:38Z</time>
      </trkpt>
      <trkpt lat="49.01195" lon="0.0576">
        <ele>138.22</ele>
        <time>2021-08-08T15:09:39Z</time>
      </trkpt>
      <trkpt lat="49.01192" lon="0.05759">
        <ele>138.46</ele>
        <time>2021-08-08T15:09:40Z</time>
      </trkpt>
      <trkpt lat="49.01189" lon="0.05759">
        <ele>138.79</ele>
        <time>2021-08-08T15:09:41Z</time>
      </trkpt>
      <trkpt lat="49.01186" lon="0.05758">
        <ele>139.16</ele>
        <time>2021-08-08T15:09:42Z</time>
      </trkpt>
      <trkpt lat="49.01183" lon="0.05757">
        <ele>139.56</ele>
        <time>2021-08-08T15:09:43Z</time>
      </trkpt>
      <trkpt lat="49.0118" lon="0.05757">
        <ele>139.94</ele>
        <time>2021-08-08T15:09:44Z</time>
      </trkpt>
      <trkpt lat="49.01176" lon="0.05757">
        <ele>140.31</ele>
        <time>2021-08-08T15:09:45Z</time>
      </trkpt>
      <trkpt lat="49.01173" lon="0.05758">
        <ele>140.65</ele>
        <time>2021-08-08T15:09:46Z</time>
      </trkpt>
      <trkpt lat="49.0117" lon="0.05758">
        <ele>140.98</ele>
        <time>2021-08-08T15:09:47Z</time>
      </trkpt>
      <trkpt lat="49.01166" lon="0.05759">
        <ele>141.29</ele>
        <time>2021-08-08T15:09:48Z</time>
      </trkpt>
      <trkpt lat="49.01163" lon="0.05759">
        <ele>141.6</ele>
        <time>2021-08-08T15:09:49Z</time>
      </trkpt>
      <trkpt lat="49.01161" lon="0.05758">
        <ele>141.93</ele>
        <time>2021-08-08T15:09:50Z</time>
      </trkpt>
      <trkpt lat="49.01158" lon="0.05758">
        <ele>142.28</ele>
        <time>2021-08-08T15:09:51Z</time>
      </trkpt>
      <trkpt lat="49.01154" lon="0.05757">
        <ele>142.64</ele>
        <time>2021-08-08T15:09:52Z</time>
      </trkpt>
      <trkpt lat="49.01151" lon="0.05756">
        <ele>143.06</ele>
        <time>2021-08-08T15:09:53Z</time>
      </trkpt>
      <trkpt lat="49.01148" lon="0.05754">
        <ele>143.51</ele>
        <time>2021-08-08T15:09:54Z</time>
      </trkpt>
      <trkpt lat="49.01145" lon="0.05753">
        <ele>143.94</ele>
        <time>2021-08-08T15:09:55Z</time>
      </trkpt>
      <trkpt lat="49.01142" lon="0.05752">
        <ele>144.4</ele>
        <time>2021-08-08T15:09:56Z</time>
      </trkpt>
      <trkpt lat="49.01138" lon="0.0575">
        <ele>144.84</ele>
        <time>2021-08-08T15:09:57Z</time>
      </trkpt>
      <trkpt lat="49.01135" lon="0.05749">
        <ele>145.2</ele>
        <time>2021-08-08T15:09:58Z</time>
      </trkpt>
      <trkpt lat="49.01133" lon="0.05747">
        <ele>145.52</ele>
        <time>2021-08-08T15:09:59Z</time>
      </trkpt>
      <trkpt lat="49.01129" lon="0.05746">
        <ele>145.84</ele>
        <time>2021-08-08T15:10:00Z</time>
      </trkpt>
      <trkpt lat="49.01127" lon="0.05744">
        <ele>146.19</ele>
        <time>2021-08-08T15:10:01Z</time>
      </trkpt>
      <trkpt lat="49.01124" lon="0.05742">
        <ele>146.55</ele>
        <time>2021-08-08T15:10:02Z</time>
      </trkpt>
      <trkpt lat="49.01121" lon="0.05739">
        <ele>146.91</ele>
        <time>2021-08-08T15:10:03Z</time>
      </trkpt>
      <trkpt lat="49.01119" lon="0.05737">
        <ele>147.25</ele>
        <time>2021-08-08T15:10:04Z</time>
      </trkpt>
      <trkpt lat="49.01117" lon="0.05734">
        <ele>147.58</ele>
        <time>2021-08-08T15:10:05Z</time>
      </trkpt>
      <trkpt lat="49.01115" lon="0.05732">
        <ele>147.92</ele>
        <time>2021-08-08T15:10:06Z</time>
      </trkpt>
      <trkpt lat="49.01113" lon="0.05729">
        <ele>148.27</ele>
        <time>2021-08-08T15:10:07Z</time>
      </trkpt>
      <trkpt lat="49.01111" lon="0.05726">
        <ele>148.61</ele>
        <time>2021-08-08T15:10:08Z</time>
      </trkpt>
      <trkpt lat="49.01108" lon="0.05725">
        <ele>148.88</ele>
        <time>2021-08-08T15:10:09Z</time>
      </trkpt>
      <trkpt lat="49.01106" lon="0.05724">
        <ele>149.15</ele>
        <time>2021-08-08T15:10:10Z</time>
      </trkpt>
      <trkpt lat="49.01104" lon="0.05722">
        <ele>149.41</ele>
        <time>2021-08-08T15:10:11Z</time>
      </trkpt>
      <trkpt lat="49.01102" lon="0.05721">
        <ele>149.66</ele>
        <time>2021-08-08T15:10:12Z</time>
      </trkpt>
      <trkpt lat="49.01099" lon="0.05719">
        <ele>149.95</ele>
        <time>2021-08-08T15:10:13Z</time>
      </trkpt>
      <trkpt lat="49.01097" lon="0.05717">
        <ele>150.25</ele>
        <time>2021-08-08T15:10:14Z</time>
      </trkpt>
      <trkpt lat="49.01095" lon="0.05716">
        <ele>150.52</ele>
        <time>2021-08-08T15:10:15Z</time>
      </trkpt>
      <trkpt lat="49.01092" lon="0.05715">
        <ele>150.76</ele>
        <time>2021-08-08T15:10:16Z</time>
      </trkpt>
      <trkpt lat="49.01089" lon="0.05714">
        <ele>151.02</ele>
        <time>2021-08-08T15:10:17Z</time>
      </trkpt>
      <trkpt lat="49.01087" lon="0.05713">
        <ele>151.29</ele>
        <time>2021-08-08T15:10:18Z</time>
      </trkpt>
      <trkpt lat="49.01085" lon="0.05712">
        <ele>151.53</ele>
        <time>2021-08-08T15:10:19Z</time>
      </trkpt>
      <trkpt lat="49.01083" lon="0.05711">
        <ele>151.76</ele>
        <time>2021-08-08T15:10:20Z</time>
      </trkpt>
      <trkpt lat="49.01081" lon="0.0571">
        <ele>151.98</ele>
        <time>2021-08-08T15:10:21Z</time>
      </trkpt>
      <trkpt lat="49.01078" lon="0.05709">
        <ele>152.2</ele>
        <time>2021-08-08T15:10:22Z</time>
      </trkpt>
      <trkpt lat="49.01076" lon="0.05709">
        <ele>152.43</ele>
        <time>2021-08-08T15:10:23Z</time>
      </trkpt>
      <trkpt lat="49.01074" lon="0.05708">
        <ele>152.65</ele>
        <time>2021-08-08T15:10:24Z</time>
      </trkpt>
      <trkpt lat="49.01071" lon="0.05707">
        <ele>152.85</ele>
        <time>2021-08-08T15:10:25Z</time>
      </trkpt>
      <trkpt lat="49.01069" lon="0.05708">
        <ele>153.02</ele>
        <time>2021-08-08T15:10:26Z</time>
      </trkpt>
      <trkpt lat="49.01066" lon="0.05708">
        <ele>153.17</ele>
        <time>2021-08-08T15:10:27Z</time>
      </trkpt>
      <trkpt lat="49.01064" lon="0.05709">
        <ele>153.31</ele>
        <time>2021-08-08T15:10:28Z</time>
      </trkpt>
      <trkpt lat="49.01061" lon="0.0571">
        <ele>153.47</ele>
        <time>2021-08-08T15:10:29Z</time>
      </trkpt>
      <trkpt lat="49.01058" lon="0.0571">
        <ele>153.63</ele>
        <time>2021-08-08T15:10:30Z</time>
      </trkpt>
      <trkpt lat="49.01055" lon="0.05711">
        <ele>153.79</ele>
        <time>2021-08-08T15:10:31Z</time>
      </trkpt>
      <trkpt lat="49.01051" lon="0.05711">
        <ele>153.9</ele>
        <time>2021-08-08T15:10:32Z</time>
      </trkpt>
      <trkpt lat="49.01048" lon="0.05711">
        <ele>154</ele>
        <time>2021-08-08T15:10:33Z</time>
      </trkpt>
      <trkpt lat="49.01045" lon="0.05713">
        <ele>154.06</ele>
        <time>2021-08-08T15:10:34Z</time>
      </trkpt>
      <trkpt lat="49.01042" lon="0.05713">
        <ele>154.13</ele>
        <time>2021-08-08T15:10:35Z</time>
      </trkpt>
      <trkpt lat="49.01039" lon="0.05713">
        <ele>154.19</ele>
        <time>2021-08-08T15:10:36Z</time>
      </trkpt>
      <trkpt lat="49.01036" lon="0.05715">
        <ele>154.22</ele>
        <time>2021-08-08T15:10:37Z</time>
      </trkpt>
      <trkpt lat="49.01032" lon="0.05714">
        <ele>154.35</ele>
        <time>2021-08-08T15:10:38Z</time>
      </trkpt>
      <trkpt lat="49.01029" lon="0.05714">
        <ele>154.48</ele>
        <time>2021-08-08T15:10:39Z</time>
      </trkpt>
      <trkpt lat="49.01026" lon="0.05714">
        <ele>154.61</ele>
        <time>2021-08-08T15:10:40Z</time>
      </trkpt>
      <trkpt lat="49.01023" lon="0.05714">
        <ele>154.78</ele>
        <time>2021-08-08T15:10:41Z</time>
      </trkpt>
      <trkpt lat="49.0102" lon="0.05713">
        <ele>154.93</ele>
        <time>2021-08-08T15:10:42Z</time>
      </trkpt>
      <trkpt lat="49.01018" lon="0.05713">
        <ele>155.09</ele>
        <time>2021-08-08T15:10:43Z</time>
      </trkpt>
      <trkpt lat="49.01015" lon="0.05712">
        <ele>155.3</ele>
        <time>2021-08-08T15:10:44Z</time>
      </trkpt>
      <trkpt lat="49.01013" lon="0.05711">
        <ele>155.48</ele>
        <time>2021-08-08T15:10:45Z</time>
      </trkpt>
      <trkpt lat="49.0101" lon="0.0571">
        <ele>155.69</ele>
        <time>2021-08-08T15:10:46Z</time>
      </trkpt>
      <trkpt lat="49.01009" lon="0.05709">
        <ele>155.86</ele>
        <time>2021-08-08T15:10:47Z</time>
      </trkpt>
      <trkpt lat="49.01007" lon="0.05708">
        <ele>156.07</ele>
        <time>2021-08-08T15:10:48Z</time>
      </trkpt>
      <trkpt lat="49.01004" lon="0.05707">
        <ele>156.34</ele>
        <time>2021-08-08T15:10:49Z</time>
      </trkpt>
      <trkpt lat="49.01002" lon="0.05705">
        <ele>156.6</ele>
        <time>2021-08-08T15:10:50Z</time>
      </trkpt>
      <trkpt lat="49.01" lon="0.05704">
        <ele>156.84</ele>
        <time>2021-08-08T15:10:51Z</time>
      </trkpt>
      <trkpt lat="49.00999" lon="0.05703">
        <ele>157.04</ele>
        <time>2021-08-08T15:10:52Z</time>
      </trkpt>
      <trkpt lat="49.00997" lon="0.05703">
        <ele>157.25</ele>
        <time>2021-08-08T15:10:53Z</time>
      </trkpt>
      <trkpt lat="49.00995" lon="0.05703">
        <ele>157.37</ele>
        <time>2021-08-08T15:10:54Z</time>
      </trkpt>
      <trkpt lat="49.00993" lon="0.05703">
        <ele>157.52</ele>
        <time>2021-08-08T15:10:55Z</time>
      </trkpt>
      <trkpt lat="49.0099" lon="0.05704">
        <ele>157.64</ele>
        <time>2021-08-08T15:10:56Z</time>
      </trkpt>
      <trkpt lat="49.00988" lon="0.05704">
        <ele>157.82</ele>
        <time>2021-08-08T15:10:57Z</time>
      </trkpt>
      <trkpt lat="49.00985" lon="0.05704">
        <ele>157.94</ele>
        <time>2021-08-08T15:10:58Z</time>
      </trkpt>
      <trkpt lat="49.00983" lon="0.05703">
        <ele>158.18</ele>
        <time>2021-08-08T15:10:59Z</time>
      </trkpt>
      <trkpt lat="49.0098" lon="0.05703">
        <ele>158.47</ele>
        <time>2021-08-08T15:11:00Z</time>
      </trkpt>
      <trkpt lat="49.00977" lon="0.05702">
        <ele>158.71</ele>
        <time>2021-08-08T15:11:01Z</time>
      </trkpt>
      <trkpt lat="49.00975" lon="0.05701">
        <ele>158.98</ele>
        <time>2021-08-08T15:11:02Z</time>
      </trkpt>
      <trkpt lat="49.00972" lon="0.05701">
        <ele>159.25</ele>
        <time>2021-08-08T15:11:03Z</time>
      </trkpt>
      <trkpt lat="49.00969" lon="0.057">
        <ele>159.51</ele>
        <time>2021-08-08T15:11:04Z</time>
      </trkpt>
      <trkpt lat="49.00965" lon="0.05701">
        <ele>159.78</ele>
        <time>2021-08-08T15:11:05Z</time>
      </trkpt>
      <trkpt lat="49.00962" lon="0.05701">
        <ele>160.04</ele>
        <time>2021-08-08T15:11:06Z</time>
      </trkpt>
      <trkpt lat="49.00958" lon="0.05701">
        <ele>160.29</ele>
        <time>2021-08-08T15:11:07Z</time>
      </trkpt>
      <trkpt lat="49.00955" lon="0.05702">
        <ele>160.52</ele>
        <time>2021-08-08T15:11:08Z</time>
      </trkpt>
      <trkpt lat="49.00951" lon="0.05703">
        <ele>160.75</ele>
        <time>2021-08-08T15:11:09Z</time>
      </trkpt>
      <trkpt lat="49.00948" lon="0.05703">
        <ele>161</ele>
        <time>2021-08-08T15:11:10Z</time>
      </trkpt>
      <trkpt lat="49.00944" lon="0.05703">
        <ele>161.26</ele>
        <time>2021-08-08T15:11:11Z</time>
      </trkpt>
      <trkpt lat="49.00941" lon="0.05703">
        <ele>161.53</ele>
        <time>2021-08-08T15:11:12Z</time>
      </trkpt>
      <trkpt lat="49.00937" lon="0.05703">
        <ele>161.83</ele>
        <time>2021-08-08T15:11:13Z</time>
      </trkpt>
      <trkpt lat="49.00934" lon="0.05703">
        <ele>162.13</ele>
        <time>2021-08-08T15:11:14Z</time>
      </trkpt>
      <trkpt lat="49.0093" lon="0.05703">
        <ele>162.44</ele>
        <time>2021-08-08T15:11:15Z</time>
      </trkpt>
      <trkpt lat="49.00926" lon="0.05705">
        <ele>162.71</ele>
        <time>2021-08-08T15:11:16Z</time>
      </trkpt>
      <trkpt lat="49.00922" lon="0.05706">
        <ele>162.98</ele>
        <time>2021-08-08T15:11:17Z</time>
      </trkpt>
      <trkpt lat="49.00919" lon="0.05707">
        <ele>163.25</ele>
        <time>2021-08-08T15:11:18Z</time>
      </trkpt>
      <trkpt lat="49.00915" lon="0.05708">
        <ele>163.5</ele>
        <time>2021-08-08T15:11:19Z</time>
      </trkpt>
      <trkpt lat="49.00911" lon="0.0571">
        <ele>163.69</ele>
        <time>2021-08-08T15:11:20Z</time>
      </trkpt>
      <trkpt lat="49.00907" lon="0.05711">
        <ele>163.87</ele>
        <time>2021-08-08T15:11:21Z</time>
      </trkpt>
      <trkpt lat="49.00904" lon="0.05712">
        <ele>164.05</ele>
        <time>2021-08-08T15:11:22Z</time>
      </trkpt>
      <trkpt lat="49.00901" lon="0.05714">
        <ele>164.21</ele>
        <time>2021-08-08T15:11:23Z</time>
      </trkpt>
      <trkpt lat="49.00897" lon="0.05715">
        <ele>164.4</ele>
        <time>2021-08-08T15:11:24Z</time>
      </trkpt>
      <trkpt lat="49.00894" lon="0.05715">
        <ele>164.6</ele>
        <time>2021-08-08T15:11:25Z</time>
      </trkpt>
      <trkpt lat="49.0089" lon="0.05716">
        <ele>164.82</ele>
        <time>2021-08-08T15:11:26Z</time>
      </trkpt>
      <trkpt lat="49.00887" lon="0.05717">
        <ele>165.04</ele>
        <time>2021-08-08T15:11:27Z</time>
      </trkpt>
      <trkpt lat="49.00884" lon="0.05718">
        <ele>165.28</ele>
        <time>2021-08-08T15:11:28Z</time>
      </trkpt>
      <trkpt lat="49.0088" lon="0.05717">
        <ele>165.51</ele>
        <time>2021-08-08T15:11:29Z</time>
      </trkpt>
      <trkpt lat="49.00877" lon="0.05718">
        <ele>165.76</ele>
        <time>2021-08-08T15:11:30Z</time>
      </trkpt>
      <trkpt lat="49.00873" lon="0.05719">
        <ele>166</ele>
        <time>2021-08-08T15:11:31Z</time>
      </trkpt>
      <trkpt lat="49.0087" lon="0.0572">
        <ele>166.25</ele>
        <time>2021-08-08T15:11:32Z</time>
      </trkpt>
      <trkpt lat="49.00867" lon="0.0572">
        <ele>166.5</ele>
        <time>2021-08-08T15:11:33Z</time>
      </trkpt>
      <trkpt lat="49.00863" lon="0.05721">
        <ele>166.73</ele>
        <time>2021-08-08T15:11:34Z</time>
      </trkpt>
      <trkpt lat="49.0086" lon="0.0572">
        <ele>166.94</ele>
        <time>2021-08-08T15:11:35Z</time>
      </trkpt>
      <trkpt lat="49.00857" lon="0.0572">
        <ele>167.09</ele>
        <time>2021-08-08T15:11:36Z</time>
      </trkpt>
      <trkpt lat="49.00854" lon="0.0572">
        <ele>167.21</ele>
        <time>2021-08-08T15:11:37Z</time>
      </trkpt>
      <trkpt lat="49.0085" lon="0.05719">
        <ele>167.33</ele>
        <time>2021-08-08T15:11:38Z</time>
      </trkpt>
      <trkpt lat="49.00847" lon="0.05718">
        <ele>167.46</ele>
        <time>2021-08-08T15:11:39Z</time>
      </trkpt>
      <trkpt lat="49.00843" lon="0.05716">
        <ele>167.6</ele>
        <time>2021-08-08T15:11:40Z</time>
      </trkpt>
      <trkpt lat="49.00839" lon="0.05716">
        <ele>167.73</ele>
        <time>2021-08-08T15:11:41Z</time>
      </trkpt>
      <trkpt lat="49.00835" lon="0.05715">
        <ele>167.87</ele>
        <time>2021-08-08T15:11:42Z</time>
      </trkpt>
      <trkpt lat="49.00831" lon="0.05715">
        <ele>168.01</ele>
        <time>2021-08-08T15:11:43Z</time>
      </trkpt>
      <trkpt lat="49.00827" lon="0.05715">
        <ele>168.16</ele>
        <time>2021-08-08T15:11:44Z</time>
      </trkpt>
      <trkpt lat="49.00823" lon="0.05716">
        <ele>168.32</ele>
        <time>2021-08-08T15:11:45Z</time>
      </trkpt>
      <trkpt lat="49.00818" lon="0.05716">
        <ele>168.48</ele>
        <time>2021-08-08T15:11:46Z</time>
      </trkpt>
      <trkpt lat="49.00813" lon="0.05716">
        <ele>168.65</ele>
        <time>2021-08-08T15:11:47Z</time>
      </trkpt>
      <trkpt lat="49.00809" lon="0.05717">
        <ele>168.82</ele>
        <time>2021-08-08T15:11:48Z</time>
      </trkpt>
      <trkpt lat="49.00804" lon="0.05718">
        <ele>168.99</ele>
        <time>2021-08-08T15:11:49Z</time>
      </trkpt>
      <trkpt lat="49.00799" lon="0.05719">
        <ele>169.15</ele>
        <time>2021-08-08T15:11:50Z</time>
      </trkpt>
      <trkpt lat="49.00794" lon="0.0572">
        <ele>169.33</ele>
        <time>2021-08-08T15:11:51Z</time>
      </trkpt>
      <trkpt lat="49.00789" lon="0.05721">
        <ele>169.51</ele>
        <time>2021-08-08T15:11:52Z</time>
      </trkpt>
      <trkpt lat="49.00784" lon="0.05723">
        <ele>169.69</ele>
        <time>2021-08-08T15:11:53Z</time>
      </trkpt>
      <trkpt lat="49.0078" lon="0.05723">
        <ele>169.85</ele>
        <time>2021-08-08T15:11:54Z</time>
      </trkpt>
      <trkpt lat="49.00776" lon="0.05723">
        <ele>169.96</ele>
        <time>2021-08-08T15:11:55Z</time>
      </trkpt>
      <trkpt lat="49.00771" lon="0.05725">
        <ele>169.99</ele>
        <time>2021-08-08T15:11:56Z</time>
      </trkpt>
      <trkpt lat="49.00767" lon="0.05727">
        <ele>170</ele>
        <time>2021-08-08T15:11:57Z</time>
      </trkpt>
      <trkpt lat="49.00763" lon="0.05728">
        <ele>170</ele>
        <time>2021-08-08T15:11:58Z</time>
      </trkpt>
      <trkpt lat="49.00758" lon="0.05729">
        <ele>170</ele>
        <time>2021-08-08T15:11:59Z</time>
      </trkpt>
      <trkpt lat="49.00753" lon="0.05731">
        <ele>170</ele>
        <time>2021-08-08T15:12:00Z</time>
      </trkpt>
      <trkpt lat="49.00748" lon="0.05733">
        <ele>170.04</ele>
        <time>2021-08-08T15:12:01Z</time>
      </trkpt>
      <trkpt lat="49.00744" lon="0.05734">
        <ele>170.16</ele>
        <time>2021-08-08T15:12:02Z</time>
      </trkpt>
      <trkpt lat="49.0074" lon="0.05736">
        <ele>170.29</ele>
        <time>2021-08-08T15:12:03Z</time>
      </trkpt>
      <trkpt lat="49.00736" lon="0.05737">
        <ele>170.44</ele>
        <time>2021-08-08T15:12:04Z</time>
      </trkpt>
      <trkpt lat="49.00731" lon="0.05738">
        <ele>170.61</ele>
        <time>2021-08-08T15:12:05Z</time>
      </trkpt>
      <trkpt lat="49.00726" lon="0.05739">
        <ele>170.79</ele>
        <time>2021-08-08T15:12:06Z</time>
      </trkpt>
      <trkpt lat="49.00721" lon="0.05741">
        <ele>170.94</ele>
        <time>2021-08-08T15:12:07Z</time>
      </trkpt>
      <trkpt lat="49.00715" lon="0.05742">
        <ele>170.98</ele>
        <time>2021-08-08T15:12:08Z</time>
      </trkpt>
      <trkpt lat="49.00709" lon="0.05742">
        <ele>170.99</ele>
        <time>2021-08-08T15:12:09Z</time>
      </trkpt>
      <trkpt lat="49.00704" lon="0.05743">
        <ele>171</ele>
        <time>2021-08-08T15:12:10Z</time>
      </trkpt>
      <trkpt lat="49.00698" lon="0.05745">
        <ele>171</ele>
        <time>2021-08-08T15:12:11Z</time>
      </trkpt>
      <trkpt lat="49.00693" lon="0.05746">
        <ele>171</ele>
        <time>2021-08-08T15:12:12Z</time>
      </trkpt>
      <trkpt lat="49.00688" lon="0.05747">
        <ele>171</ele>
        <time>2021-08-08T15:12:13Z</time>
      </trkpt>
      <trkpt lat="49.00682" lon="0.05748">
        <ele>171</ele>
        <time>2021-08-08T15:12:14Z</time>
      </trkpt>
      <trkpt lat="49.00676" lon="0.05749">
        <ele>171</ele>
        <time>2021-08-08T15:12:15Z</time>
      </trkpt>
      <trkpt lat="49.00671" lon="0.05749">
        <ele>171</ele>
        <time>2021-08-08T15:12:16Z</time>
      </trkpt>
      <trkpt lat="49.00666" lon="0.0575">
        <ele>171</ele>
        <time>2021-08-08T15:12:17Z</time>
      </trkpt>
      <trkpt lat="49.0066" lon="0.05751">
        <ele>171</ele>
        <time>2021-08-08T15:12:18Z</time>
      </trkpt>
      <trkpt lat="49.00655" lon="0.05752">
        <ele>171</ele>
        <time>2021-08-08T15:12:19Z</time>
      </trkpt>
      <trkpt lat="49.00649" lon="0.05753">
        <ele>171</ele>
        <time>2021-08-08T15:12:20Z</time>
      </trkpt>
      <trkpt lat="49.00644" lon="0.05753">
        <ele>171</ele>
        <time>2021-08-08T15:12:21Z</time>
      </trkpt>
      <trkpt lat="49.00639" lon="0.05754">
        <ele>171</ele>
        <time>2021-08-08T15:12:22Z</time>
      </trkpt>
      <trkpt lat="49.00633" lon="0.05755">
        <ele>171</ele>
        <time>2021-08-08T15:12:23Z</time>
      </trkpt>
      <trkpt lat="49.00627" lon="0.05756">
        <ele>171</ele>
        <time>2021-08-08T15:12:24Z</time>
      </trkpt>
      <trkpt lat="49.00622" lon="0.05757">
        <ele>171</ele>
        <time>2021-08-08T15:12:25Z</time>
      </trkpt>
      <trkpt lat="49.00616" lon="0.05758">
        <ele>171</ele>
        <time>2021-08-08T15:12:26Z</time>
      </trkpt>
      <trkpt lat="49.00609" lon="0.05759">
        <ele>171</ele>
        <time>2021-08-08T15:12:27Z</time>
      </trkpt>
      <trkpt lat="49.00603" lon="0.0576">
        <ele>171</ele>
        <time>2021-08-08T15:12:28Z</time>
      </trkpt>
      <trkpt lat="49.00598" lon="0.05761">
        <ele>171</ele>
        <time>2021-08-08T15:12:29Z</time>
      </trkpt>
      <trkpt lat="49.00592" lon="0.05762">
        <ele>171</ele>
        <time>2021-08-08T15:12:30Z</time>
      </trkpt>
      <trkpt lat="49.00587" lon="0.05762">
        <ele>171</ele>
        <time>2021-08-08T15:12:31Z</time>
      </trkpt>
      <trkpt lat="49.00581" lon="0.05762">
        <ele>171.03</ele>
        <time>2021-08-08T15:12:32Z</time>
      </trkpt>
      <trkpt lat="49.00576" lon="0.05762">
        <ele>171.12</ele>
        <time>2021-08-08T15:12:33Z</time>
      </trkpt>
      <trkpt lat="49.0057" lon="0.05763">
        <ele>171.21</ele>
        <time>2021-08-08T15:12:34Z</time>
      </trkpt>
      <trkpt lat="49.00565" lon="0.05763">
        <ele>171.31</ele>
        <time>2021-08-08T15:12:35Z</time>
      </trkpt>
      <trkpt lat="49.00559" lon="0.05765">
        <ele>171.38</ele>
        <time>2021-08-08T15:12:36Z</time>
      </trkpt>
      <trkpt lat="49.00552" lon="0.05766">
        <ele>171.47</ele>
        <time>2021-08-08T15:12:37Z</time>
      </trkpt>
      <trkpt lat="49.00546" lon="0.05767">
        <ele>171.56</ele>
        <time>2021-08-08T15:12:38Z</time>
      </trkpt>
      <trkpt lat="49.00541" lon="0.05768">
        <ele>171.66</ele>
        <time>2021-08-08T15:12:39Z</time>
      </trkpt>
      <trkpt lat="49.00535" lon="0.05769">
        <ele>171.76</ele>
        <time>2021-08-08T15:12:40Z</time>
      </trkpt>
      <trkpt lat="49.0053" lon="0.0577">
        <ele>171.89</ele>
        <time>2021-08-08T15:12:41Z</time>
      </trkpt>
      <trkpt lat="49.00523" lon="0.0577">
        <ele>171.97</ele>
        <time>2021-08-08T15:12:42Z</time>
      </trkpt>
      <trkpt lat="49.00516" lon="0.05771">
        <ele>171.99</ele>
        <time>2021-08-08T15:12:43Z</time>
      </trkpt>
      <trkpt lat="49.0051" lon="0.05772">
        <ele>172</ele>
        <time>2021-08-08T15:12:44Z</time>
      </trkpt>
      <trkpt lat="49.00503" lon="0.05772">
        <ele>172</ele>
        <time>2021-08-08T15:12:45Z</time>
      </trkpt>
      <trkpt lat="49.00496" lon="0.05772">
        <ele>172</ele>
        <time>2021-08-08T15:12:46Z</time>
      </trkpt>
      <trkpt lat="49.00491" lon="0.05774">
        <ele>172</ele>
        <time>2021-08-08T15:12:47Z</time>
      </trkpt>
      <trkpt lat="49.00486" lon="0.05775">
        <ele>172</ele>
        <time>2021-08-08T15:12:48Z</time>
      </trkpt>
      <trkpt lat="49.00481" lon="0.05776">
        <ele>172</ele>
        <time>2021-08-08T15:12:49Z</time>
      </trkpt>
      <trkpt lat="49.00476" lon="0.05777">
        <ele>172</ele>
        <time>2021-08-08T15:12:50Z</time>
      </trkpt>
      <trkpt lat="49.00471" lon="0.05779">
        <ele>172</ele>
        <time>2021-08-08T15:12:51Z</time>
      </trkpt>
      <trkpt lat="49.00466" lon="0.05781">
        <ele>172</ele>
        <time>2021-08-08T15:12:52Z</time>
      </trkpt>
      <trkpt lat="49.0046" lon="0.05782">
        <ele>172</ele>
        <time>2021-08-08T15:12:53Z</time>
      </trkpt>
      <trkpt lat="49.00455" lon="0.05782">
        <ele>172</ele>
        <time>2021-08-08T15:12:54Z</time>
      </trkpt>
      <trkpt lat="49.0045" lon="0.05782">
        <ele>172</ele>
        <time>2021-08-08T15:12:55Z</time>
      </trkpt>
      <trkpt lat="49.00445" lon="0.05783">
        <ele>172</ele>
        <time>2021-08-08T15:12:56Z</time>
      </trkpt>
      <trkpt lat="49.0044" lon="0.05783">
        <ele>172</ele>
        <time>2021-08-08T15:12:57Z</time>
      </trkpt>
      <trkpt lat="49.00435" lon="0.05783">
        <ele>172</ele>
        <time>2021-08-08T15:12:58Z</time>
      </trkpt>
      <trkpt lat="49.0043" lon="0.05783">
        <ele>172</ele>
        <time>2021-08-08T15:12:59Z</time>
      </trkpt>
      <trkpt lat="49.00425" lon="0.05785">
        <ele>172</ele>
        <time>2021-08-08T15:13:00Z</time>
      </trkpt>
      <trkpt lat="49.0042" lon="0.05789">
        <ele>172</ele>
        <time>2021-08-08T15:13:01Z</time>
      </trkpt>
      <trkpt lat="49.00416" lon="0.05793">
        <ele>172</ele>
        <time>2021-08-08T15:13:02Z</time>
      </trkpt>
      <trkpt lat="49.00415" lon="0.05799">
        <ele>172</ele>
        <time>2021-08-08T15:13:03Z</time>
      </trkpt>
      <trkpt lat="49.00415" lon="0.05805">
        <ele>172</ele>
        <time>2021-08-08T15:13:04Z</time>
      </trkpt>
      <trkpt lat="49.00416" lon="0.0581">
        <ele>171.88</ele>
        <time>2021-08-08T15:13:05Z</time>
      </trkpt>
      <trkpt lat="49.00416" lon="0.05816">
        <ele>171.7</ele>
        <time>2021-08-08T15:13:06Z</time>
      </trkpt>
      <trkpt lat="49.00417" lon="0.05821">
        <ele>171.53</ele>
        <time>2021-08-08T15:13:07Z</time>
      </trkpt>
      <trkpt lat="49.00417" lon="0.05824">
        <ele>171.4</ele>
        <time>2021-08-08T15:13:08Z</time>
      </trkpt>
      <trkpt lat="49.00418" lon="0.05825">
        <ele>171.32</ele>
        <time>2021-08-08T15:13:09Z</time>
      </trkpt>
      <trkpt lat="49.00418" lon="0.05825">
        <ele>171.3</ele>
        <time>2021-08-08T15:13:10Z</time>
      </trkpt>
      <trkpt lat="49.00418" lon="0.05825">
        <ele>171.31</ele>
        <time>2021-08-08T15:13:11Z</time>
      </trkpt>
      <trkpt lat="49.00418" lon="0.05825">
        <ele>171.31</ele>
        <time>2021-08-08T15:13:12Z</time>
      </trkpt>
      <trkpt lat="49.00418" lon="0.05825">
        <ele>171.31</ele>
        <time>2021-08-08T15:13:13Z</time>
      </trkpt>
      <trkpt lat="49.00418" lon="0.05825">
        <ele>171.31</ele>
        <time>2021-08-08T15:13:14Z</time>
      </trkpt>
      <trkpt lat="49.00418" lon="0.05825">
        <ele>171.31</ele>
        <time>2021-08-08T15:13:15Z</time>
      </trkpt>
      <trkpt lat="49.00418" lon="0.05825">
        <ele>171.31</ele>
        <time>2021-08-08T15:13:16Z</time>
      </trkpt>
      <trkpt lat="49.00418" lon="0.05825">
        <ele>171.31</ele>
        <time>2021-08-08T15:13:17Z</time>
      </trkpt>
      <trkpt lat="49.00418" lon="0.05825">
        <ele>171.31</ele>
        <time>2021-08-08T15:13:18Z</time>
      </trkpt>
      <trkpt lat="49.00418" lon="0.05825">
        <ele>171.31</ele>
        <time>2021-08-08T15:13:19Z</time>
      </trkpt>
      <trkpt lat="49.00418" lon="0.05825">
        <ele>171.31</ele>
        <time>2021-08-08T15:13:20Z</time>
      </trkpt>
      <trkpt lat="49.00418" lon="0.05825">
        <ele>171.31</ele>
        <time>2021-08-08T15:13:21Z</time>
      </trkpt>
      <trkpt lat="49.00418" lon="0.05825">
        <ele>171.31</ele>
        <time>2021-08-08T15:13:22Z</time>
      </trkpt>
      <trkpt lat="49.00418" lon="0.05825">
        <ele>171.31</ele>
        <time>2021-08-08T15:13:23Z</time>
      </trkpt>
      <trkpt lat="49.00418" lon="0.05825">
        <ele>171.31</ele>
        <time>2021-08-08T15:13:24Z</time>
      </trkpt>
      <trkpt lat="49.00418" lon="0.05825">
        <ele>171.31</ele>
        <time>2021-08-08T15:13:25Z</time>
      </trkpt>
      <trkpt lat="49.00418" lon="0.05825">
        <ele>171.31</ele>
        <time>2021-08-08T15:13:26Z</time>
      </trkpt>
      <trkpt lat="49.00418" lon="0.05825">
        <ele>171.31</ele>
        <time>2021-08-08T15:13:27Z</time>
      </trkpt>
      <trkpt lat="49.00418" lon="0.05825">
        <ele>171.31</ele>
        <time>2021-08-08T15:13:28Z</time>
      </trkpt>
      <trkpt lat="49.00418" lon="0.05825">
        <ele>171.31</ele>
        <time>2021-08-08T15:13:29Z</time>
      </trkpt>
      <trkpt lat="49.00418" lon="0.05825">
        <ele>171.31</ele>
        <time>2021-08-08T15:13:30Z</time>
      </trkpt>
      <trkpt lat="49.00418" lon="0.05825">
        <ele>171.31</ele>
        <time>2021-08-08T15:13:31Z</time>
      </trkpt>
      <trkpt lat="49.00418" lon="0.05825">
        <ele>171.31</ele>
        <time>2021-08-08T15:13:32Z</time>
      </trkpt>
      <trkpt lat="49.00418" lon="0.05825">
        <ele>171.31</ele>
        <time>2021-08-08T15:13:33Z</time>
      </trkpt>
      <trkpt lat="49.00418" lon="0.05825">
        <ele>171.31</ele>
        <time>2021-08-08T15:13:34Z</time>
      </trkpt>
      <trkpt lat="49.00418" lon="0.05825">
        <ele>171.31</ele>
        <time>2021-08-08T15:13:35Z</time>
      </trkpt>
      <trkpt lat="49.00418" lon="0.05825">
        <ele>171.31</ele>
        <time>2021-08-08T15:13:36Z</time>
      </trkpt>
      <trkpt lat="49.00418" lon="0.05825">
        <ele>171.31</ele>
        <time>2021-08-08T15:13:37Z</time>
      </trkpt>
      <trkpt lat="49.00418" lon="0.05825">
        <ele>171.31</ele>
        <time>2021-08-08T15:13:38Z</time>
      </trkpt>
      <trkpt lat="49.00418" lon="0.05825">
        <ele>171.31</ele>
        <time>2021-08-08T15:13:39Z</time>
      </trkpt>
      <trkpt lat="49.00418" lon="0.05825">
        <ele>171.31</ele>
        <time>2021-08-08T15:13:40Z</time>
      </trkpt>
      <trkpt lat="49.00418" lon="0.05825">
        <ele>171.31</ele>
        <time>2021-08-08T15:13:41Z</time>
      </trkpt>
      <trkpt lat="49.00418" lon="0.05825">
        <ele>171.31</ele>
        <time>2021-08-08T15:13:42Z</time>
      </trkpt>
      <trkpt lat="49.00418" lon="0.05825">
        <ele>171.31</ele>
        <time>2021-08-08T15:13:43Z</time>
      </trkpt>
      <trkpt lat="49.00418" lon="0.05825">
        <ele>171.31</ele>
        <time>2021-08-08T15:13:44Z</time>
      </trkpt>
      <trkpt lat="49.00418" lon="0.05825">
        <ele>171.31</ele>
        <time>2021-08-08T15:13:45Z</time>
      </trkpt>
      <trkpt lat="49.00418" lon="0.05825">
        <ele>171.31</ele>
        <time>2021-08-08T15:13:46Z</time>
      </trkpt>
      <trkpt lat="49.00418" lon="0.05825">
        <ele>171.31</ele>
        <time>2021-08-08T15:13:47Z</time>
      </trkpt>
      <trkpt lat="49.00418" lon="0.05825">
        <ele>171.31</ele>
        <time>2021-08-08T15:13:48Z</time>
      </trkpt>
      <trkpt lat="49.00418" lon="0.05825">
        <ele>171.31</ele>
        <time>2021-08-08T15:13:49Z</time>
      </trkpt>
      <trkpt lat="49.00418" lon="0.05825">
        <ele>171.31</ele>
        <time>2021-08-08T15:13:50Z</time>
      </trkpt>
      <trkpt lat="49.00418" lon="0.05825">
        <ele>171.31</ele>
        <time>2021-08-08T15:13:51Z</time>
      </trkpt>
      <trkpt lat="49.00418" lon="0.05825">
        <ele>171.31</ele>
        <time>2021-08-08T15:13:52Z</time>
      </trkpt>
      <trkpt lat="49.00418" lon="0.05825">
        <ele>171.31</ele>
        <time>2021-08-08T15:13:53Z</time>
      </trkpt>
      <trkpt lat="49.00418" lon="0.05825">
        <ele>171.31</ele>
        <time>2021-08-08T15:13:54Z</time>
      </trkpt>
      <trkpt lat="49.00418" lon="0.05825">
        <ele>171.31</ele>
        <time>2021-08-08T15:13:55Z</time>
      </trkpt>
      <trkpt lat="49.00418" lon="0.05825">
        <ele>171.31</ele>
        <time>2021-08-08T15:13:56Z</time>
      </trkpt>
      <trkpt lat="49.00418" lon="0.05825">
        <ele>171.31</ele>
        <time>2021-08-08T15:13:57Z</time>
      </trkpt>
      <trkpt lat="49.00418" lon="0.05825">
        <ele>171.31</ele>
        <time>2021-08-08T15:13:58Z</time>
      </trkpt>
      <trkpt lat="49.00418" lon="0.05825">
        <ele>171.31</ele>
        <time>2021-08-08T15:13:59Z</time>
      </trkpt>
      <trkpt lat="49.00418" lon="0.05825">
        <ele>171.31</ele>
        <time>2021-08-08T15:14:00Z</time>
      </trkpt>
      <trkpt lat="49.00418" lon="0.05825">
        <ele>171.31</ele>
        <time>2021-08-08T15:14:01Z</time>
      </trkpt>
      <trkpt lat="49.00418" lon="0.05825">
        <ele>171.31</ele>
        <time>2021-08-08T15:14:02Z</time>
      </trkpt>
      <trkpt lat="49.00418" lon="0.05825">
        <ele>171.31</ele>
        <time>2021-08-08T15:14:03Z</time>
      </trkpt>
      <trkpt lat="49.00418" lon="0.05825">
        <ele>171.31</ele>
        <time>2021-08-08T15:14:04Z</time>
      </trkpt>
      <trkpt lat="49.00418" lon="0.05825">
        <ele>171.31</ele>
        <time>2021-08-08T15:14:05Z</time>
      </trkpt>
      <trkpt lat="49.00418" lon="0.05825">
        <ele>171.31</ele>
        <time>2021-08-08T15:14:06Z</time>
      </trkpt>
      <trkpt lat="49.00418" lon="0.05825">
        <ele>171.31</ele>
        <time>2021-08-08T15:14:07Z</time>
      </trkpt>
      <trkpt lat="49.00418" lon="0.05825">
        <ele>171.31</ele>
        <time>2021-08-08T15:14:08Z</time>
      </trkpt>
      <trkpt lat="49.00418" lon="0.05825">
        <ele>171.31</ele>
        <time>2021-08-08T15:14:09Z</time>
      </trkpt>
      <trkpt lat="49.00418" lon="0.05825">
        <ele>171.31</ele>
        <time>2021-08-08T15:14:10Z</time>
      </trkpt>
      <trkpt lat="49.00418" lon="0.05825">
        <ele>171.31</ele>
        <time>2021-08-08T15:14:11Z</time>
      </trkpt>
      <trkpt lat="49.00418" lon="0.05825">
        <ele>171.31</ele>
        <time>2021-08-08T15:14:12Z</time>
      </trkpt>
      <trkpt lat="49.00418" lon="0.05825">
        <ele>171.31</ele>
        <time>2021-08-08T15:14:13Z</time>
      </trkpt>
      <trkpt lat="49.00418" lon="0.05825">
        <ele>171.31</ele>
        <time>2021-08-08T15:14:14Z</time>
      </trkpt>
      <trkpt lat="49.00418" lon="0.05825">
        <ele>171.31</ele>
        <time>2021-08-08T15:14:15Z</time>
      </trkpt>
      <trkpt lat="49.00418" lon="0.05825">
        <ele>171.31</ele>
        <time>2021-08-08T15:14:16Z</time>
      </trkpt>
      <trkpt lat="49.00418" lon="0.05825">
        <ele>171.31</ele>
        <time>2021-08-08T15:14:17Z</time>
      </trkpt>
      <trkpt lat="49.00418" lon="0.05825">
        <ele>171.31</ele>
        <time>2021-08-08T15:14:18Z</time>
      </trkpt>
      <trkpt lat="49.00418" lon="0.05825">
        <ele>171.31</ele>
        <time>2021-08-08T15:14:19Z</time>
      </trkpt>
      <trkpt lat="49.00418" lon="0.05825">
        <ele>171.31</ele>
        <time>2021-08-08T15:14:20Z</time>
      </trkpt>
      <trkpt lat="49.00418" lon="0.05825">
        <ele>171.31</ele>
        <time>2021-08-08T15:14:21Z</time>
      </trkpt>
      <trkpt lat="49.00418" lon="0.05825">
        <ele>171.31</ele>
        <time>2021-08-08T15:14:22Z</time>
      </trkpt>
      <trkpt lat="49.00418" lon="0.05825">
        <ele>171.31</ele>
        <time>2021-08-08T15:14:23Z</time>
      </trkpt>
      <trkpt lat="49.00418" lon="0.05825">
        <ele>171.31</ele>
        <time>2021-08-08T15:14:24Z</time>
      </trkpt>
      <trkpt lat="49.00418" lon="0.05825">
        <ele>171.31</ele>
        <time>2021-08-08T15:14:25Z</time>
      </trkpt>
      <trkpt lat="49.00418" lon="0.05825">
        <ele>171.31</ele>
        <time>2021-08-08T15:14:26Z</time>
      </trkpt>
      <trkpt lat="49.00418" lon="0.05825">
        <ele>171.31</ele>
        <time>2021-08-08T15:14:27Z</time>
      </trkpt>
      <trkpt lat="49.00418" lon="0.05825">
        <ele>171.31</ele>
        <time>2021-08-08T15:14:28Z</time>
      </trkpt>
      <trkpt lat="49.00418" lon="0.05825">
        <ele>171.31</ele>
        <time>2021-08-08T15:14:29Z</time>
      </trkpt>
      <trkpt lat="49.00418" lon="0.05825">
        <ele>171.31</ele>
        <time>2021-08-08T15:14:30Z</time>
      </trkpt>
      <trkpt lat="49.00418" lon="0.05825">
        <ele>171.31</ele>
        <time>2021-08-08T15:14:31Z</time>
      </trkpt>
      <trkpt lat="49.00418" lon="0.05825">
        <ele>171.31</ele>
        <time>2021-08-08T15:14:32Z</time>
      </trkpt>
      <trkpt lat="49.00418" lon="0.05825">
        <ele>171.31</ele>
        <time>2021-08-08T15:14:33Z</time>
      </trkpt>
      <trkpt lat="49.00418" lon="0.05825">
        <ele>171.31</ele>
        <time>2021-08-08T15:14:34Z</time>
      </trkpt>
      <trkpt lat="49.00418" lon="0.05825">
        <ele>171.31</ele>
        <time>2021-08-08T15:14:35Z</time>
      </trkpt>
      <trkpt lat="49.00418" lon="0.05825">
        <ele>171.31</ele>
        <time>2021-08-08T15:14:36Z</time>
      </trkpt>
      <trkpt lat="49.00418" lon="0.05825">
        <ele>171.31</ele>
        <time>2021-08-08T15:14:37Z</time>
      </trkpt>
      <trkpt lat="49.00418" lon="0.05825">
        <ele>171.31</ele>
        <time>2021-08-08T15:14:38Z</time>
      </trkpt>
      <trkpt lat="49.00418" lon="0.05825">
        <ele>171.31</ele>
        <time>2021-08-08T15:14:39Z</time>
      </trkpt>
      <trkpt lat="49.00418" lon="0.05825">
        <ele>171.31</ele>
        <time>2021-08-08T15:14:40Z</time>
      </trkpt>
      <trkpt lat="49.00418" lon="0.05825">
        <ele>171.31</ele>
        <time>2021-08-08T15:14:41Z</time>
      </trkpt>
      <trkpt lat="49.00418" lon="0.05825">
        <ele>171.31</ele>
        <time>2021-08-08T15:14:42Z</time>
      </trkpt>
      <trkpt lat="49.00418" lon="0.05825">
        <ele>171.31</ele>
        <time>2021-08-08T15:14:43Z</time>
      </trkpt>
      <trkpt lat="49.00418" lon="0.05825">
        <ele>171.31</ele>
        <time>2021-08-08T15:14:44Z</time>
      </trkpt>
      <trkpt lat="49.00418" lon="0.05825">
        <ele>171.31</ele>
        <time>2021-08-08T15:14:45Z</time>
      </trkpt>
      <trkpt lat="49.00418" lon="0.05825">
        <ele>171.31</ele>
        <time>2021-08-08T15:14:46Z</time>
      </trkpt>
      <trkpt lat="49.00418" lon="0.05825">
        <ele>171.31</ele>
        <time>2021-08-08T15:14:47Z</time>
      </trkpt>
      <trkpt lat="49.00418" lon="0.05825">
        <ele>171.31</ele>
        <time>2021-08-08T15:14:48Z</time>
      </trkpt>
      <trkpt lat="49.00418" lon="0.05825">
        <ele>171.31</ele>
        <time>2021-08-08T15:14:49Z</time>
      </trkpt>
      <trkpt lat="49.00418" lon="0.05825">
        <ele>171.31</ele>
        <time>2021-08-08T15:14:50Z</time>
      </trkpt>
      <trkpt lat="49.00418" lon="0.05825">
        <ele>171.31</ele>
        <time>2021-08-08T15:14:51Z</time>
      </trkpt>
      <trkpt lat="49.00418" lon="0.05825">
        <ele>171.31</ele>
        <time>2021-08-08T15:14:52Z</time>
      </trkpt>
      <trkpt lat="49.00418" lon="0.05825">
        <ele>171.31</ele>
        <time>2021-08-08T15:14:53Z</time>
      </trkpt>
      <trkpt lat="49.00418" lon="0.05825">
        <ele>171.31</ele>
        <time>2021-08-08T15:14:54Z</time>
      </trkpt>
      <trkpt lat="49.00418" lon="0.05825">
        <ele>171.31</ele>
        <time>2021-08-08T15:14:55Z</time>
      </trkpt>
      <trkpt lat="49.00418" lon="0.05825">
        <ele>171.31</ele>
        <time>2021-08-08T15:14:56Z</time>
      </trkpt>
      <trkpt lat="49.00418" lon="0.05825">
        <ele>171.31</ele>
        <time>2021-08-08T15:14:57Z</time>
      </trkpt>
      <trkpt lat="49.00418" lon="0.05825">
        <ele>171.31</ele>
        <time>2021-08-08T15:14:58Z</time>
      </trkpt>
      <trkpt lat="49.00418" lon="0.05825">
        <ele>171.31</ele>
        <time>2021-08-08T15:14:59Z</time>
      </trkpt>
      <trkpt lat="49.00418" lon="0.05825">
        <ele>171.31</ele>
        <time>2021-08-08T15:15:00Z</time>
      </trkpt>
      <trkpt lat="49.00418" lon="0.05825">
        <ele>171.31</ele>
        <time>2021-08-08T15:15:01Z</time>
      </trkpt>
      <trkpt lat="49.00418" lon="0.05825">
        <ele>171.31</ele>
        <time>2021-08-08T15:15:02Z</time>
      </trkpt>
      <trkpt lat="49.00418" lon="0.05825">
        <ele>171.31</ele>
        <time>2021-08-08T15:15:03Z</time>
      </trkpt>
      <trkpt lat="49.00418" lon="0.05825">
        <ele>171.31</ele>
        <time>2021-08-08T15:15:04Z</time>
      </trkpt>
      <trkpt lat="49.00418" lon="0.05825">
        <ele>171.31</ele>
        <time>2021-08-08T15:15:05Z</time>
      </trkpt>
      <trkpt lat="49.00418" lon="0.05825">
        <ele>171.31</ele>
        <time>2021-08-08T15:15:06Z</time>
      </trkpt>
      <trkpt lat="49.00418" lon="0.05825">
        <ele>171.31</ele>
        <time>2021-08-08T15:15:07Z</time>
      </trkpt>
      <trkpt lat="49.00418" lon="0.05825">
        <ele>171.31</ele>
        <time>2021-08-08T15:15:08Z</time>
      </trkpt>
      <trkpt lat="49.00418" lon="0.05825">
        <ele>171.31</ele>
        <time>2021-08-08T15:15:09Z</time>
      </trkpt>
      <trkpt lat="49.00418" lon="0.05825">
        <ele>171.31</ele>
        <time>2021-08-08T15:15:10Z</time>
      </trkpt>
      <trkpt lat="49.00418" lon="0.05825">
        <ele>171.31</ele>
        <time>2021-08-08T15:15:11Z</time>
      </trkpt>
      <trkpt lat="49.00418" lon="0.05825">
        <ele>171.31</ele>
        <time>2021-08-08T15:15:12Z</time>
      </trkpt>
      <trkpt lat="49.00418" lon="0.05825">
        <ele>171.31</ele>
        <time>2021-08-08T15:15:13Z</time>
      </trkpt>
      <trkpt lat="49.00418" lon="0.05825">
        <ele>171.31</ele>
        <time>2021-08-08T15:15:14Z</time>
      </trkpt>
      <trkpt lat="49.00418" lon="0.05825">
        <ele>171.31</ele>
        <time>2021-08-08T15:15:15Z</time>
      </trkpt>
      <trkpt lat="49.00418" lon="0.05825">
        <ele>171.31</ele>
        <time>2021-08-08T15:15:16Z</time>
      </trkpt>
      <trkpt lat="49.00418" lon="0.05825">
        <ele>171.31</ele>
        <time>2021-08-08T15:15:17Z</time>
      </trkpt>
      <trkpt lat="49.00418" lon="0.05825">
        <ele>171.31</ele>
        <time>2021-08-08T15:15:18Z</time>
      </trkpt>
      <trkpt lat="49.00418" lon="0.05825">
        <ele>171.31</ele>
        <time>2021-08-08T15:15:19Z</time>
      </trkpt>
      <trkpt lat="49.00418" lon="0.05825">
        <ele>171.31</ele>
        <time>2021-08-08T15:15:20Z</time>
      </trkpt>
      <trkpt lat="49.00418" lon="0.05825">
        <ele>171.31</ele>
        <time>2021-08-08T15:15:21Z</time>
      </trkpt>
      <trkpt lat="49.00418" lon="0.05825">
        <ele>171.31</ele>
        <time>2021-08-08T15:15:22Z</time>
      </trkpt>
      <trkpt lat="49.00418" lon="0.05825">
        <ele>171.31</ele>
        <time>2021-08-08T15:15:23Z</time>
      </trkpt>
      <trkpt lat="49.00418" lon="0.05825">
        <ele>171.31</ele>
        <time>2021-08-08T15:15:24Z</time>
      </trkpt>
      <trkpt lat="49.00418" lon="0.05825">
        <ele>171.31</ele>
        <time>2021-08-08T15:15:25Z</time>
      </trkpt>
      <trkpt lat="49.00418" lon="0.05825">
        <ele>171.31</ele>
        <time>2021-08-08T15:15:26Z</time>
      </trkpt>
      <trkpt lat="49.00418" lon="0.05825">
        <ele>171.31</ele>
        <time>2021-08-08T15:15:27Z</time>
      </trkpt>
      <trkpt lat="49.00418" lon="0.05825">
        <ele>171.31</ele>
        <time>2021-08-08T15:15:28Z</time>
      </trkpt>
      <trkpt lat="49.00418" lon="0.05825">
        <ele>171.31</ele>
        <time>2021-08-08T15:15:29Z</time>
      </trkpt>
      <trkpt lat="49.00418" lon="0.05825">
        <ele>171.31</ele>
        <time>2021-08-08T15:15:30Z</time>
      </trkpt>
      <trkpt lat="49.00418" lon="0.05825">
        <ele>171.31</ele>
        <time>2021-08-08T15:15:31Z</time>
      </trkpt>
      <trkpt lat="49.00418" lon="0.05825">
        <ele>171.31</ele>
        <time>2021-08-08T15:15:32Z</time>
      </trkpt>
      <trkpt lat="49.00418" lon="0.05825">
        <ele>171.31</ele>
        <time>2021-08-08T15:15:33Z</time>
      </trkpt>
      <trkpt lat="49.00418" lon="0.05825">
        <ele>171.31</ele>
        <time>2021-08-08T15:15:34Z</time>
      </trkpt>
      <trkpt lat="49.00418" lon="0.05825">
        <ele>171.31</ele>
        <time>2021-08-08T15:15:35Z</time>
      </trkpt>
      <trkpt lat="49.00418" lon="0.05825">
        <ele>171.31</ele>
        <time>2021-08-08T15:15:36Z</time>
      </trkpt>
      <trkpt lat="49.00418" lon="0.05825">
        <ele>171.31</ele>
        <time>2021-08-08T15:15:37Z</time>
      </trkpt>
      <trkpt lat="49.00418" lon="0.05825">
        <ele>171.31</ele>
        <time>2021-08-08T15:15:38Z</time>
      </trkpt>
      <trkpt lat="49.00418" lon="0.05825">
        <ele>171.31</ele>
        <time>2021-08-08T15:15:39Z</time>
      </trkpt>
      <trkpt lat="49.00418" lon="0.05825">
        <ele>171.31</ele>
        <time>2021-08-08T15:15:40Z</time>
      </trkpt>
      <trkpt lat="49.00418" lon="0.05825">
        <ele>171.31</ele>
        <time>2021-08-08T15:15:41Z</time>
      </trkpt>
      <trkpt lat="49.00418" lon="0.05825">
        <ele>171.31</ele>
        <time>2021-08-08T15:15:42Z</time>
      </trkpt>
      <trkpt lat="49.00418" lon="0.05825">
        <ele>171.31</ele>
        <time>2021-08-08T15:15:43Z</time>
      </trkpt>
      <trkpt lat="49.00418" lon="0.05825">
        <ele>171.31</ele>
        <time>2021-08-08T15:15:44Z</time>
      </trkpt>
      <trkpt lat="49.00418" lon="0.05825">
        <ele>171.31</ele>
        <time>2021-08-08T15:15:45Z</time>
      </trkpt>
      <trkpt lat="49.00418" lon="0.05825">
        <ele>171.31</ele>
        <time>2021-08-08T15:15:46Z</time>
      </trkpt>
      <trkpt lat="49.00418" lon="0.05825">
        <ele>171.31</ele>
        <time>2021-08-08T15:15:47Z</time>
      </trkpt>
      <trkpt lat="49.00418" lon="0.05825">
        <ele>171.31</ele>
        <time>2021-08-08T15:15:48Z</time>
      </trkpt>
      <trkpt lat="49.00418" lon="0.05825">
        <ele>171.31</ele>
        <time>2021-08-08T15:15:49Z</time>
      </trkpt>
      <trkpt lat="49.00418" lon="0.05825">
        <ele>171.31</ele>
        <time>2021-08-08T15:15:50Z</time>
      </trkpt>
      <trkpt lat="49.00418" lon="0.05825">
        <ele>171.31</ele>
        <time>2021-08-08T15:15:51Z</time>
      </trkpt>
      <trkpt lat="49.00418" lon="0.05825">
        <ele>171.31</ele>
        <time>2021-08-08T15:15:52Z</time>
      </trkpt>
      <trkpt lat="49.00418" lon="0.05825">
        <ele>171.31</ele>
        <time>2021-08-08T15:15:53Z</time>
      </trkpt>
      <trkpt lat="49.00418" lon="0.05825">
        <ele>171.31</ele>
        <time>2021-08-08T15:15:54Z</time>
      </trkpt>
      <trkpt lat="49.00418" lon="0.05825">
        <ele>171.31</ele>
        <time>2021-08-08T15:15:55Z</time>
      </trkpt>
      <trkpt lat="49.00415" lon="0.05835">
        <ele>171.04</ele>
        <time>2021-08-08T15:15:56Z</time>
      </trkpt>
      <trkpt lat="49.00416" lon="0.05839">
        <ele>170.87</ele>
        <time>2021-08-08T15:15:57Z</time>
      </trkpt>
      <trkpt lat="49.00416" lon="0.05843">
        <ele>170.72</ele>
        <time>2021-08-08T15:15:58Z</time>
      </trkpt>
      <trkpt lat="49.00417" lon="0.05847">
        <ele>170.58</ele>
        <time>2021-08-08T15:15:59Z</time>
      </trkpt>
      <trkpt lat="49.00418" lon="0.0585">
        <ele>170.46</ele>
        <time>2021-08-08T15:16:00Z</time>
      </trkpt>
      <trkpt lat="49.00419" lon="0.05855">
        <ele>170.34</ele>
        <time>2021-08-08T15:16:01Z</time>
      </trkpt>
      <trkpt lat="49.0042" lon="0.05859">
        <ele>170.23</ele>
        <time>2021-08-08T15:16:02Z</time>
      </trkpt>
      <trkpt lat="49.0042" lon="0.05864">
        <ele>170.1</ele>
        <time>2021-08-08T15:16:03Z</time>
      </trkpt>
      <trkpt lat="49.00421" lon="0.05868">
        <ele>169.97</ele>
        <time>2021-08-08T15:16:04Z</time>
      </trkpt>
      <trkpt lat="49.00422" lon="0.05873">
        <ele>169.82</ele>
        <time>2021-08-08T15:16:05Z</time>
      </trkpt>
      <trkpt lat="49.00422" lon="0.05877">
        <ele>169.68</ele>
        <time>2021-08-08T15:16:06Z</time>
      </trkpt>
      <trkpt lat="49.00423" lon="0.05882">
        <ele>169.55</ele>
        <time>2021-08-08T15:16:07Z</time>
      </trkpt>
      <trkpt lat="49.00424" lon="0.05885">
        <ele>169.43</ele>
        <time>2021-08-08T15:16:08Z</time>
      </trkpt>
      <trkpt lat="49.00424" lon="0.05889">
        <ele>169.32</ele>
        <time>2021-08-08T15:16:09Z</time>
      </trkpt>
      <trkpt lat="49.00425" lon="0.05894">
        <ele>169.26</ele>
        <time>2021-08-08T15:16:10Z</time>
      </trkpt>
      <trkpt lat="49.00426" lon="0.05899">
        <ele>169.22</ele>
        <time>2021-08-08T15:16:11Z</time>
      </trkpt>
      <trkpt lat="49.00427" lon="0.05904">
        <ele>169.18</ele>
        <time>2021-08-08T15:16:12Z</time>
      </trkpt>
      <trkpt lat="49.00428" lon="0.0591">
        <ele>169.13</ele>
        <time>2021-08-08T15:16:13Z</time>
      </trkpt>
      <trkpt lat="49.00429" lon="0.05915">
        <ele>169.06</ele>
        <time>2021-08-08T15:16:14Z</time>
      </trkpt>
      <trkpt lat="49.00431" lon="0.05921">
        <ele>168.97</ele>
        <time>2021-08-08T15:16:15Z</time>
      </trkpt>
      <trkpt lat="49.00432" lon="0.05927">
        <ele>168.88</ele>
        <time>2021-08-08T15:16:16Z</time>
      </trkpt>
      <trkpt lat="49.00433" lon="0.05933">
        <ele>168.8</ele>
        <time>2021-08-08T15:16:17Z</time>
      </trkpt>
      <trkpt lat="49.00435" lon="0.05939">
        <ele>168.74</ele>
        <time>2021-08-08T15:16:18Z</time>
      </trkpt>
      <trkpt lat="49.00436" lon="0.05945">
        <ele>168.7</ele>
        <time>2021-08-08T15:16:19Z</time>
      </trkpt>
      <trkpt lat="49.00437" lon="0.0595">
        <ele>168.56</ele>
        <time>2021-08-08T15:16:20Z</time>
      </trkpt>
      <trkpt lat="49.00438" lon="0.05956">
        <ele>168.41</ele>
        <time>2021-08-08T15:16:21Z</time>
      </trkpt>
      <trkpt lat="49.00439" lon="0.05962">
        <ele>168.26</ele>
        <time>2021-08-08T15:16:22Z</time>
      </trkpt>
      <trkpt lat="49.00441" lon="0.05968">
        <ele>168.08</ele>
        <time>2021-08-08T15:16:23Z</time>
      </trkpt>
      <trkpt lat="49.00442" lon="0.05975">
        <ele>167.88</ele>
        <time>2021-08-08T15:16:24Z</time>
      </trkpt>
      <trkpt lat="49.00443" lon="0.05983">
        <ele>167.66</ele>
        <time>2021-08-08T15:16:25Z</time>
      </trkpt>
      <trkpt lat="49.00445" lon="0.05991">
        <ele>167.43</ele>
        <time>2021-08-08T15:16:26Z</time>
      </trkpt>
      <trkpt lat="49.00445" lon="0.05998">
        <ele>167.17</ele>
        <time>2021-08-08T15:16:27Z</time>
      </trkpt>
      <trkpt lat="49.00446" lon="0.06006">
        <ele>166.91</ele>
        <time>2021-08-08T15:16:28Z</time>
      </trkpt>
      <trkpt lat="49.00447" lon="0.06014">
        <ele>166.65</ele>
        <time>2021-08-08T15:16:29Z</time>
      </trkpt>
      <trkpt lat="49.00448" lon="0.06023">
        <ele>166.38</ele>
        <time>2021-08-08T15:16:30Z</time>
      </trkpt>
      <trkpt lat="49.00449" lon="0.06032">
        <ele>166.12</ele>
        <time>2021-08-08T15:16:31Z</time>
      </trkpt>
      <trkpt lat="49.00449" lon="0.0604">
        <ele>165.86</ele>
        <time>2021-08-08T15:16:32Z</time>
      </trkpt>
      <trkpt lat="49.00451" lon="0.06049">
        <ele>165.57</ele>
        <time>2021-08-08T15:16:33Z</time>
      </trkpt>
      <trkpt lat="49.00451" lon="0.06057">
        <ele>165.33</ele>
        <time>2021-08-08T15:16:34Z</time>
      </trkpt>
      <trkpt lat="49.00451" lon="0.06066">
        <ele>165.2</ele>
        <time>2021-08-08T15:16:35Z</time>
      </trkpt>
      <trkpt lat="49.00452" lon="0.06074">
        <ele>165.12</ele>
        <time>2021-08-08T15:16:36Z</time>
      </trkpt>
      <trkpt lat="49.00453" lon="0.06083">
        <ele>165.04</ele>
        <time>2021-08-08T15:16:37Z</time>
      </trkpt>
      <trkpt lat="49.00455" lon="0.06091">
        <ele>164.88</ele>
        <time>2021-08-08T15:16:38Z</time>
      </trkpt>
      <trkpt lat="49.00456" lon="0.061">
        <ele>164.72</ele>
        <time>2021-08-08T15:16:39Z</time>
      </trkpt>
      <trkpt lat="49.00457" lon="0.06109">
        <ele>164.56</ele>
        <time>2021-08-08T15:16:40Z</time>
      </trkpt>
      <trkpt lat="49.00459" lon="0.06118">
        <ele>164.45</ele>
        <time>2021-08-08T15:16:41Z</time>
      </trkpt>
      <trkpt lat="49.00461" lon="0.06127">
        <ele>164.31</ele>
        <time>2021-08-08T15:16:42Z</time>
      </trkpt>
      <trkpt lat="49.00462" lon="0.06137">
        <ele>164.13</ele>
        <time>2021-08-08T15:16:43Z</time>
      </trkpt>
      <trkpt lat="49.00464" lon="0.06146">
        <ele>163.87</ele>
        <time>2021-08-08T15:16:44Z</time>
      </trkpt>
      <trkpt lat="49.00465" lon="0.06153">
        <ele>163.59</ele>
        <time>2021-08-08T15:16:45Z</time>
      </trkpt>
      <trkpt lat="49.00468" lon="0.06163">
        <ele>163.28</ele>
        <time>2021-08-08T15:16:46Z</time>
      </trkpt>
      <trkpt lat="49.00469" lon="0.06172">
        <ele>162.95</ele>
        <time>2021-08-08T15:16:47Z</time>
      </trkpt>
      <trkpt lat="49.00472" lon="0.06182">
        <ele>162.6</ele>
        <time>2021-08-08T15:16:48Z</time>
      </trkpt>
      <trkpt lat="49.00474" lon="0.06191">
        <ele>162.22</ele>
        <time>2021-08-08T15:16:49Z</time>
      </trkpt>
      <trkpt lat="49.00476" lon="0.06201">
        <ele>161.81</ele>
        <time>2021-08-08T15:16:50Z</time>
      </trkpt>
      <trkpt lat="49.00476" lon="0.06209">
        <ele>161.46</ele>
        <time>2021-08-08T15:16:51Z</time>
      </trkpt>
      <trkpt lat="49.00474" lon="0.06219">
        <ele>161.2</ele>
        <time>2021-08-08T15:16:52Z</time>
      </trkpt>
      <trkpt lat="49.00469" lon="0.06228">
        <ele>160.98</ele>
        <time>2021-08-08T15:16:53Z</time>
      </trkpt>
      <trkpt lat="49.00467" lon="0.06232">
        <ele>160.84</ele>
        <time>2021-08-08T15:16:54Z</time>
      </trkpt>
      <trkpt lat="49.00465" lon="0.06234">
        <ele>160.75</ele>
        <time>2021-08-08T15:16:55Z</time>
      </trkpt>
      <trkpt lat="49.00464" lon="0.06236">
        <ele>160.67</ele>
        <time>2021-08-08T15:16:56Z</time>
      </trkpt>
      <trkpt lat="49.00461" lon="0.06238">
        <ele>160.63</ele>
        <time>2021-08-08T15:16:57Z</time>
      </trkpt>
      <trkpt lat="49.00458" lon="0.06239">
        <ele>160.61</ele>
        <time>2021-08-08T15:16:58Z</time>
      </trkpt>
      <trkpt lat="49.00456" lon="0.06241">
        <ele>160.55</ele>
        <time>2021-08-08T15:16:59Z</time>
      </trkpt>
      <trkpt lat="49.00454" lon="0.06243">
        <ele>160.46</ele>
        <time>2021-08-08T15:17:00Z</time>
      </trkpt>
      <trkpt lat="49.00452" lon="0.06245">
        <ele>160.36</ele>
        <time>2021-08-08T15:17:01Z</time>
      </trkpt>
      <trkpt lat="49.0045" lon="0.06248">
        <ele>160.2</ele>
        <time>2021-08-08T15:17:02Z</time>
      </trkpt>
      <trkpt lat="49.00449" lon="0.06251">
        <ele>160.03</ele>
        <time>2021-08-08T15:17:03Z</time>
      </trkpt>
      <trkpt lat="49.00447" lon="0.06254">
        <ele>159.91</ele>
        <time>2021-08-08T15:17:04Z</time>
      </trkpt>
      <trkpt lat="49.00445" lon="0.06257">
        <ele>159.8</ele>
        <time>2021-08-08T15:17:05Z</time>
      </trkpt>
      <trkpt lat="49.00442" lon="0.06259">
        <ele>159.71</ele>
        <time>2021-08-08T15:17:06Z</time>
      </trkpt>
      <trkpt lat="49.00439" lon="0.0626">
        <ele>159.66</ele>
        <time>2021-08-08T15:17:07Z</time>
      </trkpt>
      <trkpt lat="49.00435" lon="0.0626">
        <ele>159.64</ele>
        <time>2021-08-08T15:17:08Z</time>
      </trkpt>
      <trkpt lat="49.00431" lon="0.06259">
        <ele>159.67</ele>
        <time>2021-08-08T15:17:09Z</time>
      </trkpt>
      <trkpt lat="49.00428" lon="0.06258">
        <ele>159.69</ele>
        <time>2021-08-08T15:17:10Z</time>
      </trkpt>
      <trkpt lat="49.00425" lon="0.06257">
        <ele>159.73</ele>
        <time>2021-08-08T15:17:11Z</time>
      </trkpt>
      <trkpt lat="49.00421" lon="0.06256">
        <ele>159.77</ele>
        <time>2021-08-08T15:17:12Z</time>
      </trkpt>
      <trkpt lat="49.00417" lon="0.06254">
        <ele>159.82</ele>
        <time>2021-08-08T15:17:13Z</time>
      </trkpt>
      <trkpt lat="49.00413" lon="0.06252">
        <ele>159.81</ele>
        <time>2021-08-08T15:17:14Z</time>
      </trkpt>
      <trkpt lat="49.00409" lon="0.0625">
        <ele>159.76</ele>
        <time>2021-08-08T15:17:15Z</time>
      </trkpt>
      <trkpt lat="49.00405" lon="0.06248">
        <ele>159.7</ele>
        <time>2021-08-08T15:17:16Z</time>
      </trkpt>
      <trkpt lat="49.00401" lon="0.06247">
        <ele>159.63</ele>
        <time>2021-08-08T15:17:17Z</time>
      </trkpt>
      <trkpt lat="49.00396" lon="0.06245">
        <ele>159.58</ele>
        <time>2021-08-08T15:17:18Z</time>
      </trkpt>
      <trkpt lat="49.00392" lon="0.06244">
        <ele>159.55</ele>
        <time>2021-08-08T15:17:19Z</time>
      </trkpt>
      <trkpt lat="49.00388" lon="0.06241">
        <ele>159.56</ele>
        <time>2021-08-08T15:17:20Z</time>
      </trkpt>
      <trkpt lat="49.00384" lon="0.06238">
        <ele>159.53</ele>
        <time>2021-08-08T15:17:21Z</time>
      </trkpt>
      <trkpt lat="49.00381" lon="0.06235">
        <ele>159.52</ele>
        <time>2021-08-08T15:17:22Z</time>
      </trkpt>
      <trkpt lat="49.00377" lon="0.0623">
        <ele>159.54</ele>
        <time>2021-08-08T15:17:23Z</time>
      </trkpt>
      <trkpt lat="49.00373" lon="0.06226">
        <ele>159.58</ele>
        <time>2021-08-08T15:17:24Z</time>
      </trkpt>
      <trkpt lat="49.0037" lon="0.06221">
        <ele>159.67</ele>
        <time>2021-08-08T15:17:25Z</time>
      </trkpt>
      <trkpt lat="49.00365" lon="0.06216">
        <ele>159.7</ele>
        <time>2021-08-08T15:17:26Z</time>
      </trkpt>
      <trkpt lat="49.00359" lon="0.06214">
        <ele>159.58</ele>
        <time>2021-08-08T15:17:27Z</time>
      </trkpt>
      <trkpt lat="49.00355" lon="0.06212">
        <ele>159.5</ele>
        <time>2021-08-08T15:17:28Z</time>
      </trkpt>
      <trkpt lat="49.00349" lon="0.0621">
        <ele>159.35</ele>
        <time>2021-08-08T15:17:29Z</time>
      </trkpt>
      <trkpt lat="49.00345" lon="0.06208">
        <ele>159.21</ele>
        <time>2021-08-08T15:17:30Z</time>
      </trkpt>
      <trkpt lat="49.00341" lon="0.06204">
        <ele>159.13</ele>
        <time>2021-08-08T15:17:31Z</time>
      </trkpt>
      <trkpt lat="49.00336" lon="0.06201">
        <ele>159</ele>
        <time>2021-08-08T15:17:32Z</time>
      </trkpt>
      <trkpt lat="49.00331" lon="0.06197">
        <ele>158.86</ele>
        <time>2021-08-08T15:17:33Z</time>
      </trkpt>
      <trkpt lat="49.00326" lon="0.06193">
        <ele>158.82</ele>
        <time>2021-08-08T15:17:34Z</time>
      </trkpt>
      <trkpt lat="49.00321" lon="0.06188">
        <ele>158.88</ele>
        <time>2021-08-08T15:17:35Z</time>
      </trkpt>
      <trkpt lat="49.00317" lon="0.06184">
        <ele>158.92</ele>
        <time>2021-08-08T15:17:36Z</time>
      </trkpt>
      <trkpt lat="49.00313" lon="0.06182">
        <ele>158.88</ele>
        <time>2021-08-08T15:17:37Z</time>
      </trkpt>
      <trkpt lat="49.00308" lon="0.06179">
        <ele>158.76</ele>
        <time>2021-08-08T15:17:38Z</time>
      </trkpt>
      <trkpt lat="49.00304" lon="0.06175">
        <ele>158.65</ele>
        <time>2021-08-08T15:17:39Z</time>
      </trkpt>
      <trkpt lat="49.003" lon="0.06169">
        <ele>158.66</ele>
        <time>2021-08-08T15:17:40Z</time>
      </trkpt>
      <trkpt lat="49.00295" lon="0.06166">
        <ele>158.69</ele>
        <time>2021-08-08T15:17:41Z</time>
      </trkpt>
      <trkpt lat="49.00291" lon="0.06162">
        <ele>158.78</ele>
        <time>2021-08-08T15:17:42Z</time>
      </trkpt>
      <trkpt lat="49.00286" lon="0.06157">
        <ele>158.91</ele>
        <time>2021-08-08T15:17:43Z</time>
      </trkpt>
      <trkpt lat="49.00281" lon="0.06153">
        <ele>159.03</ele>
        <time>2021-08-08T15:17:44Z</time>
      </trkpt>
      <trkpt lat="49.00277" lon="0.0615">
        <ele>159.14</ele>
        <time>2021-08-08T15:17:45Z</time>
      </trkpt>
      <trkpt lat="49.00273" lon="0.06145">
        <ele>159.19</ele>
        <time>2021-08-08T15:17:46Z</time>
      </trkpt>
      <trkpt lat="49.00268" lon="0.0614">
        <ele>159.22</ele>
        <time>2021-08-08T15:17:47Z</time>
      </trkpt>
      <trkpt lat="49.00264" lon="0.06136">
        <ele>159.19</ele>
        <time>2021-08-08T15:17:48Z</time>
      </trkpt>
      <trkpt lat="49.0026" lon="0.06133">
        <ele>159.12</ele>
        <time>2021-08-08T15:17:49Z</time>
      </trkpt>
      <trkpt lat="49.00256" lon="0.0613">
        <ele>159.06</ele>
        <time>2021-08-08T15:17:50Z</time>
      </trkpt>
      <trkpt lat="49.00252" lon="0.06126">
        <ele>159.03</ele>
        <time>2021-08-08T15:17:51Z</time>
      </trkpt>
      <trkpt lat="49.00248" lon="0.06123">
        <ele>158.99</ele>
        <time>2021-08-08T15:17:52Z</time>
      </trkpt>
      <trkpt lat="49.00243" lon="0.0612">
        <ele>158.94</ele>
        <time>2021-08-08T15:17:53Z</time>
      </trkpt>
      <trkpt lat="49.00239" lon="0.06116">
        <ele>158.9</ele>
        <time>2021-08-08T15:17:54Z</time>
      </trkpt>
      <trkpt lat="49.00234" lon="0.06111">
        <ele>158.87</ele>
        <time>2021-08-08T15:17:55Z</time>
      </trkpt>
      <trkpt lat="49.00229" lon="0.06106">
        <ele>158.75</ele>
        <time>2021-08-08T15:17:56Z</time>
      </trkpt>
      <trkpt lat="49.00224" lon="0.06102">
        <ele>158.55</ele>
        <time>2021-08-08T15:17:57Z</time>
      </trkpt>
      <trkpt lat="49.00219" lon="0.06096">
        <ele>158.41</ele>
        <time>2021-08-08T15:17:58Z</time>
      </trkpt>
      <trkpt lat="49.00213" lon="0.06091">
        <ele>158.36</ele>
        <time>2021-08-08T15:17:59Z</time>
      </trkpt>
      <trkpt lat="49.00207" lon="0.06086">
        <ele>158.34</ele>
        <time>2021-08-08T15:18:00Z</time>
      </trkpt>
      <trkpt lat="49.00202" lon="0.06082">
        <ele>158.32</ele>
        <time>2021-08-08T15:18:01Z</time>
      </trkpt>
      <trkpt lat="49.00197" lon="0.06078">
        <ele>158.29</ele>
        <time>2021-08-08T15:18:02Z</time>
      </trkpt>
      <trkpt lat="49.00192" lon="0.06074">
        <ele>158.12</ele>
        <time>2021-08-08T15:18:03Z</time>
      </trkpt>
      <trkpt lat="49.00187" lon="0.06071">
        <ele>157.86</ele>
        <time>2021-08-08T15:18:04Z</time>
      </trkpt>
      <trkpt lat="49.0018" lon="0.06066">
        <ele>157.54</ele>
        <time>2021-08-08T15:18:05Z</time>
      </trkpt>
      <trkpt lat="49.00177" lon="0.06061">
        <ele>157.47</ele>
        <time>2021-08-08T15:18:06Z</time>
      </trkpt>
      <trkpt lat="49.00172" lon="0.06055">
        <ele>157.41</ele>
        <time>2021-08-08T15:18:07Z</time>
      </trkpt>
      <trkpt lat="49.00168" lon="0.06051">
        <ele>157.45</ele>
        <time>2021-08-08T15:18:08Z</time>
      </trkpt>
      <trkpt lat="49.00164" lon="0.06044">
        <ele>157.65</ele>
        <time>2021-08-08T15:18:09Z</time>
      </trkpt>
      <trkpt lat="49.0016" lon="0.06036">
        <ele>158.01</ele>
        <time>2021-08-08T15:18:10Z</time>
      </trkpt>
      <trkpt lat="49.00156" lon="0.06029">
        <ele>158.38</ele>
        <time>2021-08-08T15:18:11Z</time>
      </trkpt>
      <trkpt lat="49.00153" lon="0.06024">
        <ele>158.69</ele>
        <time>2021-08-08T15:18:12Z</time>
      </trkpt>
      <trkpt lat="49.0015" lon="0.06018">
        <ele>158.99</ele>
        <time>2021-08-08T15:18:13Z</time>
      </trkpt>
      <trkpt lat="49.00147" lon="0.06013">
        <ele>159.25</ele>
        <time>2021-08-08T15:18:14Z</time>
      </trkpt>
      <trkpt lat="49.00142" lon="0.06004">
        <ele>159.66</ele>
        <time>2021-08-08T15:18:15Z</time>
      </trkpt>
      <trkpt lat="49.00139" lon="0.05998">
        <ele>160</ele>
        <time>2021-08-08T15:18:16Z</time>
      </trkpt>
      <trkpt lat="49.00136" lon="0.05989">
        <ele>160.45</ele>
        <time>2021-08-08T15:18:17Z</time>
      </trkpt>
      <trkpt lat="49.00134" lon="0.05983">
        <ele>160.81</ele>
        <time>2021-08-08T15:18:18Z</time>
      </trkpt>
      <trkpt lat="49.00131" lon="0.05978">
        <ele>161.14</ele>
        <time>2021-08-08T15:18:19Z</time>
      </trkpt>
      <trkpt lat="49.00128" lon="0.05972">
        <ele>161.46</ele>
        <time>2021-08-08T15:18:20Z</time>
      </trkpt>
      <trkpt lat="49.00124" lon="0.05967">
        <ele>161.64</ele>
        <time>2021-08-08T15:18:21Z</time>
      </trkpt>
      <trkpt lat="49.00121" lon="0.05961">
        <ele>161.9</ele>
        <time>2021-08-08T15:18:22Z</time>
      </trkpt>
      <trkpt lat="49.00118" lon="0.05956">
        <ele>162.16</ele>
        <time>2021-08-08T15:18:23Z</time>
      </trkpt>
      <trkpt lat="49.00115" lon="0.05952">
        <ele>162.41</ele>
        <time>2021-08-08T15:18:24Z</time>
      </trkpt>
      <trkpt lat="49.00112" lon="0.05947">
        <ele>162.68</ele>
        <time>2021-08-08T15:18:25Z</time>
      </trkpt>
      <trkpt lat="49.00108" lon="0.05943">
        <ele>162.82</ele>
        <time>2021-08-08T15:18:26Z</time>
      </trkpt>
      <trkpt lat="49.00104" lon="0.05938">
        <ele>162.8</ele>
        <time>2021-08-08T15:18:27Z</time>
      </trkpt>
      <trkpt lat="49.001" lon="0.05933">
        <ele>162.77</ele>
        <time>2021-08-08T15:18:28Z</time>
      </trkpt>
      <trkpt lat="49.00097" lon="0.05928">
        <ele>162.84</ele>
        <time>2021-08-08T15:18:29Z</time>
      </trkpt>
      <trkpt lat="49.00093" lon="0.05925">
        <ele>162.87</ele>
        <time>2021-08-08T15:18:30Z</time>
      </trkpt>
      <trkpt lat="49.00089" lon="0.0592">
        <ele>162.98</ele>
        <time>2021-08-08T15:18:31Z</time>
      </trkpt>
      <trkpt lat="49.00086" lon="0.05916">
        <ele>163.11</ele>
        <time>2021-08-08T15:18:32Z</time>
      </trkpt>
      <trkpt lat="49.00082" lon="0.05912">
        <ele>163.25</ele>
        <time>2021-08-08T15:18:33Z</time>
      </trkpt>
      <trkpt lat="49.00076" lon="0.05905">
        <ele>163.45</ele>
        <time>2021-08-08T15:18:34Z</time>
      </trkpt>
      <trkpt lat="49.00071" lon="0.05903">
        <ele>163.51</ele>
        <time>2021-08-08T15:18:35Z</time>
      </trkpt>
      <trkpt lat="49.00067" lon="0.059">
        <ele>163.58</ele>
        <time>2021-08-08T15:18:36Z</time>
      </trkpt>
      <trkpt lat="49.00063" lon="0.05897">
        <ele>163.63</ele>
        <time>2021-08-08T15:18:37Z</time>
      </trkpt>
      <trkpt lat="49.0006" lon="0.05895">
        <ele>163.68</ele>
        <time>2021-08-08T15:18:38Z</time>
      </trkpt>
      <trkpt lat="49.00056" lon="0.05894">
        <ele>163.67</ele>
        <time>2021-08-08T15:18:39Z</time>
      </trkpt>
      <trkpt lat="49.00052" lon="0.05891">
        <ele>163.67</ele>
        <time>2021-08-08T15:18:40Z</time>
      </trkpt>
      <trkpt lat="49.00048" lon="0.05889">
        <ele>163.7</ele>
        <time>2021-08-08T15:18:41Z</time>
      </trkpt>
      <trkpt lat="49.00042" lon="0.05886">
        <ele>163.84</ele>
        <time>2021-08-08T15:18:42Z</time>
      </trkpt>
      <trkpt lat="49.00037" lon="0.05883">
        <ele>163.95</ele>
        <time>2021-08-08T15:18:43Z</time>
      </trkpt>
      <trkpt lat="49.00032" lon="0.05881">
        <ele>163.99</ele>
        <time>2021-08-08T15:18:44Z</time>
      </trkpt>
      <trkpt lat="49.00026" lon="0.05879">
        <ele>164.03</ele>
        <time>2021-08-08T15:18:45Z</time>
      </trkpt>
      <trkpt lat="49.00022" lon="0.05878">
        <ele>163.98</ele>
        <time>2021-08-08T15:18:46Z</time>
      </trkpt>
      <trkpt lat="49.00018" lon="0.05877">
        <ele>163.98</ele>
        <time>2021-08-08T15:18:47Z</time>
      </trkpt>
      <trkpt lat="49.00015" lon="0.05875">
        <ele>164.02</ele>
        <time>2021-08-08T15:18:48Z</time>
      </trkpt>
      <trkpt lat="49.00012" lon="0.05873">
        <ele>164.12</ele>
        <time>2021-08-08T15:18:49Z</time>
      </trkpt>
      <trkpt lat="49.00009" lon="0.05871">
        <ele>164.19</ele>
        <time>2021-08-08T15:18:50Z</time>
      </trkpt>
      <trkpt lat="49.00007" lon="0.05871">
        <ele>164.16</ele>
        <time>2021-08-08T15:18:51Z</time>
      </trkpt>
      <trkpt lat="49.00005" lon="0.0587">
        <ele>164.24</ele>
        <time>2021-08-08T15:18:52Z</time>
      </trkpt>
      <trkpt lat="49.00005" lon="0.05869">
        <ele>164.28</ele>
        <time>2021-08-08T15:18:53Z</time>
      </trkpt>
      <trkpt lat="49.00003" lon="0.05869">
        <ele>164.27</ele>
        <time>2021-08-08T15:18:54Z</time>
      </trkpt>
      <trkpt lat="49.00003" lon="0.05869">
        <ele>164.27</ele>
        <time>2021-08-08T15:18:55Z</time>
      </trkpt>
      <trkpt lat="49.00003" lon="0.05869">
        <ele>164.27</ele>
        <time>2021-08-08T15:18:56Z</time>
      </trkpt>
      <trkpt lat="49.00003" lon="0.05869">
        <ele>164.27</ele>
        <time>2021-08-08T15:18:57Z</time>
      </trkpt>
      <trkpt lat="49.00003" lon="0.05869">
        <ele>164.27</ele>
        <time>2021-08-08T15:18:58Z</time>
      </trkpt>
      <trkpt lat="49.00003" lon="0.05869">
        <ele>164.27</ele>
        <time>2021-08-08T15:18:59Z</time>
      </trkpt>
      <trkpt lat="49.00003" lon="0.05869">
        <ele>164.27</ele>
        <time>2021-08-08T15:19:00Z</time>
      </trkpt>
      <trkpt lat="49.00001" lon="0.05869">
        <ele>164.22</ele>
        <time>2021-08-08T15:19:01Z</time>
      </trkpt>
      <trkpt lat="48.99999" lon="0.05869">
        <ele>164.17</ele>
        <time>2021-08-08T15:19:02Z</time>
      </trkpt>
      <trkpt lat="48.99998" lon="0.05868">
        <ele>164.23</ele>
        <time>2021-08-08T15:19:03Z</time>
      </trkpt>
      <trkpt lat="48.99995" lon="0.05867">
        <ele>164.3</ele>
        <time>2021-08-08T15:19:04Z</time>
      </trkpt>
      <trkpt lat="48.99992" lon="0.05867">
        <ele>164.37</ele>
        <time>2021-08-08T15:19:05Z</time>
      </trkpt>
      <trkpt lat="48.99988" lon="0.05867">
        <ele>164.39</ele>
        <time>2021-08-08T15:19:06Z</time>
      </trkpt>
      <trkpt lat="48.99984" lon="0.05867">
        <ele>164.41</ele>
        <time>2021-08-08T15:19:07Z</time>
      </trkpt>
      <trkpt lat="48.9998" lon="0.05867">
        <ele>164.4</ele>
        <time>2021-08-08T15:19:08Z</time>
      </trkpt>
      <trkpt lat="48.99975" lon="0.05866">
        <ele>164.44</ele>
        <time>2021-08-08T15:19:09Z</time>
      </trkpt>
      <trkpt lat="48.9997" lon="0.05866">
        <ele>164.49</ele>
        <time>2021-08-08T15:19:10Z</time>
      </trkpt>
      <trkpt lat="48.99966" lon="0.05866">
        <ele>164.65</ele>
        <time>2021-08-08T15:19:11Z</time>
      </trkpt>
      <trkpt lat="48.99962" lon="0.05866">
        <ele>164.84</ele>
        <time>2021-08-08T15:19:12Z</time>
      </trkpt>
      <trkpt lat="48.99958" lon="0.05865">
        <ele>165.04</ele>
        <time>2021-08-08T15:19:13Z</time>
      </trkpt>
      <trkpt lat="48.99953" lon="0.05866">
        <ele>165.19</ele>
        <time>2021-08-08T15:19:14Z</time>
      </trkpt>
      <trkpt lat="48.99949" lon="0.05866">
        <ele>165.36</ele>
        <time>2021-08-08T15:19:15Z</time>
      </trkpt>
      <trkpt lat="48.99945" lon="0.05866">
        <ele>165.53</ele>
        <time>2021-08-08T15:19:16Z</time>
      </trkpt>
      <trkpt lat="48.9994" lon="0.05867">
        <ele>165.8</ele>
        <time>2021-08-08T15:19:17Z</time>
      </trkpt>
      <trkpt lat="48.99935" lon="0.05867">
        <ele>166.15</ele>
        <time>2021-08-08T15:19:18Z</time>
      </trkpt>
      <trkpt lat="48.9993" lon="0.05866">
        <ele>166.54</ele>
        <time>2021-08-08T15:19:19Z</time>
      </trkpt>
      <trkpt lat="48.99924" lon="0.05863">
        <ele>167.09</ele>
        <time>2021-08-08T15:19:20Z</time>
      </trkpt>
      <trkpt lat="48.99921" lon="0.05859">
        <ele>167.59</ele>
        <time>2021-08-08T15:19:21Z</time>
      </trkpt>
      <trkpt lat="48.99918" lon="0.05854">
        <ele>167.99</ele>
        <time>2021-08-08T15:19:22Z</time>
      </trkpt>
      <trkpt lat="48.99917" lon="0.05849">
        <ele>168.29</ele>
        <time>2021-08-08T15:19:23Z</time>
      </trkpt>
      <trkpt lat="48.99918" lon="0.05844">
        <ele>168.49</ele>
        <time>2021-08-08T15:19:24Z</time>
      </trkpt>
      <trkpt lat="48.99918" lon="0.0584">
        <ele>168.67</ele>
        <time>2021-08-08T15:19:25Z</time>
      </trkpt>
      <trkpt lat="48.99917" lon="0.05836">
        <ele>168.82</ele>
        <time>2021-08-08T15:19:26Z</time>
      </trkpt>
      <trkpt lat="48.99918" lon="0.05831">
        <ele>169.01</ele>
        <time>2021-08-08T15:19:27Z</time>
      </trkpt>
      <trkpt lat="48.99918" lon="0.05827">
        <ele>169.17</ele>
        <time>2021-08-08T15:19:28Z</time>
      </trkpt>
      <trkpt lat="48.99917" lon="0.05822">
        <ele>169.33</ele>
        <time>2021-08-08T15:19:29Z</time>
      </trkpt>
      <trkpt lat="48.99916" lon="0.05818">
        <ele>169.49</ele>
        <time>2021-08-08T15:19:30Z</time>
      </trkpt>
      <trkpt lat="48.99915" lon="0.05812">
        <ele>169.68</ele>
        <time>2021-08-08T15:19:31Z</time>
      </trkpt>
      <trkpt lat="48.99913" lon="0.05807">
        <ele>169.87</ele>
        <time>2021-08-08T15:19:32Z</time>
      </trkpt>
      <trkpt lat="48.99912" lon="0.05802">
        <ele>170.05</ele>
        <time>2021-08-08T15:19:33Z</time>
      </trkpt>
      <trkpt lat="48.99912" lon="0.05797">
        <ele>170.22</ele>
        <time>2021-08-08T15:19:34Z</time>
      </trkpt>
      <trkpt lat="48.99911" lon="0.05793">
        <ele>170.39</ele>
        <time>2021-08-08T15:19:35Z</time>
      </trkpt>
      <trkpt lat="48.9991" lon="0.05788">
        <ele>170.56</ele>
        <time>2021-08-08T15:19:36Z</time>
      </trkpt>
      <trkpt lat="48.9991" lon="0.05783">
        <ele>170.74</ele>
        <time>2021-08-08T15:19:37Z</time>
      </trkpt>
      <trkpt lat="48.99908" lon="0.05778">
        <ele>170.92</ele>
        <time>2021-08-08T15:19:38Z</time>
      </trkpt>
      <trkpt lat="48.99908" lon="0.05773">
        <ele>171.1</ele>
        <time>2021-08-08T15:19:39Z</time>
      </trkpt>
      <trkpt lat="48.99907" lon="0.05767">
        <ele>171.3</ele>
        <time>2021-08-08T15:19:40Z</time>
      </trkpt>
      <trkpt lat="48.99905" lon="0.05761">
        <ele>171.51</ele>
        <time>2021-08-08T15:19:41Z</time>
      </trkpt>
      <trkpt lat="48.99904" lon="0.05755">
        <ele>171.72</ele>
        <time>2021-08-08T15:19:42Z</time>
      </trkpt>
      <trkpt lat="48.99902" lon="0.05749">
        <ele>171.94</ele>
        <time>2021-08-08T15:19:43Z</time>
      </trkpt>
      <trkpt lat="48.999" lon="0.05744">
        <ele>172.13</ele>
        <time>2021-08-08T15:19:44Z</time>
      </trkpt>
      <trkpt lat="48.99898" lon="0.05739">
        <ele>172.32</ele>
        <time>2021-08-08T15:19:45Z</time>
      </trkpt>
      <trkpt lat="48.99897" lon="0.05735">
        <ele>172.48</ele>
        <time>2021-08-08T15:19:46Z</time>
      </trkpt>
      <trkpt lat="48.99894" lon="0.05731">
        <ele>172.63</ele>
        <time>2021-08-08T15:19:47Z</time>
      </trkpt>
      <trkpt lat="48.99893" lon="0.05727">
        <ele>172.78</ele>
        <time>2021-08-08T15:19:48Z</time>
      </trkpt>
      <trkpt lat="48.99891" lon="0.05723">
        <ele>172.93</ele>
        <time>2021-08-08T15:19:49Z</time>
      </trkpt>
      <trkpt lat="48.99888" lon="0.05719">
        <ele>172.98</ele>
        <time>2021-08-08T15:19:50Z</time>
      </trkpt>
      <trkpt lat="48.99886" lon="0.05718">
        <ele>172.99</ele>
        <time>2021-08-08T15:19:51Z</time>
      </trkpt>
      <trkpt lat="48.99883" lon="0.05716">
        <ele>173</ele>
        <time>2021-08-08T15:19:52Z</time>
      </trkpt>
      <trkpt lat="48.99878" lon="0.05712">
        <ele>173</ele>
        <time>2021-08-08T15:19:53Z</time>
      </trkpt>
      <trkpt lat="48.99874" lon="0.05707">
        <ele>173</ele>
        <time>2021-08-08T15:19:54Z</time>
      </trkpt>
      <trkpt lat="48.9987" lon="0.05702">
        <ele>173</ele>
        <time>2021-08-08T15:19:55Z</time>
      </trkpt>
      <trkpt lat="48.99866" lon="0.05697">
        <ele>173</ele>
        <time>2021-08-08T15:19:56Z</time>
      </trkpt>
      <trkpt lat="48.99863" lon="0.05693">
        <ele>173</ele>
        <time>2021-08-08T15:19:57Z</time>
      </trkpt>
      <trkpt lat="48.99859" lon="0.0569">
        <ele>173</ele>
        <time>2021-08-08T15:19:58Z</time>
      </trkpt>
      <trkpt lat="48.99856" lon="0.05686">
        <ele>173</ele>
        <time>2021-08-08T15:19:59Z</time>
      </trkpt>
      <trkpt lat="48.99851" lon="0.05683">
        <ele>173</ele>
        <time>2021-08-08T15:20:00Z</time>
      </trkpt>
      <trkpt lat="48.99847" lon="0.05679">
        <ele>173</ele>
        <time>2021-08-08T15:20:01Z</time>
      </trkpt>
      <trkpt lat="48.99842" lon="0.05676">
        <ele>173</ele>
        <time>2021-08-08T15:20:02Z</time>
      </trkpt>
      <trkpt lat="48.99838" lon="0.05672">
        <ele>173</ele>
        <time>2021-08-08T15:20:03Z</time>
      </trkpt>
      <trkpt lat="48.99833" lon="0.05668">
        <ele>173</ele>
        <time>2021-08-08T15:20:04Z</time>
      </trkpt>
      <trkpt lat="48.99828" lon="0.05665">
        <ele>173.05</ele>
        <time>2021-08-08T15:20:05Z</time>
      </trkpt>
      <trkpt lat="48.99824" lon="0.05662">
        <ele>173.12</ele>
        <time>2021-08-08T15:20:06Z</time>
      </trkpt>
      <trkpt lat="48.99821" lon="0.05659">
        <ele>173.23</ele>
        <time>2021-08-08T15:20:07Z</time>
      </trkpt>
      <trkpt lat="48.99817" lon="0.05655">
        <ele>173.36</ele>
        <time>2021-08-08T15:20:08Z</time>
      </trkpt>
      <trkpt lat="48.99813" lon="0.05651">
        <ele>173.5</ele>
        <time>2021-08-08T15:20:09Z</time>
      </trkpt>
      <trkpt lat="48.99809" lon="0.05647">
        <ele>173.64</ele>
        <time>2021-08-08T15:20:10Z</time>
      </trkpt>
      <trkpt lat="48.99805" lon="0.05643">
        <ele>173.78</ele>
        <time>2021-08-08T15:20:11Z</time>
      </trkpt>
      <trkpt lat="48.99801" lon="0.05639">
        <ele>173.93</ele>
        <time>2021-08-08T15:20:12Z</time>
      </trkpt>
      <trkpt lat="48.99797" lon="0.05635">
        <ele>173.98</ele>
        <time>2021-08-08T15:20:13Z</time>
      </trkpt>
      <trkpt lat="48.99793" lon="0.05632">
        <ele>173.99</ele>
        <time>2021-08-08T15:20:14Z</time>
      </trkpt>
      <trkpt lat="48.99789" lon="0.05628">
        <ele>174</ele>
        <time>2021-08-08T15:20:15Z</time>
      </trkpt>
      <trkpt lat="48.99785" lon="0.05625">
        <ele>174</ele>
        <time>2021-08-08T15:20:16Z</time>
      </trkpt>
      <trkpt lat="48.9978" lon="0.0562">
        <ele>174</ele>
        <time>2021-08-08T15:20:17Z</time>
      </trkpt>
      <trkpt lat="48.99776" lon="0.05616">
        <ele>174</ele>
        <time>2021-08-08T15:20:18Z</time>
      </trkpt>
      <trkpt lat="48.99772" lon="0.05612">
        <ele>174</ele>
        <time>2021-08-08T15:20:19Z</time>
      </trkpt>
      <trkpt lat="48.99768" lon="0.05608">
        <ele>174</ele>
        <time>2021-08-08T15:20:20Z</time>
      </trkpt>
      <trkpt lat="48.99764" lon="0.05604">
        <ele>174</ele>
        <time>2021-08-08T15:20:21Z</time>
      </trkpt>
      <trkpt lat="48.9976" lon="0.056">
        <ele>174</ele>
        <time>2021-08-08T15:20:22Z</time>
      </trkpt>
      <trkpt lat="48.99756" lon="0.05595">
        <ele>174</ele>
        <time>2021-08-08T15:20:23Z</time>
      </trkpt>
      <trkpt lat="48.99752" lon="0.0559">
        <ele>174</ele>
        <time>2021-08-08T15:20:24Z</time>
      </trkpt>
      <trkpt lat="48.99749" lon="0.05583">
        <ele>174</ele>
        <time>2021-08-08T15:20:25Z</time>
      </trkpt>
      <trkpt lat="48.99745" lon="0.05578">
        <ele>174.03</ele>
        <time>2021-08-08T15:20:26Z</time>
      </trkpt>
      <trkpt lat="48.99741" lon="0.05573">
        <ele>174.09</ele>
        <time>2021-08-08T15:20:27Z</time>
      </trkpt>
      <trkpt lat="48.99737" lon="0.05567">
        <ele>174.23</ele>
        <time>2021-08-08T15:20:28Z</time>
      </trkpt>
      <trkpt lat="48.99733" lon="0.05562">
        <ele>174.39</ele>
        <time>2021-08-08T15:20:29Z</time>
      </trkpt>
      <trkpt lat="48.9973" lon="0.05556">
        <ele>174.61</ele>
        <time>2021-08-08T15:20:30Z</time>
      </trkpt>
      <trkpt lat="48.99726" lon="0.05552">
        <ele>174.78</ele>
        <time>2021-08-08T15:20:31Z</time>
      </trkpt>
      <trkpt lat="48.99723" lon="0.05547">
        <ele>174.92</ele>
        <time>2021-08-08T15:20:32Z</time>
      </trkpt>
      <trkpt lat="48.9972" lon="0.05541">
        <ele>174.98</ele>
        <time>2021-08-08T15:20:33Z</time>
      </trkpt>
      <trkpt lat="48.99717" lon="0.05537">
        <ele>174.99</ele>
        <time>2021-08-08T15:20:34Z</time>
      </trkpt>
      <trkpt lat="48.99714" lon="0.05533">
        <ele>175</ele>
        <time>2021-08-08T15:20:35Z</time>
      </trkpt>
      <trkpt lat="48.9971" lon="0.05527">
        <ele>175</ele>
        <time>2021-08-08T15:20:36Z</time>
      </trkpt>
      <trkpt lat="48.99707" lon="0.05523">
        <ele>175</ele>
        <time>2021-08-08T15:20:37Z</time>
      </trkpt>
      <trkpt lat="48.99703" lon="0.05519">
        <ele>175</ele>
        <time>2021-08-08T15:20:38Z</time>
      </trkpt>
      <trkpt lat="48.99699" lon="0.05514">
        <ele>175</ele>
        <time>2021-08-08T15:20:39Z</time>
      </trkpt>
      <trkpt lat="48.99695" lon="0.05509">
        <ele>175</ele>
        <time>2021-08-08T15:20:40Z</time>
      </trkpt>
      <trkpt lat="48.99691" lon="0.05503">
        <ele>175</ele>
        <time>2021-08-08T15:20:41Z</time>
      </trkpt>
      <trkpt lat="48.99687" lon="0.05499">
        <ele>175</ele>
        <time>2021-08-08T15:20:42Z</time>
      </trkpt>
      <trkpt lat="48.99683" lon="0.05493">
        <ele>175</ele>
        <time>2021-08-08T15:20:43Z</time>
      </trkpt>
      <trkpt lat="48.99679" lon="0.05488">
        <ele>175</ele>
        <time>2021-08-08T15:20:44Z</time>
      </trkpt>
      <trkpt lat="48.99674" lon="0.05481">
        <ele>175</ele>
        <time>2021-08-08T15:20:45Z</time>
      </trkpt>
      <trkpt lat="48.99671" lon="0.05475">
        <ele>175</ele>
        <time>2021-08-08T15:20:46Z</time>
      </trkpt>
      <trkpt lat="48.99667" lon="0.0547">
        <ele>175</ele>
        <time>2021-08-08T15:20:47Z</time>
      </trkpt>
      <trkpt lat="48.99662" lon="0.05465">
        <ele>175.03</ele>
        <time>2021-08-08T15:20:48Z</time>
      </trkpt>
      <trkpt lat="48.99659" lon="0.05461">
        <ele>175.09</ele>
        <time>2021-08-08T15:20:49Z</time>
      </trkpt>
      <trkpt lat="48.99655" lon="0.05456">
        <ele>175.19</ele>
        <time>2021-08-08T15:20:50Z</time>
      </trkpt>
      <trkpt lat="48.99651" lon="0.05451">
        <ele>175.35</ele>
        <time>2021-08-08T15:20:51Z</time>
      </trkpt>
      <trkpt lat="48.99648" lon="0.05446">
        <ele>175.54</ele>
        <time>2021-08-08T15:20:52Z</time>
      </trkpt>
      <trkpt lat="48.99645" lon="0.05443">
        <ele>175.72</ele>
        <time>2021-08-08T15:20:53Z</time>
      </trkpt>
      <trkpt lat="48.99641" lon="0.05438">
        <ele>175.86</ele>
        <time>2021-08-08T15:20:54Z</time>
      </trkpt>
      <trkpt lat="48.99637" lon="0.05435">
        <ele>175.96</ele>
        <time>2021-08-08T15:20:55Z</time>
      </trkpt>
      <trkpt lat="48.99634" lon="0.05432">
        <ele>175.99</ele>
        <time>2021-08-08T15:20:56Z</time>
      </trkpt>
      <trkpt lat="48.9963" lon="0.05428">
        <ele>176</ele>
        <time>2021-08-08T15:20:57Z</time>
      </trkpt>
      <trkpt lat="48.99626" lon="0.05425">
        <ele>176</ele>
        <time>2021-08-08T15:20:58Z</time>
      </trkpt>
      <trkpt lat="48.99623" lon="0.05422">
        <ele>176</ele>
        <time>2021-08-08T15:20:59Z</time>
      </trkpt>
      <trkpt lat="48.99618" lon="0.05418">
        <ele>176</ele>
        <time>2021-08-08T15:21:00Z</time>
      </trkpt>
      <trkpt lat="48.99615" lon="0.05415">
        <ele>176</ele>
        <time>2021-08-08T15:21:01Z</time>
      </trkpt>
      <trkpt lat="48.99611" lon="0.05413">
        <ele>176</ele>
        <time>2021-08-08T15:21:02Z</time>
      </trkpt>
      <trkpt lat="48.99607" lon="0.0541">
        <ele>176</ele>
        <time>2021-08-08T15:21:03Z</time>
      </trkpt>
      <trkpt lat="48.99603" lon="0.05407">
        <ele>176</ele>
        <time>2021-08-08T15:21:04Z</time>
      </trkpt>
      <trkpt lat="48.99599" lon="0.05403">
        <ele>176</ele>
        <time>2021-08-08T15:21:05Z</time>
      </trkpt>
      <trkpt lat="48.99595" lon="0.054">
        <ele>176</ele>
        <time>2021-08-08T15:21:06Z</time>
      </trkpt>
      <trkpt lat="48.99591" lon="0.05395">
        <ele>176</ele>
        <time>2021-08-08T15:21:07Z</time>
      </trkpt>
      <trkpt lat="48.99587" lon="0.05394">
        <ele>176</ele>
        <time>2021-08-08T15:21:08Z</time>
      </trkpt>
      <trkpt lat="48.99583" lon="0.05394">
        <ele>176</ele>
        <time>2021-08-08T15:21:09Z</time>
      </trkpt>
      <trkpt lat="48.9958" lon="0.05396">
        <ele>176</ele>
        <time>2021-08-08T15:21:10Z</time>
      </trkpt>
      <trkpt lat="48.99575" lon="0.05401">
        <ele>176</ele>
        <time>2021-08-08T15:21:11Z</time>
      </trkpt>
      <trkpt lat="48.9957" lon="0.05406">
        <ele>176</ele>
        <time>2021-08-08T15:21:12Z</time>
      </trkpt>
      <trkpt lat="48.99566" lon="0.05409">
        <ele>176</ele>
        <time>2021-08-08T15:21:13Z</time>
      </trkpt>
      <trkpt lat="48.99561" lon="0.05415">
        <ele>176</ele>
        <time>2021-08-08T15:21:14Z</time>
      </trkpt>
      <trkpt lat="48.99556" lon="0.05419">
        <ele>176</ele>
        <time>2021-08-08T15:21:15Z</time>
      </trkpt>
      <trkpt lat="48.99552" lon="0.05424">
        <ele>176</ele>
        <time>2021-08-08T15:21:16Z</time>
      </trkpt>
      <trkpt lat="48.99549" lon="0.05429">
        <ele>176</ele>
        <time>2021-08-08T15:21:17Z</time>
      </trkpt>
      <trkpt lat="48.99545" lon="0.05433">
        <ele>176</ele>
        <time>2021-08-08T15:21:18Z</time>
      </trkpt>
      <trkpt lat="48.99542" lon="0.05438">
        <ele>176</ele>
        <time>2021-08-08T15:21:19Z</time>
      </trkpt>
      <trkpt lat="48.99538" lon="0.05443">
        <ele>176</ele>
        <time>2021-08-08T15:21:20Z</time>
      </trkpt>
      <trkpt lat="48.99534" lon="0.05448">
        <ele>176</ele>
        <time>2021-08-08T15:21:21Z</time>
      </trkpt>
      <trkpt lat="48.99531" lon="0.05453">
        <ele>176</ele>
        <time>2021-08-08T15:21:22Z</time>
      </trkpt>
      <trkpt lat="48.99527" lon="0.05458">
        <ele>176</ele>
        <time>2021-08-08T15:21:23Z</time>
      </trkpt>
      <trkpt lat="48.99524" lon="0.05464">
        <ele>176</ele>
        <time>2021-08-08T15:21:24Z</time>
      </trkpt>
      <trkpt lat="48.99521" lon="0.05469">
        <ele>176</ele>
        <time>2021-08-08T15:21:25Z</time>
      </trkpt>
      <trkpt lat="48.99517" lon="0.05474">
        <ele>175.96</ele>
        <time>2021-08-08T15:21:26Z</time>
      </trkpt>
      <trkpt lat="48.99513" lon="0.0548">
        <ele>175.8</ele>
        <time>2021-08-08T15:21:27Z</time>
      </trkpt>
      <trkpt lat="48.9951" lon="0.05486">
        <ele>175.59</ele>
        <time>2021-08-08T15:21:28Z</time>
      </trkpt>
      <trkpt lat="48.99506" lon="0.05492">
        <ele>175.37</ele>
        <time>2021-08-08T15:21:29Z</time>
      </trkpt>
      <trkpt lat="48.99501" lon="0.05499">
        <ele>175.15</ele>
        <time>2021-08-08T15:21:30Z</time>
      </trkpt>
      <trkpt lat="48.99496" lon="0.05505">
        <ele>175.04</ele>
        <time>2021-08-08T15:21:31Z</time>
      </trkpt>
      <trkpt lat="48.99491" lon="0.05512">
        <ele>175.01</ele>
        <time>2021-08-08T15:21:32Z</time>
      </trkpt>
      <trkpt lat="48.99487" lon="0.0552">
        <ele>175</ele>
        <time>2021-08-08T15:21:33Z</time>
      </trkpt>
      <trkpt lat="48.99483" lon="0.05527">
        <ele>175</ele>
        <time>2021-08-08T15:21:34Z</time>
      </trkpt>
      <trkpt lat="48.99478" lon="0.05535">
        <ele>175</ele>
        <time>2021-08-08T15:21:35Z</time>
      </trkpt>
      <trkpt lat="48.99474" lon="0.05542">
        <ele>175</ele>
        <time>2021-08-08T15:21:36Z</time>
      </trkpt>
      <trkpt lat="48.99468" lon="0.05549">
        <ele>175</ele>
        <time>2021-08-08T15:21:37Z</time>
      </trkpt>
      <trkpt lat="48.99463" lon="0.05556">
        <ele>174.99</ele>
        <time>2021-08-08T15:21:38Z</time>
      </trkpt>
      <trkpt lat="48.99458" lon="0.05563">
        <ele>174.82</ele>
        <time>2021-08-08T15:21:39Z</time>
      </trkpt>
      <trkpt lat="48.99453" lon="0.05569">
        <ele>174.61</ele>
        <time>2021-08-08T15:21:40Z</time>
      </trkpt>
      <trkpt lat="48.99448" lon="0.05575">
        <ele>174.38</ele>
        <time>2021-08-08T15:21:41Z</time>
      </trkpt>
      <trkpt lat="48.99443" lon="0.05582">
        <ele>174.16</ele>
        <time>2021-08-08T15:21:42Z</time>
      </trkpt>
      <trkpt lat="48.99437" lon="0.05588">
        <ele>173.94</ele>
        <time>2021-08-08T15:21:43Z</time>
      </trkpt>
      <trkpt lat="48.99432" lon="0.05593">
        <ele>173.73</ele>
        <time>2021-08-08T15:21:44Z</time>
      </trkpt>
      <trkpt lat="48.99427" lon="0.05599">
        <ele>173.51</ele>
        <time>2021-08-08T15:21:45Z</time>
      </trkpt>
      <trkpt lat="48.99422" lon="0.05606">
        <ele>173.29</ele>
        <time>2021-08-08T15:21:46Z</time>
      </trkpt>
      <trkpt lat="48.99417" lon="0.05612">
        <ele>173.06</ele>
        <time>2021-08-08T15:21:47Z</time>
      </trkpt>
      <trkpt lat="48.99412" lon="0.05618">
        <ele>172.83</ele>
        <time>2021-08-08T15:21:48Z</time>
      </trkpt>
      <trkpt lat="48.99407" lon="0.05624">
        <ele>172.62</ele>
        <time>2021-08-08T15:21:49Z</time>
      </trkpt>
      <trkpt lat="48.99402" lon="0.05631">
        <ele>172.39</ele>
        <time>2021-08-08T15:21:50Z</time>
      </trkpt>
      <trkpt lat="48.99396" lon="0.05638">
        <ele>172.15</ele>
        <time>2021-08-08T15:21:51Z</time>
      </trkpt>
      <trkpt lat="48.99391" lon="0.05644">
        <ele>171.91</ele>
        <time>2021-08-08T15:21:52Z</time>
      </trkpt>
      <trkpt lat="48.99386" lon="0.05651">
        <ele>171.66</ele>
        <time>2021-08-08T15:21:53Z</time>
      </trkpt>
      <trkpt lat="48.99381" lon="0.05658">
        <ele>171.42</ele>
        <time>2021-08-08T15:21:54Z</time>
      </trkpt>
      <trkpt lat="48.99376" lon="0.05664">
        <ele>171.2</ele>
        <time>2021-08-08T15:21:55Z</time>
      </trkpt>
      <trkpt lat="48.99371" lon="0.05668">
        <ele>171.01</ele>
        <time>2021-08-08T15:21:56Z</time>
      </trkpt>
      <trkpt lat="48.99365" lon="0.05671">
        <ele>170.89</ele>
        <time>2021-08-08T15:21:57Z</time>
      </trkpt>
      <trkpt lat="48.9936" lon="0.05671">
        <ele>170.83</ele>
        <time>2021-08-08T15:21:58Z</time>
      </trkpt>
      <trkpt lat="48.99354" lon="0.0567">
        <ele>170.68</ele>
        <time>2021-08-08T15:21:59Z</time>
      </trkpt>
      <trkpt lat="48.99348" lon="0.05668">
        <ele>170.54</ele>
        <time>2021-08-08T15:22:00Z</time>
      </trkpt>
      <trkpt lat="48.99343" lon="0.05667">
        <ele>170.4</ele>
        <time>2021-08-08T15:22:01Z</time>
      </trkpt>
      <trkpt lat="48.99338" lon="0.05665">
        <ele>170.27</ele>
        <time>2021-08-08T15:22:02Z</time>
      </trkpt>
      <trkpt lat="48.99332" lon="0.05663">
        <ele>170.17</ele>
        <time>2021-08-08T15:22:03Z</time>
      </trkpt>
      <trkpt lat="48.99326" lon="0.05661">
        <ele>170.19</ele>
        <time>2021-08-08T15:22:04Z</time>
      </trkpt>
      <trkpt lat="48.9932" lon="0.05659">
        <ele>170.24</ele>
        <time>2021-08-08T15:22:05Z</time>
      </trkpt>
      <trkpt lat="48.99314" lon="0.05657">
        <ele>170.31</ele>
        <time>2021-08-08T15:22:06Z</time>
      </trkpt>
      <trkpt lat="48.99308" lon="0.05655">
        <ele>170.38</ele>
        <time>2021-08-08T15:22:07Z</time>
      </trkpt>
      <trkpt lat="48.99302" lon="0.05654">
        <ele>170.34</ele>
        <time>2021-08-08T15:22:08Z</time>
      </trkpt>
      <trkpt lat="48.99295" lon="0.05652">
        <ele>170.21</ele>
        <time>2021-08-08T15:22:09Z</time>
      </trkpt>
      <trkpt lat="48.99289" lon="0.05651">
        <ele>170.03</ele>
        <time>2021-08-08T15:22:10Z</time>
      </trkpt>
      <trkpt lat="48.99281" lon="0.05649">
        <ele>169.84</ele>
        <time>2021-08-08T15:22:11Z</time>
      </trkpt>
      <trkpt lat="48.99274" lon="0.05646">
        <ele>169.67</ele>
        <time>2021-08-08T15:22:12Z</time>
      </trkpt>
      <trkpt lat="48.99267" lon="0.05644">
        <ele>169.5</ele>
        <time>2021-08-08T15:22:13Z</time>
      </trkpt>
      <trkpt lat="48.9926" lon="0.05641">
        <ele>169.34</ele>
        <time>2021-08-08T15:22:14Z</time>
      </trkpt>
      <trkpt lat="48.99254" lon="0.05639">
        <ele>169.19</ele>
        <time>2021-08-08T15:22:15Z</time>
      </trkpt>
      <trkpt lat="48.99248" lon="0.05637">
        <ele>169.05</ele>
        <time>2021-08-08T15:22:16Z</time>
      </trkpt>
      <trkpt lat="48.99242" lon="0.05635">
        <ele>168.91</ele>
        <time>2021-08-08T15:22:17Z</time>
      </trkpt>
      <trkpt lat="48.99235" lon="0.05632">
        <ele>168.78</ele>
        <time>2021-08-08T15:22:18Z</time>
      </trkpt>
      <trkpt lat="48.99228" lon="0.05629">
        <ele>168.63</ele>
        <time>2021-08-08T15:22:19Z</time>
      </trkpt>
      <trkpt lat="48.99221" lon="0.05627">
        <ele>168.46</ele>
        <time>2021-08-08T15:22:20Z</time>
      </trkpt>
      <trkpt lat="48.99214" lon="0.05626">
        <ele>168.36</ele>
        <time>2021-08-08T15:22:21Z</time>
      </trkpt>
      <trkpt lat="48.99207" lon="0.05624">
        <ele>168.31</ele>
        <time>2021-08-08T15:22:22Z</time>
      </trkpt>
      <trkpt lat="48.992" lon="0.05622">
        <ele>168.3</ele>
        <time>2021-08-08T15:22:23Z</time>
      </trkpt>
      <trkpt lat="48.99193" lon="0.0562">
        <ele>168.3</ele>
        <time>2021-08-08T15:22:24Z</time>
      </trkpt>
      <trkpt lat="48.99186" lon="0.05618">
        <ele>168.24</ele>
        <time>2021-08-08T15:22:25Z</time>
      </trkpt>
      <trkpt lat="48.9918" lon="0.05615">
        <ele>168.22</ele>
        <time>2021-08-08T15:22:26Z</time>
      </trkpt>
      <trkpt lat="48.99174" lon="0.05612">
        <ele>168.2</ele>
        <time>2021-08-08T15:22:27Z</time>
      </trkpt>
      <trkpt lat="48.99168" lon="0.05609">
        <ele>168.13</ele>
        <time>2021-08-08T15:22:28Z</time>
      </trkpt>
      <trkpt lat="48.99162" lon="0.05607">
        <ele>168.16</ele>
        <time>2021-08-08T15:22:29Z</time>
      </trkpt>
      <trkpt lat="48.99155" lon="0.05604">
        <ele>168.24</ele>
        <time>2021-08-08T15:22:30Z</time>
      </trkpt>
      <trkpt lat="48.99149" lon="0.05601">
        <ele>168.32</ele>
        <time>2021-08-08T15:22:31Z</time>
      </trkpt>
      <trkpt lat="48.99144" lon="0.05598">
        <ele>168.43</ele>
        <time>2021-08-08T15:22:32Z</time>
      </trkpt>
      <trkpt lat="48.99138" lon="0.05596">
        <ele>168.49</ele>
        <time>2021-08-08T15:22:33Z</time>
      </trkpt>
      <trkpt lat="48.99132" lon="0.05594">
        <ele>168.51</ele>
        <time>2021-08-08T15:22:34Z</time>
      </trkpt>
      <trkpt lat="48.99127" lon="0.05592">
        <ele>168.55</ele>
        <time>2021-08-08T15:22:35Z</time>
      </trkpt>
      <trkpt lat="48.99121" lon="0.05591">
        <ele>168.57</ele>
        <time>2021-08-08T15:22:36Z</time>
      </trkpt>
      <trkpt lat="48.99116" lon="0.0559">
        <ele>168.56</ele>
        <time>2021-08-08T15:22:37Z</time>
      </trkpt>
      <trkpt lat="48.99112" lon="0.05591">
        <ele>168.51</ele>
        <time>2021-08-08T15:22:38Z</time>
      </trkpt>
      <trkpt lat="48.99107" lon="0.05594">
        <ele>168.32</ele>
        <time>2021-08-08T15:22:39Z</time>
      </trkpt>
      <trkpt lat="48.99104" lon="0.05597">
        <ele>168.13</ele>
        <time>2021-08-08T15:22:40Z</time>
      </trkpt>
      <trkpt lat="48.99102" lon="0.05599">
        <ele>167.96</ele>
        <time>2021-08-08T15:22:41Z</time>
      </trkpt>
      <trkpt lat="48.99101" lon="0.05599">
        <ele>167.92</ele>
        <time>2021-08-08T15:22:42Z</time>
      </trkpt>
      <trkpt lat="48.99102" lon="0.05598">
        <ele>167.94</ele>
        <time>2021-08-08T15:22:43Z</time>
      </trkpt>
      <trkpt lat="48.99102" lon="0.05597">
        <ele>167.98</ele>
        <time>2021-08-08T15:22:44Z</time>
      </trkpt>
      <trkpt lat="48.99102" lon="0.05597">
        <ele>167.99</ele>
        <time>2021-08-08T15:22:45Z</time>
      </trkpt>
      <trkpt lat="48.99102" lon="0.05597">
        <ele>167.99</ele>
        <time>2021-08-08T15:22:46Z</time>
      </trkpt>
      <trkpt lat="48.99102" lon="0.05597">
        <ele>167.99</ele>
        <time>2021-08-08T15:22:47Z</time>
      </trkpt>
      <trkpt lat="48.99102" lon="0.05597">
        <ele>167.99</ele>
        <time>2021-08-08T15:22:48Z</time>
      </trkpt>
      <trkpt lat="48.99102" lon="0.05597">
        <ele>167.99</ele>
        <time>2021-08-08T15:22:49Z</time>
      </trkpt>
      <trkpt lat="48.99102" lon="0.05597">
        <ele>167.99</ele>
        <time>2021-08-08T15:22:50Z</time>
      </trkpt>
      <trkpt lat="48.99102" lon="0.05597">
        <ele>167.99</ele>
        <time>2021-08-08T15:22:51Z</time>
      </trkpt>
      <trkpt lat="48.99103" lon="0.056">
        <ele>167.87</ele>
        <time>2021-08-08T15:22:52Z</time>
      </trkpt>
      <trkpt lat="48.99102" lon="0.05604">
        <ele>167.64</ele>
        <time>2021-08-08T15:22:53Z</time>
      </trkpt>
      <trkpt lat="48.99101" lon="0.05609">
        <ele>167.31</ele>
        <time>2021-08-08T15:22:54Z</time>
      </trkpt>
      <trkpt lat="48.99101" lon="0.05615">
        <ele>166.99</ele>
        <time>2021-08-08T15:22:55Z</time>
      </trkpt>
      <trkpt lat="48.991" lon="0.05622">
        <ele>166.73</ele>
        <time>2021-08-08T15:22:56Z</time>
      </trkpt>
      <trkpt lat="48.99098" lon="0.0563">
        <ele>166.45</ele>
        <time>2021-08-08T15:22:57Z</time>
      </trkpt>
      <trkpt lat="48.99096" lon="0.05638">
        <ele>166.16</ele>
        <time>2021-08-08T15:22:58Z</time>
      </trkpt>
      <trkpt lat="48.99095" lon="0.05647">
        <ele>165.86</ele>
        <time>2021-08-08T15:22:59Z</time>
      </trkpt>
      <trkpt lat="48.99093" lon="0.05657">
        <ele>165.51</ele>
        <time>2021-08-08T15:23:00Z</time>
      </trkpt>
      <trkpt lat="48.9909" lon="0.05668">
        <ele>165.09</ele>
        <time>2021-08-08T15:23:01Z</time>
      </trkpt>
      <trkpt lat="48.99088" lon="0.05679">
        <ele>164.33</ele>
        <time>2021-08-08T15:23:02Z</time>
      </trkpt>
      <trkpt lat="48.99086" lon="0.05691">
        <ele>163.53</ele>
        <time>2021-08-08T15:23:03Z</time>
      </trkpt>
      <trkpt lat="48.99082" lon="0.05703">
        <ele>162.5</ele>
        <time>2021-08-08T15:23:04Z</time>
      </trkpt>
      <trkpt lat="48.99079" lon="0.05716">
        <ele>161.32</ele>
        <time>2021-08-08T15:23:05Z</time>
      </trkpt>
      <trkpt lat="48.99076" lon="0.05729">
        <ele>160.08</ele>
        <time>2021-08-08T15:23:06Z</time>
      </trkpt>
      <trkpt lat="48.99073" lon="0.05743">
        <ele>158.75</ele>
        <time>2021-08-08T15:23:07Z</time>
      </trkpt>
      <trkpt lat="48.99071" lon="0.05755">
        <ele>157.58</ele>
        <time>2021-08-08T15:23:08Z</time>
      </trkpt>
      <trkpt lat="48.99068" lon="0.05769">
        <ele>156.62</ele>
        <time>2021-08-08T15:23:09Z</time>
      </trkpt>
      <trkpt lat="48.99064" lon="0.05785">
        <ele>155.55</ele>
        <time>2021-08-08T15:23:10Z</time>
      </trkpt>
      <trkpt lat="48.9906" lon="0.05799">
        <ele>154.56</ele>
        <time>2021-08-08T15:23:11Z</time>
      </trkpt>
      <trkpt lat="48.99058" lon="0.05813">
        <ele>153.5</ele>
        <time>2021-08-08T15:23:12Z</time>
      </trkpt>
      <trkpt lat="48.99056" lon="0.05828">
        <ele>152.13</ele>
        <time>2021-08-08T15:23:13Z</time>
      </trkpt>
      <trkpt lat="48.99058" lon="0.05844">
        <ele>150.46</ele>
        <time>2021-08-08T15:23:14Z</time>
      </trkpt>
      <trkpt lat="48.9906" lon="0.05858">
        <ele>148.86</ele>
        <time>2021-08-08T15:23:15Z</time>
      </trkpt>
      <trkpt lat="48.9906" lon="0.05874">
        <ele>147.42</ele>
        <time>2021-08-08T15:23:16Z</time>
      </trkpt>
      <trkpt lat="48.9906" lon="0.05886">
        <ele>146.37</ele>
        <time>2021-08-08T15:23:17Z</time>
      </trkpt>
      <trkpt lat="48.99061" lon="0.05899">
        <ele>145.33</ele>
        <time>2021-08-08T15:23:18Z</time>
      </trkpt>
      <trkpt lat="48.99062" lon="0.0591">
        <ele>144.42</ele>
        <time>2021-08-08T15:23:19Z</time>
      </trkpt>
      <trkpt lat="48.99061" lon="0.0592">
        <ele>143.57</ele>
        <time>2021-08-08T15:23:20Z</time>
      </trkpt>
      <trkpt lat="48.99059" lon="0.05928">
        <ele>142.9</ele>
        <time>2021-08-08T15:23:21Z</time>
      </trkpt>
      <trkpt lat="48.99058" lon="0.05934">
        <ele>142.28</ele>
        <time>2021-08-08T15:23:22Z</time>
      </trkpt>
      <trkpt lat="48.99058" lon="0.0594">
        <ele>141.68</ele>
        <time>2021-08-08T15:23:23Z</time>
      </trkpt>
      <trkpt lat="48.99057" lon="0.05943">
        <ele>141.27</ele>
        <time>2021-08-08T15:23:24Z</time>
      </trkpt>
      <trkpt lat="48.99056" lon="0.05947">
        <ele>140.96</ele>
        <time>2021-08-08T15:23:25Z</time>
      </trkpt>
      <trkpt lat="48.99055" lon="0.0595">
        <ele>140.68</ele>
        <time>2021-08-08T15:23:26Z</time>
      </trkpt>
      <trkpt lat="48.99055" lon="0.05956">
        <ele>140.34</ele>
        <time>2021-08-08T15:23:27Z</time>
      </trkpt>
      <trkpt lat="48.99054" lon="0.05961">
        <ele>139.97</ele>
        <time>2021-08-08T15:23:28Z</time>
      </trkpt>
      <trkpt lat="48.99051" lon="0.05966">
        <ele>139.59</ele>
        <time>2021-08-08T15:23:29Z</time>
      </trkpt>
      <trkpt lat="48.99047" lon="0.0597">
        <ele>139.27</ele>
        <time>2021-08-08T15:23:30Z</time>
      </trkpt>
      <trkpt lat="48.99041" lon="0.05972">
        <ele>139.09</ele>
        <time>2021-08-08T15:23:31Z</time>
      </trkpt>
      <trkpt lat="48.99035" lon="0.05972">
        <ele>139.02</ele>
        <time>2021-08-08T15:23:32Z</time>
      </trkpt>
      <trkpt lat="48.9903" lon="0.05974">
        <ele>138.9</ele>
        <time>2021-08-08T15:23:33Z</time>
      </trkpt>
      <trkpt lat="48.99025" lon="0.05978">
        <ele>138.62</ele>
        <time>2021-08-08T15:23:34Z</time>
      </trkpt>
      <trkpt lat="48.99022" lon="0.05982">
        <ele>138.19</ele>
        <time>2021-08-08T15:23:35Z</time>
      </trkpt>
      <trkpt lat="48.99025" lon="0.05992">
        <ele>137.64</ele>
        <time>2021-08-08T15:23:36Z</time>
      </trkpt>
      <trkpt lat="48.99029" lon="0.06001">
        <ele>137.16</ele>
        <time>2021-08-08T15:23:37Z</time>
      </trkpt>
      <trkpt lat="48.99033" lon="0.06008">
        <ele>136.63</ele>
        <time>2021-08-08T15:23:38Z</time>
      </trkpt>
      <trkpt lat="48.99037" lon="0.06016">
        <ele>136.06</ele>
        <time>2021-08-08T15:23:39Z</time>
      </trkpt>
      <trkpt lat="48.99042" lon="0.06025">
        <ele>135.48</ele>
        <time>2021-08-08T15:23:40Z</time>
      </trkpt>
      <trkpt lat="48.99047" lon="0.06034">
        <ele>134.84</ele>
        <time>2021-08-08T15:23:41Z</time>
      </trkpt>
      <trkpt lat="48.99052" lon="0.06043">
        <ele>134.18</ele>
        <time>2021-08-08T15:23:42Z</time>
      </trkpt>
      <trkpt lat="48.99057" lon="0.06053">
        <ele>133.47</ele>
        <time>2021-08-08T15:23:43Z</time>
      </trkpt>
      <trkpt lat="48.99063" lon="0.06063">
        <ele>132.75</ele>
        <time>2021-08-08T15:23:44Z</time>
      </trkpt>
      <trkpt lat="48.99068" lon="0.06074">
        <ele>132</ele>
        <time>2021-08-08T15:23:45Z</time>
      </trkpt>
      <trkpt lat="48.99073" lon="0.06084">
        <ele>131.29</ele>
        <time>2021-08-08T15:23:46Z</time>
      </trkpt>
      <trkpt lat="48.99077" lon="0.06093">
        <ele>130.79</ele>
        <time>2021-08-08T15:23:47Z</time>
      </trkpt>
      <trkpt lat="48.99081" lon="0.06103">
        <ele>130.41</ele>
        <time>2021-08-08T15:23:48Z</time>
      </trkpt>
      <trkpt lat="48.99085" lon="0.06113">
        <ele>130.05</ele>
        <time>2021-08-08T15:23:49Z</time>
      </trkpt>
      <trkpt lat="48.9909" lon="0.06122">
        <ele>129.46</ele>
        <time>2021-08-08T15:23:50Z</time>
      </trkpt>
      <trkpt lat="48.99096" lon="0.0613">
        <ele>128.86</ele>
        <time>2021-08-08T15:23:51Z</time>
      </trkpt>
      <trkpt lat="48.99101" lon="0.0614">
        <ele>128.24</ele>
        <time>2021-08-08T15:23:52Z</time>
      </trkpt>
      <trkpt lat="48.99107" lon="0.06149">
        <ele>127.79</ele>
        <time>2021-08-08T15:23:53Z</time>
      </trkpt>
      <trkpt lat="48.99112" lon="0.06158">
        <ele>127.51</ele>
        <time>2021-08-08T15:23:54Z</time>
      </trkpt>
      <trkpt lat="48.99118" lon="0.06167">
        <ele>127.31</ele>
        <time>2021-08-08T15:23:55Z</time>
      </trkpt>
      <trkpt lat="48.99123" lon="0.06176">
        <ele>126.91</ele>
        <time>2021-08-08T15:23:56Z</time>
      </trkpt>
      <trkpt lat="48.99128" lon="0.06186">
        <ele>126.45</ele>
        <time>2021-08-08T15:23:57Z</time>
      </trkpt>
      <trkpt lat="48.99133" lon="0.06196">
        <ele>125.96</ele>
        <time>2021-08-08T15:23:58Z</time>
      </trkpt>
      <trkpt lat="48.99138" lon="0.06206">
        <ele>125.7</ele>
        <time>2021-08-08T15:23:59Z</time>
      </trkpt>
      <trkpt lat="48.99144" lon="0.06215">
        <ele>125.5</ele>
        <time>2021-08-08T15:24:00Z</time>
      </trkpt>
      <trkpt lat="48.99149" lon="0.06226">
        <ele>125.28</ele>
        <time>2021-08-08T15:24:01Z</time>
      </trkpt>
      <trkpt lat="48.99154" lon="0.06236">
        <ele>124.93</ele>
        <time>2021-08-08T15:24:02Z</time>
      </trkpt>
      <trkpt lat="48.99159" lon="0.06246">
        <ele>124.47</ele>
        <time>2021-08-08T15:24:03Z</time>
      </trkpt>
      <trkpt lat="48.99162" lon="0.06255">
        <ele>123.98</ele>
        <time>2021-08-08T15:24:04Z</time>
      </trkpt>
      <trkpt lat="48.99164" lon="0.06266">
        <ele>123.55</ele>
        <time>2021-08-08T15:24:05Z</time>
      </trkpt>
      <trkpt lat="48.99165" lon="0.06278">
        <ele>123.11</ele>
        <time>2021-08-08T15:24:06Z</time>
      </trkpt>
      <trkpt lat="48.99165" lon="0.06291">
        <ele>122.64</ele>
        <time>2021-08-08T15:24:07Z</time>
      </trkpt>
      <trkpt lat="48.99164" lon="0.06305">
        <ele>122.14</ele>
        <time>2021-08-08T15:24:08Z</time>
      </trkpt>
      <trkpt lat="48.99163" lon="0.06321">
        <ele>121.22</ele>
        <time>2021-08-08T15:24:09Z</time>
      </trkpt>
      <trkpt lat="48.99162" lon="0.06336">
        <ele>120.3</ele>
        <time>2021-08-08T15:24:10Z</time>
      </trkpt>
      <trkpt lat="48.99162" lon="0.06352">
        <ele>119.62</ele>
        <time>2021-08-08T15:24:11Z</time>
      </trkpt>
      <trkpt lat="48.99163" lon="0.06366">
        <ele>119.05</ele>
        <time>2021-08-08T15:24:12Z</time>
      </trkpt>
      <trkpt lat="48.99165" lon="0.06384">
        <ele>118.43</ele>
        <time>2021-08-08T15:24:13Z</time>
      </trkpt>
      <trkpt lat="48.99166" lon="0.06396">
        <ele>117.94</ele>
        <time>2021-08-08T15:24:14Z</time>
      </trkpt>
      <trkpt lat="48.99167" lon="0.06409">
        <ele>117.48</ele>
        <time>2021-08-08T15:24:15Z</time>
      </trkpt>
      <trkpt lat="48.99169" lon="0.06422">
        <ele>117.02</ele>
        <time>2021-08-08T15:24:16Z</time>
      </trkpt>
      <trkpt lat="48.99169" lon="0.06435">
        <ele>116.56</ele>
        <time>2021-08-08T15:24:17Z</time>
      </trkpt>
      <trkpt lat="48.99172" lon="0.06446">
        <ele>116.12</ele>
        <time>2021-08-08T15:24:18Z</time>
      </trkpt>
      <trkpt lat="48.99174" lon="0.06459">
        <ele>115.66</ele>
        <time>2021-08-08T15:24:19Z</time>
      </trkpt>
      <trkpt lat="48.99175" lon="0.06474">
        <ele>115.2</ele>
        <time>2021-08-08T15:24:20Z</time>
      </trkpt>
      <trkpt lat="48.99178" lon="0.06485">
        <ele>115.06</ele>
        <time>2021-08-08T15:24:21Z</time>
      </trkpt>
      <trkpt lat="48.99178" lon="0.065">
        <ele>115.01</ele>
        <time>2021-08-08T15:24:22Z</time>
      </trkpt>
      <trkpt lat="48.9918" lon="0.06513">
        <ele>114.84</ele>
        <time>2021-08-08T15:24:23Z</time>
      </trkpt>
      <trkpt lat="48.99182" lon="0.06526">
        <ele>114.6</ele>
        <time>2021-08-08T15:24:24Z</time>
      </trkpt>
      <trkpt lat="48.99184" lon="0.06538">
        <ele>114.35</ele>
        <time>2021-08-08T15:24:25Z</time>
      </trkpt>
      <trkpt lat="48.99186" lon="0.0655">
        <ele>114.15</ele>
        <time>2021-08-08T15:24:26Z</time>
      </trkpt>
      <trkpt lat="48.99189" lon="0.0656">
        <ele>114.04</ele>
        <time>2021-08-08T15:24:27Z</time>
      </trkpt>
      <trkpt lat="48.99192" lon="0.0657">
        <ele>114.01</ele>
        <time>2021-08-08T15:24:28Z</time>
      </trkpt>
      <trkpt lat="48.99195" lon="0.0658">
        <ele>113.99</ele>
        <time>2021-08-08T15:24:29Z</time>
      </trkpt>
      <trkpt lat="48.99196" lon="0.0659">
        <ele>113.97</ele>
        <time>2021-08-08T15:24:30Z</time>
      </trkpt>
      <trkpt lat="48.99196" lon="0.06599">
        <ele>113.97</ele>
        <time>2021-08-08T15:24:31Z</time>
      </trkpt>
      <trkpt lat="48.99196" lon="0.06608">
        <ele>113.99</ele>
        <time>2021-08-08T15:24:32Z</time>
      </trkpt>
      <trkpt lat="48.99195" lon="0.06616">
        <ele>114</ele>
        <time>2021-08-08T15:24:33Z</time>
      </trkpt>
      <trkpt lat="48.99194" lon="0.06625">
        <ele>114.02</ele>
        <time>2021-08-08T15:24:34Z</time>
      </trkpt>
      <trkpt lat="48.99191" lon="0.06633">
        <ele>114.09</ele>
        <time>2021-08-08T15:24:35Z</time>
      </trkpt>
      <trkpt lat="48.99189" lon="0.06641">
        <ele>114.19</ele>
        <time>2021-08-08T15:24:36Z</time>
      </trkpt>
      <trkpt lat="48.99187" lon="0.06649">
        <ele>114.43</ele>
        <time>2021-08-08T15:24:37Z</time>
      </trkpt>
      <trkpt lat="48.99185" lon="0.06656">
        <ele>114.66</ele>
        <time>2021-08-08T15:24:38Z</time>
      </trkpt>
      <trkpt lat="48.99182" lon="0.06664">
        <ele>114.86</ele>
        <time>2021-08-08T15:24:39Z</time>
      </trkpt>
      <trkpt lat="48.99179" lon="0.06672">
        <ele>115.03</ele>
        <time>2021-08-08T15:24:40Z</time>
      </trkpt>
      <trkpt lat="48.99177" lon="0.06679">
        <ele>115.21</ele>
        <time>2021-08-08T15:24:41Z</time>
      </trkpt>
      <trkpt lat="48.99175" lon="0.06687">
        <ele>115.43</ele>
        <time>2021-08-08T15:24:42Z</time>
      </trkpt>
      <trkpt lat="48.99173" lon="0.06695">
        <ele>115.68</ele>
        <time>2021-08-08T15:24:43Z</time>
      </trkpt>
      <trkpt lat="48.9917" lon="0.06702">
        <ele>115.81</ele>
        <time>2021-08-08T15:24:44Z</time>
      </trkpt>
      <trkpt lat="48.99168" lon="0.0671">
        <ele>115.91</ele>
        <time>2021-08-08T15:24:45Z</time>
      </trkpt>
      <trkpt lat="48.99166" lon="0.06717">
        <ele>115.98</ele>
        <time>2021-08-08T15:24:46Z</time>
      </trkpt>
      <trkpt lat="48.99165" lon="0.06724">
        <ele>116.09</ele>
        <time>2021-08-08T15:24:47Z</time>
      </trkpt>
      <trkpt lat="48.99163" lon="0.06731">
        <ele>116.31</ele>
        <time>2021-08-08T15:24:48Z</time>
      </trkpt>
      <trkpt lat="48.99161" lon="0.06738">
        <ele>116.55</ele>
        <time>2021-08-08T15:24:49Z</time>
      </trkpt>
      <trkpt lat="48.9916" lon="0.06745">
        <ele>116.78</ele>
        <time>2021-08-08T15:24:50Z</time>
      </trkpt>
      <trkpt lat="48.99158" lon="0.06753">
        <ele>116.95</ele>
        <time>2021-08-08T15:24:51Z</time>
      </trkpt>
      <trkpt lat="48.99156" lon="0.06759">
        <ele>117.07</ele>
        <time>2021-08-08T15:24:52Z</time>
      </trkpt>
      <trkpt lat="48.99153" lon="0.06766">
        <ele>117.21</ele>
        <time>2021-08-08T15:24:53Z</time>
      </trkpt>
      <trkpt lat="48.99151" lon="0.06773">
        <ele>117.38</ele>
        <time>2021-08-08T15:24:54Z</time>
      </trkpt>
      <trkpt lat="48.99149" lon="0.0678">
        <ele>117.56</ele>
        <time>2021-08-08T15:24:55Z</time>
      </trkpt>
      <trkpt lat="48.99147" lon="0.06787">
        <ele>117.67</ele>
        <time>2021-08-08T15:24:56Z</time>
      </trkpt>
      <trkpt lat="48.99145" lon="0.06794">
        <ele>117.75</ele>
        <time>2021-08-08T15:24:57Z</time>
      </trkpt>
      <trkpt lat="48.99143" lon="0.06801">
        <ele>117.82</ele>
        <time>2021-08-08T15:24:58Z</time>
      </trkpt>
      <trkpt lat="48.99141" lon="0.06808">
        <ele>117.96</ele>
        <time>2021-08-08T15:24:59Z</time>
      </trkpt>
      <trkpt lat="48.99139" lon="0.06814">
        <ele>118.19</ele>
        <time>2021-08-08T15:25:00Z</time>
      </trkpt>
      <trkpt lat="48.99138" lon="0.0682">
        <ele>118.46</ele>
        <time>2021-08-08T15:25:01Z</time>
      </trkpt>
      <trkpt lat="48.99136" lon="0.06827">
        <ele>118.76</ele>
        <time>2021-08-08T15:25:02Z</time>
      </trkpt>
      <trkpt lat="48.99135" lon="0.06834">
        <ele>119.08</ele>
        <time>2021-08-08T15:25:03Z</time>
      </trkpt>
      <trkpt lat="48.99133" lon="0.06841">
        <ele>119.53</ele>
        <time>2021-08-08T15:25:04Z</time>
      </trkpt>
      <trkpt lat="48.99131" lon="0.06848">
        <ele>119.98</ele>
        <time>2021-08-08T15:25:05Z</time>
      </trkpt>
      <trkpt lat="48.99129" lon="0.06854">
        <ele>120.41</ele>
        <time>2021-08-08T15:25:06Z</time>
      </trkpt>
      <trkpt lat="48.99128" lon="0.06861">
        <ele>120.81</ele>
        <time>2021-08-08T15:25:07Z</time>
      </trkpt>
      <trkpt lat="48.99126" lon="0.06867">
        <ele>121.08</ele>
        <time>2021-08-08T15:25:08Z</time>
      </trkpt>
      <trkpt lat="48.99125" lon="0.06872">
        <ele>121.3</ele>
        <time>2021-08-08T15:25:09Z</time>
      </trkpt>
      <trkpt lat="48.99123" lon="0.06877">
        <ele>121.5</ele>
        <time>2021-08-08T15:25:10Z</time>
      </trkpt>
      <trkpt lat="48.99122" lon="0.06882">
        <ele>121.69</ele>
        <time>2021-08-08T15:25:11Z</time>
      </trkpt>
      <trkpt lat="48.99121" lon="0.06887">
        <ele>121.86</ele>
        <time>2021-08-08T15:25:12Z</time>
      </trkpt>
      <trkpt lat="48.99119" lon="0.06892">
        <ele>122.04</ele>
        <time>2021-08-08T15:25:13Z</time>
      </trkpt>
      <trkpt lat="48.99117" lon="0.06897">
        <ele>122.23</ele>
        <time>2021-08-08T15:25:14Z</time>
      </trkpt>
      <trkpt lat="48.99116" lon="0.06903">
        <ele>122.41</ele>
        <time>2021-08-08T15:25:15Z</time>
      </trkpt>
      <trkpt lat="48.99114" lon="0.06908">
        <ele>122.61</ele>
        <time>2021-08-08T15:25:16Z</time>
      </trkpt>
      <trkpt lat="48.99112" lon="0.06913">
        <ele>122.79</ele>
        <time>2021-08-08T15:25:17Z</time>
      </trkpt>
      <trkpt lat="48.9911" lon="0.06918">
        <ele>122.99</ele>
        <time>2021-08-08T15:25:18Z</time>
      </trkpt>
      <trkpt lat="48.99109" lon="0.06924">
        <ele>123.24</ele>
        <time>2021-08-08T15:25:19Z</time>
      </trkpt>
      <trkpt lat="48.99107" lon="0.06929">
        <ele>123.49</ele>
        <time>2021-08-08T15:25:20Z</time>
      </trkpt>
      <trkpt lat="48.99106" lon="0.06935">
        <ele>123.75</ele>
        <time>2021-08-08T15:25:21Z</time>
      </trkpt>
      <trkpt lat="48.99104" lon="0.06941">
        <ele>124.01</ele>
        <time>2021-08-08T15:25:22Z</time>
      </trkpt>
      <trkpt lat="48.99103" lon="0.06947">
        <ele>124.25</ele>
        <time>2021-08-08T15:25:23Z</time>
      </trkpt>
      <trkpt lat="48.99102" lon="0.06953">
        <ele>124.52</ele>
        <time>2021-08-08T15:25:24Z</time>
      </trkpt>
      <trkpt lat="48.99101" lon="0.06959">
        <ele>124.78</ele>
        <time>2021-08-08T15:25:25Z</time>
      </trkpt>
      <trkpt lat="48.991" lon="0.06965">
        <ele>125.04</ele>
        <time>2021-08-08T15:25:26Z</time>
      </trkpt>
      <trkpt lat="48.99098" lon="0.06971">
        <ele>125.31</ele>
        <time>2021-08-08T15:25:27Z</time>
      </trkpt>
      <trkpt lat="48.99097" lon="0.06978">
        <ele>125.6</ele>
        <time>2021-08-08T15:25:28Z</time>
      </trkpt>
      <trkpt lat="48.99095" lon="0.06985">
        <ele>125.89</ele>
        <time>2021-08-08T15:25:29Z</time>
      </trkpt>
      <trkpt lat="48.99094" lon="0.06991">
        <ele>126.19</ele>
        <time>2021-08-08T15:25:30Z</time>
      </trkpt>
      <trkpt lat="48.99092" lon="0.06998">
        <ele>126.48</ele>
        <time>2021-08-08T15:25:31Z</time>
      </trkpt>
      <trkpt lat="48.99092" lon="0.07004">
        <ele>126.64</ele>
        <time>2021-08-08T15:25:32Z</time>
      </trkpt>
      <trkpt lat="48.9909" lon="0.0701">
        <ele>126.72</ele>
        <time>2021-08-08T15:25:33Z</time>
      </trkpt>
      <trkpt lat="48.99089" lon="0.07016">
        <ele>126.77</ele>
        <time>2021-08-08T15:25:34Z</time>
      </trkpt>
      <trkpt lat="48.99088" lon="0.07023">
        <ele>126.82</ele>
        <time>2021-08-08T15:25:35Z</time>
      </trkpt>
      <trkpt lat="48.99087" lon="0.07029">
        <ele>126.88</ele>
        <time>2021-08-08T15:25:36Z</time>
      </trkpt>
      <trkpt lat="48.99086" lon="0.07035">
        <ele>127.06</ele>
        <time>2021-08-08T15:25:37Z</time>
      </trkpt>
      <trkpt lat="48.99086" lon="0.07041">
        <ele>127.27</ele>
        <time>2021-08-08T15:25:38Z</time>
      </trkpt>
      <trkpt lat="48.99086" lon="0.07047">
        <ele>127.48</ele>
        <time>2021-08-08T15:25:39Z</time>
      </trkpt>
      <trkpt lat="48.99085" lon="0.07054">
        <ele>127.73</ele>
        <time>2021-08-08T15:25:40Z</time>
      </trkpt>
      <trkpt lat="48.99084" lon="0.0706">
        <ele>127.9</ele>
        <time>2021-08-08T15:25:41Z</time>
      </trkpt>
      <trkpt lat="48.99083" lon="0.07066">
        <ele>127.98</ele>
        <time>2021-08-08T15:25:42Z</time>
      </trkpt>
      <trkpt lat="48.99082" lon="0.07072">
        <ele>128.04</ele>
        <time>2021-08-08T15:25:43Z</time>
      </trkpt>
      <trkpt lat="48.99081" lon="0.07078">
        <ele>128.08</ele>
        <time>2021-08-08T15:25:44Z</time>
      </trkpt>
      <trkpt lat="48.9908" lon="0.07083">
        <ele>128.1</ele>
        <time>2021-08-08T15:25:45Z</time>
      </trkpt>
      <trkpt lat="48.99079" lon="0.07089">
        <ele>128.27</ele>
        <time>2021-08-08T15:25:46Z</time>
      </trkpt>
      <trkpt lat="48.99078" lon="0.07095">
        <ele>128.51</ele>
        <time>2021-08-08T15:25:47Z</time>
      </trkpt>
      <trkpt lat="48.99077" lon="0.07102">
        <ele>128.77</ele>
        <time>2021-08-08T15:25:48Z</time>
      </trkpt>
      <trkpt lat="48.99076" lon="0.07108">
        <ele>129.05</ele>
        <time>2021-08-08T15:25:49Z</time>
      </trkpt>
      <trkpt lat="48.99074" lon="0.07115">
        <ele>129.25</ele>
        <time>2021-08-08T15:25:50Z</time>
      </trkpt>
      <trkpt lat="48.99073" lon="0.0712">
        <ele>129.33</ele>
        <time>2021-08-08T15:25:51Z</time>
      </trkpt>
      <trkpt lat="48.99072" lon="0.07125">
        <ele>129.38</ele>
        <time>2021-08-08T15:25:52Z</time>
      </trkpt>
      <trkpt lat="48.99071" lon="0.07131">
        <ele>129.42</ele>
        <time>2021-08-08T15:25:53Z</time>
      </trkpt>
      <trkpt lat="48.99069" lon="0.07138">
        <ele>129.48</ele>
        <time>2021-08-08T15:25:54Z</time>
      </trkpt>
      <trkpt lat="48.99067" lon="0.07143">
        <ele>129.56</ele>
        <time>2021-08-08T15:25:55Z</time>
      </trkpt>
      <trkpt lat="48.99065" lon="0.07148">
        <ele>129.63</ele>
        <time>2021-08-08T15:25:56Z</time>
      </trkpt>
      <trkpt lat="48.99062" lon="0.07153">
        <ele>129.74</ele>
        <time>2021-08-08T15:25:57Z</time>
      </trkpt>
      <trkpt lat="48.99058" lon="0.07156">
        <ele>129.86</ele>
        <time>2021-08-08T15:25:58Z</time>
      </trkpt>
      <trkpt lat="48.99054" lon="0.07158">
        <ele>130.05</ele>
        <time>2021-08-08T15:25:59Z</time>
      </trkpt>
      <trkpt lat="48.99049" lon="0.0716">
        <ele>130.36</ele>
        <time>2021-08-08T15:26:00Z</time>
      </trkpt>
      <trkpt lat="48.99044" lon="0.07161">
        <ele>130.71</ele>
        <time>2021-08-08T15:26:01Z</time>
      </trkpt>
      <trkpt lat="48.9904" lon="0.07161">
        <ele>131.02</ele>
        <time>2021-08-08T15:26:02Z</time>
      </trkpt>
      <trkpt lat="48.99036" lon="0.07161">
        <ele>131.31</ele>
        <time>2021-08-08T15:26:03Z</time>
      </trkpt>
      <trkpt lat="48.99032" lon="0.07159">
        <ele>131.59</ele>
        <time>2021-08-08T15:26:04Z</time>
      </trkpt>
      <trkpt lat="48.99028" lon="0.07158">
        <ele>131.87</ele>
        <time>2021-08-08T15:26:05Z</time>
      </trkpt>
      <trkpt lat="48.99024" lon="0.07156">
        <ele>132.05</ele>
        <time>2021-08-08T15:26:06Z</time>
      </trkpt>
      <trkpt lat="48.99021" lon="0.07156">
        <ele>132.19</ele>
        <time>2021-08-08T15:26:07Z</time>
      </trkpt>
      <trkpt lat="48.99017" lon="0.07155">
        <ele>132.33</ele>
        <time>2021-08-08T15:26:08Z</time>
      </trkpt>
      <trkpt lat="48.99013" lon="0.07154">
        <ele>132.47</ele>
        <time>2021-08-08T15:26:09Z</time>
      </trkpt>
      <trkpt lat="48.99009" lon="0.07154">
        <ele>132.62</ele>
        <time>2021-08-08T15:26:10Z</time>
      </trkpt>
      <trkpt lat="48.99005" lon="0.07153">
        <ele>132.75</ele>
        <time>2021-08-08T15:26:11Z</time>
      </trkpt>
      <trkpt lat="48.99001" lon="0.07152">
        <ele>132.89</ele>
        <time>2021-08-08T15:26:12Z</time>
      </trkpt>
      <trkpt lat="48.98997" lon="0.07152">
        <ele>133.05</ele>
        <time>2021-08-08T15:26:13Z</time>
      </trkpt>
      <trkpt lat="48.98992" lon="0.07151">
        <ele>133.22</ele>
        <time>2021-08-08T15:26:14Z</time>
      </trkpt>
      <trkpt lat="48.98987" lon="0.0715">
        <ele>133.39</ele>
        <time>2021-08-08T15:26:15Z</time>
      </trkpt>
      <trkpt lat="48.98982" lon="0.0715">
        <ele>133.57</ele>
        <time>2021-08-08T15:26:16Z</time>
      </trkpt>
      <trkpt lat="48.98977" lon="0.07149">
        <ele>133.75</ele>
        <time>2021-08-08T15:26:17Z</time>
      </trkpt>
      <trkpt lat="48.98972" lon="0.07148">
        <ele>133.93</ele>
        <time>2021-08-08T15:26:18Z</time>
      </trkpt>
      <trkpt lat="48.98968" lon="0.07146">
        <ele>134.09</ele>
        <time>2021-08-08T15:26:19Z</time>
      </trkpt>
      <trkpt lat="48.98963" lon="0.07145">
        <ele>134.25</ele>
        <time>2021-08-08T15:26:20Z</time>
      </trkpt>
      <trkpt lat="48.98958" lon="0.07145">
        <ele>134.42</ele>
        <time>2021-08-08T15:26:21Z</time>
      </trkpt>
      <trkpt lat="48.98954" lon="0.07145">
        <ele>134.6</ele>
        <time>2021-08-08T15:26:22Z</time>
      </trkpt>
      <trkpt lat="48.98949" lon="0.07147">
        <ele>134.77</ele>
        <time>2021-08-08T15:26:23Z</time>
      </trkpt>
      <trkpt lat="48.98945" lon="0.07149">
        <ele>134.93</ele>
        <time>2021-08-08T15:26:24Z</time>
      </trkpt>
      <trkpt lat="48.9894" lon="0.07151">
        <ele>135.08</ele>
        <time>2021-08-08T15:26:25Z</time>
      </trkpt>
      <trkpt lat="48.98937" lon="0.07154">
        <ele>135.22</ele>
        <time>2021-08-08T15:26:26Z</time>
      </trkpt>
      <trkpt lat="48.98934" lon="0.07158">
        <ele>135.34</ele>
        <time>2021-08-08T15:26:27Z</time>
      </trkpt>
      <trkpt lat="48.98931" lon="0.07162">
        <ele>135.45</ele>
        <time>2021-08-08T15:26:28Z</time>
      </trkpt>
      <trkpt lat="48.98926" lon="0.07165">
        <ele>135.59</ele>
        <time>2021-08-08T15:26:29Z</time>
      </trkpt>
      <trkpt lat="48.98923" lon="0.07169">
        <ele>135.72</ele>
        <time>2021-08-08T15:26:30Z</time>
      </trkpt>
      <trkpt lat="48.98919" lon="0.07174">
        <ele>135.85</ele>
        <time>2021-08-08T15:26:31Z</time>
      </trkpt>
      <trkpt lat="48.98915" lon="0.07178">
        <ele>135.99</ele>
        <time>2021-08-08T15:26:32Z</time>
      </trkpt>
      <trkpt lat="48.98912" lon="0.07183">
        <ele>136.13</ele>
        <time>2021-08-08T15:26:33Z</time>
      </trkpt>
      <trkpt lat="48.98907" lon="0.07188">
        <ele>136.28</ele>
        <time>2021-08-08T15:26:34Z</time>
      </trkpt>
      <trkpt lat="48.98903" lon="0.07193">
        <ele>136.43</ele>
        <time>2021-08-08T15:26:35Z</time>
      </trkpt>
      <trkpt lat="48.98899" lon="0.07197">
        <ele>136.52</ele>
        <time>2021-08-08T15:26:36Z</time>
      </trkpt>
      <trkpt lat="48.98896" lon="0.07201">
        <ele>136.54</ele>
        <time>2021-08-08T15:26:37Z</time>
      </trkpt>
      <trkpt lat="48.98893" lon="0.07206">
        <ele>136.53</ele>
        <time>2021-08-08T15:26:38Z</time>
      </trkpt>
      <trkpt lat="48.98889" lon="0.0721">
        <ele>136.47</ele>
        <time>2021-08-08T15:26:39Z</time>
      </trkpt>
      <trkpt lat="48.98885" lon="0.07214">
        <ele>136.44</ele>
        <time>2021-08-08T15:26:40Z</time>
      </trkpt>
      <trkpt lat="48.98881" lon="0.07218">
        <ele>136.44</ele>
        <time>2021-08-08T15:26:41Z</time>
      </trkpt>
      <trkpt lat="48.98877" lon="0.07223">
        <ele>136.42</ele>
        <time>2021-08-08T15:26:42Z</time>
      </trkpt>
      <trkpt lat="48.98874" lon="0.07228">
        <ele>136.43</ele>
        <time>2021-08-08T15:26:43Z</time>
      </trkpt>
      <trkpt lat="48.9887" lon="0.07233">
        <ele>136.42</ele>
        <time>2021-08-08T15:26:44Z</time>
      </trkpt>
      <trkpt lat="48.98866" lon="0.07238">
        <ele>136.37</ele>
        <time>2021-08-08T15:26:45Z</time>
      </trkpt>
      <trkpt lat="48.98862" lon="0.07242">
        <ele>136.3</ele>
        <time>2021-08-08T15:26:46Z</time>
      </trkpt>
      <trkpt lat="48.98858" lon="0.07246">
        <ele>136.25</ele>
        <time>2021-08-08T15:26:47Z</time>
      </trkpt>
      <trkpt lat="48.98854" lon="0.07252">
        <ele>136.22</ele>
        <time>2021-08-08T15:26:48Z</time>
      </trkpt>
      <trkpt lat="48.9885" lon="0.07256">
        <ele>136.2</ele>
        <time>2021-08-08T15:26:49Z</time>
      </trkpt>
      <trkpt lat="48.98845" lon="0.07261">
        <ele>136.19</ele>
        <time>2021-08-08T15:26:50Z</time>
      </trkpt>
      <trkpt lat="48.98841" lon="0.07266">
        <ele>136.15</ele>
        <time>2021-08-08T15:26:51Z</time>
      </trkpt>
      <trkpt lat="48.98837" lon="0.07271">
        <ele>136.14</ele>
        <time>2021-08-08T15:26:52Z</time>
      </trkpt>
      <trkpt lat="48.98832" lon="0.07275">
        <ele>136.11</ele>
        <time>2021-08-08T15:26:53Z</time>
      </trkpt>
      <trkpt lat="48.98827" lon="0.07279">
        <ele>135.99</ele>
        <time>2021-08-08T15:26:54Z</time>
      </trkpt>
      <trkpt lat="48.98822" lon="0.07285">
        <ele>135.83</ele>
        <time>2021-08-08T15:26:55Z</time>
      </trkpt>
      <trkpt lat="48.98817" lon="0.07289">
        <ele>135.67</ele>
        <time>2021-08-08T15:26:56Z</time>
      </trkpt>
      <trkpt lat="48.98812" lon="0.07293">
        <ele>135.5</ele>
        <time>2021-08-08T15:26:57Z</time>
      </trkpt>
      <trkpt lat="48.98807" lon="0.07298">
        <ele>135.35</ele>
        <time>2021-08-08T15:26:58Z</time>
      </trkpt>
      <trkpt lat="48.98803" lon="0.07302">
        <ele>135.22</ele>
        <time>2021-08-08T15:26:59Z</time>
      </trkpt>
      <trkpt lat="48.98797" lon="0.07306">
        <ele>135.06</ele>
        <time>2021-08-08T15:27:00Z</time>
      </trkpt>
      <trkpt lat="48.98791" lon="0.0731">
        <ele>134.9</ele>
        <time>2021-08-08T15:27:01Z</time>
      </trkpt>
      <trkpt lat="48.98786" lon="0.07314">
        <ele>134.75</ele>
        <time>2021-08-08T15:27:02Z</time>
      </trkpt>
      <trkpt lat="48.98781" lon="0.07318">
        <ele>134.6</ele>
        <time>2021-08-08T15:27:03Z</time>
      </trkpt>
      <trkpt lat="48.98775" lon="0.07322">
        <ele>134.46</ele>
        <time>2021-08-08T15:27:04Z</time>
      </trkpt>
      <trkpt lat="48.9877" lon="0.07326">
        <ele>134.33</ele>
        <time>2021-08-08T15:27:05Z</time>
      </trkpt>
      <trkpt lat="48.98764" lon="0.07329">
        <ele>134.2</ele>
        <time>2021-08-08T15:27:06Z</time>
      </trkpt>
      <trkpt lat="48.98758" lon="0.07334">
        <ele>134.04</ele>
        <time>2021-08-08T15:27:07Z</time>
      </trkpt>
      <trkpt lat="48.98753" lon="0.07339">
        <ele>133.86</ele>
        <time>2021-08-08T15:27:08Z</time>
      </trkpt>
      <trkpt lat="48.98748" lon="0.07345">
        <ele>133.73</ele>
        <time>2021-08-08T15:27:09Z</time>
      </trkpt>
      <trkpt lat="48.98743" lon="0.07351">
        <ele>133.66</ele>
        <time>2021-08-08T15:27:10Z</time>
      </trkpt>
      <trkpt lat="48.98739" lon="0.07357">
        <ele>133.59</ele>
        <time>2021-08-08T15:27:11Z</time>
      </trkpt>
      <trkpt lat="48.98735" lon="0.07363">
        <ele>133.53</ele>
        <time>2021-08-08T15:27:12Z</time>
      </trkpt>
      <trkpt lat="48.98732" lon="0.07369">
        <ele>133.49</ele>
        <time>2021-08-08T15:27:13Z</time>
      </trkpt>
      <trkpt lat="48.98728" lon="0.07376">
        <ele>133.41</ele>
        <time>2021-08-08T15:27:14Z</time>
      </trkpt>
      <trkpt lat="48.98725" lon="0.07383">
        <ele>133.26</ele>
        <time>2021-08-08T15:27:15Z</time>
      </trkpt>
      <trkpt lat="48.98721" lon="0.07389">
        <ele>133.1</ele>
        <time>2021-08-08T15:27:16Z</time>
      </trkpt>
      <trkpt lat="48.98718" lon="0.07395">
        <ele>133.11</ele>
        <time>2021-08-08T15:27:17Z</time>
      </trkpt>
      <trkpt lat="48.98715" lon="0.074">
        <ele>133.14</ele>
        <time>2021-08-08T15:27:18Z</time>
      </trkpt>
      <trkpt lat="48.98712" lon="0.07405">
        <ele>133.15</ele>
        <time>2021-08-08T15:27:19Z</time>
      </trkpt>
      <trkpt lat="48.98708" lon="0.0741">
        <ele>133.13</ele>
        <time>2021-08-08T15:27:20Z</time>
      </trkpt>
      <trkpt lat="48.98704" lon="0.07415">
        <ele>133.07</ele>
        <time>2021-08-08T15:27:21Z</time>
      </trkpt>
      <trkpt lat="48.987" lon="0.0742">
        <ele>132.94</ele>
        <time>2021-08-08T15:27:22Z</time>
      </trkpt>
      <trkpt lat="48.98695" lon="0.07425">
        <ele>132.78</ele>
        <time>2021-08-08T15:27:23Z</time>
      </trkpt>
      <trkpt lat="48.9869" lon="0.0743">
        <ele>132.7</ele>
        <time>2021-08-08T15:27:24Z</time>
      </trkpt>
      <trkpt lat="48.98686" lon="0.07434">
        <ele>132.68</ele>
        <time>2021-08-08T15:27:25Z</time>
      </trkpt>
      <trkpt lat="48.9868" lon="0.0744">
        <ele>132.68</ele>
        <time>2021-08-08T15:27:26Z</time>
      </trkpt>
      <trkpt lat="48.98676" lon="0.07444">
        <ele>132.68</ele>
        <time>2021-08-08T15:27:27Z</time>
      </trkpt>
      <trkpt lat="48.9867" lon="0.0745">
        <ele>132.81</ele>
        <time>2021-08-08T15:27:28Z</time>
      </trkpt>
      <trkpt lat="48.98666" lon="0.07456">
        <ele>132.95</ele>
        <time>2021-08-08T15:27:29Z</time>
      </trkpt>
      <trkpt lat="48.98663" lon="0.07462">
        <ele>133.08</ele>
        <time>2021-08-08T15:27:30Z</time>
      </trkpt>
      <trkpt lat="48.9866" lon="0.0747">
        <ele>133.18</ele>
        <time>2021-08-08T15:27:31Z</time>
      </trkpt>
      <trkpt lat="48.98658" lon="0.07477">
        <ele>133.15</ele>
        <time>2021-08-08T15:27:32Z</time>
      </trkpt>
      <trkpt lat="48.98657" lon="0.07485">
        <ele>132.98</ele>
        <time>2021-08-08T15:27:33Z</time>
      </trkpt>
      <trkpt lat="48.98656" lon="0.07492">
        <ele>132.75</ele>
        <time>2021-08-08T15:27:34Z</time>
      </trkpt>
      <trkpt lat="48.98654" lon="0.075">
        <ele>132.54</ele>
        <time>2021-08-08T15:27:35Z</time>
      </trkpt>
      <trkpt lat="48.98653" lon="0.07507">
        <ele>132.52</ele>
        <time>2021-08-08T15:27:36Z</time>
      </trkpt>
      <trkpt lat="48.98651" lon="0.07514">
        <ele>132.55</ele>
        <time>2021-08-08T15:27:37Z</time>
      </trkpt>
      <trkpt lat="48.9865" lon="0.07522">
        <ele>132.58</ele>
        <time>2021-08-08T15:27:38Z</time>
      </trkpt>
      <trkpt lat="48.9865" lon="0.07529">
        <ele>132.62</ele>
        <time>2021-08-08T15:27:39Z</time>
      </trkpt>
      <trkpt lat="48.98649" lon="0.07535">
        <ele>132.69</ele>
        <time>2021-08-08T15:27:40Z</time>
      </trkpt>
      <trkpt lat="48.98649" lon="0.0754">
        <ele>132.76</ele>
        <time>2021-08-08T15:27:41Z</time>
      </trkpt>
      <trkpt lat="48.9865" lon="0.07546">
        <ele>132.84</ele>
        <time>2021-08-08T15:27:42Z</time>
      </trkpt>
      <trkpt lat="48.9865" lon="0.07551">
        <ele>132.91</ele>
        <time>2021-08-08T15:27:43Z</time>
      </trkpt>
      <trkpt lat="48.98651" lon="0.07555">
        <ele>132.97</ele>
        <time>2021-08-08T15:27:44Z</time>
      </trkpt>
      <trkpt lat="48.98651" lon="0.0756">
        <ele>133.21</ele>
        <time>2021-08-08T15:27:45Z</time>
      </trkpt>
      <trkpt lat="48.98651" lon="0.07564">
        <ele>133.47</ele>
        <time>2021-08-08T15:27:46Z</time>
      </trkpt>
      <trkpt lat="48.98651" lon="0.07568">
        <ele>133.79</ele>
        <time>2021-08-08T15:27:47Z</time>
      </trkpt>
      <trkpt lat="48.98651" lon="0.07574">
        <ele>134.14</ele>
        <time>2021-08-08T15:27:48Z</time>
      </trkpt>
      <trkpt lat="48.9865" lon="0.07579">
        <ele>134.52</ele>
        <time>2021-08-08T15:27:49Z</time>
      </trkpt>
      <trkpt lat="48.9865" lon="0.07584">
        <ele>134.87</ele>
        <time>2021-08-08T15:27:50Z</time>
      </trkpt>
      <trkpt lat="48.98649" lon="0.07588">
        <ele>135.21</ele>
        <time>2021-08-08T15:27:51Z</time>
      </trkpt>
      <trkpt lat="48.98649" lon="0.07593">
        <ele>135.53</ele>
        <time>2021-08-08T15:27:52Z</time>
      </trkpt>
      <trkpt lat="48.98649" lon="0.07597">
        <ele>135.86</ele>
        <time>2021-08-08T15:27:53Z</time>
      </trkpt>
      <trkpt lat="48.98649" lon="0.07601">
        <ele>136.17</ele>
        <time>2021-08-08T15:27:54Z</time>
      </trkpt>
      <trkpt lat="48.98648" lon="0.07605">
        <ele>136.45</ele>
        <time>2021-08-08T15:27:55Z</time>
      </trkpt>
      <trkpt lat="48.98648" lon="0.07609">
        <ele>136.73</ele>
        <time>2021-08-08T15:27:56Z</time>
      </trkpt>
      <trkpt lat="48.98649" lon="0.07614">
        <ele>137.05</ele>
        <time>2021-08-08T15:27:57Z</time>
      </trkpt>
      <trkpt lat="48.98649" lon="0.07618">
        <ele>137.36</ele>
        <time>2021-08-08T15:27:58Z</time>
      </trkpt>
      <trkpt lat="48.98649" lon="0.07624">
        <ele>137.74</ele>
        <time>2021-08-08T15:27:59Z</time>
      </trkpt>
      <trkpt lat="48.98648" lon="0.07628">
        <ele>138.09</ele>
        <time>2021-08-08T15:28:00Z</time>
      </trkpt>
      <trkpt lat="48.98647" lon="0.07634">
        <ele>138.46</ele>
        <time>2021-08-08T15:28:01Z</time>
      </trkpt>
      <trkpt lat="48.98647" lon="0.07638">
        <ele>138.79</ele>
        <time>2021-08-08T15:28:02Z</time>
      </trkpt>
      <trkpt lat="48.98647" lon="0.07643">
        <ele>139.16</ele>
        <time>2021-08-08T15:28:03Z</time>
      </trkpt>
      <trkpt lat="48.98646" lon="0.07649">
        <ele>139.57</ele>
        <time>2021-08-08T15:28:04Z</time>
      </trkpt>
      <trkpt lat="48.98646" lon="0.07655">
        <ele>139.98</ele>
        <time>2021-08-08T15:28:05Z</time>
      </trkpt>
      <trkpt lat="48.98646" lon="0.0766">
        <ele>140.35</ele>
        <time>2021-08-08T15:28:06Z</time>
      </trkpt>
      <trkpt lat="48.98645" lon="0.07666">
        <ele>140.75</ele>
        <time>2021-08-08T15:28:07Z</time>
      </trkpt>
      <trkpt lat="48.98645" lon="0.0767">
        <ele>141.11</ele>
        <time>2021-08-08T15:28:08Z</time>
      </trkpt>
      <trkpt lat="48.98643" lon="0.07676">
        <ele>141.5</ele>
        <time>2021-08-08T15:28:09Z</time>
      </trkpt>
      <trkpt lat="48.98643" lon="0.07682">
        <ele>141.92</ele>
        <time>2021-08-08T15:28:10Z</time>
      </trkpt>
      <trkpt lat="48.98643" lon="0.07688">
        <ele>142.34</ele>
        <time>2021-08-08T15:28:11Z</time>
      </trkpt>
      <trkpt lat="48.98643" lon="0.07693">
        <ele>142.7</ele>
        <time>2021-08-08T15:28:12Z</time>
      </trkpt>
      <trkpt lat="48.98643" lon="0.07698">
        <ele>143.11</ele>
        <time>2021-08-08T15:28:13Z</time>
      </trkpt>
      <trkpt lat="48.98643" lon="0.07703">
        <ele>143.45</ele>
        <time>2021-08-08T15:28:14Z</time>
      </trkpt>
      <trkpt lat="48.98643" lon="0.07707">
        <ele>143.79</ele>
        <time>2021-08-08T15:28:15Z</time>
      </trkpt>
      <trkpt lat="48.98644" lon="0.07712">
        <ele>144.13</ele>
        <time>2021-08-08T15:28:16Z</time>
      </trkpt>
      <trkpt lat="48.98644" lon="0.07716">
        <ele>144.42</ele>
        <time>2021-08-08T15:28:17Z</time>
      </trkpt>
      <trkpt lat="48.98644" lon="0.07719">
        <ele>144.67</ele>
        <time>2021-08-08T15:28:18Z</time>
      </trkpt>
      <trkpt lat="48.98645" lon="0.07724">
        <ele>144.97</ele>
        <time>2021-08-08T15:28:19Z</time>
      </trkpt>
      <trkpt lat="48.98647" lon="0.07729">
        <ele>145.32</ele>
        <time>2021-08-08T15:28:20Z</time>
      </trkpt>
      <trkpt lat="48.98647" lon="0.07732">
        <ele>145.6</ele>
        <time>2021-08-08T15:28:21Z</time>
      </trkpt>
      <trkpt lat="48.98647" lon="0.07735">
        <ele>145.85</ele>
        <time>2021-08-08T15:28:22Z</time>
      </trkpt>
      <trkpt lat="48.98647" lon="0.07739">
        <ele>146.1</ele>
        <time>2021-08-08T15:28:23Z</time>
      </trkpt>
      <trkpt lat="48.98647" lon="0.07743">
        <ele>146.38</ele>
        <time>2021-08-08T15:28:24Z</time>
      </trkpt>
      <trkpt lat="48.98648" lon="0.07745">
        <ele>146.56</ele>
        <time>2021-08-08T15:28:25Z</time>
      </trkpt>
      <trkpt lat="48.98649" lon="0.07747">
        <ele>146.72</ele>
        <time>2021-08-08T15:28:26Z</time>
      </trkpt>
      <trkpt lat="48.98648" lon="0.07749">
        <ele>146.88</ele>
        <time>2021-08-08T15:28:27Z</time>
      </trkpt>
      <trkpt lat="48.98649" lon="0.07752">
        <ele>147.06</ele>
        <time>2021-08-08T15:28:28Z</time>
      </trkpt>
      <trkpt lat="48.98649" lon="0.07755">
        <ele>147.25</ele>
        <time>2021-08-08T15:28:29Z</time>
      </trkpt>
      <trkpt lat="48.9865" lon="0.07757">
        <ele>147.44</ele>
        <time>2021-08-08T15:28:30Z</time>
      </trkpt>
      <trkpt lat="48.9865" lon="0.0776">
        <ele>147.62</ele>
        <time>2021-08-08T15:28:31Z</time>
      </trkpt>
      <trkpt lat="48.9865" lon="0.07762">
        <ele>147.81</ele>
        <time>2021-08-08T15:28:32Z</time>
      </trkpt>
      <trkpt lat="48.9865" lon="0.07765">
        <ele>147.99</ele>
        <time>2021-08-08T15:28:33Z</time>
      </trkpt>
      <trkpt lat="48.9865" lon="0.07768">
        <ele>148.18</ele>
        <time>2021-08-08T15:28:34Z</time>
      </trkpt>
      <trkpt lat="48.9865" lon="0.0777">
        <ele>148.37</ele>
        <time>2021-08-08T15:28:35Z</time>
      </trkpt>
      <trkpt lat="48.9865" lon="0.07774">
        <ele>148.61</ele>
        <time>2021-08-08T15:28:36Z</time>
      </trkpt>
      <trkpt lat="48.98649" lon="0.07778">
        <ele>148.88</ele>
        <time>2021-08-08T15:28:37Z</time>
      </trkpt>
      <trkpt lat="48.98649" lon="0.07781">
        <ele>149.12</ele>
        <time>2021-08-08T15:28:38Z</time>
      </trkpt>
      <trkpt lat="48.9865" lon="0.07785">
        <ele>149.38</ele>
        <time>2021-08-08T15:28:39Z</time>
      </trkpt>
      <trkpt lat="48.9865" lon="0.07788">
        <ele>149.62</ele>
        <time>2021-08-08T15:28:40Z</time>
      </trkpt>
      <trkpt lat="48.9865" lon="0.07791">
        <ele>149.86</ele>
        <time>2021-08-08T15:28:41Z</time>
      </trkpt>
      <trkpt lat="48.9865" lon="0.07795">
        <ele>150.12</ele>
        <time>2021-08-08T15:28:42Z</time>
      </trkpt>
      <trkpt lat="48.9865" lon="0.07797">
        <ele>150.32</ele>
        <time>2021-08-08T15:28:43Z</time>
      </trkpt>
      <trkpt lat="48.9865" lon="0.07799">
        <ele>150.48</ele>
        <time>2021-08-08T15:28:44Z</time>
      </trkpt>
      <trkpt lat="48.9865" lon="0.07801">
        <ele>150.62</ele>
        <time>2021-08-08T15:28:45Z</time>
      </trkpt>
      <trkpt lat="48.98649" lon="0.07804">
        <ele>150.78</ele>
        <time>2021-08-08T15:28:46Z</time>
      </trkpt>
      <trkpt lat="48.98647" lon="0.07805">
        <ele>150.91</ele>
        <time>2021-08-08T15:28:47Z</time>
      </trkpt>
      <trkpt lat="48.98646" lon="0.07806">
        <ele>150.99</ele>
        <time>2021-08-08T15:28:48Z</time>
      </trkpt>
      <trkpt lat="48.98643" lon="0.07807">
        <ele>151.08</ele>
        <time>2021-08-08T15:28:49Z</time>
      </trkpt>
      <trkpt lat="48.98642" lon="0.07809">
        <ele>151.28</ele>
        <time>2021-08-08T15:28:50Z</time>
      </trkpt>
      <trkpt lat="48.9864" lon="0.07812">
        <ele>151.55</ele>
        <time>2021-08-08T15:28:51Z</time>
      </trkpt>
      <trkpt lat="48.9864" lon="0.07813">
        <ele>151.75</ele>
        <time>2021-08-08T15:28:52Z</time>
      </trkpt>
      <trkpt lat="48.98639" lon="0.07815">
        <ele>151.98</ele>
        <time>2021-08-08T15:28:53Z</time>
      </trkpt>
      <trkpt lat="48.98637" lon="0.07817">
        <ele>152.17</ele>
        <time>2021-08-08T15:28:54Z</time>
      </trkpt>
      <trkpt lat="48.98636" lon="0.07819">
        <ele>152.31</ele>
        <time>2021-08-08T15:28:55Z</time>
      </trkpt>
      <trkpt lat="48.98635" lon="0.0782">
        <ele>152.45</ele>
        <time>2021-08-08T15:28:56Z</time>
      </trkpt>
      <trkpt lat="48.98634" lon="0.07823">
        <ele>152.66</ele>
        <time>2021-08-08T15:28:57Z</time>
      </trkpt>
      <trkpt lat="48.98634" lon="0.07825">
        <ele>152.88</ele>
        <time>2021-08-08T15:28:58Z</time>
      </trkpt>
      <trkpt lat="48.98634" lon="0.07826">
        <ele>153.04</ele>
        <time>2021-08-08T15:28:59Z</time>
      </trkpt>
      <trkpt lat="48.98634" lon="0.07829">
        <ele>153.28</ele>
        <time>2021-08-08T15:29:00Z</time>
      </trkpt>
      <trkpt lat="48.98633" lon="0.07833">
        <ele>153.58</ele>
        <time>2021-08-08T15:29:01Z</time>
      </trkpt>
      <trkpt lat="48.98633" lon="0.07836">
        <ele>153.86</ele>
        <time>2021-08-08T15:29:02Z</time>
      </trkpt>
      <trkpt lat="48.98633" lon="0.07839">
        <ele>154.11</ele>
        <time>2021-08-08T15:29:03Z</time>
      </trkpt>
      <trkpt lat="48.98633" lon="0.07842">
        <ele>154.36</ele>
        <time>2021-08-08T15:29:04Z</time>
      </trkpt>
      <trkpt lat="48.98632" lon="0.07846">
        <ele>154.65</ele>
        <time>2021-08-08T15:29:05Z</time>
      </trkpt>
      <trkpt lat="48.98633" lon="0.07847">
        <ele>154.84</ele>
        <time>2021-08-08T15:29:06Z</time>
      </trkpt>
      <trkpt lat="48.98633" lon="0.07849">
        <ele>154.98</ele>
        <time>2021-08-08T15:29:07Z</time>
      </trkpt>
      <trkpt lat="48.98633" lon="0.07851">
        <ele>155.12</ele>
        <time>2021-08-08T15:29:08Z</time>
      </trkpt>
      <trkpt lat="48.98633" lon="0.07852">
        <ele>155.21</ele>
        <time>2021-08-08T15:29:09Z</time>
      </trkpt>
      <trkpt lat="48.98634" lon="0.07853">
        <ele>155.29</ele>
        <time>2021-08-08T15:29:10Z</time>
      </trkpt>
      <trkpt lat="48.98634" lon="0.07853">
        <ele>155.35</ele>
        <time>2021-08-08T15:29:11Z</time>
      </trkpt>
      <trkpt lat="48.98634" lon="0.07853">
        <ele>155.37</ele>
        <time>2021-08-08T15:29:12Z</time>
      </trkpt>
      <trkpt lat="48.98631" lon="0.07855">
        <ele>155.48</ele>
        <time>2021-08-08T15:29:13Z</time>
      </trkpt>
      <trkpt lat="48.9863" lon="0.07857">
        <ele>155.59</ele>
        <time>2021-08-08T15:29:14Z</time>
      </trkpt>
      <trkpt lat="48.9863" lon="0.07857">
        <ele>155.67</ele>
        <time>2021-08-08T15:29:15Z</time>
      </trkpt>
      <trkpt lat="48.9863" lon="0.07859">
        <ele>155.77</ele>
        <time>2021-08-08T15:29:16Z</time>
      </trkpt>
      <trkpt lat="48.9863" lon="0.0786">
        <ele>155.85</ele>
        <time>2021-08-08T15:29:17Z</time>
      </trkpt>
      <trkpt lat="48.98629" lon="0.07861">
        <ele>155.95</ele>
        <time>2021-08-08T15:29:18Z</time>
      </trkpt>
      <trkpt lat="48.98629" lon="0.07863">
        <ele>156.07</ele>
        <time>2021-08-08T15:29:19Z</time>
      </trkpt>
      <trkpt lat="48.98629" lon="0.07864">
        <ele>156.18</ele>
        <time>2021-08-08T15:29:20Z</time>
      </trkpt>
      <trkpt lat="48.98629" lon="0.07865">
        <ele>156.23</ele>
        <time>2021-08-08T15:29:21Z</time>
      </trkpt>
      <trkpt lat="48.98629" lon="0.07866">
        <ele>156.29</ele>
        <time>2021-08-08T15:29:22Z</time>
      </trkpt>
      <trkpt lat="48.98629" lon="0.07866">
        <ele>156.31</ele>
        <time>2021-08-08T15:29:23Z</time>
      </trkpt>
      <trkpt lat="48.98629" lon="0.07866">
        <ele>156.31</ele>
        <time>2021-08-08T15:29:24Z</time>
      </trkpt>
      <trkpt lat="48.98629" lon="0.07866">
        <ele>156.32</ele>
        <time>2021-08-08T15:29:25Z</time>
      </trkpt>
      <trkpt lat="48.98629" lon="0.07866">
        <ele>156.32</ele>
        <time>2021-08-08T15:29:26Z</time>
      </trkpt>
      <trkpt lat="48.98629" lon="0.07866">
        <ele>156.32</ele>
        <time>2021-08-08T15:29:27Z</time>
      </trkpt>
      <trkpt lat="48.98629" lon="0.07866">
        <ele>156.32</ele>
        <time>2021-08-08T15:29:28Z</time>
      </trkpt>
      <trkpt lat="48.98629" lon="0.07866">
        <ele>156.32</ele>
        <time>2021-08-08T15:29:29Z</time>
      </trkpt>
      <trkpt lat="48.98629" lon="0.07866">
        <ele>156.32</ele>
        <time>2021-08-08T15:29:30Z</time>
      </trkpt>
      <trkpt lat="48.98629" lon="0.07866">
        <ele>156.32</ele>
        <time>2021-08-08T15:29:31Z</time>
      </trkpt>
      <trkpt lat="48.98629" lon="0.07866">
        <ele>156.32</ele>
        <time>2021-08-08T15:29:32Z</time>
      </trkpt>
      <trkpt lat="48.98629" lon="0.07866">
        <ele>156.32</ele>
        <time>2021-08-08T15:29:33Z</time>
      </trkpt>
      <trkpt lat="48.98629" lon="0.07866">
        <ele>156.32</ele>
        <time>2021-08-08T15:29:34Z</time>
      </trkpt>
      <trkpt lat="48.98629" lon="0.07866">
        <ele>156.32</ele>
        <time>2021-08-08T15:29:35Z</time>
      </trkpt>
      <trkpt lat="48.98629" lon="0.07866">
        <ele>156.32</ele>
        <time>2021-08-08T15:29:36Z</time>
      </trkpt>
      <trkpt lat="48.98629" lon="0.07866">
        <ele>156.32</ele>
        <time>2021-08-08T15:29:37Z</time>
      </trkpt>
      <trkpt lat="48.98629" lon="0.07866">
        <ele>156.32</ele>
        <time>2021-08-08T15:29:38Z</time>
      </trkpt>
      <trkpt lat="48.98629" lon="0.07866">
        <ele>156.32</ele>
        <time>2021-08-08T15:29:39Z</time>
      </trkpt>
      <trkpt lat="48.98629" lon="0.07866">
        <ele>156.32</ele>
        <time>2021-08-08T15:29:40Z</time>
      </trkpt>
      <trkpt lat="48.98629" lon="0.07866">
        <ele>156.32</ele>
        <time>2021-08-08T15:29:41Z</time>
      </trkpt>
      <trkpt lat="48.98629" lon="0.07866">
        <ele>156.32</ele>
        <time>2021-08-08T15:29:42Z</time>
      </trkpt>
      <trkpt lat="48.98629" lon="0.07866">
        <ele>156.32</ele>
        <time>2021-08-08T15:29:43Z</time>
      </trkpt>
      <trkpt lat="48.98629" lon="0.07866">
        <ele>156.32</ele>
        <time>2021-08-08T15:29:44Z</time>
      </trkpt>
      <trkpt lat="48.98629" lon="0.07866">
        <ele>156.32</ele>
        <time>2021-08-08T15:29:45Z</time>
      </trkpt>
      <trkpt lat="48.98629" lon="0.07866">
        <ele>156.32</ele>
        <time>2021-08-08T15:29:46Z</time>
      </trkpt>
      <trkpt lat="48.98629" lon="0.07866">
        <ele>156.32</ele>
        <time>2021-08-08T15:29:47Z</time>
      </trkpt>
      <trkpt lat="48.98629" lon="0.07866">
        <ele>156.32</ele>
        <time>2021-08-08T15:29:48Z</time>
      </trkpt>
      <trkpt lat="48.98629" lon="0.07866">
        <ele>156.32</ele>
        <time>2021-08-08T15:29:49Z</time>
      </trkpt>
      <trkpt lat="48.98629" lon="0.07866">
        <ele>156.32</ele>
        <time>2021-08-08T15:29:50Z</time>
      </trkpt>
      <trkpt lat="48.98629" lon="0.07866">
        <ele>156.32</ele>
        <time>2021-08-08T15:29:51Z</time>
      </trkpt>
      <trkpt lat="48.98629" lon="0.07866">
        <ele>156.32</ele>
        <time>2021-08-08T15:29:52Z</time>
      </trkpt>
      <trkpt lat="48.98629" lon="0.07866">
        <ele>156.32</ele>
        <time>2021-08-08T15:29:53Z</time>
      </trkpt>
      <trkpt lat="48.98629" lon="0.07866">
        <ele>156.32</ele>
        <time>2021-08-08T15:29:54Z</time>
      </trkpt>
      <trkpt lat="48.98629" lon="0.07866">
        <ele>156.32</ele>
        <time>2021-08-08T15:29:55Z</time>
      </trkpt>
      <trkpt lat="48.98629" lon="0.07866">
        <ele>156.32</ele>
        <time>2021-08-08T15:29:56Z</time>
      </trkpt>
      <trkpt lat="48.98627" lon="0.07881">
        <ele>157.1</ele>
        <time>2021-08-08T15:29:57Z</time>
      </trkpt>
      <trkpt lat="48.98626" lon="0.07883">
        <ele>157.44</ele>
        <time>2021-08-08T15:29:58Z</time>
      </trkpt>
      <trkpt lat="48.98624" lon="0.07886">
        <ele>157.7</ele>
        <time>2021-08-08T15:29:59Z</time>
      </trkpt>
      <trkpt lat="48.98623" lon="0.07888">
        <ele>157.86</ele>
        <time>2021-08-08T15:30:00Z</time>
      </trkpt>
      <trkpt lat="48.98621" lon="0.07891">
        <ele>158.05</ele>
        <time>2021-08-08T15:30:01Z</time>
      </trkpt>
      <trkpt lat="48.98621" lon="0.07892">
        <ele>158.17</ele>
        <time>2021-08-08T15:30:02Z</time>
      </trkpt>
      <trkpt lat="48.98619" lon="0.07894">
        <ele>158.33</ele>
        <time>2021-08-08T15:30:03Z</time>
      </trkpt>
      <trkpt lat="48.98619" lon="0.07895">
        <ele>158.42</ele>
        <time>2021-08-08T15:30:04Z</time>
      </trkpt>
      <trkpt lat="48.98618" lon="0.07896">
        <ele>158.5</ele>
        <time>2021-08-08T15:30:05Z</time>
      </trkpt>
      <trkpt lat="48.98618" lon="0.07897">
        <ele>158.54</ele>
        <time>2021-08-08T15:30:06Z</time>
      </trkpt>
      <trkpt lat="48.98618" lon="0.07897">
        <ele>158.6</ele>
        <time>2021-08-08T15:30:07Z</time>
      </trkpt>
      <trkpt lat="48.98618" lon="0.07897">
        <ele>158.61</ele>
        <time>2021-08-08T15:30:08Z</time>
      </trkpt>
      <trkpt lat="48.98618" lon="0.07897">
        <ele>158.62</ele>
        <time>2021-08-08T15:30:09Z</time>
      </trkpt>
      <trkpt lat="48.98618" lon="0.07897">
        <ele>158.62</ele>
        <time>2021-08-08T15:30:10Z</time>
      </trkpt>
      <trkpt lat="48.98618" lon="0.07897">
        <ele>158.62</ele>
        <time>2021-08-08T15:30:11Z</time>
      </trkpt>
      <trkpt lat="48.98618" lon="0.07897">
        <ele>158.62</ele>
        <time>2021-08-08T15:30:12Z</time>
      </trkpt>
      <trkpt lat="48.98618" lon="0.07897">
        <ele>158.62</ele>
        <time>2021-08-08T15:30:13Z</time>
      </trkpt>
      <trkpt lat="48.98618" lon="0.07897">
        <ele>158.62</ele>
        <time>2021-08-08T15:30:14Z</time>
      </trkpt>
      <trkpt lat="48.98618" lon="0.07897">
        <ele>158.62</ele>
        <time>2021-08-08T15:30:15Z</time>
      </trkpt>
      <trkpt lat="48.98618" lon="0.07897">
        <ele>158.62</ele>
        <time>2021-08-08T15:30:16Z</time>
      </trkpt>
      <trkpt lat="48.98618" lon="0.07897">
        <ele>158.62</ele>
        <time>2021-08-08T15:30:17Z</time>
      </trkpt>
      <trkpt lat="48.98618" lon="0.07897">
        <ele>158.62</ele>
        <time>2021-08-08T15:30:18Z</time>
      </trkpt>
      <trkpt lat="48.98618" lon="0.07897">
        <ele>158.62</ele>
        <time>2021-08-08T15:30:19Z</time>
      </trkpt>
      <trkpt lat="48.98618" lon="0.07897">
        <ele>158.62</ele>
        <time>2021-08-08T15:30:20Z</time>
      </trkpt>
      <trkpt lat="48.98618" lon="0.07897">
        <ele>158.62</ele>
        <time>2021-08-08T15:30:21Z</time>
      </trkpt>
      <trkpt lat="48.9861" lon="0.07905">
        <ele>158.98</ele>
        <time>2021-08-08T15:30:22Z</time>
      </trkpt>
      <trkpt lat="48.98609" lon="0.07906">
        <ele>159.12</ele>
        <time>2021-08-08T15:30:23Z</time>
      </trkpt>
      <trkpt lat="48.98607" lon="0.07906">
        <ele>159.19</ele>
        <time>2021-08-08T15:30:24Z</time>
      </trkpt>
      <trkpt lat="48.98607" lon="0.07908">
        <ele>159.27</ele>
        <time>2021-08-08T15:30:25Z</time>
      </trkpt>
      <trkpt lat="48.98607" lon="0.07908">
        <ele>159.29</ele>
        <time>2021-08-08T15:30:26Z</time>
      </trkpt>
      <trkpt lat="48.98607" lon="0.07908">
        <ele>159.3</ele>
        <time>2021-08-08T15:30:27Z</time>
      </trkpt>
      <trkpt lat="48.98607" lon="0.07908">
        <ele>159.3</ele>
        <time>2021-08-08T15:30:28Z</time>
      </trkpt>
      <trkpt lat="48.98607" lon="0.07908">
        <ele>159.3</ele>
        <time>2021-08-08T15:30:29Z</time>
      </trkpt>
      <trkpt lat="48.98607" lon="0.07908">
        <ele>159.3</ele>
        <time>2021-08-08T15:30:30Z</time>
      </trkpt>
      <trkpt lat="48.98607" lon="0.07908">
        <ele>159.3</ele>
        <time>2021-08-08T15:30:31Z</time>
      </trkpt>
      <trkpt lat="48.98607" lon="0.07908">
        <ele>159.3</ele>
        <time>2021-08-08T15:30:32Z</time>
      </trkpt>
      <trkpt lat="48.98607" lon="0.07908">
        <ele>159.3</ele>
        <time>2021-08-08T15:30:33Z</time>
      </trkpt>
      <trkpt lat="48.98607" lon="0.07908">
        <ele>159.3</ele>
        <time>2021-08-08T15:30:34Z</time>
      </trkpt>
      <trkpt lat="48.98601" lon="0.07918">
        <ele>159.87</ele>
        <time>2021-08-08T15:30:35Z</time>
      </trkpt>
      <trkpt lat="48.98601" lon="0.07921">
        <ele>160.19</ele>
        <time>2021-08-08T15:30:36Z</time>
      </trkpt>
      <trkpt lat="48.986" lon="0.07926">
        <ele>160.5</ele>
        <time>2021-08-08T15:30:37Z</time>
      </trkpt>
      <trkpt lat="48.986" lon="0.07931">
        <ele>160.86</ele>
        <time>2021-08-08T15:30:38Z</time>
      </trkpt>
      <trkpt lat="48.986" lon="0.07935">
        <ele>161.16</ele>
        <time>2021-08-08T15:30:39Z</time>
      </trkpt>
      <trkpt lat="48.986" lon="0.07936">
        <ele>161.33</ele>
        <time>2021-08-08T15:30:40Z</time>
      </trkpt>
      <trkpt lat="48.986" lon="0.07938">
        <ele>161.47</ele>
        <time>2021-08-08T15:30:41Z</time>
      </trkpt>
      <trkpt lat="48.986" lon="0.0794">
        <ele>161.62</ele>
        <time>2021-08-08T15:30:42Z</time>
      </trkpt>
      <trkpt lat="48.98599" lon="0.0794">
        <ele>161.68</ele>
        <time>2021-08-08T15:30:43Z</time>
      </trkpt>
      <trkpt lat="48.98598" lon="0.07941">
        <ele>161.71</ele>
        <time>2021-08-08T15:30:44Z</time>
      </trkpt>
      <trkpt lat="48.98596" lon="0.07941">
        <ele>161.75</ele>
        <time>2021-08-08T15:30:45Z</time>
      </trkpt>
      <trkpt lat="48.98595" lon="0.07939">
        <ele>161.68</ele>
        <time>2021-08-08T15:30:46Z</time>
      </trkpt>
      <trkpt lat="48.98593" lon="0.07938">
        <ele>161.59</ele>
        <time>2021-08-08T15:30:47Z</time>
      </trkpt>
      <trkpt lat="48.98591" lon="0.07935">
        <ele>161.39</ele>
        <time>2021-08-08T15:30:48Z</time>
      </trkpt>
      <trkpt lat="48.98588" lon="0.07933">
        <ele>161.22</ele>
        <time>2021-08-08T15:30:49Z</time>
      </trkpt>
      <trkpt lat="48.98585" lon="0.07931">
        <ele>161.09</ele>
        <time>2021-08-08T15:30:50Z</time>
      </trkpt>
      <trkpt lat="48.98582" lon="0.07929">
        <ele>160.97</ele>
        <time>2021-08-08T15:30:51Z</time>
      </trkpt>
      <trkpt lat="48.98579" lon="0.07928">
        <ele>160.84</ele>
        <time>2021-08-08T15:30:52Z</time>
      </trkpt>
      <trkpt lat="48.98576" lon="0.07926">
        <ele>160.7</ele>
        <time>2021-08-08T15:30:53Z</time>
      </trkpt>
      <trkpt lat="48.98572" lon="0.07925">
        <ele>160.65</ele>
        <time>2021-08-08T15:30:54Z</time>
      </trkpt>
      <trkpt lat="48.98568" lon="0.07924">
        <ele>160.58</ele>
        <time>2021-08-08T15:30:55Z</time>
      </trkpt>
      <trkpt lat="48.98564" lon="0.07923">
        <ele>160.51</ele>
        <time>2021-08-08T15:30:56Z</time>
      </trkpt>
      <trkpt lat="48.9856" lon="0.07922">
        <ele>160.43</ele>
        <time>2021-08-08T15:30:57Z</time>
      </trkpt>
      <trkpt lat="48.98556" lon="0.07921">
        <ele>160.36</ele>
        <time>2021-08-08T15:30:58Z</time>
      </trkpt>
      <trkpt lat="48.98553" lon="0.0792">
        <ele>160.23</ele>
        <time>2021-08-08T15:30:59Z</time>
      </trkpt>
      <trkpt lat="48.98549" lon="0.07918">
        <ele>159.99</ele>
        <time>2021-08-08T15:31:00Z</time>
      </trkpt>
      <trkpt lat="48.98545" lon="0.07916">
        <ele>159.7</ele>
        <time>2021-08-08T15:31:01Z</time>
      </trkpt>
      <trkpt lat="48.98541" lon="0.07914">
        <ele>159.37</ele>
        <time>2021-08-08T15:31:02Z</time>
      </trkpt>
      <trkpt lat="48.98536" lon="0.07914">
        <ele>159.18</ele>
        <time>2021-08-08T15:31:03Z</time>
      </trkpt>
      <trkpt lat="48.98533" lon="0.07914">
        <ele>159.06</ele>
        <time>2021-08-08T15:31:04Z</time>
      </trkpt>
      <trkpt lat="48.98528" lon="0.07913">
        <ele>158.87</ele>
        <time>2021-08-08T15:31:05Z</time>
      </trkpt>
      <trkpt lat="48.98524" lon="0.07913">
        <ele>158.76</ele>
        <time>2021-08-08T15:31:06Z</time>
      </trkpt>
      <trkpt lat="48.98519" lon="0.07914">
        <ele>158.75</ele>
        <time>2021-08-08T15:31:07Z</time>
      </trkpt>
      <trkpt lat="48.98514" lon="0.07914">
        <ele>158.78</ele>
        <time>2021-08-08T15:31:08Z</time>
      </trkpt>
      <trkpt lat="48.98509" lon="0.07915">
        <ele>158.82</ele>
        <time>2021-08-08T15:31:09Z</time>
      </trkpt>
      <trkpt lat="48.98505" lon="0.07915">
        <ele>158.84</ele>
        <time>2021-08-08T15:31:10Z</time>
      </trkpt>
      <trkpt lat="48.98501" lon="0.07916">
        <ele>158.86</ele>
        <time>2021-08-08T15:31:11Z</time>
      </trkpt>
      <trkpt lat="48.98497" lon="0.07915">
        <ele>158.85</ele>
        <time>2021-08-08T15:31:12Z</time>
      </trkpt>
      <trkpt lat="48.98493" lon="0.07915">
        <ele>158.83</ele>
        <time>2021-08-08T15:31:13Z</time>
      </trkpt>
      <trkpt lat="48.98488" lon="0.07915">
        <ele>158.83</ele>
        <time>2021-08-08T15:31:14Z</time>
      </trkpt>
      <trkpt lat="48.98484" lon="0.07916">
        <ele>158.9</ele>
        <time>2021-08-08T15:31:15Z</time>
      </trkpt>
      <trkpt lat="48.98481" lon="0.07916">
        <ele>158.94</ele>
        <time>2021-08-08T15:31:16Z</time>
      </trkpt>
      <trkpt lat="48.98476" lon="0.07918">
        <ele>159.03</ele>
        <time>2021-08-08T15:31:17Z</time>
      </trkpt>
      <trkpt lat="48.98471" lon="0.07918">
        <ele>159.04</ele>
        <time>2021-08-08T15:31:18Z</time>
      </trkpt>
      <trkpt lat="48.98466" lon="0.07918">
        <ele>158.91</ele>
        <time>2021-08-08T15:31:19Z</time>
      </trkpt>
      <trkpt lat="48.98461" lon="0.07919">
        <ele>158.81</ele>
        <time>2021-08-08T15:31:20Z</time>
      </trkpt>
      <trkpt lat="48.98456" lon="0.07922">
        <ele>158.81</ele>
        <time>2021-08-08T15:31:21Z</time>
      </trkpt>
      <trkpt lat="48.98451" lon="0.07926">
        <ele>158.85</ele>
        <time>2021-08-08T15:31:22Z</time>
      </trkpt>
      <trkpt lat="48.98446" lon="0.07928">
        <ele>158.84</ele>
        <time>2021-08-08T15:31:23Z</time>
      </trkpt>
      <trkpt lat="48.98441" lon="0.0793">
        <ele>158.81</ele>
        <time>2021-08-08T15:31:24Z</time>
      </trkpt>
      <trkpt lat="48.98436" lon="0.07932">
        <ele>158.82</ele>
        <time>2021-08-08T15:31:25Z</time>
      </trkpt>
      <trkpt lat="48.98431" lon="0.07935">
        <ele>158.83</ele>
        <time>2021-08-08T15:31:26Z</time>
      </trkpt>
      <trkpt lat="48.98426" lon="0.07937">
        <ele>158.81</ele>
        <time>2021-08-08T15:31:27Z</time>
      </trkpt>
      <trkpt lat="48.98421" lon="0.07939">
        <ele>158.76</ele>
        <time>2021-08-08T15:31:28Z</time>
      </trkpt>
      <trkpt lat="48.98416" lon="0.07942">
        <ele>158.75</ele>
        <time>2021-08-08T15:31:29Z</time>
      </trkpt>
      <trkpt lat="48.9841" lon="0.07947">
        <ele>158.76</ele>
        <time>2021-08-08T15:31:30Z</time>
      </trkpt>
      <trkpt lat="48.98405" lon="0.07951">
        <ele>158.82</ele>
        <time>2021-08-08T15:31:31Z</time>
      </trkpt>
      <trkpt lat="48.98401" lon="0.07955">
        <ele>158.96</ele>
        <time>2021-08-08T15:31:32Z</time>
      </trkpt>
      <trkpt lat="48.98397" lon="0.0796">
        <ele>159.16</ele>
        <time>2021-08-08T15:31:33Z</time>
      </trkpt>
      <trkpt lat="48.98393" lon="0.07964">
        <ele>159.34</ele>
        <time>2021-08-08T15:31:34Z</time>
      </trkpt>
      <trkpt lat="48.9839" lon="0.07968">
        <ele>159.48</ele>
        <time>2021-08-08T15:31:35Z</time>
      </trkpt>
      <trkpt lat="48.98386" lon="0.0797">
        <ele>159.57</ele>
        <time>2021-08-08T15:31:36Z</time>
      </trkpt>
      <trkpt lat="48.98382" lon="0.07975">
        <ele>159.67</ele>
        <time>2021-08-08T15:31:37Z</time>
      </trkpt>
      <trkpt lat="48.98379" lon="0.07978">
        <ele>159.78</ele>
        <time>2021-08-08T15:31:38Z</time>
      </trkpt>
      <trkpt lat="48.98375" lon="0.07983">
        <ele>159.91</ele>
        <time>2021-08-08T15:31:39Z</time>
      </trkpt>
      <trkpt lat="48.98371" lon="0.07988">
        <ele>160.09</ele>
        <time>2021-08-08T15:31:40Z</time>
      </trkpt>
      <trkpt lat="48.98365" lon="0.07993">
        <ele>160.31</ele>
        <time>2021-08-08T15:31:41Z</time>
      </trkpt>
      <trkpt lat="48.98359" lon="0.07997">
        <ele>160.4</ele>
        <time>2021-08-08T15:31:42Z</time>
      </trkpt>
      <trkpt lat="48.98354" lon="0.08001">
        <ele>160.36</ele>
        <time>2021-08-08T15:31:43Z</time>
      </trkpt>
      <trkpt lat="48.9835" lon="0.08004">
        <ele>160.16</ele>
        <time>2021-08-08T15:31:44Z</time>
      </trkpt>
      <trkpt lat="48.98345" lon="0.08007">
        <ele>159.99</ele>
        <time>2021-08-08T15:31:45Z</time>
      </trkpt>
      <trkpt lat="48.9834" lon="0.08009">
        <ele>159.7</ele>
        <time>2021-08-08T15:31:46Z</time>
      </trkpt>
      <trkpt lat="48.98335" lon="0.08011">
        <ele>159.48</ele>
        <time>2021-08-08T15:31:47Z</time>
      </trkpt>
      <trkpt lat="48.98331" lon="0.08014">
        <ele>159.29</ele>
        <time>2021-08-08T15:31:48Z</time>
      </trkpt>
      <trkpt lat="48.98326" lon="0.08015">
        <ele>159.05</ele>
        <time>2021-08-08T15:31:49Z</time>
      </trkpt>
      <trkpt lat="48.98321" lon="0.08017">
        <ele>158.79</ele>
        <time>2021-08-08T15:31:50Z</time>
      </trkpt>
      <trkpt lat="48.98314" lon="0.08021">
        <ele>158.5</ele>
        <time>2021-08-08T15:31:51Z</time>
      </trkpt>
      <trkpt lat="48.98308" lon="0.08027">
        <ele>158.3</ele>
        <time>2021-08-08T15:31:52Z</time>
      </trkpt>
      <trkpt lat="48.98303" lon="0.08033">
        <ele>158.11</ele>
        <time>2021-08-08T15:31:53Z</time>
      </trkpt>
      <trkpt lat="48.98298" lon="0.0804">
        <ele>158.03</ele>
        <time>2021-08-08T15:31:54Z</time>
      </trkpt>
      <trkpt lat="48.98293" lon="0.08046">
        <ele>157.97</ele>
        <time>2021-08-08T15:31:55Z</time>
      </trkpt>
      <trkpt lat="48.98289" lon="0.08052">
        <ele>157.97</ele>
        <time>2021-08-08T15:31:56Z</time>
      </trkpt>
      <trkpt lat="48.98285" lon="0.08058">
        <ele>157.96</ele>
        <time>2021-08-08T15:31:57Z</time>
      </trkpt>
      <trkpt lat="48.98281" lon="0.08065">
        <ele>158.03</ele>
        <time>2021-08-08T15:31:58Z</time>
      </trkpt>
      <trkpt lat="48.98278" lon="0.08071">
        <ele>158.12</ele>
        <time>2021-08-08T15:31:59Z</time>
      </trkpt>
      <trkpt lat="48.98275" lon="0.08077">
        <ele>158.35</ele>
        <time>2021-08-08T15:32:00Z</time>
      </trkpt>
      <trkpt lat="48.98272" lon="0.08083">
        <ele>158.63</ele>
        <time>2021-08-08T15:32:01Z</time>
      </trkpt>
      <trkpt lat="48.98269" lon="0.08089">
        <ele>159.09</ele>
        <time>2021-08-08T15:32:02Z</time>
      </trkpt>
      <trkpt lat="48.98266" lon="0.08095">
        <ele>159.63</ele>
        <time>2021-08-08T15:32:03Z</time>
      </trkpt>
      <trkpt lat="48.98262" lon="0.08101">
        <ele>160.13</ele>
        <time>2021-08-08T15:32:04Z</time>
      </trkpt>
      <trkpt lat="48.9826" lon="0.08105">
        <ele>160.55</ele>
        <time>2021-08-08T15:32:05Z</time>
      </trkpt>
      <trkpt lat="48.98256" lon="0.08109">
        <ele>160.83</ele>
        <time>2021-08-08T15:32:06Z</time>
      </trkpt>
      <trkpt lat="48.98252" lon="0.08113">
        <ele>161.2</ele>
        <time>2021-08-08T15:32:07Z</time>
      </trkpt>
      <trkpt lat="48.98247" lon="0.08117">
        <ele>161.53</ele>
        <time>2021-08-08T15:32:08Z</time>
      </trkpt>
      <trkpt lat="48.98243" lon="0.08119">
        <ele>161.74</ele>
        <time>2021-08-08T15:32:09Z</time>
      </trkpt>
      <trkpt lat="48.98242" lon="0.08116">
        <ele>161.47</ele>
        <time>2021-08-08T15:32:10Z</time>
      </trkpt>
      <trkpt lat="48.9824" lon="0.08113">
        <ele>161.06</ele>
        <time>2021-08-08T15:32:11Z</time>
      </trkpt>
      <trkpt lat="48.98238" lon="0.08108">
        <ele>160.48</ele>
        <time>2021-08-08T15:32:12Z</time>
      </trkpt>
      <trkpt lat="48.98237" lon="0.08102">
        <ele>159.82</ele>
        <time>2021-08-08T15:32:13Z</time>
      </trkpt>
      <trkpt lat="48.98236" lon="0.08096">
        <ele>159.18</ele>
        <time>2021-08-08T15:32:14Z</time>
      </trkpt>
      <trkpt lat="48.9824" lon="0.08088">
        <ele>158.42</ele>
        <time>2021-08-08T15:32:15Z</time>
      </trkpt>
      <trkpt lat="48.9824" lon="0.08077">
        <ele>157.55</ele>
        <time>2021-08-08T15:32:16Z</time>
      </trkpt>
      <trkpt lat="48.98239" lon="0.08067">
        <ele>156.75</ele>
        <time>2021-08-08T15:32:17Z</time>
      </trkpt>
      <trkpt lat="48.98237" lon="0.08055">
        <ele>155.9</ele>
        <time>2021-08-08T15:32:18Z</time>
      </trkpt>
      <trkpt lat="48.98234" lon="0.08046">
        <ele>155.32</ele>
        <time>2021-08-08T15:32:19Z</time>
      </trkpt>
      <trkpt lat="48.98231" lon="0.08037">
        <ele>154.85</ele>
        <time>2021-08-08T15:32:20Z</time>
      </trkpt>
      <trkpt lat="48.9823" lon="0.08028">
        <ele>154.47</ele>
        <time>2021-08-08T15:32:21Z</time>
      </trkpt>
      <trkpt lat="48.9823" lon="0.08023">
        <ele>154.16</ele>
        <time>2021-08-08T15:32:22Z</time>
      </trkpt>
      <trkpt lat="48.98229" lon="0.08017">
        <ele>153.88</ele>
        <time>2021-08-08T15:32:23Z</time>
      </trkpt>
      <trkpt lat="48.98228" lon="0.08011">
        <ele>153.61</ele>
        <time>2021-08-08T15:32:24Z</time>
      </trkpt>
      <trkpt lat="48.98229" lon="0.08006">
        <ele>153.36</ele>
        <time>2021-08-08T15:32:25Z</time>
      </trkpt>
      <trkpt lat="48.98228" lon="0.08">
        <ele>153.11</ele>
        <time>2021-08-08T15:32:26Z</time>
      </trkpt>
      <trkpt lat="48.98228" lon="0.07993">
        <ele>153</ele>
        <time>2021-08-08T15:32:27Z</time>
      </trkpt>
      <trkpt lat="48.98227" lon="0.07986">
        <ele>152.94</ele>
        <time>2021-08-08T15:32:28Z</time>
      </trkpt>
      <trkpt lat="48.98227" lon="0.07979">
        <ele>152.89</ele>
        <time>2021-08-08T15:32:29Z</time>
      </trkpt>
      <trkpt lat="48.98227" lon="0.07973">
        <ele>152.84</ele>
        <time>2021-08-08T15:32:30Z</time>
      </trkpt>
      <trkpt lat="48.98227" lon="0.07967">
        <ele>152.94</ele>
        <time>2021-08-08T15:32:31Z</time>
      </trkpt>
      <trkpt lat="48.98226" lon="0.07962">
        <ele>153.09</ele>
        <time>2021-08-08T15:32:32Z</time>
      </trkpt>
      <trkpt lat="48.98226" lon="0.07958">
        <ele>153.26</ele>
        <time>2021-08-08T15:32:33Z</time>
      </trkpt>
      <trkpt lat="48.98225" lon="0.07953">
        <ele>153.45</ele>
        <time>2021-08-08T15:32:34Z</time>
      </trkpt>
      <trkpt lat="48.98225" lon="0.07948">
        <ele>153.62</ele>
        <time>2021-08-08T15:32:35Z</time>
      </trkpt>
      <trkpt lat="48.98224" lon="0.07943">
        <ele>153.87</ele>
        <time>2021-08-08T15:32:36Z</time>
      </trkpt>
      <trkpt lat="48.98223" lon="0.07939">
        <ele>154.18</ele>
        <time>2021-08-08T15:32:37Z</time>
      </trkpt>
      <trkpt lat="48.98223" lon="0.07935">
        <ele>154.51</ele>
        <time>2021-08-08T15:32:38Z</time>
      </trkpt>
      <trkpt lat="48.98222" lon="0.07933">
        <ele>154.79</ele>
        <time>2021-08-08T15:32:39Z</time>
      </trkpt>
      <trkpt lat="48.9822" lon="0.07931">
        <ele>155.04</ele>
        <time>2021-08-08T15:32:40Z</time>
      </trkpt>
      <trkpt lat="48.98219" lon="0.07929">
        <ele>155.29</ele>
        <time>2021-08-08T15:32:41Z</time>
      </trkpt>
      <trkpt lat="48.98218" lon="0.07926">
        <ele>155.58</ele>
        <time>2021-08-08T15:32:42Z</time>
      </trkpt>
      <trkpt lat="48.98216" lon="0.07923">
        <ele>155.86</ele>
        <time>2021-08-08T15:32:43Z</time>
      </trkpt>
      <trkpt lat="48.98215" lon="0.07921">
        <ele>156.16</ele>
        <time>2021-08-08T15:32:44Z</time>
      </trkpt>
      <trkpt lat="48.98213" lon="0.07919">
        <ele>156.43</ele>
        <time>2021-08-08T15:32:45Z</time>
      </trkpt>
      <trkpt lat="48.98211" lon="0.07916">
        <ele>156.7</ele>
        <time>2021-08-08T15:32:46Z</time>
      </trkpt>
      <trkpt lat="48.9821" lon="0.07912">
        <ele>156.98</ele>
        <time>2021-08-08T15:32:47Z</time>
      </trkpt>
      <trkpt lat="48.98209" lon="0.07909">
        <ele>157.25</ele>
        <time>2021-08-08T15:32:48Z</time>
      </trkpt>
      <trkpt lat="48.98208" lon="0.07905">
        <ele>157.54</ele>
        <time>2021-08-08T15:32:49Z</time>
      </trkpt>
      <trkpt lat="48.98207" lon="0.07903">
        <ele>157.77</ele>
        <time>2021-08-08T15:32:50Z</time>
      </trkpt>
      <trkpt lat="48.98205" lon="0.079">
        <ele>158.09</ele>
        <time>2021-08-08T15:32:51Z</time>
      </trkpt>
      <trkpt lat="48.98203" lon="0.07897">
        <ele>158.43</ele>
        <time>2021-08-08T15:32:52Z</time>
      </trkpt>
      <trkpt lat="48.98199" lon="0.07891">
        <ele>159.05</ele>
        <time>2021-08-08T15:32:54Z</time>
      </trkpt>
      <trkpt lat="48.982" lon="0.07889">
        <ele>159.28</ele>
        <time>2021-08-08T15:32:55Z</time>
      </trkpt>
      <trkpt lat="48.982" lon="0.07886">
        <ele>159.35</ele>
        <time>2021-08-08T15:32:56Z</time>
      </trkpt>
      <trkpt lat="48.982" lon="0.07883">
        <ele>159.4</ele>
        <time>2021-08-08T15:32:57Z</time>
      </trkpt>
      <trkpt lat="48.98199" lon="0.0788">
        <ele>159.49</ele>
        <time>2021-08-08T15:32:58Z</time>
      </trkpt>
      <trkpt lat="48.98198" lon="0.07878">
        <ele>159.56</ele>
        <time>2021-08-08T15:32:59Z</time>
      </trkpt>
      <trkpt lat="48.98197" lon="0.07875">
        <ele>159.68</ele>
        <time>2021-08-08T15:33:00Z</time>
      </trkpt>
      <trkpt lat="48.98196" lon="0.07871">
        <ele>159.81</ele>
        <time>2021-08-08T15:33:01Z</time>
      </trkpt>
      <trkpt lat="48.98195" lon="0.07867">
        <ele>159.9</ele>
        <time>2021-08-08T15:33:02Z</time>
      </trkpt>
      <trkpt lat="48.98194" lon="0.07863">
        <ele>160</ele>
        <time>2021-08-08T15:33:03Z</time>
      </trkpt>
      <trkpt lat="48.98192" lon="0.07859">
        <ele>160.05</ele>
        <time>2021-08-08T15:33:04Z</time>
      </trkpt>
      <trkpt lat="48.98191" lon="0.07855">
        <ele>160.03</ele>
        <time>2021-08-08T15:33:05Z</time>
      </trkpt>
      <trkpt lat="48.98191" lon="0.07851">
        <ele>159.95</ele>
        <time>2021-08-08T15:33:06Z</time>
      </trkpt>
      <trkpt lat="48.9819" lon="0.07847">
        <ele>159.86</ele>
        <time>2021-08-08T15:33:07Z</time>
      </trkpt>
      <trkpt lat="48.98189" lon="0.07843">
        <ele>159.78</ele>
        <time>2021-08-08T15:33:08Z</time>
      </trkpt>
      <trkpt lat="48.98188" lon="0.07838">
        <ele>159.67</ele>
        <time>2021-08-08T15:33:09Z</time>
      </trkpt>
      <trkpt lat="48.98187" lon="0.07834">
        <ele>159.57</ele>
        <time>2021-08-08T15:33:10Z</time>
      </trkpt>
      <trkpt lat="48.98187" lon="0.07829">
        <ele>159.52</ele>
        <time>2021-08-08T15:33:11Z</time>
      </trkpt>
      <trkpt lat="48.98187" lon="0.07823">
        <ele>159.54</ele>
        <time>2021-08-08T15:33:12Z</time>
      </trkpt>
      <trkpt lat="48.98186" lon="0.07817">
        <ele>159.6</ele>
        <time>2021-08-08T15:33:13Z</time>
      </trkpt>
      <trkpt lat="48.98185" lon="0.07811">
        <ele>159.64</ele>
        <time>2021-08-08T15:33:14Z</time>
      </trkpt>
      <trkpt lat="48.98185" lon="0.07804">
        <ele>159.64</ele>
        <time>2021-08-08T15:33:15Z</time>
      </trkpt>
      <trkpt lat="48.98184" lon="0.07798">
        <ele>159.51</ele>
        <time>2021-08-08T15:33:16Z</time>
      </trkpt>
      <trkpt lat="48.98184" lon="0.07791">
        <ele>159.35</ele>
        <time>2021-08-08T15:33:17Z</time>
      </trkpt>
      <trkpt lat="48.98183" lon="0.07785">
        <ele>159.17</ele>
        <time>2021-08-08T15:33:18Z</time>
      </trkpt>
      <trkpt lat="48.98183" lon="0.07779">
        <ele>158.97</ele>
        <time>2021-08-08T15:33:19Z</time>
      </trkpt>
      <trkpt lat="48.98183" lon="0.07771">
        <ele>158.82</ele>
        <time>2021-08-08T15:33:20Z</time>
      </trkpt>
      <trkpt lat="48.98183" lon="0.07765">
        <ele>158.69</ele>
        <time>2021-08-08T15:33:21Z</time>
      </trkpt>
      <trkpt lat="48.98184" lon="0.07757">
        <ele>158.56</ele>
        <time>2021-08-08T15:33:22Z</time>
      </trkpt>
      <trkpt lat="48.98184" lon="0.07749">
        <ele>158.41</ele>
        <time>2021-08-08T15:33:23Z</time>
      </trkpt>
      <trkpt lat="48.98184" lon="0.07742">
        <ele>158.16</ele>
        <time>2021-08-08T15:33:24Z</time>
      </trkpt>
      <trkpt lat="48.98184" lon="0.07735">
        <ele>157.92</ele>
        <time>2021-08-08T15:33:25Z</time>
      </trkpt>
      <trkpt lat="48.98185" lon="0.07728">
        <ele>157.66</ele>
        <time>2021-08-08T15:33:26Z</time>
      </trkpt>
      <trkpt lat="48.98184" lon="0.07719">
        <ele>157.38</ele>
        <time>2021-08-08T15:33:27Z</time>
      </trkpt>
      <trkpt lat="48.98184" lon="0.07712">
        <ele>157.12</ele>
        <time>2021-08-08T15:33:28Z</time>
      </trkpt>
      <trkpt lat="48.98184" lon="0.07705">
        <ele>156.86</ele>
        <time>2021-08-08T15:33:29Z</time>
      </trkpt>
      <trkpt lat="48.98184" lon="0.07698">
        <ele>156.61</ele>
        <time>2021-08-08T15:33:30Z</time>
      </trkpt>
      <trkpt lat="48.98184" lon="0.07692">
        <ele>156.39</ele>
        <time>2021-08-08T15:33:31Z</time>
      </trkpt>
      <trkpt lat="48.98184" lon="0.07684">
        <ele>156.11</ele>
        <time>2021-08-08T15:33:32Z</time>
      </trkpt>
      <trkpt lat="48.98184" lon="0.07676">
        <ele>155.83</ele>
        <time>2021-08-08T15:33:33Z</time>
      </trkpt>
      <trkpt lat="48.98184" lon="0.07669">
        <ele>155.56</ele>
        <time>2021-08-08T15:33:34Z</time>
      </trkpt>
      <trkpt lat="48.98183" lon="0.07658">
        <ele>155.22</ele>
        <time>2021-08-08T15:33:35Z</time>
      </trkpt>
      <trkpt lat="48.98184" lon="0.0765">
        <ele>154.9</ele>
        <time>2021-08-08T15:33:36Z</time>
      </trkpt>
      <trkpt lat="48.98184" lon="0.07642">
        <ele>154.6</ele>
        <time>2021-08-08T15:33:37Z</time>
      </trkpt>
      <trkpt lat="48.98185" lon="0.07633">
        <ele>154.27</ele>
        <time>2021-08-08T15:33:38Z</time>
      </trkpt>
      <trkpt lat="48.98186" lon="0.07624">
        <ele>153.92</ele>
        <time>2021-08-08T15:33:39Z</time>
      </trkpt>
      <trkpt lat="48.98186" lon="0.07612">
        <ele>153.53</ele>
        <time>2021-08-08T15:33:40Z</time>
      </trkpt>
      <trkpt lat="48.98187" lon="0.07602">
        <ele>153.13</ele>
        <time>2021-08-08T15:33:41Z</time>
      </trkpt>
      <trkpt lat="48.98188" lon="0.07594">
        <ele>152.77</ele>
        <time>2021-08-08T15:33:42Z</time>
      </trkpt>
      <trkpt lat="48.98189" lon="0.07585">
        <ele>152.43</ele>
        <time>2021-08-08T15:33:43Z</time>
      </trkpt>
      <trkpt lat="48.9819" lon="0.07576">
        <ele>152.1</ele>
        <time>2021-08-08T15:33:44Z</time>
      </trkpt>
      <trkpt lat="48.9819" lon="0.07568">
        <ele>151.82</ele>
        <time>2021-08-08T15:33:45Z</time>
      </trkpt>
      <trkpt lat="48.9819" lon="0.0756">
        <ele>151.54</ele>
        <time>2021-08-08T15:33:46Z</time>
      </trkpt>
      <trkpt lat="48.98191" lon="0.07551">
        <ele>151.34</ele>
        <time>2021-08-08T15:33:47Z</time>
      </trkpt>
      <trkpt lat="48.98191" lon="0.07542">
        <ele>151.25</ele>
        <time>2021-08-08T15:33:48Z</time>
      </trkpt>
      <trkpt lat="48.98191" lon="0.07535">
        <ele>151.23</ele>
        <time>2021-08-08T15:33:49Z</time>
      </trkpt>
      <trkpt lat="48.98145" lon="0.07491">
        <ele>156.01171875</ele>
      </trkpt>
      <trkpt lat="48.98068" lon="0.0748">
        <ele>162.7890625</ele>
      </trkpt>
      <trkpt lat="48.97934" lon="0.07461">
        <ele>171.03125</ele>
      </trkpt>
      <trkpt lat="48.97943" lon="0.07428">
        <ele>168.984375</ele>
      </trkpt>
      <trkpt lat="48.9794" lon="0.07348">
        <ele>164.06640625</ele>
      </trkpt>
      <trkpt lat="48.97928" lon="0.07299">
        <ele>160.29296875</ele>
      </trkpt>
      <trkpt lat="48.97951" lon="0.07211">
        <ele>161.0625</ele>
      </trkpt>
      <trkpt lat="48.97996" lon="0.07199">
        <ele>162.73828125</ele>
      </trkpt>
      <trkpt lat="48.98042" lon="0.07134">
        <ele>168.8359375</ele>
      </trkpt>
      <trkpt lat="48.9805" lon="0.07117">
        <ele>170.37890625</ele>
      </trkpt>
      <trkpt lat="48.98089" lon="0.07076">
        <ele>172.94921875</ele>
      </trkpt>
      <trkpt lat="48.98104" lon="0.07052">
        <ele>173.64453125</ele>
      </trkpt>
      <trkpt lat="48.98146" lon="0.07048">
        <ele>173.328125</ele>
      </trkpt>
      <trkpt lat="48.98178" lon="0.07031">
        <ele>173.9375</ele>
      </trkpt>
      <trkpt lat="48.98201" lon="0.07017">
        <ele>173.79</ele>
        <time>2021-08-08T15:36:06Z</time>
      </trkpt>
      <trkpt lat="48.98203" lon="0.07013">
        <ele>173.73</ele>
        <time>2021-08-08T15:36:07Z</time>
      </trkpt>
      <trkpt lat="48.98204" lon="0.07008">
        <ele>173.67</ele>
        <time>2021-08-08T15:36:08Z</time>
      </trkpt>
      <trkpt lat="48.98206" lon="0.07004">
        <ele>173.61</ele>
        <time>2021-08-08T15:36:09Z</time>
      </trkpt>
      <trkpt lat="48.98207" lon="0.06999">
        <ele>173.58</ele>
        <time>2021-08-08T15:36:10Z</time>
      </trkpt>
      <trkpt lat="48.98208" lon="0.06995">
        <ele>173.66</ele>
        <time>2021-08-08T15:36:11Z</time>
      </trkpt>
      <trkpt lat="48.98209" lon="0.06991">
        <ele>173.76</ele>
        <time>2021-08-08T15:36:12Z</time>
      </trkpt>
      <trkpt lat="48.9821" lon="0.06987">
        <ele>173.87</ele>
        <time>2021-08-08T15:36:13Z</time>
      </trkpt>
      <trkpt lat="48.98211" lon="0.06983">
        <ele>173.98</ele>
        <time>2021-08-08T15:36:14Z</time>
      </trkpt>
      <trkpt lat="48.98213" lon="0.06978">
        <ele>174.07</ele>
        <time>2021-08-08T15:36:15Z</time>
      </trkpt>
      <trkpt lat="48.98214" lon="0.06974">
        <ele>174.18</ele>
        <time>2021-08-08T15:36:16Z</time>
      </trkpt>
      <trkpt lat="48.98216" lon="0.06968">
        <ele>174.22</ele>
        <time>2021-08-08T15:36:17Z</time>
      </trkpt>
      <trkpt lat="48.98216" lon="0.06964">
        <ele>174.22</ele>
        <time>2021-08-08T15:36:18Z</time>
      </trkpt>
      <trkpt lat="48.98217" lon="0.06961">
        <ele>174.19</ele>
        <time>2021-08-08T15:36:19Z</time>
      </trkpt>
      <trkpt lat="48.98217" lon="0.06958">
        <ele>174.18</ele>
        <time>2021-08-08T15:36:20Z</time>
      </trkpt>
      <trkpt lat="48.98218" lon="0.06954">
        <ele>174.17</ele>
        <time>2021-08-08T15:36:21Z</time>
      </trkpt>
      <trkpt lat="48.98218" lon="0.06951">
        <ele>174.17</ele>
        <time>2021-08-08T15:36:22Z</time>
      </trkpt>
      <trkpt lat="48.98217" lon="0.06947">
        <ele>174.17</ele>
        <time>2021-08-08T15:36:23Z</time>
      </trkpt>
      <trkpt lat="48.98217" lon="0.06943">
        <ele>174.17</ele>
        <time>2021-08-08T15:36:24Z</time>
      </trkpt>
      <trkpt lat="48.98218" lon="0.0694">
        <ele>174.17</ele>
        <time>2021-08-08T15:36:25Z</time>
      </trkpt>
      <trkpt lat="48.98217" lon="0.06936">
        <ele>174.18</ele>
        <time>2021-08-08T15:36:26Z</time>
      </trkpt>
      <trkpt lat="48.98216" lon="0.06931">
        <ele>174.2</ele>
        <time>2021-08-08T15:36:27Z</time>
      </trkpt>
      <trkpt lat="48.98216" lon="0.06928">
        <ele>174.22</ele>
        <time>2021-08-08T15:36:28Z</time>
      </trkpt>
      <trkpt lat="48.98215" lon="0.06925">
        <ele>174.25</ele>
        <time>2021-08-08T15:36:29Z</time>
      </trkpt>
      <trkpt lat="48.98215" lon="0.06922">
        <ele>174.27</ele>
        <time>2021-08-08T15:36:30Z</time>
      </trkpt>
      <trkpt lat="48.98214" lon="0.06919">
        <ele>174.27</ele>
        <time>2021-08-08T15:36:31Z</time>
      </trkpt>
      <trkpt lat="48.98215" lon="0.06917">
        <ele>174.27</ele>
        <time>2021-08-08T15:36:32Z</time>
      </trkpt>
      <trkpt lat="48.98215" lon="0.06914">
        <ele>174.35</ele>
        <time>2021-08-08T15:36:33Z</time>
      </trkpt>
      <trkpt lat="48.98214" lon="0.06909">
        <ele>174.49</ele>
        <time>2021-08-08T15:36:34Z</time>
      </trkpt>
      <trkpt lat="48.98214" lon="0.06905">
        <ele>174.65</ele>
        <time>2021-08-08T15:36:35Z</time>
      </trkpt>
      <trkpt lat="48.98215" lon="0.06901">
        <ele>174.78</ele>
        <time>2021-08-08T15:36:36Z</time>
      </trkpt>
      <trkpt lat="48.98214" lon="0.06897">
        <ele>174.92</ele>
        <time>2021-08-08T15:36:37Z</time>
      </trkpt>
      <trkpt lat="48.98214" lon="0.06893">
        <ele>175.08</ele>
        <time>2021-08-08T15:36:38Z</time>
      </trkpt>
      <trkpt lat="48.98213" lon="0.06889">
        <ele>175.26</ele>
        <time>2021-08-08T15:36:39Z</time>
      </trkpt>
      <trkpt lat="48.98212" lon="0.06885">
        <ele>175.33</ele>
        <time>2021-08-08T15:36:40Z</time>
      </trkpt>
      <trkpt lat="48.98211" lon="0.06881">
        <ele>175.38</ele>
        <time>2021-08-08T15:36:41Z</time>
      </trkpt>
      <trkpt lat="48.9821" lon="0.06878">
        <ele>175.42</ele>
        <time>2021-08-08T15:36:42Z</time>
      </trkpt>
      <trkpt lat="48.98209" lon="0.06875">
        <ele>175.45</ele>
        <time>2021-08-08T15:36:43Z</time>
      </trkpt>
      <trkpt lat="48.98209" lon="0.06872">
        <ele>175.48</ele>
        <time>2021-08-08T15:36:44Z</time>
      </trkpt>
      <trkpt lat="48.98208" lon="0.06869">
        <ele>175.51</ele>
        <time>2021-08-08T15:36:45Z</time>
      </trkpt>
      <trkpt lat="48.98207" lon="0.06863">
        <ele>175.54</ele>
        <time>2021-08-08T15:36:46Z</time>
      </trkpt>
      <trkpt lat="48.98206" lon="0.06861">
        <ele>175.57</ele>
        <time>2021-08-08T15:36:47Z</time>
      </trkpt>
      <trkpt lat="48.98205" lon="0.06859">
        <ele>175.6</ele>
        <time>2021-08-08T15:36:48Z</time>
      </trkpt>
      <trkpt lat="48.98204" lon="0.06855">
        <ele>175.64</ele>
        <time>2021-08-08T15:36:49Z</time>
      </trkpt>
      <trkpt lat="48.98204" lon="0.06852">
        <ele>175.66</ele>
        <time>2021-08-08T15:36:50Z</time>
      </trkpt>
      <trkpt lat="48.98203" lon="0.06849">
        <ele>175.68</ele>
        <time>2021-08-08T15:36:51Z</time>
      </trkpt>
      <trkpt lat="48.98202" lon="0.06846">
        <ele>175.71</ele>
        <time>2021-08-08T15:36:52Z</time>
      </trkpt>
      <trkpt lat="48.98201" lon="0.06843">
        <ele>175.74</ele>
        <time>2021-08-08T15:36:53Z</time>
      </trkpt>
      <trkpt lat="48.98201" lon="0.0684">
        <ele>175.76</ele>
        <time>2021-08-08T15:36:54Z</time>
      </trkpt>
      <trkpt lat="48.982" lon="0.06836">
        <ele>175.79</ele>
        <time>2021-08-08T15:36:55Z</time>
      </trkpt>
      <trkpt lat="48.98199" lon="0.06833">
        <ele>175.82</ele>
        <time>2021-08-08T15:36:56Z</time>
      </trkpt>
      <trkpt lat="48.98199" lon="0.06828">
        <ele>175.83</ele>
        <time>2021-08-08T15:36:57Z</time>
      </trkpt>
      <trkpt lat="48.98199" lon="0.06824">
        <ele>175.85</ele>
        <time>2021-08-08T15:36:58Z</time>
      </trkpt>
      <trkpt lat="48.98198" lon="0.06819">
        <ele>175.86</ele>
        <time>2021-08-08T15:36:59Z</time>
      </trkpt>
      <trkpt lat="48.98197" lon="0.06815">
        <ele>175.88</ele>
        <time>2021-08-08T15:37:00Z</time>
      </trkpt>
      <trkpt lat="48.98197" lon="0.0681">
        <ele>175.9</ele>
        <time>2021-08-08T15:37:01Z</time>
      </trkpt>
      <trkpt lat="48.98197" lon="0.06805">
        <ele>175.9</ele>
        <time>2021-08-08T15:37:02Z</time>
      </trkpt>
      <trkpt lat="48.98197" lon="0.068">
        <ele>175.9</ele>
        <time>2021-08-08T15:37:03Z</time>
      </trkpt>
      <trkpt lat="48.98197" lon="0.06796">
        <ele>175.91</ele>
        <time>2021-08-08T15:37:04Z</time>
      </trkpt>
      <trkpt lat="48.98196" lon="0.06793">
        <ele>175.93</ele>
        <time>2021-08-08T15:37:05Z</time>
      </trkpt>
      <trkpt lat="48.98195" lon="0.0679">
        <ele>175.97</ele>
        <time>2021-08-08T15:37:06Z</time>
      </trkpt>
      <trkpt lat="48.98194" lon="0.06787">
        <ele>175.99</ele>
        <time>2021-08-08T15:37:07Z</time>
      </trkpt>
      <trkpt lat="48.98194" lon="0.06786">
        <ele>176.01</ele>
        <time>2021-08-08T15:37:08Z</time>
      </trkpt>
      <trkpt lat="48.98194" lon="0.06785">
        <ele>176.01</ele>
        <time>2021-08-08T15:37:09Z</time>
      </trkpt>
      <trkpt lat="48.98194" lon="0.06783">
        <ele>176.01</ele>
        <time>2021-08-08T15:37:10Z</time>
      </trkpt>
      <trkpt lat="48.98194" lon="0.06782">
        <ele>176.02</ele>
        <time>2021-08-08T15:37:11Z</time>
      </trkpt>
      <trkpt lat="48.98194" lon="0.06782">
        <ele>176.02</ele>
        <time>2021-08-08T15:37:12Z</time>
      </trkpt>
      <trkpt lat="48.98193" lon="0.06778">
        <ele>176.05</ele>
        <time>2021-08-08T15:37:13Z</time>
      </trkpt>
      <trkpt lat="48.98191" lon="0.06777">
        <ele>176.09</ele>
        <time>2021-08-08T15:37:14Z</time>
      </trkpt>
      <trkpt lat="48.98191" lon="0.06775">
        <ele>176.11</ele>
        <time>2021-08-08T15:37:15Z</time>
      </trkpt>
      <trkpt lat="48.98192" lon="0.06773">
        <ele>176.1</ele>
        <time>2021-08-08T15:37:16Z</time>
      </trkpt>
      <trkpt lat="48.98192" lon="0.06773">
        <ele>176.1</ele>
        <time>2021-08-08T15:37:17Z</time>
      </trkpt>
      <trkpt lat="48.98191" lon="0.06769">
        <ele>176.11</ele>
        <time>2021-08-08T15:37:18Z</time>
      </trkpt>
      <trkpt lat="48.98192" lon="0.06766">
        <ele>176.1</ele>
        <time>2021-08-08T15:37:19Z</time>
      </trkpt>
      <trkpt lat="48.98191" lon="0.06764">
        <ele>176.11</ele>
        <time>2021-08-08T15:37:20Z</time>
      </trkpt>
      <trkpt lat="48.98191" lon="0.06761">
        <ele>176.12</ele>
        <time>2021-08-08T15:37:21Z</time>
      </trkpt>
      <trkpt lat="48.98191" lon="0.06758">
        <ele>176.13</ele>
        <time>2021-08-08T15:37:22Z</time>
      </trkpt>
      <trkpt lat="48.98191" lon="0.06754">
        <ele>176.13</ele>
        <time>2021-08-08T15:37:23Z</time>
      </trkpt>
      <trkpt lat="48.98191" lon="0.06749">
        <ele>176.11</ele>
        <time>2021-08-08T15:37:24Z</time>
      </trkpt>
      <trkpt lat="48.9819" lon="0.06744">
        <ele>176</ele>
        <time>2021-08-08T15:37:25Z</time>
      </trkpt>
      <trkpt lat="48.9819" lon="0.06742">
        <ele>175.91</ele>
        <time>2021-08-08T15:37:26Z</time>
      </trkpt>
      <trkpt lat="48.9819" lon="0.06741">
        <ele>175.87</ele>
        <time>2021-08-08T15:37:27Z</time>
      </trkpt>
      <trkpt lat="48.9819" lon="0.0674">
        <ele>175.82</ele>
        <time>2021-08-08T15:37:28Z</time>
      </trkpt>
      <trkpt lat="48.9819" lon="0.0674">
        <ele>175.81</ele>
        <time>2021-08-08T15:37:29Z</time>
      </trkpt>
      <trkpt lat="48.9819" lon="0.0674">
        <ele>175.8</ele>
        <time>2021-08-08T15:37:30Z</time>
      </trkpt>
      <trkpt lat="48.9819" lon="0.0674">
        <ele>175.8</ele>
        <time>2021-08-08T15:37:31Z</time>
      </trkpt>
      <trkpt lat="48.9819" lon="0.0674">
        <ele>175.8</ele>
        <time>2021-08-08T15:37:32Z</time>
      </trkpt>
      <trkpt lat="48.9819" lon="0.0674">
        <ele>175.8</ele>
        <time>2021-08-08T15:37:33Z</time>
      </trkpt>
      <trkpt lat="48.9819" lon="0.0674">
        <ele>175.8</ele>
        <time>2021-08-08T15:37:34Z</time>
      </trkpt>
      <trkpt lat="48.9819" lon="0.0674">
        <ele>175.8</ele>
        <time>2021-08-08T15:37:35Z</time>
      </trkpt>
      <trkpt lat="48.9819" lon="0.0674">
        <ele>175.8</ele>
        <time>2021-08-08T15:37:36Z</time>
      </trkpt>
      <trkpt lat="48.9819" lon="0.0674">
        <ele>175.8</ele>
        <time>2021-08-08T15:37:37Z</time>
      </trkpt>
      <trkpt lat="48.9819" lon="0.0674">
        <ele>175.8</ele>
        <time>2021-08-08T15:37:38Z</time>
      </trkpt>
      <trkpt lat="48.9819" lon="0.0674">
        <ele>175.8</ele>
        <time>2021-08-08T15:37:39Z</time>
      </trkpt>
      <trkpt lat="48.9819" lon="0.0674">
        <ele>175.8</ele>
        <time>2021-08-08T15:37:40Z</time>
      </trkpt>
      <trkpt lat="48.9819" lon="0.0674">
        <ele>175.8</ele>
        <time>2021-08-08T15:37:41Z</time>
      </trkpt>
      <trkpt lat="48.9819" lon="0.0674">
        <ele>175.8</ele>
        <time>2021-08-08T15:37:42Z</time>
      </trkpt>
      <trkpt lat="48.9819" lon="0.0674">
        <ele>175.8</ele>
        <time>2021-08-08T15:37:43Z</time>
      </trkpt>
      <trkpt lat="48.9819" lon="0.0674">
        <ele>175.8</ele>
        <time>2021-08-08T15:37:44Z</time>
      </trkpt>
      <trkpt lat="48.98193" lon="0.06727">
        <ele>175.39</ele>
        <time>2021-08-08T15:37:45Z</time>
      </trkpt>
      <trkpt lat="48.98194" lon="0.06725">
        <ele>175.22</ele>
        <time>2021-08-08T15:37:46Z</time>
      </trkpt>
      <trkpt lat="48.98194" lon="0.06724">
        <ele>175.12</ele>
        <time>2021-08-08T15:37:47Z</time>
      </trkpt>
      <trkpt lat="48.98195" lon="0.06722">
        <ele>175.03</ele>
        <time>2021-08-08T15:37:48Z</time>
      </trkpt>
      <trkpt lat="48.98195" lon="0.06722">
        <ele>175</ele>
        <time>2021-08-08T15:37:49Z</time>
      </trkpt>
      <trkpt lat="48.98196" lon="0.06718">
        <ele>174.97</ele>
        <time>2021-08-08T15:37:50Z</time>
      </trkpt>
      <trkpt lat="48.98196" lon="0.06718">
        <ele>174.96</ele>
        <time>2021-08-08T15:37:51Z</time>
      </trkpt>
      <trkpt lat="48.98196" lon="0.06716">
        <ele>174.95</ele>
        <time>2021-08-08T15:37:52Z</time>
      </trkpt>
      <trkpt lat="48.98196" lon="0.06715">
        <ele>174.95</ele>
        <time>2021-08-08T15:37:53Z</time>
      </trkpt>
      <trkpt lat="48.98196" lon="0.06715">
        <ele>174.94</ele>
        <time>2021-08-08T15:37:54Z</time>
      </trkpt>
      <trkpt lat="48.98196" lon="0.06715">
        <ele>174.94</ele>
        <time>2021-08-08T15:37:55Z</time>
      </trkpt>
      <trkpt lat="48.98196" lon="0.06708">
        <ele>174.96</ele>
        <time>2021-08-08T15:37:56Z</time>
      </trkpt>
      <trkpt lat="48.98195" lon="0.06707">
        <ele>174.98</ele>
        <time>2021-08-08T15:37:57Z</time>
      </trkpt>
      <trkpt lat="48.98194" lon="0.06705">
        <ele>175</ele>
        <time>2021-08-08T15:37:58Z</time>
      </trkpt>
      <trkpt lat="48.98194" lon="0.06704">
        <ele>175.02</ele>
        <time>2021-08-08T15:37:59Z</time>
      </trkpt>
      <trkpt lat="48.98193" lon="0.06702">
        <ele>175.04</ele>
        <time>2021-08-08T15:38:00Z</time>
      </trkpt>
      <trkpt lat="48.98193" lon="0.06701">
        <ele>175.04</ele>
        <time>2021-08-08T15:38:01Z</time>
      </trkpt>
      <trkpt lat="48.98193" lon="0.06701">
        <ele>175.05</ele>
        <time>2021-08-08T15:38:02Z</time>
      </trkpt>
      <trkpt lat="48.98193" lon="0.06701">
        <ele>175.05</ele>
        <time>2021-08-08T15:38:03Z</time>
      </trkpt>
      <trkpt lat="48.98193" lon="0.06701">
        <ele>175.05</ele>
        <time>2021-08-08T15:38:04Z</time>
      </trkpt>
      <trkpt lat="48.98193" lon="0.06701">
        <ele>175.05</ele>
        <time>2021-08-08T15:38:05Z</time>
      </trkpt>
      <trkpt lat="48.98193" lon="0.06701">
        <ele>175.05</ele>
        <time>2021-08-08T15:38:06Z</time>
      </trkpt>
      <trkpt lat="48.98193" lon="0.06701">
        <ele>175.05</ele>
        <time>2021-08-08T15:38:07Z</time>
      </trkpt>
      <trkpt lat="48.98193" lon="0.06701">
        <ele>175.05</ele>
        <time>2021-08-08T15:38:08Z</time>
      </trkpt>
      <trkpt lat="48.98193" lon="0.06701">
        <ele>175.05</ele>
        <time>2021-08-08T15:38:09Z</time>
      </trkpt>
      <trkpt lat="48.98193" lon="0.06701">
        <ele>175.05</ele>
        <time>2021-08-08T15:38:10Z</time>
      </trkpt>
      <trkpt lat="48.98194" lon="0.06686">
        <ele>174.82</ele>
        <time>2021-08-08T15:38:11Z</time>
      </trkpt>
      <trkpt lat="48.98194" lon="0.06684">
        <ele>174.7</ele>
        <time>2021-08-08T15:38:12Z</time>
      </trkpt>
      <trkpt lat="48.98194" lon="0.06682">
        <ele>174.6</ele>
        <time>2021-08-08T15:38:13Z</time>
      </trkpt>
      <trkpt lat="48.98194" lon="0.06678">
        <ele>174.48</ele>
        <time>2021-08-08T15:38:14Z</time>
      </trkpt>
      <trkpt lat="48.98194" lon="0.06675">
        <ele>174.38</ele>
        <time>2021-08-08T15:38:15Z</time>
      </trkpt>
      <trkpt lat="48.98194" lon="0.06673">
        <ele>174.29</ele>
        <time>2021-08-08T15:38:16Z</time>
      </trkpt>
      <trkpt lat="48.98193" lon="0.06672">
        <ele>174.25</ele>
        <time>2021-08-08T15:38:17Z</time>
      </trkpt>
      <trkpt lat="48.98193" lon="0.06672">
        <ele>174.25</ele>
        <time>2021-08-08T15:38:18Z</time>
      </trkpt>
      <trkpt lat="48.98193" lon="0.06672">
        <ele>174.25</ele>
        <time>2021-08-08T15:38:19Z</time>
      </trkpt>
      <trkpt lat="48.98193" lon="0.06671">
        <ele>174.22</ele>
        <time>2021-08-08T15:38:20Z</time>
      </trkpt>
      <trkpt lat="48.98193" lon="0.06671">
        <ele>174.22</ele>
        <time>2021-08-08T15:38:21Z</time>
      </trkpt>
      <trkpt lat="48.98193" lon="0.06671">
        <ele>174.21</ele>
        <time>2021-08-08T15:38:22Z</time>
      </trkpt>
      <trkpt lat="48.98193" lon="0.06671">
        <ele>174.21</ele>
        <time>2021-08-08T15:38:23Z</time>
      </trkpt>
      <trkpt lat="48.98193" lon="0.06671">
        <ele>174.21</ele>
        <time>2021-08-08T15:38:24Z</time>
      </trkpt>
      <trkpt lat="48.98193" lon="0.06671">
        <ele>174.21</ele>
        <time>2021-08-08T15:38:25Z</time>
      </trkpt>
      <trkpt lat="48.98193" lon="0.06671">
        <ele>174.21</ele>
        <time>2021-08-08T15:38:26Z</time>
      </trkpt>
      <trkpt lat="48.98193" lon="0.06671">
        <ele>174.21</ele>
        <time>2021-08-08T15:38:27Z</time>
      </trkpt>
      <trkpt lat="48.98193" lon="0.06671">
        <ele>174.21</ele>
        <time>2021-08-08T15:38:28Z</time>
      </trkpt>
      <trkpt lat="48.98196" lon="0.06658">
        <ele>174.05</ele>
        <time>2021-08-08T15:38:29Z</time>
      </trkpt>
      <trkpt lat="48.98196" lon="0.06657">
        <ele>174</ele>
        <time>2021-08-08T15:38:30Z</time>
      </trkpt>
      <trkpt lat="48.98197" lon="0.06656">
        <ele>173.98</ele>
        <time>2021-08-08T15:38:31Z</time>
      </trkpt>
      <trkpt lat="48.98197" lon="0.06655">
        <ele>173.97</ele>
        <time>2021-08-08T15:38:32Z</time>
      </trkpt>
      <trkpt lat="48.98197" lon="0.06655">
        <ele>173.96</ele>
        <time>2021-08-08T15:38:33Z</time>
      </trkpt>
      <trkpt lat="48.98197" lon="0.06655">
        <ele>173.96</ele>
        <time>2021-08-08T15:38:34Z</time>
      </trkpt>
      <trkpt lat="48.98197" lon="0.06655">
        <ele>173.96</ele>
        <time>2021-08-08T15:38:35Z</time>
      </trkpt>
      <trkpt lat="48.98197" lon="0.06655">
        <ele>173.96</ele>
        <time>2021-08-08T15:38:36Z</time>
      </trkpt>
      <trkpt lat="48.98197" lon="0.06655">
        <ele>173.96</ele>
        <time>2021-08-08T15:38:37Z</time>
      </trkpt>
      <trkpt lat="48.98197" lon="0.06655">
        <ele>173.96</ele>
        <time>2021-08-08T15:38:38Z</time>
      </trkpt>
      <trkpt lat="48.98197" lon="0.06655">
        <ele>173.96</ele>
        <time>2021-08-08T15:38:39Z</time>
      </trkpt>
      <trkpt lat="48.98197" lon="0.06655">
        <ele>173.96</ele>
        <time>2021-08-08T15:38:40Z</time>
      </trkpt>
      <trkpt lat="48.98197" lon="0.06655">
        <ele>173.96</ele>
        <time>2021-08-08T15:38:41Z</time>
      </trkpt>
      <trkpt lat="48.98197" lon="0.06655">
        <ele>173.96</ele>
        <time>2021-08-08T15:38:42Z</time>
      </trkpt>
      <trkpt lat="48.98196" lon="0.06646">
        <ele>173.97</ele>
        <time>2021-08-08T15:38:43Z</time>
      </trkpt>
      <trkpt lat="48.98196" lon="0.06645">
        <ele>173.96</ele>
        <time>2021-08-08T15:38:44Z</time>
      </trkpt>
      <trkpt lat="48.98196" lon="0.06643">
        <ele>173.96</ele>
        <time>2021-08-08T15:38:45Z</time>
      </trkpt>
      <trkpt lat="48.98195" lon="0.06642">
        <ele>173.97</ele>
        <time>2021-08-08T15:38:46Z</time>
      </trkpt>
      <trkpt lat="48.98195" lon="0.0664">
        <ele>173.98</ele>
        <time>2021-08-08T15:38:47Z</time>
      </trkpt>
      <trkpt lat="48.98194" lon="0.06639">
        <ele>173.98</ele>
        <time>2021-08-08T15:38:48Z</time>
      </trkpt>
      <trkpt lat="48.98194" lon="0.06636">
        <ele>173.93</ele>
        <time>2021-08-08T15:38:49Z</time>
      </trkpt>
      <trkpt lat="48.98194" lon="0.06633">
        <ele>173.85</ele>
        <time>2021-08-08T15:38:50Z</time>
      </trkpt>
      <trkpt lat="48.98194" lon="0.06631">
        <ele>173.77</ele>
        <time>2021-08-08T15:38:51Z</time>
      </trkpt>
      <trkpt lat="48.98193" lon="0.06629">
        <ele>173.7</ele>
        <time>2021-08-08T15:38:52Z</time>
      </trkpt>
      <trkpt lat="48.98193" lon="0.06626">
        <ele>173.62</ele>
        <time>2021-08-08T15:38:53Z</time>
      </trkpt>
      <trkpt lat="48.98193" lon="0.06623">
        <ele>173.49</ele>
        <time>2021-08-08T15:38:54Z</time>
      </trkpt>
      <trkpt lat="48.98193" lon="0.06619">
        <ele>173.35</ele>
        <time>2021-08-08T15:38:55Z</time>
      </trkpt>
      <trkpt lat="48.98192" lon="0.06616">
        <ele>173.23</ele>
        <time>2021-08-08T15:38:56Z</time>
      </trkpt>
      <trkpt lat="48.98191" lon="0.06613">
        <ele>173.12</ele>
        <time>2021-08-08T15:38:57Z</time>
      </trkpt>
      <trkpt lat="48.9819" lon="0.06611">
        <ele>173.04</ele>
        <time>2021-08-08T15:38:58Z</time>
      </trkpt>
      <trkpt lat="48.98192" lon="0.06609">
        <ele>172.9</ele>
        <time>2021-08-08T15:38:59Z</time>
      </trkpt>
      <trkpt lat="48.98193" lon="0.06607">
        <ele>172.76</ele>
        <time>2021-08-08T15:39:00Z</time>
      </trkpt>
      <trkpt lat="48.98194" lon="0.06605">
        <ele>172.61</ele>
        <time>2021-08-08T15:39:01Z</time>
      </trkpt>
      <trkpt lat="48.98196" lon="0.06603">
        <ele>172.43</ele>
        <time>2021-08-08T15:39:02Z</time>
      </trkpt>
      <trkpt lat="48.98198" lon="0.066">
        <ele>172.2</ele>
        <time>2021-08-08T15:39:03Z</time>
      </trkpt>
      <trkpt lat="48.98201" lon="0.06599">
        <ele>171.95</ele>
        <time>2021-08-08T15:39:04Z</time>
      </trkpt>
      <trkpt lat="48.98204" lon="0.06596">
        <ele>171.68</ele>
        <time>2021-08-08T15:39:05Z</time>
      </trkpt>
      <trkpt lat="48.98207" lon="0.06593">
        <ele>171.37</ele>
        <time>2021-08-08T15:39:06Z</time>
      </trkpt>
      <trkpt lat="48.9821" lon="0.06588">
        <ele>170.96</ele>
        <time>2021-08-08T15:39:07Z</time>
      </trkpt>
      <trkpt lat="48.98213" lon="0.06584">
        <ele>170.55</ele>
        <time>2021-08-08T15:39:08Z</time>
      </trkpt>
      <trkpt lat="48.98216" lon="0.0658">
        <ele>170.25</ele>
        <time>2021-08-08T15:39:09Z</time>
      </trkpt>
      <trkpt lat="48.98218" lon="0.06578">
        <ele>170.03</ele>
        <time>2021-08-08T15:39:10Z</time>
      </trkpt>
      <trkpt lat="48.9822" lon="0.06575">
        <ele>169.85</ele>
        <time>2021-08-08T15:39:11Z</time>
      </trkpt>
      <trkpt lat="48.98222" lon="0.06572">
        <ele>169.66</ele>
        <time>2021-08-08T15:39:12Z</time>
      </trkpt>
      <trkpt lat="48.98224" lon="0.06568">
        <ele>169.47</ele>
        <time>2021-08-08T15:39:13Z</time>
      </trkpt>
      <trkpt lat="48.98227" lon="0.06564">
        <ele>169.25</ele>
        <time>2021-08-08T15:39:14Z</time>
      </trkpt>
      <trkpt lat="48.9823" lon="0.06562">
        <ele>169.04</ele>
        <time>2021-08-08T15:39:15Z</time>
      </trkpt>
      <trkpt lat="48.98233" lon="0.06559">
        <ele>168.82</ele>
        <time>2021-08-08T15:39:16Z</time>
      </trkpt>
      <trkpt lat="48.98236" lon="0.06555">
        <ele>168.59</ele>
        <time>2021-08-08T15:39:17Z</time>
      </trkpt>
      <trkpt lat="48.98239" lon="0.06552">
        <ele>168.29</ele>
        <time>2021-08-08T15:39:18Z</time>
      </trkpt>
      <trkpt lat="48.98242" lon="0.06548">
        <ele>167.91</ele>
        <time>2021-08-08T15:39:19Z</time>
      </trkpt>
      <trkpt lat="48.98245" lon="0.06544">
        <ele>167.49</ele>
        <time>2021-08-08T15:39:20Z</time>
      </trkpt>
      <trkpt lat="48.98248" lon="0.06538">
        <ele>167.03</ele>
        <time>2021-08-08T15:39:21Z</time>
      </trkpt>
      <trkpt lat="48.98252" lon="0.06534">
        <ele>166.51</ele>
        <time>2021-08-08T15:39:22Z</time>
      </trkpt>
      <trkpt lat="48.98255" lon="0.06529">
        <ele>165.94</ele>
        <time>2021-08-08T15:39:23Z</time>
      </trkpt>
      <trkpt lat="48.98259" lon="0.06525">
        <ele>165.38</ele>
        <time>2021-08-08T15:39:24Z</time>
      </trkpt>
      <trkpt lat="48.98263" lon="0.06521">
        <ele>164.83</ele>
        <time>2021-08-08T15:39:25Z</time>
      </trkpt>
      <trkpt lat="48.98267" lon="0.06518">
        <ele>164.3</ele>
        <time>2021-08-08T15:39:26Z</time>
      </trkpt>
      <trkpt lat="48.98271" lon="0.06514">
        <ele>163.77</ele>
        <time>2021-08-08T15:39:27Z</time>
      </trkpt>
      <trkpt lat="48.98273" lon="0.06512">
        <ele>163.34</ele>
        <time>2021-08-08T15:39:28Z</time>
      </trkpt>
      <trkpt lat="48.98277" lon="0.06509">
        <ele>162.9</ele>
        <time>2021-08-08T15:39:29Z</time>
      </trkpt>
      <trkpt lat="48.98281" lon="0.06505">
        <ele>162.27</ele>
        <time>2021-08-08T15:39:30Z</time>
      </trkpt>
      <trkpt lat="48.98285" lon="0.06502">
        <ele>161.6</ele>
        <time>2021-08-08T15:39:31Z</time>
      </trkpt>
      <trkpt lat="48.98289" lon="0.06499">
        <ele>160.95</ele>
        <time>2021-08-08T15:39:32Z</time>
      </trkpt>
      <trkpt lat="48.98294" lon="0.06497">
        <ele>160.3</ele>
        <time>2021-08-08T15:39:33Z</time>
      </trkpt>
      <trkpt lat="48.98299" lon="0.06495">
        <ele>159.66</ele>
        <time>2021-08-08T15:39:34Z</time>
      </trkpt>
      <trkpt lat="48.98304" lon="0.06495">
        <ele>159.04</ele>
        <time>2021-08-08T15:39:35Z</time>
      </trkpt>
      <trkpt lat="48.9831" lon="0.06492">
        <ele>158.29</ele>
        <time>2021-08-08T15:39:36Z</time>
      </trkpt>
      <trkpt lat="48.98318" lon="0.06488">
        <ele>157.26</ele>
        <time>2021-08-08T15:39:37Z</time>
      </trkpt>
      <trkpt lat="48.98322" lon="0.06484">
        <ele>156.45</ele>
        <time>2021-08-08T15:39:38Z</time>
      </trkpt>
      <trkpt lat="48.98328" lon="0.06481">
        <ele>155.6</ele>
        <time>2021-08-08T15:39:39Z</time>
      </trkpt>
      <trkpt lat="48.98333" lon="0.06478">
        <ele>154.76</ele>
        <time>2021-08-08T15:39:40Z</time>
      </trkpt>
      <trkpt lat="48.98339" lon="0.06474">
        <ele>153.92</ele>
        <time>2021-08-08T15:39:41Z</time>
      </trkpt>
      <trkpt lat="48.98344" lon="0.06471">
        <ele>153.05</ele>
        <time>2021-08-08T15:39:42Z</time>
      </trkpt>
      <trkpt lat="48.9835" lon="0.06467">
        <ele>152.23</ele>
        <time>2021-08-08T15:39:43Z</time>
      </trkpt>
      <trkpt lat="48.98354" lon="0.06464">
        <ele>151.53</ele>
        <time>2021-08-08T15:39:44Z</time>
      </trkpt>
      <trkpt lat="48.98359" lon="0.06462">
        <ele>150.83</ele>
        <time>2021-08-08T15:39:45Z</time>
      </trkpt>
      <trkpt lat="48.9836" lon="0.0646">
        <ele>150.41</ele>
        <time>2021-08-08T15:39:46Z</time>
      </trkpt>
      <trkpt lat="48.98358" lon="0.06458">
        <ele>150.3</ele>
        <time>2021-08-08T15:39:47Z</time>
      </trkpt>
      <trkpt lat="48.98357" lon="0.06457">
        <ele>150.35</ele>
        <time>2021-08-08T15:39:48Z</time>
      </trkpt>
      <trkpt lat="48.98356" lon="0.06457">
        <ele>150.4</ele>
        <time>2021-08-08T15:39:49Z</time>
      </trkpt>
      <trkpt lat="48.98356" lon="0.06456">
        <ele>150.39</ele>
        <time>2021-08-08T15:39:50Z</time>
      </trkpt>
      <trkpt lat="48.98356" lon="0.06456">
        <ele>150.39</ele>
        <time>2021-08-08T15:39:51Z</time>
      </trkpt>
      <trkpt lat="48.98357" lon="0.06452">
        <ele>150.12</ele>
        <time>2021-08-08T15:39:52Z</time>
      </trkpt>
      <trkpt lat="48.98357" lon="0.0645">
        <ele>149.9</ele>
        <time>2021-08-08T15:39:53Z</time>
      </trkpt>
      <trkpt lat="48.98358" lon="0.06452">
        <ele>149.87</ele>
        <time>2021-08-08T15:39:54Z</time>
      </trkpt>
      <trkpt lat="48.98357" lon="0.06448">
        <ele>149.75</ele>
        <time>2021-08-08T15:39:55Z</time>
      </trkpt>
      <trkpt lat="48.98357" lon="0.06445">
        <ele>149.57</ele>
        <time>2021-08-08T15:39:56Z</time>
      </trkpt>
      <trkpt lat="48.98357" lon="0.06445">
        <ele>149.52</ele>
        <time>2021-08-08T15:39:57Z</time>
      </trkpt>
      <trkpt lat="48.98355" lon="0.06443">
        <ele>149.52</ele>
        <time>2021-08-08T15:39:58Z</time>
      </trkpt>
      <trkpt lat="48.98355" lon="0.06442">
        <ele>149.4</ele>
        <time>2021-08-08T15:39:59Z</time>
      </trkpt>
      <trkpt lat="48.98356" lon="0.0644">
        <ele>149.17</ele>
        <time>2021-08-08T15:40:00Z</time>
      </trkpt>
      <trkpt lat="48.98357" lon="0.06436">
        <ele>148.76</ele>
        <time>2021-08-08T15:40:01Z</time>
      </trkpt>
      <trkpt lat="48.98359" lon="0.06433">
        <ele>148.24</ele>
        <time>2021-08-08T15:40:02Z</time>
      </trkpt>
      <trkpt lat="48.98362" lon="0.06431">
        <ele>147.65</ele>
        <time>2021-08-08T15:40:03Z</time>
      </trkpt>
      <trkpt lat="48.98366" lon="0.06429">
        <ele>147.02</ele>
        <time>2021-08-08T15:40:04Z</time>
      </trkpt>
      <trkpt lat="48.98371" lon="0.06425">
        <ele>146.14</ele>
        <time>2021-08-08T15:40:05Z</time>
      </trkpt>
      <trkpt lat="48.98375" lon="0.0642">
        <ele>145.27</ele>
        <time>2021-08-08T15:40:06Z</time>
      </trkpt>
      <trkpt lat="48.98377" lon="0.06419">
        <ele>144.73</ele>
        <time>2021-08-08T15:40:07Z</time>
      </trkpt>
      <trkpt lat="48.98383" lon="0.06412">
        <ele>143.73</ele>
        <time>2021-08-08T15:40:08Z</time>
      </trkpt>
      <trkpt lat="48.98386" lon="0.06406">
        <ele>142.89</ele>
        <time>2021-08-08T15:40:09Z</time>
      </trkpt>
      <trkpt lat="48.9839" lon="0.06401">
        <ele>142.11</ele>
        <time>2021-08-08T15:40:10Z</time>
      </trkpt>
      <trkpt lat="48.98394" lon="0.06396">
        <ele>141.28</ele>
        <time>2021-08-08T15:40:11Z</time>
      </trkpt>
      <trkpt lat="48.98399" lon="0.06392">
        <ele>140.49</ele>
        <time>2021-08-08T15:40:12Z</time>
      </trkpt>
      <trkpt lat="48.98404" lon="0.06387">
        <ele>139.57</ele>
        <time>2021-08-08T15:40:13Z</time>
      </trkpt>
      <trkpt lat="48.98409" lon="0.06383">
        <ele>138.75</ele>
        <time>2021-08-08T15:40:14Z</time>
      </trkpt>
      <trkpt lat="48.98413" lon="0.06377">
        <ele>137.89</ele>
        <time>2021-08-08T15:40:15Z</time>
      </trkpt>
      <trkpt lat="48.98417" lon="0.06369">
        <ele>136.96</ele>
        <time>2021-08-08T15:40:16Z</time>
      </trkpt>
      <trkpt lat="48.98421" lon="0.0636">
        <ele>136.02</ele>
        <time>2021-08-08T15:40:17Z</time>
      </trkpt>
      <trkpt lat="48.98424" lon="0.06351">
        <ele>135.18</ele>
        <time>2021-08-08T15:40:18Z</time>
      </trkpt>
      <trkpt lat="48.98427" lon="0.06343">
        <ele>134.5</ele>
        <time>2021-08-08T15:40:19Z</time>
      </trkpt>
      <trkpt lat="48.9843" lon="0.06335">
        <ele>133.88</ele>
        <time>2021-08-08T15:40:20Z</time>
      </trkpt>
      <trkpt lat="48.98432" lon="0.06328">
        <ele>133.39</ele>
        <time>2021-08-08T15:40:21Z</time>
      </trkpt>
      <trkpt lat="48.98435" lon="0.0632">
        <ele>132.8</ele>
        <time>2021-08-08T15:40:22Z</time>
      </trkpt>
      <trkpt lat="48.98439" lon="0.06313">
        <ele>132.15</ele>
        <time>2021-08-08T15:40:23Z</time>
      </trkpt>
      <trkpt lat="48.98443" lon="0.06305">
        <ele>131.4</ele>
        <time>2021-08-08T15:40:24Z</time>
      </trkpt>
      <trkpt lat="48.98447" lon="0.06298">
        <ele>130.86</ele>
        <time>2021-08-08T15:40:25Z</time>
      </trkpt>
      <trkpt lat="48.98451" lon="0.06288">
        <ele>130.35</ele>
        <time>2021-08-08T15:40:26Z</time>
      </trkpt>
      <trkpt lat="48.98454" lon="0.06281">
        <ele>129.93</ele>
        <time>2021-08-08T15:40:27Z</time>
      </trkpt>
      <trkpt lat="48.98458" lon="0.06273">
        <ele>129.52</ele>
        <time>2021-08-08T15:40:28Z</time>
      </trkpt>
      <trkpt lat="48.98462" lon="0.06266">
        <ele>129.12</ele>
        <time>2021-08-08T15:40:29Z</time>
      </trkpt>
      <trkpt lat="48.98465" lon="0.06258">
        <ele>128.72</ele>
        <time>2021-08-08T15:40:30Z</time>
      </trkpt>
      <trkpt lat="48.98469" lon="0.0625">
        <ele>128.29</ele>
        <time>2021-08-08T15:40:31Z</time>
      </trkpt>
      <trkpt lat="48.98472" lon="0.06242">
        <ele>127.9</ele>
        <time>2021-08-08T15:40:32Z</time>
      </trkpt>
      <trkpt lat="48.98474" lon="0.06235">
        <ele>127.53</ele>
        <time>2021-08-08T15:40:33Z</time>
      </trkpt>
      <trkpt lat="48.98477" lon="0.06227">
        <ele>127.16</ele>
        <time>2021-08-08T15:40:34Z</time>
      </trkpt>
      <trkpt lat="48.9848" lon="0.0622">
        <ele>126.85</ele>
        <time>2021-08-08T15:40:35Z</time>
      </trkpt>
      <trkpt lat="48.98482" lon="0.06215">
        <ele>126.69</ele>
        <time>2021-08-08T15:40:36Z</time>
      </trkpt>
      <trkpt lat="48.98485" lon="0.06209">
        <ele>126.59</ele>
        <time>2021-08-08T15:40:37Z</time>
      </trkpt>
      <trkpt lat="48.98488" lon="0.06204">
        <ele>126.49</ele>
        <time>2021-08-08T15:40:38Z</time>
      </trkpt>
      <trkpt lat="48.98489" lon="0.06199">
        <ele>126.42</ele>
        <time>2021-08-08T15:40:39Z</time>
      </trkpt>
      <trkpt lat="48.98492" lon="0.06195">
        <ele>126.34</ele>
        <time>2021-08-08T15:40:40Z</time>
      </trkpt>
      <trkpt lat="48.98493" lon="0.0619">
        <ele>126.16</ele>
        <time>2021-08-08T15:40:41Z</time>
      </trkpt>
      <trkpt lat="48.98495" lon="0.06186">
        <ele>125.97</ele>
        <time>2021-08-08T15:40:42Z</time>
      </trkpt>
      <trkpt lat="48.98497" lon="0.06183">
        <ele>125.79</ele>
        <time>2021-08-08T15:40:43Z</time>
      </trkpt>
      <trkpt lat="48.98498" lon="0.0618">
        <ele>125.63</ele>
        <time>2021-08-08T15:40:44Z</time>
      </trkpt>
      <trkpt lat="48.98499" lon="0.06179">
        <ele>125.52</ele>
        <time>2021-08-08T15:40:45Z</time>
      </trkpt>
      <trkpt lat="48.98499" lon="0.06176">
        <ele>125.44</ele>
        <time>2021-08-08T15:40:46Z</time>
      </trkpt>
      <trkpt lat="48.98498" lon="0.06176">
        <ele>125.4</ele>
        <time>2021-08-08T15:40:47Z</time>
      </trkpt>
      <trkpt lat="48.98498" lon="0.06175">
        <ele>125.38</ele>
        <time>2021-08-08T15:40:48Z</time>
      </trkpt>
      <trkpt lat="48.98498" lon="0.06175">
        <ele>125.37</ele>
        <time>2021-08-08T15:40:49Z</time>
      </trkpt>
      <trkpt lat="48.98498" lon="0.06175">
        <ele>125.37</ele>
        <time>2021-08-08T15:40:50Z</time>
      </trkpt>
      <trkpt lat="48.98498" lon="0.06175">
        <ele>125.37</ele>
        <time>2021-08-08T15:40:51Z</time>
      </trkpt>
      <trkpt lat="48.98498" lon="0.06175">
        <ele>125.37</ele>
        <time>2021-08-08T15:40:52Z</time>
      </trkpt>
      <trkpt lat="48.98502" lon="0.06171">
        <ele>125.22</ele>
        <time>2021-08-08T15:40:53Z</time>
      </trkpt>
      <trkpt lat="48.98504" lon="0.06169">
        <ele>125.12</ele>
        <time>2021-08-08T15:40:54Z</time>
      </trkpt>
      <trkpt lat="48.98507" lon="0.06169">
        <ele>125.07</ele>
        <time>2021-08-08T15:40:55Z</time>
      </trkpt>
      <trkpt lat="48.98508" lon="0.06166">
        <ele>125.02</ele>
        <time>2021-08-08T15:40:56Z</time>
      </trkpt>
      <trkpt lat="48.98509" lon="0.06163">
        <ele>125.01</ele>
        <time>2021-08-08T15:40:57Z</time>
      </trkpt>
      <trkpt lat="48.9851" lon="0.06161">
        <ele>125</ele>
        <time>2021-08-08T15:40:58Z</time>
      </trkpt>
      <trkpt lat="48.9851" lon="0.06159">
        <ele>125</ele>
        <time>2021-08-08T15:40:59Z</time>
      </trkpt>
      <trkpt lat="48.98512" lon="0.06157">
        <ele>125</ele>
        <time>2021-08-08T15:41:00Z</time>
      </trkpt>
      <trkpt lat="48.98513" lon="0.06155">
        <ele>125</ele>
        <time>2021-08-08T15:41:01Z</time>
      </trkpt>
      <trkpt lat="48.98514" lon="0.06153">
        <ele>125</ele>
        <time>2021-08-08T15:41:02Z</time>
      </trkpt>
      <trkpt lat="48.98515" lon="0.06151">
        <ele>125</ele>
        <time>2021-08-08T15:41:03Z</time>
      </trkpt>
      <trkpt lat="48.98516" lon="0.06149">
        <ele>125</ele>
        <time>2021-08-08T15:41:04Z</time>
      </trkpt>
      <trkpt lat="48.98517" lon="0.06145">
        <ele>125</ele>
        <time>2021-08-08T15:41:05Z</time>
      </trkpt>
      <trkpt lat="48.98518" lon="0.06142">
        <ele>125</ele>
        <time>2021-08-08T15:41:06Z</time>
      </trkpt>
      <trkpt lat="48.9852" lon="0.06139">
        <ele>125</ele>
        <time>2021-08-08T15:41:07Z</time>
      </trkpt>
      <trkpt lat="48.98521" lon="0.06136">
        <ele>124.95</ele>
        <time>2021-08-08T15:41:08Z</time>
      </trkpt>
      <trkpt lat="48.98522" lon="0.06135">
        <ele>124.91</ele>
        <time>2021-08-08T15:41:09Z</time>
      </trkpt>
      <trkpt lat="48.98522" lon="0.06134">
        <ele>124.87</ele>
        <time>2021-08-08T15:41:10Z</time>
      </trkpt>
      <trkpt lat="48.98524" lon="0.06133">
        <ele>124.83</ele>
        <time>2021-08-08T15:41:11Z</time>
      </trkpt>
      <trkpt lat="48.98525" lon="0.06131">
        <ele>124.78</ele>
        <time>2021-08-08T15:41:12Z</time>
      </trkpt>
      <trkpt lat="48.98526" lon="0.0613">
        <ele>124.72</ele>
        <time>2021-08-08T15:41:13Z</time>
      </trkpt>
      <trkpt lat="48.98526" lon="0.06129">
        <ele>124.68</ele>
        <time>2021-08-08T15:41:14Z</time>
      </trkpt>
      <trkpt lat="48.98526" lon="0.06129">
        <ele>124.66</ele>
        <time>2021-08-08T15:41:15Z</time>
      </trkpt>
      <trkpt lat="48.98526" lon="0.06128">
        <ele>124.65</ele>
        <time>2021-08-08T15:41:16Z</time>
      </trkpt>
      <trkpt lat="48.98526" lon="0.06128">
        <ele>124.64</ele>
        <time>2021-08-08T15:41:17Z</time>
      </trkpt>
      <trkpt lat="48.98526" lon="0.06128">
        <ele>124.64</ele>
        <time>2021-08-08T15:41:18Z</time>
      </trkpt>
      <trkpt lat="48.98526" lon="0.06128">
        <ele>124.64</ele>
        <time>2021-08-08T15:41:19Z</time>
      </trkpt>
      <trkpt lat="48.98526" lon="0.06128">
        <ele>124.64</ele>
        <time>2021-08-08T15:41:20Z</time>
      </trkpt>
      <trkpt lat="48.98526" lon="0.06128">
        <ele>124.64</ele>
        <time>2021-08-08T15:41:21Z</time>
      </trkpt>
      <trkpt lat="48.98526" lon="0.06128">
        <ele>124.64</ele>
        <time>2021-08-08T15:41:22Z</time>
      </trkpt>
      <trkpt lat="48.98526" lon="0.06128">
        <ele>124.64</ele>
        <time>2021-08-08T15:41:23Z</time>
      </trkpt>
      <trkpt lat="48.98526" lon="0.06128">
        <ele>124.64</ele>
        <time>2021-08-08T15:41:24Z</time>
      </trkpt>
      <trkpt lat="48.98525" lon="0.06123">
        <ele>124.54</ele>
        <time>2021-08-08T15:41:25Z</time>
      </trkpt>
      <trkpt lat="48.98525" lon="0.0612">
        <ele>124.43</ele>
        <time>2021-08-08T15:41:26Z</time>
      </trkpt>
      <trkpt lat="48.98525" lon="0.06116">
        <ele>124.3</ele>
        <time>2021-08-08T15:41:27Z</time>
      </trkpt>
      <trkpt lat="48.98525" lon="0.06111">
        <ele>124.17</ele>
        <time>2021-08-08T15:41:28Z</time>
      </trkpt>
      <trkpt lat="48.98525" lon="0.06106">
        <ele>124.23</ele>
        <time>2021-08-08T15:41:29Z</time>
      </trkpt>
      <trkpt lat="48.98525" lon="0.06101">
        <ele>124.36</ele>
        <time>2021-08-08T15:41:30Z</time>
      </trkpt>
      <trkpt lat="48.98525" lon="0.06097">
        <ele>124.5</ele>
        <time>2021-08-08T15:41:31Z</time>
      </trkpt>
      <trkpt lat="48.98525" lon="0.06093">
        <ele>124.63</ele>
        <time>2021-08-08T15:41:32Z</time>
      </trkpt>
      <trkpt lat="48.98525" lon="0.06089">
        <ele>124.75</ele>
        <time>2021-08-08T15:41:33Z</time>
      </trkpt>
      <trkpt lat="48.98526" lon="0.06084">
        <ele>124.9</ele>
        <time>2021-08-08T15:41:34Z</time>
      </trkpt>
      <trkpt lat="48.98526" lon="0.0608">
        <ele>124.97</ele>
        <time>2021-08-08T15:41:35Z</time>
      </trkpt>
      <trkpt lat="48.98526" lon="0.06075">
        <ele>124.99</ele>
        <time>2021-08-08T15:41:36Z</time>
      </trkpt>
      <trkpt lat="48.98526" lon="0.06071">
        <ele>125</ele>
        <time>2021-08-08T15:41:37Z</time>
      </trkpt>
      <trkpt lat="48.98527" lon="0.06067">
        <ele>125</ele>
        <time>2021-08-08T15:41:38Z</time>
      </trkpt>
      <trkpt lat="48.98527" lon="0.06062">
        <ele>125</ele>
        <time>2021-08-08T15:41:39Z</time>
      </trkpt>
      <trkpt lat="48.98527" lon="0.06056">
        <ele>125</ele>
        <time>2021-08-08T15:41:40Z</time>
      </trkpt>
      <trkpt lat="48.98527" lon="0.0605">
        <ele>125.13</ele>
        <time>2021-08-08T15:41:41Z</time>
      </trkpt>
      <trkpt lat="48.98527" lon="0.06045">
        <ele>125.31</ele>
        <time>2021-08-08T15:41:42Z</time>
      </trkpt>
      <trkpt lat="48.98528" lon="0.06039">
        <ele>125.52</ele>
        <time>2021-08-08T15:41:43Z</time>
      </trkpt>
      <trkpt lat="48.98528" lon="0.06032">
        <ele>125.75</ele>
        <time>2021-08-08T15:41:44Z</time>
      </trkpt>
      <trkpt lat="48.98528" lon="0.06025">
        <ele>125.93</ele>
        <time>2021-08-08T15:41:45Z</time>
      </trkpt>
      <trkpt lat="48.98528" lon="0.06019">
        <ele>125.98</ele>
        <time>2021-08-08T15:41:46Z</time>
      </trkpt>
      <trkpt lat="48.98528" lon="0.06013">
        <ele>125.99</ele>
        <time>2021-08-08T15:41:47Z</time>
      </trkpt>
      <trkpt lat="48.98528" lon="0.06007">
        <ele>126</ele>
        <time>2021-08-08T15:41:48Z</time>
      </trkpt>
      <trkpt lat="48.98528" lon="0.06002">
        <ele>126</ele>
        <time>2021-08-08T15:41:49Z</time>
      </trkpt>
      <trkpt lat="48.98528" lon="0.05997">
        <ele>126.08</ele>
        <time>2021-08-08T15:41:50Z</time>
      </trkpt>
      <trkpt lat="48.98528" lon="0.05992">
        <ele>126.22</ele>
        <time>2021-08-08T15:41:51Z</time>
      </trkpt>
      <trkpt lat="48.98527" lon="0.05988">
        <ele>126.36</ele>
        <time>2021-08-08T15:41:52Z</time>
      </trkpt>
      <trkpt lat="48.98527" lon="0.05984">
        <ele>126.5</ele>
        <time>2021-08-08T15:41:53Z</time>
      </trkpt>
      <trkpt lat="48.98527" lon="0.0598">
        <ele>126.65</ele>
        <time>2021-08-08T15:41:54Z</time>
      </trkpt>
      <trkpt lat="48.98526" lon="0.05976">
        <ele>126.79</ele>
        <time>2021-08-08T15:41:55Z</time>
      </trkpt>
      <trkpt lat="48.98525" lon="0.05971">
        <ele>126.96</ele>
        <time>2021-08-08T15:41:56Z</time>
      </trkpt>
      <trkpt lat="48.98524" lon="0.05967">
        <ele>127.12</ele>
        <time>2021-08-08T15:41:57Z</time>
      </trkpt>
      <trkpt lat="48.98522" lon="0.05963">
        <ele>127.28</ele>
        <time>2021-08-08T15:41:58Z</time>
      </trkpt>
      <trkpt lat="48.98521" lon="0.05959">
        <ele>127.41</ele>
        <time>2021-08-08T15:41:59Z</time>
      </trkpt>
      <trkpt lat="48.9852" lon="0.05956">
        <ele>127.52</ele>
        <time>2021-08-08T15:42:00Z</time>
      </trkpt>
      <trkpt lat="48.9852" lon="0.05954">
        <ele>127.62</ele>
        <time>2021-08-08T15:42:01Z</time>
      </trkpt>
      <trkpt lat="48.9852" lon="0.05953">
        <ele>127.66</ele>
        <time>2021-08-08T15:42:02Z</time>
      </trkpt>
      <trkpt lat="48.9852" lon="0.05953">
        <ele>127.68</ele>
        <time>2021-08-08T15:42:03Z</time>
      </trkpt>
      <trkpt lat="48.9852" lon="0.05952">
        <ele>127.71</ele>
        <time>2021-08-08T15:42:04Z</time>
      </trkpt>
      <trkpt lat="48.9852" lon="0.05952">
        <ele>127.72</ele>
        <time>2021-08-08T15:42:05Z</time>
      </trkpt>
      <trkpt lat="48.9852" lon="0.05952">
        <ele>127.72</ele>
        <time>2021-08-08T15:42:06Z</time>
      </trkpt>
      <trkpt lat="48.98516" lon="0.05949">
        <ele>127.8</ele>
        <time>2021-08-08T15:42:07Z</time>
      </trkpt>
      <trkpt lat="48.98515" lon="0.05949">
        <ele>127.82</ele>
        <time>2021-08-08T15:42:08Z</time>
      </trkpt>
      <trkpt lat="48.98514" lon="0.05949">
        <ele>127.85</ele>
        <time>2021-08-08T15:42:09Z</time>
      </trkpt>
      <trkpt lat="48.98512" lon="0.05947">
        <ele>127.88</ele>
        <time>2021-08-08T15:42:10Z</time>
      </trkpt>
      <trkpt lat="48.9851" lon="0.05946">
        <ele>127.91</ele>
        <time>2021-08-08T15:42:11Z</time>
      </trkpt>
      <trkpt lat="48.98508" lon="0.05944">
        <ele>127.98</ele>
        <time>2021-08-08T15:42:12Z</time>
      </trkpt>
      <trkpt lat="48.98506" lon="0.05941">
        <ele>128.09</ele>
        <time>2021-08-08T15:42:13Z</time>
      </trkpt>
      <trkpt lat="48.98504" lon="0.05938">
        <ele>128.18</ele>
        <time>2021-08-08T15:42:14Z</time>
      </trkpt>
      <trkpt lat="48.98503" lon="0.05934">
        <ele>128.31</ele>
        <time>2021-08-08T15:42:15Z</time>
      </trkpt>
      <trkpt lat="48.985" lon="0.05929">
        <ele>128.48</ele>
        <time>2021-08-08T15:42:16Z</time>
      </trkpt>
      <trkpt lat="48.98499" lon="0.05927">
        <ele>128.58</ele>
        <time>2021-08-08T15:42:17Z</time>
      </trkpt>
      <trkpt lat="48.98498" lon="0.05922">
        <ele>128.68</ele>
        <time>2021-08-08T15:42:18Z</time>
      </trkpt>
      <trkpt lat="48.98497" lon="0.05919">
        <ele>128.79</ele>
        <time>2021-08-08T15:42:19Z</time>
      </trkpt>
      <trkpt lat="48.98497" lon="0.05915">
        <ele>128.86</ele>
        <time>2021-08-08T15:42:20Z</time>
      </trkpt>
      <trkpt lat="48.98497" lon="0.05912">
        <ele>128.87</ele>
        <time>2021-08-08T15:42:21Z</time>
      </trkpt>
      <trkpt lat="48.98497" lon="0.05909">
        <ele>128.88</ele>
        <time>2021-08-08T15:42:22Z</time>
      </trkpt>
      <trkpt lat="48.98497" lon="0.05904">
        <ele>128.89</ele>
        <time>2021-08-08T15:42:23Z</time>
      </trkpt>
      <trkpt lat="48.98497" lon="0.059">
        <ele>128.89</ele>
        <time>2021-08-08T15:42:24Z</time>
      </trkpt>
      <trkpt lat="48.98498" lon="0.05895">
        <ele>128.9</ele>
        <time>2021-08-08T15:42:25Z</time>
      </trkpt>
      <trkpt lat="48.98498" lon="0.0589">
        <ele>128.91</ele>
        <time>2021-08-08T15:42:26Z</time>
      </trkpt>
      <trkpt lat="48.98498" lon="0.05886">
        <ele>128.99</ele>
        <time>2021-08-08T15:42:27Z</time>
      </trkpt>
      <trkpt lat="48.98498" lon="0.05883">
        <ele>129.09</ele>
        <time>2021-08-08T15:42:28Z</time>
      </trkpt>
      <trkpt lat="48.98497" lon="0.05878">
        <ele>129.22</ele>
        <time>2021-08-08T15:42:29Z</time>
      </trkpt>
      <trkpt lat="48.98497" lon="0.05874">
        <ele>129.37</ele>
        <time>2021-08-08T15:42:30Z</time>
      </trkpt>
      <trkpt lat="48.98497" lon="0.0587">
        <ele>129.52</ele>
        <time>2021-08-08T15:42:31Z</time>
      </trkpt>
      <trkpt lat="48.98498" lon="0.05867">
        <ele>129.66</ele>
        <time>2021-08-08T15:42:32Z</time>
      </trkpt>
      <trkpt lat="48.98498" lon="0.05863">
        <ele>129.8</ele>
        <time>2021-08-08T15:42:33Z</time>
      </trkpt>
      <trkpt lat="48.98498" lon="0.05859">
        <ele>129.95</ele>
        <time>2021-08-08T15:42:34Z</time>
      </trkpt>
      <trkpt lat="48.98498" lon="0.05855">
        <ele>130.09</ele>
        <time>2021-08-08T15:42:35Z</time>
      </trkpt>
      <trkpt lat="48.98498" lon="0.05851">
        <ele>130.22</ele>
        <time>2021-08-08T15:42:36Z</time>
      </trkpt>
      <trkpt lat="48.98498" lon="0.05847">
        <ele>130.37</ele>
        <time>2021-08-08T15:42:37Z</time>
      </trkpt>
      <trkpt lat="48.98498" lon="0.05841">
        <ele>130.54</ele>
        <time>2021-08-08T15:42:38Z</time>
      </trkpt>
      <trkpt lat="48.98498" lon="0.05837">
        <ele>130.7</ele>
        <time>2021-08-08T15:42:39Z</time>
      </trkpt>
      <trkpt lat="48.98499" lon="0.05832">
        <ele>130.86</ele>
        <time>2021-08-08T15:42:40Z</time>
      </trkpt>
      <trkpt lat="48.98499" lon="0.05828">
        <ele>131.03</ele>
        <time>2021-08-08T15:42:41Z</time>
      </trkpt>
      <trkpt lat="48.98499" lon="0.05823">
        <ele>131.23</ele>
        <time>2021-08-08T15:42:42Z</time>
      </trkpt>
      <trkpt lat="48.985" lon="0.05819">
        <ele>131.44</ele>
        <time>2021-08-08T15:42:43Z</time>
      </trkpt>
      <trkpt lat="48.98501" lon="0.05814">
        <ele>131.61</ele>
        <time>2021-08-08T15:42:44Z</time>
      </trkpt>
      <trkpt lat="48.98502" lon="0.05809">
        <ele>131.8</ele>
        <time>2021-08-08T15:42:45Z</time>
      </trkpt>
      <trkpt lat="48.98502" lon="0.05804">
        <ele>131.99</ele>
        <time>2021-08-08T15:42:46Z</time>
      </trkpt>
      <trkpt lat="48.98502" lon="0.05799">
        <ele>132.16</ele>
        <time>2021-08-08T15:42:47Z</time>
      </trkpt>
      <trkpt lat="48.98503" lon="0.05795">
        <ele>132.32</ele>
        <time>2021-08-08T15:42:48Z</time>
      </trkpt>
      <trkpt lat="48.98504" lon="0.05791">
        <ele>132.46</ele>
        <time>2021-08-08T15:42:49Z</time>
      </trkpt>
      <trkpt lat="48.98503" lon="0.05787">
        <ele>132.6</ele>
        <time>2021-08-08T15:42:50Z</time>
      </trkpt>
      <trkpt lat="48.98503" lon="0.05783">
        <ele>132.75</ele>
        <time>2021-08-08T15:42:51Z</time>
      </trkpt>
      <trkpt lat="48.98504" lon="0.0578">
        <ele>132.88</ele>
        <time>2021-08-08T15:42:52Z</time>
      </trkpt>
      <trkpt lat="48.98504" lon="0.05778">
        <ele>132.96</ele>
        <time>2021-08-08T15:42:53Z</time>
      </trkpt>
      <trkpt lat="48.98504" lon="0.05776">
        <ele>133.05</ele>
        <time>2021-08-08T15:42:54Z</time>
      </trkpt>
      <trkpt lat="48.98503" lon="0.05774">
        <ele>133.12</ele>
        <time>2021-08-08T15:42:55Z</time>
      </trkpt>
      <trkpt lat="48.98504" lon="0.05773">
        <ele>133.18</ele>
        <time>2021-08-08T15:42:56Z</time>
      </trkpt>
      <trkpt lat="48.98504" lon="0.05773">
        <ele>133.2</ele>
        <time>2021-08-08T15:42:57Z</time>
      </trkpt>
      <trkpt lat="48.98504" lon="0.05773">
        <ele>133.21</ele>
        <time>2021-08-08T15:42:58Z</time>
      </trkpt>
      <trkpt lat="48.98504" lon="0.05773">
        <ele>133.21</ele>
        <time>2021-08-08T15:42:59Z</time>
      </trkpt>
      <trkpt lat="48.98504" lon="0.05773">
        <ele>133.21</ele>
        <time>2021-08-08T15:43:00Z</time>
      </trkpt>
      <trkpt lat="48.98504" lon="0.05773">
        <ele>133.21</ele>
        <time>2021-08-08T15:43:01Z</time>
      </trkpt>
      <trkpt lat="48.98504" lon="0.05773">
        <ele>133.21</ele>
        <time>2021-08-08T15:43:02Z</time>
      </trkpt>
      <trkpt lat="48.98504" lon="0.05773">
        <ele>133.21</ele>
        <time>2021-08-08T15:43:03Z</time>
      </trkpt>
      <trkpt lat="48.98504" lon="0.05773">
        <ele>133.21</ele>
        <time>2021-08-08T15:43:04Z</time>
      </trkpt>
      <trkpt lat="48.98504" lon="0.05773">
        <ele>133.21</ele>
        <time>2021-08-08T15:43:05Z</time>
      </trkpt>
      <trkpt lat="48.98504" lon="0.05773">
        <ele>133.21</ele>
        <time>2021-08-08T15:43:06Z</time>
      </trkpt>
      <trkpt lat="48.98506" lon="0.05759">
        <ele>133.64</ele>
        <time>2021-08-08T15:43:07Z</time>
      </trkpt>
      <trkpt lat="48.98506" lon="0.05758">
        <ele>133.8</ele>
        <time>2021-08-08T15:43:08Z</time>
      </trkpt>
      <trkpt lat="48.98506" lon="0.05757">
        <ele>133.89</ele>
        <time>2021-08-08T15:43:09Z</time>
      </trkpt>
      <trkpt lat="48.98506" lon="0.05755">
        <ele>133.98</ele>
        <time>2021-08-08T15:43:10Z</time>
      </trkpt>
      <trkpt lat="48.98506" lon="0.05755">
        <ele>134</ele>
        <time>2021-08-08T15:43:11Z</time>
      </trkpt>
      <trkpt lat="48.98506" lon="0.05755">
        <ele>134.01</ele>
        <time>2021-08-08T15:43:12Z</time>
      </trkpt>
      <trkpt lat="48.98506" lon="0.05755">
        <ele>134.01</ele>
        <time>2021-08-08T15:43:13Z</time>
      </trkpt>
      <trkpt lat="48.98508" lon="0.05747">
        <ele>134.26</ele>
        <time>2021-08-08T15:43:14Z</time>
      </trkpt>
      <trkpt lat="48.98508" lon="0.05746">
        <ele>134.38</ele>
        <time>2021-08-08T15:43:15Z</time>
      </trkpt>
      <trkpt lat="48.98508" lon="0.05743">
        <ele>134.49</ele>
        <time>2021-08-08T15:43:17Z</time>
      </trkpt>
      <trkpt lat="48.98508" lon="0.05743">
        <ele>134.52</ele>
        <time>2021-08-08T15:43:18Z</time>
      </trkpt>
      <trkpt lat="48.98508" lon="0.05743">
        <ele>134.53</ele>
        <time>2021-08-08T15:43:19Z</time>
      </trkpt>
      <trkpt lat="48.98508" lon="0.05743">
        <ele>134.53</ele>
        <time>2021-08-08T15:43:20Z</time>
      </trkpt>
      <trkpt lat="48.98508" lon="0.05743">
        <ele>134.53</ele>
        <time>2021-08-08T15:43:21Z</time>
      </trkpt>
      <trkpt lat="48.98508" lon="0.05743">
        <ele>134.53</ele>
        <time>2021-08-08T15:43:22Z</time>
      </trkpt>
      <trkpt lat="48.98508" lon="0.05733">
        <ele>134.8</ele>
        <time>2021-08-08T15:43:23Z</time>
      </trkpt>
      <trkpt lat="48.98508" lon="0.05731">
        <ele>134.93</ele>
        <time>2021-08-08T15:43:24Z</time>
      </trkpt>
      <trkpt lat="48.98508" lon="0.05728">
        <ele>135.04</ele>
        <time>2021-08-08T15:43:25Z</time>
      </trkpt>
      <trkpt lat="48.98508" lon="0.05727">
        <ele>135.08</ele>
        <time>2021-08-08T15:43:26Z</time>
      </trkpt>
      <trkpt lat="48.98508" lon="0.05726">
        <ele>135.13</ele>
        <time>2021-08-08T15:43:27Z</time>
      </trkpt>
      <trkpt lat="48.98508" lon="0.05726">
        <ele>135.14</ele>
        <time>2021-08-08T15:43:28Z</time>
      </trkpt>
      <trkpt lat="48.98508" lon="0.05726">
        <ele>135.14</ele>
        <time>2021-08-08T15:43:29Z</time>
      </trkpt>
      <trkpt lat="48.98508" lon="0.05726">
        <ele>135.15</ele>
        <time>2021-08-08T15:43:30Z</time>
      </trkpt>
      <trkpt lat="48.98508" lon="0.05726">
        <ele>135.15</ele>
        <time>2021-08-08T15:43:31Z</time>
      </trkpt>
      <trkpt lat="48.98508" lon="0.05726">
        <ele>135.15</ele>
        <time>2021-08-08T15:43:32Z</time>
      </trkpt>
      <trkpt lat="48.98508" lon="0.05726">
        <ele>135.15</ele>
        <time>2021-08-08T15:43:33Z</time>
      </trkpt>
      <trkpt lat="48.98508" lon="0.05726">
        <ele>135.15</ele>
        <time>2021-08-08T15:43:34Z</time>
      </trkpt>
      <trkpt lat="48.98508" lon="0.05726">
        <ele>135.15</ele>
        <time>2021-08-08T15:43:35Z</time>
      </trkpt>
      <trkpt lat="48.98508" lon="0.05726">
        <ele>135.15</ele>
        <time>2021-08-08T15:43:36Z</time>
      </trkpt>
      <trkpt lat="48.98509" lon="0.05711">
        <ele>135.55</ele>
        <time>2021-08-08T15:43:37Z</time>
      </trkpt>
      <trkpt lat="48.98509" lon="0.0571">
        <ele>135.69</ele>
        <time>2021-08-08T15:43:38Z</time>
      </trkpt>
      <trkpt lat="48.98509" lon="0.05708">
        <ele>135.79</ele>
        <time>2021-08-08T15:43:39Z</time>
      </trkpt>
      <trkpt lat="48.98509" lon="0.05707">
        <ele>135.85</ele>
        <time>2021-08-08T15:43:40Z</time>
      </trkpt>
      <trkpt lat="48.98509" lon="0.05707">
        <ele>135.88</ele>
        <time>2021-08-08T15:43:41Z</time>
      </trkpt>
      <trkpt lat="48.98509" lon="0.05707">
        <ele>135.88</ele>
        <time>2021-08-08T15:43:42Z</time>
      </trkpt>
      <trkpt lat="48.98509" lon="0.05707">
        <ele>135.88</ele>
        <time>2021-08-08T15:43:43Z</time>
      </trkpt>
      <trkpt lat="48.98509" lon="0.05707">
        <ele>135.88</ele>
        <time>2021-08-08T15:43:44Z</time>
      </trkpt>
      <trkpt lat="48.98509" lon="0.05707">
        <ele>135.88</ele>
        <time>2021-08-08T15:43:45Z</time>
      </trkpt>
      <trkpt lat="48.98509" lon="0.05707">
        <ele>135.88</ele>
        <time>2021-08-08T15:43:46Z</time>
      </trkpt>
      <trkpt lat="48.98509" lon="0.05707">
        <ele>135.88</ele>
        <time>2021-08-08T15:43:47Z</time>
      </trkpt>
      <trkpt lat="48.98509" lon="0.05707">
        <ele>135.88</ele>
        <time>2021-08-08T15:43:48Z</time>
      </trkpt>
      <trkpt lat="48.98509" lon="0.05707">
        <ele>135.88</ele>
        <time>2021-08-08T15:43:49Z</time>
      </trkpt>
      <trkpt lat="48.98509" lon="0.05707">
        <ele>135.88</ele>
        <time>2021-08-08T15:43:50Z</time>
      </trkpt>
      <trkpt lat="48.98509" lon="0.05707">
        <ele>135.88</ele>
        <time>2021-08-08T15:43:51Z</time>
      </trkpt>
      <trkpt lat="48.98509" lon="0.05707">
        <ele>135.88</ele>
        <time>2021-08-08T15:43:52Z</time>
      </trkpt>
      <trkpt lat="48.98509" lon="0.05707">
        <ele>135.88</ele>
        <time>2021-08-08T15:43:53Z</time>
      </trkpt>
      <trkpt lat="48.98509" lon="0.05707">
        <ele>135.88</ele>
        <time>2021-08-08T15:43:54Z</time>
      </trkpt>
      <trkpt lat="48.98509" lon="0.05707">
        <ele>135.88</ele>
        <time>2021-08-08T15:43:55Z</time>
      </trkpt>
      <trkpt lat="48.98511" lon="0.05693">
        <ele>136.34</ele>
        <time>2021-08-08T15:43:56Z</time>
      </trkpt>
      <trkpt lat="48.98511" lon="0.05693">
        <ele>136.43</ele>
        <time>2021-08-08T15:43:57Z</time>
      </trkpt>
      <trkpt lat="48.98511" lon="0.05693">
        <ele>136.46</ele>
        <time>2021-08-08T15:43:58Z</time>
      </trkpt>
      <trkpt lat="48.98511" lon="0.05693">
        <ele>136.5</ele>
        <time>2021-08-08T15:43:59Z</time>
      </trkpt>
      <trkpt lat="48.98511" lon="0.05693">
        <ele>136.51</ele>
        <time>2021-08-08T15:44:00Z</time>
      </trkpt>
      <trkpt lat="48.98511" lon="0.05693">
        <ele>136.52</ele>
        <time>2021-08-08T15:44:01Z</time>
      </trkpt>
      <trkpt lat="48.98511" lon="0.05693">
        <ele>136.52</ele>
        <time>2021-08-08T15:44:02Z</time>
      </trkpt>
      <trkpt lat="48.98511" lon="0.05693">
        <ele>136.52</ele>
        <time>2021-08-08T15:44:03Z</time>
      </trkpt>
      <trkpt lat="48.98511" lon="0.05693">
        <ele>136.52</ele>
        <time>2021-08-08T15:44:04Z</time>
      </trkpt>
      <trkpt lat="48.98511" lon="0.05693">
        <ele>136.52</ele>
        <time>2021-08-08T15:44:05Z</time>
      </trkpt>
      <trkpt lat="48.98511" lon="0.05693">
        <ele>136.52</ele>
        <time>2021-08-08T15:44:06Z</time>
      </trkpt>
      <trkpt lat="48.98511" lon="0.05693">
        <ele>136.52</ele>
        <time>2021-08-08T15:44:07Z</time>
      </trkpt>
      <trkpt lat="48.98511" lon="0.05693">
        <ele>136.52</ele>
        <time>2021-08-08T15:44:08Z</time>
      </trkpt>
      <trkpt lat="48.98511" lon="0.05693">
        <ele>136.52</ele>
        <time>2021-08-08T15:44:09Z</time>
      </trkpt>
      <trkpt lat="48.98511" lon="0.05693">
        <ele>136.52</ele>
        <time>2021-08-08T15:44:10Z</time>
      </trkpt>
      <trkpt lat="48.98511" lon="0.05693">
        <ele>136.52</ele>
        <time>2021-08-08T15:44:11Z</time>
      </trkpt>
      <trkpt lat="48.98511" lon="0.05693">
        <ele>136.52</ele>
        <time>2021-08-08T15:44:12Z</time>
      </trkpt>
      <trkpt lat="48.98511" lon="0.05693">
        <ele>136.52</ele>
        <time>2021-08-08T15:44:13Z</time>
      </trkpt>
      <trkpt lat="48.98511" lon="0.05693">
        <ele>136.52</ele>
        <time>2021-08-08T15:44:14Z</time>
      </trkpt>
      <trkpt lat="48.98511" lon="0.05693">
        <ele>136.52</ele>
        <time>2021-08-08T15:44:15Z</time>
      </trkpt>
      <trkpt lat="48.98511" lon="0.05693">
        <ele>136.52</ele>
        <time>2021-08-08T15:44:16Z</time>
      </trkpt>
      <trkpt lat="48.98511" lon="0.05693">
        <ele>136.52</ele>
        <time>2021-08-08T15:44:17Z</time>
      </trkpt>
      <trkpt lat="48.98511" lon="0.05693">
        <ele>136.52</ele>
        <time>2021-08-08T15:44:18Z</time>
      </trkpt>
      <trkpt lat="48.98511" lon="0.05693">
        <ele>136.52</ele>
        <time>2021-08-08T15:44:19Z</time>
      </trkpt>
      <trkpt lat="48.98511" lon="0.05693">
        <ele>136.52</ele>
        <time>2021-08-08T15:44:20Z</time>
      </trkpt>
      <trkpt lat="48.98511" lon="0.05693">
        <ele>136.52</ele>
        <time>2021-08-08T15:44:21Z</time>
      </trkpt>
      <trkpt lat="48.98511" lon="0.05693">
        <ele>136.52</ele>
        <time>2021-08-08T15:44:22Z</time>
      </trkpt>
      <trkpt lat="48.98519" lon="0.05687">
        <ele>137.02</ele>
        <time>2021-08-08T15:44:23Z</time>
      </trkpt>
      <trkpt lat="48.98519" lon="0.05688">
        <ele>137.13</ele>
        <time>2021-08-08T15:44:24Z</time>
      </trkpt>
      <trkpt lat="48.98519" lon="0.05687">
        <ele>137.2</ele>
        <time>2021-08-08T15:44:25Z</time>
      </trkpt>
      <trkpt lat="48.98519" lon="0.05687">
        <ele>137.21</ele>
        <time>2021-08-08T15:44:26Z</time>
      </trkpt>
      <trkpt lat="48.98519" lon="0.05687">
        <ele>137.21</ele>
        <time>2021-08-08T15:44:27Z</time>
      </trkpt>
      <trkpt lat="48.98519" lon="0.05687">
        <ele>137.21</ele>
        <time>2021-08-08T15:44:28Z</time>
      </trkpt>
      <trkpt lat="48.98519" lon="0.05687">
        <ele>137.21</ele>
        <time>2021-08-08T15:44:29Z</time>
      </trkpt>
      <trkpt lat="48.98519" lon="0.05687">
        <ele>137.21</ele>
        <time>2021-08-08T15:44:30Z</time>
      </trkpt>
      <trkpt lat="48.98519" lon="0.05687">
        <ele>137.21</ele>
        <time>2021-08-08T15:44:31Z</time>
      </trkpt>
      <trkpt lat="48.98519" lon="0.05687">
        <ele>137.21</ele>
        <time>2021-08-08T15:44:32Z</time>
      </trkpt>
      <trkpt lat="48.98519" lon="0.05687">
        <ele>137.21</ele>
        <time>2021-08-08T15:44:33Z</time>
      </trkpt>
      <trkpt lat="48.98519" lon="0.05687">
        <ele>137.21</ele>
        <time>2021-08-08T15:44:34Z</time>
      </trkpt>
      <trkpt lat="48.98519" lon="0.05687">
        <ele>137.21</ele>
        <time>2021-08-08T15:44:35Z</time>
      </trkpt>
      <trkpt lat="48.98519" lon="0.05687">
        <ele>137.21</ele>
        <time>2021-08-08T15:44:36Z</time>
      </trkpt>
      <trkpt lat="48.98519" lon="0.05687">
        <ele>137.21</ele>
        <time>2021-08-08T15:44:37Z</time>
      </trkpt>
      <trkpt lat="48.98519" lon="0.05687">
        <ele>137.21</ele>
        <time>2021-08-08T15:44:38Z</time>
      </trkpt>
      <trkpt lat="48.98519" lon="0.05687">
        <ele>137.21</ele>
        <time>2021-08-08T15:44:39Z</time>
      </trkpt>
      <trkpt lat="48.98519" lon="0.05687">
        <ele>137.21</ele>
        <time>2021-08-08T15:44:40Z</time>
      </trkpt>
      <trkpt lat="48.98519" lon="0.05687">
        <ele>137.21</ele>
        <time>2021-08-08T15:44:41Z</time>
      </trkpt>
      <trkpt lat="48.98519" lon="0.05687">
        <ele>137.21</ele>
        <time>2021-08-08T15:44:42Z</time>
      </trkpt>
      <trkpt lat="48.98519" lon="0.05687">
        <ele>137.21</ele>
        <time>2021-08-08T15:44:43Z</time>
      </trkpt>
      <trkpt lat="48.98519" lon="0.05687">
        <ele>137.21</ele>
        <time>2021-08-08T15:44:44Z</time>
      </trkpt>
      <trkpt lat="48.98519" lon="0.05687">
        <ele>137.21</ele>
        <time>2021-08-08T15:44:45Z</time>
      </trkpt>
      <trkpt lat="48.98519" lon="0.05687">
        <ele>137.21</ele>
        <time>2021-08-08T15:44:46Z</time>
      </trkpt>
      <trkpt lat="48.98519" lon="0.05687">
        <ele>137.21</ele>
        <time>2021-08-08T15:44:47Z</time>
      </trkpt>
      <trkpt lat="48.98519" lon="0.05687">
        <ele>137.21</ele>
        <time>2021-08-08T15:44:48Z</time>
      </trkpt>
      <trkpt lat="48.98519" lon="0.05687">
        <ele>137.21</ele>
        <time>2021-08-08T15:44:49Z</time>
      </trkpt>
      <trkpt lat="48.98519" lon="0.05687">
        <ele>137.21</ele>
        <time>2021-08-08T15:44:50Z</time>
      </trkpt>
      <trkpt lat="48.98519" lon="0.05687">
        <ele>137.21</ele>
        <time>2021-08-08T15:44:51Z</time>
      </trkpt>
      <trkpt lat="48.98519" lon="0.05687">
        <ele>137.21</ele>
        <time>2021-08-08T15:44:52Z</time>
      </trkpt>
      <trkpt lat="48.98519" lon="0.05687">
        <ele>137.21</ele>
        <time>2021-08-08T15:44:53Z</time>
      </trkpt>
      <trkpt lat="48.98519" lon="0.05687">
        <ele>137.21</ele>
        <time>2021-08-08T15:44:54Z</time>
      </trkpt>
      <trkpt lat="48.98519" lon="0.05687">
        <ele>137.21</ele>
        <time>2021-08-08T15:44:55Z</time>
      </trkpt>
      <trkpt lat="48.98519" lon="0.05687">
        <ele>137.21</ele>
        <time>2021-08-08T15:44:56Z</time>
      </trkpt>
      <trkpt lat="48.98519" lon="0.05687">
        <ele>137.21</ele>
        <time>2021-08-08T15:44:57Z</time>
      </trkpt>
      <trkpt lat="48.98519" lon="0.05687">
        <ele>137.21</ele>
        <time>2021-08-08T15:44:58Z</time>
      </trkpt>
      <trkpt lat="48.98519" lon="0.05687">
        <ele>137.21</ele>
        <time>2021-08-08T15:44:59Z</time>
      </trkpt>
      <trkpt lat="48.98519" lon="0.05687">
        <ele>137.21</ele>
        <time>2021-08-08T15:45:00Z</time>
      </trkpt>
      <trkpt lat="48.98519" lon="0.05687">
        <ele>137.21</ele>
        <time>2021-08-08T15:45:01Z</time>
      </trkpt>
      <trkpt lat="48.98519" lon="0.05687">
        <ele>137.21</ele>
        <time>2021-08-08T15:45:02Z</time>
      </trkpt>
      <trkpt lat="48.98519" lon="0.05687">
        <ele>137.21</ele>
        <time>2021-08-08T15:45:03Z</time>
      </trkpt>
      <trkpt lat="48.98519" lon="0.05687">
        <ele>137.21</ele>
        <time>2021-08-08T15:45:04Z</time>
      </trkpt>
      <trkpt lat="48.98519" lon="0.05687">
        <ele>137.21</ele>
        <time>2021-08-08T15:45:05Z</time>
      </trkpt>
      <trkpt lat="48.98519" lon="0.05687">
        <ele>137.21</ele>
        <time>2021-08-08T15:45:06Z</time>
      </trkpt>
      <trkpt lat="48.98519" lon="0.05687">
        <ele>137.21</ele>
        <time>2021-08-08T15:45:07Z</time>
      </trkpt>
      <trkpt lat="48.98519" lon="0.05687">
        <ele>137.21</ele>
        <time>2021-08-08T15:45:08Z</time>
      </trkpt>
      <trkpt lat="48.98519" lon="0.05687">
        <ele>137.21</ele>
        <time>2021-08-08T15:45:09Z</time>
      </trkpt>
      <trkpt lat="48.98519" lon="0.05687">
        <ele>137.21</ele>
        <time>2021-08-08T15:45:10Z</time>
      </trkpt>
      <trkpt lat="48.98519" lon="0.05687">
        <ele>137.21</ele>
        <time>2021-08-08T15:45:11Z</time>
      </trkpt>
      <trkpt lat="48.98519" lon="0.05687">
        <ele>137.21</ele>
        <time>2021-08-08T15:45:12Z</time>
      </trkpt>
      <trkpt lat="48.98519" lon="0.05687">
        <ele>137.21</ele>
        <time>2021-08-08T15:45:13Z</time>
      </trkpt>
      <trkpt lat="48.98519" lon="0.05687">
        <ele>137.21</ele>
        <time>2021-08-08T15:45:14Z</time>
      </trkpt>
      <trkpt lat="48.98519" lon="0.05687">
        <ele>137.21</ele>
        <time>2021-08-08T15:45:15Z</time>
      </trkpt>
      <trkpt lat="48.98519" lon="0.05687">
        <ele>137.21</ele>
        <time>2021-08-08T15:45:16Z</time>
      </trkpt>
      <trkpt lat="48.98519" lon="0.05687">
        <ele>137.21</ele>
        <time>2021-08-08T15:45:17Z</time>
      </trkpt>
      <trkpt lat="48.98519" lon="0.05687">
        <ele>137.21</ele>
        <time>2021-08-08T15:45:18Z</time>
      </trkpt>
      <trkpt lat="48.98519" lon="0.05687">
        <ele>137.21</ele>
        <time>2021-08-08T15:45:19Z</time>
      </trkpt>
      <trkpt lat="48.98519" lon="0.05687">
        <ele>137.21</ele>
        <time>2021-08-08T15:45:20Z</time>
      </trkpt>
      <trkpt lat="48.98519" lon="0.05687">
        <ele>137.21</ele>
        <time>2021-08-08T15:45:21Z</time>
      </trkpt>
      <trkpt lat="48.98519" lon="0.05687">
        <ele>137.21</ele>
        <time>2021-08-08T15:45:22Z</time>
      </trkpt>
      <trkpt lat="48.98519" lon="0.05687">
        <ele>137.21</ele>
        <time>2021-08-08T15:45:23Z</time>
      </trkpt>
      <trkpt lat="48.98519" lon="0.05687">
        <ele>137.21</ele>
        <time>2021-08-08T15:45:24Z</time>
      </trkpt>
      <trkpt lat="48.98519" lon="0.05687">
        <ele>137.21</ele>
        <time>2021-08-08T15:45:25Z</time>
      </trkpt>
      <trkpt lat="48.98519" lon="0.05687">
        <ele>137.21</ele>
        <time>2021-08-08T15:45:26Z</time>
      </trkpt>
      <trkpt lat="48.98519" lon="0.05687">
        <ele>137.21</ele>
        <time>2021-08-08T15:45:27Z</time>
      </trkpt>
      <trkpt lat="48.98519" lon="0.05687">
        <ele>137.21</ele>
        <time>2021-08-08T15:45:28Z</time>
      </trkpt>
      <trkpt lat="48.98519" lon="0.05687">
        <ele>137.21</ele>
        <time>2021-08-08T15:45:29Z</time>
      </trkpt>
      <trkpt lat="48.98519" lon="0.05687">
        <ele>137.21</ele>
        <time>2021-08-08T15:45:30Z</time>
      </trkpt>
      <trkpt lat="48.98519" lon="0.05687">
        <ele>137.21</ele>
        <time>2021-08-08T15:45:31Z</time>
      </trkpt>
      <trkpt lat="48.98519" lon="0.05687">
        <ele>137.21</ele>
        <time>2021-08-08T15:45:32Z</time>
      </trkpt>
      <trkpt lat="48.98519" lon="0.05687">
        <ele>137.21</ele>
        <time>2021-08-08T15:45:33Z</time>
      </trkpt>
      <trkpt lat="48.98519" lon="0.05687">
        <ele>137.21</ele>
        <time>2021-08-08T15:45:34Z</time>
      </trkpt>
      <trkpt lat="48.98519" lon="0.05687">
        <ele>137.21</ele>
        <time>2021-08-08T15:45:35Z</time>
      </trkpt>
      <trkpt lat="48.98519" lon="0.05687">
        <ele>137.21</ele>
        <time>2021-08-08T15:45:36Z</time>
      </trkpt>
      <trkpt lat="48.98519" lon="0.05687">
        <ele>137.21</ele>
        <time>2021-08-08T15:45:37Z</time>
      </trkpt>
      <trkpt lat="48.98513" lon="0.05682">
        <ele>137.33</ele>
        <time>2021-08-08T15:45:38Z</time>
      </trkpt>
      <trkpt lat="48.98514" lon="0.0568">
        <ele>137.5</ele>
        <time>2021-08-08T15:45:39Z</time>
      </trkpt>
      <trkpt lat="48.98513" lon="0.05677">
        <ele>137.64</ele>
        <time>2021-08-08T15:45:40Z</time>
      </trkpt>
      <trkpt lat="48.98513" lon="0.05676">
        <ele>137.75</ele>
        <time>2021-08-08T15:45:41Z</time>
      </trkpt>
      <trkpt lat="48.98513" lon="0.05675">
        <ele>137.84</ele>
        <time>2021-08-08T15:45:42Z</time>
      </trkpt>
      <trkpt lat="48.98513" lon="0.05674">
        <ele>137.9</ele>
        <time>2021-08-08T15:45:43Z</time>
      </trkpt>
      <trkpt lat="48.98513" lon="0.05674">
        <ele>137.95</ele>
        <time>2021-08-08T15:45:44Z</time>
      </trkpt>
      <trkpt lat="48.98513" lon="0.05674">
        <ele>137.97</ele>
        <time>2021-08-08T15:45:45Z</time>
      </trkpt>
      <trkpt lat="48.98513" lon="0.05674">
        <ele>137.97</ele>
        <time>2021-08-08T15:45:46Z</time>
      </trkpt>
      <trkpt lat="48.98513" lon="0.05674">
        <ele>137.98</ele>
        <time>2021-08-08T15:45:47Z</time>
      </trkpt>
      <trkpt lat="48.98513" lon="0.05674">
        <ele>137.98</ele>
        <time>2021-08-08T15:45:48Z</time>
      </trkpt>
      <trkpt lat="48.98513" lon="0.05674">
        <ele>137.98</ele>
        <time>2021-08-08T15:45:49Z</time>
      </trkpt>
      <trkpt lat="48.98513" lon="0.05674">
        <ele>137.98</ele>
        <time>2021-08-08T15:45:50Z</time>
      </trkpt>
      <trkpt lat="48.98513" lon="0.05674">
        <ele>137.98</ele>
        <time>2021-08-08T15:45:51Z</time>
      </trkpt>
      <trkpt lat="48.98513" lon="0.05674">
        <ele>137.98</ele>
        <time>2021-08-08T15:45:52Z</time>
      </trkpt>
      <trkpt lat="48.98513" lon="0.05674">
        <ele>137.98</ele>
        <time>2021-08-08T15:45:53Z</time>
      </trkpt>
      <trkpt lat="48.98513" lon="0.05674">
        <ele>137.98</ele>
        <time>2021-08-08T15:45:54Z</time>
      </trkpt>
      <trkpt lat="48.98513" lon="0.05674">
        <ele>137.98</ele>
        <time>2021-08-08T15:45:55Z</time>
      </trkpt>
      <trkpt lat="48.98513" lon="0.05674">
        <ele>137.98</ele>
        <time>2021-08-08T15:45:56Z</time>
      </trkpt>
      <trkpt lat="48.98514" lon="0.05659">
        <ele>138.75</ele>
        <time>2021-08-08T15:45:57Z</time>
      </trkpt>
      <trkpt lat="48.98514" lon="0.05657">
        <ele>139.07</ele>
        <time>2021-08-08T15:45:58Z</time>
      </trkpt>
      <trkpt lat="48.98514" lon="0.05655">
        <ele>139.25</ele>
        <time>2021-08-08T15:45:59Z</time>
      </trkpt>
      <trkpt lat="48.98515" lon="0.05654">
        <ele>139.4</ele>
        <time>2021-08-08T15:46:00Z</time>
      </trkpt>
      <trkpt lat="48.98515" lon="0.05653">
        <ele>139.5</ele>
        <time>2021-08-08T15:46:01Z</time>
      </trkpt>
      <trkpt lat="48.98515" lon="0.05651">
        <ele>139.61</ele>
        <time>2021-08-08T15:46:02Z</time>
      </trkpt>
      <trkpt lat="48.98515" lon="0.0565">
        <ele>139.72</ele>
        <time>2021-08-08T15:46:03Z</time>
      </trkpt>
      <trkpt lat="48.98515" lon="0.05648">
        <ele>139.86</ele>
        <time>2021-08-08T15:46:04Z</time>
      </trkpt>
      <trkpt lat="48.98516" lon="0.05648">
        <ele>139.92</ele>
        <time>2021-08-08T15:46:05Z</time>
      </trkpt>
      <trkpt lat="48.98516" lon="0.05647">
        <ele>139.97</ele>
        <time>2021-08-08T15:46:06Z</time>
      </trkpt>
      <trkpt lat="48.98516" lon="0.05646">
        <ele>140.01</ele>
        <time>2021-08-08T15:46:07Z</time>
      </trkpt>
      <trkpt lat="48.98515" lon="0.05646">
        <ele>140.04</ele>
        <time>2021-08-08T15:46:08Z</time>
      </trkpt>
      <trkpt lat="48.98515" lon="0.05646">
        <ele>140.05</ele>
        <time>2021-08-08T15:46:09Z</time>
      </trkpt>
      <trkpt lat="48.98515" lon="0.05646">
        <ele>140.06</ele>
        <time>2021-08-08T15:46:10Z</time>
      </trkpt>
      <trkpt lat="48.98515" lon="0.05646">
        <ele>140.06</ele>
        <time>2021-08-08T15:46:11Z</time>
      </trkpt>
      <trkpt lat="48.98515" lon="0.05646">
        <ele>140.06</ele>
        <time>2021-08-08T15:46:12Z</time>
      </trkpt>
      <trkpt lat="48.98515" lon="0.05646">
        <ele>140.06</ele>
        <time>2021-08-08T15:46:13Z</time>
      </trkpt>
      <trkpt lat="48.98515" lon="0.05646">
        <ele>140.06</ele>
        <time>2021-08-08T15:46:14Z</time>
      </trkpt>
      <trkpt lat="48.98515" lon="0.05646">
        <ele>140.06</ele>
        <time>2021-08-08T15:46:15Z</time>
      </trkpt>
      <trkpt lat="48.98515" lon="0.05646">
        <ele>140.06</ele>
        <time>2021-08-08T15:46:16Z</time>
      </trkpt>
      <trkpt lat="48.9852" lon="0.05633">
        <ele>140.77</ele>
        <time>2021-08-08T15:46:17Z</time>
      </trkpt>
      <trkpt lat="48.98521" lon="0.05631">
        <ele>141.11</ele>
        <time>2021-08-08T15:46:18Z</time>
      </trkpt>
      <trkpt lat="48.98522" lon="0.0563">
        <ele>141.32</ele>
        <time>2021-08-08T15:46:19Z</time>
      </trkpt>
      <trkpt lat="48.98523" lon="0.05628">
        <ele>141.48</ele>
        <time>2021-08-08T15:46:20Z</time>
      </trkpt>
      <trkpt lat="48.98525" lon="0.05627">
        <ele>141.61</ele>
        <time>2021-08-08T15:46:21Z</time>
      </trkpt>
      <trkpt lat="48.98526" lon="0.05626">
        <ele>141.76</ele>
        <time>2021-08-08T15:46:22Z</time>
      </trkpt>
      <trkpt lat="48.98527" lon="0.05625">
        <ele>141.92</ele>
        <time>2021-08-08T15:46:23Z</time>
      </trkpt>
      <trkpt lat="48.98528" lon="0.05623">
        <ele>142.1</ele>
        <time>2021-08-08T15:46:24Z</time>
      </trkpt>
      <trkpt lat="48.9853" lon="0.05622">
        <ele>142.28</ele>
        <time>2021-08-08T15:46:25Z</time>
      </trkpt>
      <trkpt lat="48.98531" lon="0.05621">
        <ele>142.47</ele>
        <time>2021-08-08T15:46:26Z</time>
      </trkpt>
      <trkpt lat="48.98532" lon="0.05619">
        <ele>142.65</ele>
        <time>2021-08-08T15:46:27Z</time>
      </trkpt>
      <trkpt lat="48.98534" lon="0.05619">
        <ele>142.79</ele>
        <time>2021-08-08T15:46:28Z</time>
      </trkpt>
      <trkpt lat="48.98535" lon="0.05618">
        <ele>142.94</ele>
        <time>2021-08-08T15:46:29Z</time>
      </trkpt>
      <trkpt lat="48.98536" lon="0.05618">
        <ele>143.08</ele>
        <time>2021-08-08T15:46:30Z</time>
      </trkpt>
      <trkpt lat="48.98538" lon="0.05617">
        <ele>143.23</ele>
        <time>2021-08-08T15:46:31Z</time>
      </trkpt>
      <trkpt lat="48.98538" lon="0.05617">
        <ele>143.32</ele>
        <time>2021-08-08T15:46:32Z</time>
      </trkpt>
      <trkpt lat="48.98541" lon="0.05615">
        <ele>143.54</ele>
        <time>2021-08-08T15:46:33Z</time>
      </trkpt>
      <trkpt lat="48.98542" lon="0.05615">
        <ele>143.69</ele>
        <time>2021-08-08T15:46:34Z</time>
      </trkpt>
      <trkpt lat="48.98543" lon="0.05615">
        <ele>143.8</ele>
        <time>2021-08-08T15:46:35Z</time>
      </trkpt>
      <trkpt lat="48.98544" lon="0.05613">
        <ele>143.92</ele>
        <time>2021-08-08T15:46:36Z</time>
      </trkpt>
      <trkpt lat="48.98544" lon="0.05612">
        <ele>144.06</ele>
        <time>2021-08-08T15:46:37Z</time>
      </trkpt>
      <trkpt lat="48.98545" lon="0.05611">
        <ele>144.25</ele>
        <time>2021-08-08T15:46:38Z</time>
      </trkpt>
      <trkpt lat="48.98546" lon="0.05609">
        <ele>144.46</ele>
        <time>2021-08-08T15:46:39Z</time>
      </trkpt>
      <trkpt lat="48.98548" lon="0.05609">
        <ele>144.63</ele>
        <time>2021-08-08T15:46:40Z</time>
      </trkpt>
      <trkpt lat="48.98548" lon="0.05608">
        <ele>144.74</ele>
        <time>2021-08-08T15:46:41Z</time>
      </trkpt>
      <trkpt lat="48.98547" lon="0.05607">
        <ele>144.83</ele>
        <time>2021-08-08T15:46:42Z</time>
      </trkpt>
      <trkpt lat="48.98548" lon="0.05606">
        <ele>144.98</ele>
        <time>2021-08-08T15:46:43Z</time>
      </trkpt>
      <trkpt lat="48.98549" lon="0.05605">
        <ele>145.22</ele>
        <time>2021-08-08T15:46:44Z</time>
      </trkpt>
      <trkpt lat="48.98551" lon="0.05604">
        <ele>145.4</ele>
        <time>2021-08-08T15:46:45Z</time>
      </trkpt>
      <trkpt lat="48.98552" lon="0.05603">
        <ele>145.62</ele>
        <time>2021-08-08T15:46:46Z</time>
      </trkpt>
      <trkpt lat="48.98555" lon="0.05602">
        <ele>145.87</ele>
        <time>2021-08-08T15:46:47Z</time>
      </trkpt>
      <trkpt lat="48.98558" lon="0.05601">
        <ele>146.03</ele>
        <time>2021-08-08T15:46:48Z</time>
      </trkpt>
      <trkpt lat="48.9856" lon="0.05601">
        <ele>146.13</ele>
        <time>2021-08-08T15:46:49Z</time>
      </trkpt>
      <trkpt lat="48.98561" lon="0.05601">
        <ele>146.21</ele>
        <time>2021-08-08T15:46:50Z</time>
      </trkpt>
      <trkpt lat="48.98564" lon="0.05599">
        <ele>146.37</ele>
        <time>2021-08-08T15:46:51Z</time>
      </trkpt>
      <trkpt lat="48.98565" lon="0.05599">
        <ele>146.45</ele>
        <time>2021-08-08T15:46:52Z</time>
      </trkpt>
      <trkpt lat="48.98567" lon="0.05599">
        <ele>146.5</ele>
        <time>2021-08-08T15:46:53Z</time>
      </trkpt>
      <trkpt lat="48.98569" lon="0.05599">
        <ele>146.52</ele>
        <time>2021-08-08T15:46:54Z</time>
      </trkpt>
      <trkpt lat="48.98571" lon="0.05599">
        <ele>146.59</ele>
        <time>2021-08-08T15:46:55Z</time>
      </trkpt>
      <trkpt lat="48.98574" lon="0.05598">
        <ele>146.74</ele>
        <time>2021-08-08T15:46:56Z</time>
      </trkpt>
      <trkpt lat="48.98576" lon="0.05596">
        <ele>146.88</ele>
        <time>2021-08-08T15:46:57Z</time>
      </trkpt>
      <trkpt lat="48.98579" lon="0.05595">
        <ele>147.02</ele>
        <time>2021-08-08T15:46:58Z</time>
      </trkpt>
      <trkpt lat="48.98582" lon="0.05594">
        <ele>147.14</ele>
        <time>2021-08-08T15:46:59Z</time>
      </trkpt>
      <trkpt lat="48.98584" lon="0.05593">
        <ele>147.25</ele>
        <time>2021-08-08T15:47:00Z</time>
      </trkpt>
      <trkpt lat="48.98586" lon="0.05593">
        <ele>147.3</ele>
        <time>2021-08-08T15:47:01Z</time>
      </trkpt>
      <trkpt lat="48.98588" lon="0.05593">
        <ele>147.3</ele>
        <time>2021-08-08T15:47:02Z</time>
      </trkpt>
      <trkpt lat="48.9859" lon="0.05592">
        <ele>147.35</ele>
        <time>2021-08-08T15:47:03Z</time>
      </trkpt>
      <trkpt lat="48.98593" lon="0.05591">
        <ele>147.43</ele>
        <time>2021-08-08T15:47:04Z</time>
      </trkpt>
      <trkpt lat="48.98597" lon="0.05589">
        <ele>147.53</ele>
        <time>2021-08-08T15:47:05Z</time>
      </trkpt>
      <trkpt lat="48.98601" lon="0.05586">
        <ele>147.7</ele>
        <time>2021-08-08T15:47:06Z</time>
      </trkpt>
      <trkpt lat="48.98603" lon="0.05586">
        <ele>147.79</ele>
        <time>2021-08-08T15:47:07Z</time>
      </trkpt>
      <trkpt lat="48.98605" lon="0.05584">
        <ele>147.89</ele>
        <time>2021-08-08T15:47:08Z</time>
      </trkpt>
      <trkpt lat="48.98609" lon="0.05582">
        <ele>148.07</ele>
        <time>2021-08-08T15:47:09Z</time>
      </trkpt>
      <trkpt lat="48.98612" lon="0.0558">
        <ele>148.3</ele>
        <time>2021-08-08T15:47:10Z</time>
      </trkpt>
      <trkpt lat="48.98616" lon="0.05579">
        <ele>148.44</ele>
        <time>2021-08-08T15:47:11Z</time>
      </trkpt>
      <trkpt lat="48.98619" lon="0.05577">
        <ele>148.6</ele>
        <time>2021-08-08T15:47:12Z</time>
      </trkpt>
      <trkpt lat="48.98622" lon="0.05576">
        <ele>148.72</ele>
        <time>2021-08-08T15:47:13Z</time>
      </trkpt>
      <trkpt lat="48.98624" lon="0.05576">
        <ele>148.8</ele>
        <time>2021-08-08T15:47:14Z</time>
      </trkpt>
      <trkpt lat="48.98626" lon="0.05575">
        <ele>148.86</ele>
        <time>2021-08-08T15:47:15Z</time>
      </trkpt>
      <trkpt lat="48.98628" lon="0.05574">
        <ele>148.98</ele>
        <time>2021-08-08T15:47:16Z</time>
      </trkpt>
      <trkpt lat="48.98629" lon="0.05573">
        <ele>149.09</ele>
        <time>2021-08-08T15:47:17Z</time>
      </trkpt>
      <trkpt lat="48.98631" lon="0.05573">
        <ele>149.13</ele>
        <time>2021-08-08T15:47:18Z</time>
      </trkpt>
      <trkpt lat="48.98633" lon="0.05571">
        <ele>149.27</ele>
        <time>2021-08-08T15:47:19Z</time>
      </trkpt>
      <trkpt lat="48.98634" lon="0.05569">
        <ele>149.49</ele>
        <time>2021-08-08T15:47:20Z</time>
      </trkpt>
      <trkpt lat="48.98636" lon="0.05566">
        <ele>149.73</ele>
        <time>2021-08-08T15:47:21Z</time>
      </trkpt>
      <trkpt lat="48.98639" lon="0.05562">
        <ele>150.09</ele>
        <time>2021-08-08T15:47:22Z</time>
      </trkpt>
      <trkpt lat="48.98642" lon="0.05559">
        <ele>150.42</ele>
        <time>2021-08-08T15:47:23Z</time>
      </trkpt>
      <trkpt lat="48.98644" lon="0.05556">
        <ele>150.64</ele>
        <time>2021-08-08T15:47:24Z</time>
      </trkpt>
      <trkpt lat="48.98648" lon="0.05553">
        <ele>150.79</ele>
        <time>2021-08-08T15:47:25Z</time>
      </trkpt>
      <trkpt lat="48.98651" lon="0.0555">
        <ele>150.92</ele>
        <time>2021-08-08T15:47:26Z</time>
      </trkpt>
      <trkpt lat="48.98653" lon="0.05547">
        <ele>151.03</ele>
        <time>2021-08-08T15:47:27Z</time>
      </trkpt>
      <trkpt lat="48.98656" lon="0.05545">
        <ele>151.1</ele>
        <time>2021-08-08T15:47:28Z</time>
      </trkpt>
      <trkpt lat="48.98659" lon="0.05543">
        <ele>151.15</ele>
        <time>2021-08-08T15:47:29Z</time>
      </trkpt>
      <trkpt lat="48.98662" lon="0.05541">
        <ele>151.18</ele>
        <time>2021-08-08T15:47:30Z</time>
      </trkpt>
      <trkpt lat="48.98666" lon="0.05541">
        <ele>151.11</ele>
        <time>2021-08-08T15:47:31Z</time>
      </trkpt>
      <trkpt lat="48.98669" lon="0.0554">
        <ele>151.08</ele>
        <time>2021-08-08T15:47:32Z</time>
      </trkpt>
      <trkpt lat="48.98673" lon="0.05539">
        <ele>151</ele>
        <time>2021-08-08T15:47:33Z</time>
      </trkpt>
      <trkpt lat="48.98676" lon="0.05539">
        <ele>150.91</ele>
        <time>2021-08-08T15:47:34Z</time>
      </trkpt>
      <trkpt lat="48.9868" lon="0.05537">
        <ele>150.84</ele>
        <time>2021-08-08T15:47:35Z</time>
      </trkpt>
      <trkpt lat="48.98684" lon="0.05536">
        <ele>150.81</ele>
        <time>2021-08-08T15:47:36Z</time>
      </trkpt>
      <trkpt lat="48.98688" lon="0.05533">
        <ele>150.81</ele>
        <time>2021-08-08T15:47:37Z</time>
      </trkpt>
      <trkpt lat="48.98692" lon="0.05531">
        <ele>150.83</ele>
        <time>2021-08-08T15:47:38Z</time>
      </trkpt>
      <trkpt lat="48.98696" lon="0.05528">
        <ele>150.95</ele>
        <time>2021-08-08T15:47:39Z</time>
      </trkpt>
      <trkpt lat="48.987" lon="0.05524">
        <ele>151.18</ele>
        <time>2021-08-08T15:47:40Z</time>
      </trkpt>
      <trkpt lat="48.98705" lon="0.05521">
        <ele>151.4</ele>
        <time>2021-08-08T15:47:41Z</time>
      </trkpt>
      <trkpt lat="48.98709" lon="0.05518">
        <ele>151.63</ele>
        <time>2021-08-08T15:47:42Z</time>
      </trkpt>
      <trkpt lat="48.98715" lon="0.05517">
        <ele>151.74</ele>
        <time>2021-08-08T15:47:43Z</time>
      </trkpt>
      <trkpt lat="48.98719" lon="0.05515">
        <ele>151.88</ele>
        <time>2021-08-08T15:47:44Z</time>
      </trkpt>
      <trkpt lat="48.98722" lon="0.05513">
        <ele>152</ele>
        <time>2021-08-08T15:47:45Z</time>
      </trkpt>
      <trkpt lat="48.98726" lon="0.05511">
        <ele>152.13</ele>
        <time>2021-08-08T15:47:46Z</time>
      </trkpt>
      <trkpt lat="48.98729" lon="0.05508">
        <ele>152.27</ele>
        <time>2021-08-08T15:47:47Z</time>
      </trkpt>
      <trkpt lat="48.98732" lon="0.05507">
        <ele>152.35</ele>
        <time>2021-08-08T15:47:48Z</time>
      </trkpt>
      <trkpt lat="48.98736" lon="0.05506">
        <ele>152.41</ele>
        <time>2021-08-08T15:47:49Z</time>
      </trkpt>
      <trkpt lat="48.98739" lon="0.05507">
        <ele>152.38</ele>
        <time>2021-08-08T15:47:50Z</time>
      </trkpt>
      <trkpt lat="48.98742" lon="0.05507">
        <ele>152.3</ele>
        <time>2021-08-08T15:47:51Z</time>
      </trkpt>
      <trkpt lat="48.98745" lon="0.05509">
        <ele>152.15</ele>
        <time>2021-08-08T15:47:52Z</time>
      </trkpt>
      <trkpt lat="48.98748" lon="0.05512">
        <ele>151.85</ele>
        <time>2021-08-08T15:47:53Z</time>
      </trkpt>
      <trkpt lat="48.98752" lon="0.05514">
        <ele>151.65</ele>
        <time>2021-08-08T15:47:54Z</time>
      </trkpt>
      <trkpt lat="48.98754" lon="0.05516">
        <ele>151.47</ele>
        <time>2021-08-08T15:47:55Z</time>
      </trkpt>
      <trkpt lat="48.98756" lon="0.05519">
        <ele>151.3</ele>
        <time>2021-08-08T15:47:56Z</time>
      </trkpt>
      <trkpt lat="48.98758" lon="0.05522">
        <ele>151.04</ele>
        <time>2021-08-08T15:47:57Z</time>
      </trkpt>
      <trkpt lat="48.98759" lon="0.05522">
        <ele>150.97</ele>
        <time>2021-08-08T15:47:58Z</time>
      </trkpt>
      <trkpt lat="48.9876" lon="0.05523">
        <ele>150.92</ele>
        <time>2021-08-08T15:47:59Z</time>
      </trkpt>
      <trkpt lat="48.9876" lon="0.05523">
        <ele>150.91</ele>
        <time>2021-08-08T15:48:00Z</time>
      </trkpt>
      <trkpt lat="48.9876" lon="0.05523">
        <ele>150.91</ele>
        <time>2021-08-08T15:48:01Z</time>
      </trkpt>
      <trkpt lat="48.98761" lon="0.05528">
        <ele>150.52</ele>
        <time>2021-08-08T15:48:02Z</time>
      </trkpt>
      <trkpt lat="48.98761" lon="0.05531">
        <ele>150.23</ele>
        <time>2021-08-08T15:48:03Z</time>
      </trkpt>
      <trkpt lat="48.98764" lon="0.05533">
        <ele>150.06</ele>
        <time>2021-08-08T15:48:04Z</time>
      </trkpt>
      <trkpt lat="48.98766" lon="0.05535">
        <ele>149.97</ele>
        <time>2021-08-08T15:48:05Z</time>
      </trkpt>
      <trkpt lat="48.98767" lon="0.05535">
        <ele>149.93</ele>
        <time>2021-08-08T15:48:06Z</time>
      </trkpt>
      <trkpt lat="48.98768" lon="0.05536">
        <ele>149.89</ele>
        <time>2021-08-08T15:48:07Z</time>
      </trkpt>
      <trkpt lat="48.98769" lon="0.05537">
        <ele>149.78</ele>
        <time>2021-08-08T15:48:08Z</time>
      </trkpt>
      <trkpt lat="48.9877" lon="0.05539">
        <ele>149.66</ele>
        <time>2021-08-08T15:48:09Z</time>
      </trkpt>
      <trkpt lat="48.98772" lon="0.0554">
        <ele>149.58</ele>
        <time>2021-08-08T15:48:10Z</time>
      </trkpt>
      <trkpt lat="48.98775" lon="0.0554">
        <ele>149.63</ele>
        <time>2021-08-08T15:48:11Z</time>
      </trkpt>
      <trkpt lat="48.98777" lon="0.05539">
        <ele>149.69</ele>
        <time>2021-08-08T15:48:12Z</time>
      </trkpt>
      <trkpt lat="48.98778" lon="0.05539">
        <ele>149.81</ele>
        <time>2021-08-08T15:48:13Z</time>
      </trkpt>
      <trkpt lat="48.98779" lon="0.0554">
        <ele>149.8</ele>
        <time>2021-08-08T15:48:14Z</time>
      </trkpt>
      <trkpt lat="48.9878" lon="0.05541">
        <ele>149.77</ele>
        <time>2021-08-08T15:48:15Z</time>
      </trkpt>
      <trkpt lat="48.98781" lon="0.05541">
        <ele>149.79</ele>
        <time>2021-08-08T15:48:16Z</time>
      </trkpt>
      <trkpt lat="48.98783" lon="0.05542">
        <ele>149.84</ele>
        <time>2021-08-08T15:48:17Z</time>
      </trkpt>
      <trkpt lat="48.98785" lon="0.05541">
        <ele>149.99</ele>
        <time>2021-08-08T15:48:18Z</time>
      </trkpt>
      <trkpt lat="48.98786" lon="0.05541">
        <ele>150.11</ele>
        <time>2021-08-08T15:48:19Z</time>
      </trkpt>
      <trkpt lat="48.98788" lon="0.05542">
        <ele>150.18</ele>
        <time>2021-08-08T15:48:20Z</time>
      </trkpt>
      <trkpt lat="48.98789" lon="0.05542">
        <ele>150.26</ele>
        <time>2021-08-08T15:48:21Z</time>
      </trkpt>
      <trkpt lat="48.9879" lon="0.05542">
        <ele>150.35</ele>
        <time>2021-08-08T15:48:22Z</time>
      </trkpt>
      <trkpt lat="48.98792" lon="0.05543">
        <ele>150.37</ele>
        <time>2021-08-08T15:48:23Z</time>
      </trkpt>
      <trkpt lat="48.98793" lon="0.05544">
        <ele>150.37</ele>
        <time>2021-08-08T15:48:24Z</time>
      </trkpt>
      <trkpt lat="48.98794" lon="0.05546">
        <ele>150.29</ele>
        <time>2021-08-08T15:48:25Z</time>
      </trkpt>
      <trkpt lat="48.98796" lon="0.05547">
        <ele>150.22</ele>
        <time>2021-08-08T15:48:26Z</time>
      </trkpt>
      <trkpt lat="48.98797" lon="0.05549">
        <ele>150.14</ele>
        <time>2021-08-08T15:48:27Z</time>
      </trkpt>
      <trkpt lat="48.98798" lon="0.0555">
        <ele>150.05</ele>
        <time>2021-08-08T15:48:28Z</time>
      </trkpt>
      <trkpt lat="48.98799" lon="0.05552">
        <ele>150</ele>
        <time>2021-08-08T15:48:29Z</time>
      </trkpt>
      <trkpt lat="48.988" lon="0.05553">
        <ele>149.9</ele>
        <time>2021-08-08T15:48:30Z</time>
      </trkpt>
      <trkpt lat="48.98801" lon="0.05554">
        <ele>149.88</ele>
        <time>2021-08-08T15:48:31Z</time>
      </trkpt>
      <trkpt lat="48.98802" lon="0.05554">
        <ele>149.91</ele>
        <time>2021-08-08T15:48:32Z</time>
      </trkpt>
      <trkpt lat="48.98803" lon="0.05553">
        <ele>149.99</ele>
        <time>2021-08-08T15:48:33Z</time>
      </trkpt>
      <trkpt lat="48.98803" lon="0.05553">
        <ele>150.01</ele>
        <time>2021-08-08T15:48:34Z</time>
      </trkpt>
      <trkpt lat="48.98803" lon="0.05553">
        <ele>150.02</ele>
        <time>2021-08-08T15:48:35Z</time>
      </trkpt>
      <trkpt lat="48.98803" lon="0.05553">
        <ele>150.02</ele>
        <time>2021-08-08T15:48:36Z</time>
      </trkpt>
      <trkpt lat="48.98803" lon="0.05553">
        <ele>150.02</ele>
        <time>2021-08-08T15:48:37Z</time>
      </trkpt>
      <trkpt lat="48.98803" lon="0.05553">
        <ele>150.02</ele>
        <time>2021-08-08T15:48:38Z</time>
      </trkpt>
      <trkpt lat="48.98803" lon="0.05553">
        <ele>150.02</ele>
        <time>2021-08-08T15:48:39Z</time>
      </trkpt>
      <trkpt lat="48.98803" lon="0.05553">
        <ele>150.02</ele>
        <time>2021-08-08T15:48:40Z</time>
      </trkpt>
      <trkpt lat="48.98803" lon="0.05553">
        <ele>150.02</ele>
        <time>2021-08-08T15:48:41Z</time>
      </trkpt>
      <trkpt lat="48.98803" lon="0.05553">
        <ele>150.02</ele>
        <time>2021-08-08T15:48:42Z</time>
      </trkpt>
      <trkpt lat="48.98803" lon="0.05553">
        <ele>150.02</ele>
        <time>2021-08-08T15:48:43Z</time>
      </trkpt>
      <trkpt lat="48.98803" lon="0.05553">
        <ele>150.02</ele>
        <time>2021-08-08T15:48:44Z</time>
      </trkpt>
      <trkpt lat="48.98803" lon="0.05553">
        <ele>150.02</ele>
        <time>2021-08-08T15:48:45Z</time>
      </trkpt>
      <trkpt lat="48.98803" lon="0.05553">
        <ele>150.02</ele>
        <time>2021-08-08T15:48:46Z</time>
      </trkpt>
      <trkpt lat="48.98811" lon="0.05561">
        <ele>149.83</ele>
        <time>2021-08-08T15:48:47Z</time>
      </trkpt>
      <trkpt lat="48.98812" lon="0.05562">
        <ele>149.81</ele>
        <time>2021-08-08T15:48:48Z</time>
      </trkpt>
      <trkpt lat="48.98813" lon="0.05563">
        <ele>149.79</ele>
        <time>2021-08-08T15:48:49Z</time>
      </trkpt>
      <trkpt lat="48.98814" lon="0.05564">
        <ele>149.7</ele>
        <time>2021-08-08T15:48:50Z</time>
      </trkpt>
      <trkpt lat="48.98814" lon="0.05564">
        <ele>149.67</ele>
        <time>2021-08-08T15:48:51Z</time>
      </trkpt>
      <trkpt lat="48.98814" lon="0.05564">
        <ele>149.66</ele>
        <time>2021-08-08T15:48:52Z</time>
      </trkpt>
      <trkpt lat="48.98814" lon="0.05564">
        <ele>149.66</ele>
        <time>2021-08-08T15:48:53Z</time>
      </trkpt>
      <trkpt lat="48.98814" lon="0.05564">
        <ele>149.66</ele>
        <time>2021-08-08T15:48:54Z</time>
      </trkpt>
      <trkpt lat="48.98814" lon="0.05564">
        <ele>149.66</ele>
        <time>2021-08-08T15:48:55Z</time>
      </trkpt>
      <trkpt lat="48.98814" lon="0.05564">
        <ele>149.66</ele>
        <time>2021-08-08T15:48:56Z</time>
      </trkpt>
      <trkpt lat="48.98814" lon="0.05564">
        <ele>149.66</ele>
        <time>2021-08-08T15:48:57Z</time>
      </trkpt>
      <trkpt lat="48.98814" lon="0.05564">
        <ele>149.66</ele>
        <time>2021-08-08T15:48:58Z</time>
      </trkpt>
      <trkpt lat="48.98814" lon="0.05564">
        <ele>149.66</ele>
        <time>2021-08-08T15:48:59Z</time>
      </trkpt>
      <trkpt lat="48.98814" lon="0.05564">
        <ele>149.66</ele>
        <time>2021-08-08T15:49:00Z</time>
      </trkpt>
      <trkpt lat="48.98814" lon="0.05564">
        <ele>149.66</ele>
        <time>2021-08-08T15:49:01Z</time>
      </trkpt>
      <trkpt lat="48.98814" lon="0.05564">
        <ele>149.66</ele>
        <time>2021-08-08T15:49:02Z</time>
      </trkpt>
      <trkpt lat="48.98814" lon="0.05564">
        <ele>149.66</ele>
        <time>2021-08-08T15:49:03Z</time>
      </trkpt>
      <trkpt lat="48.98814" lon="0.05564">
        <ele>149.66</ele>
        <time>2021-08-08T15:49:04Z</time>
      </trkpt>
      <trkpt lat="48.98822" lon="0.05569">
        <ele>149.68</ele>
        <time>2021-08-08T15:49:05Z</time>
      </trkpt>
      <trkpt lat="48.98823" lon="0.0557">
        <ele>149.73</ele>
        <time>2021-08-08T15:49:06Z</time>
      </trkpt>
      <trkpt lat="48.98825" lon="0.0557">
        <ele>149.81</ele>
        <time>2021-08-08T15:49:07Z</time>
      </trkpt>
      <trkpt lat="48.98827" lon="0.05569">
        <ele>150.04</ele>
        <time>2021-08-08T15:49:08Z</time>
      </trkpt>
      <trkpt lat="48.98829" lon="0.05568">
        <ele>150.24</ele>
        <time>2021-08-08T15:49:09Z</time>
      </trkpt>
      <trkpt lat="48.9883" lon="0.05568">
        <ele>150.38</ele>
        <time>2021-08-08T15:49:10Z</time>
      </trkpt>
      <trkpt lat="48.98832" lon="0.05567">
        <ele>150.57</ele>
        <time>2021-08-08T15:49:11Z</time>
      </trkpt>
      <trkpt lat="48.98833" lon="0.05567">
        <ele>150.69</ele>
        <time>2021-08-08T15:49:12Z</time>
      </trkpt>
      <trkpt lat="48.98834" lon="0.05567">
        <ele>150.77</ele>
        <time>2021-08-08T15:49:13Z</time>
      </trkpt>
      <trkpt lat="48.98835" lon="0.05567">
        <ele>150.84</ele>
        <time>2021-08-08T15:49:14Z</time>
      </trkpt>
      <trkpt lat="48.98836" lon="0.05566">
        <ele>151.01</ele>
        <time>2021-08-08T15:49:15Z</time>
      </trkpt>
      <trkpt lat="48.98837" lon="0.05566">
        <ele>151.16</ele>
        <time>2021-08-08T15:49:16Z</time>
      </trkpt>
      <trkpt lat="48.98839" lon="0.05568">
        <ele>151.23</ele>
        <time>2021-08-08T15:49:17Z</time>
      </trkpt>
      <trkpt lat="48.98841" lon="0.05568">
        <ele>151.39</ele>
        <time>2021-08-08T15:49:18Z</time>
      </trkpt>
      <trkpt lat="48.98842" lon="0.05568">
        <ele>151.51</ele>
        <time>2021-08-08T15:49:19Z</time>
      </trkpt>
      <trkpt lat="48.98844" lon="0.05568">
        <ele>151.69</ele>
        <time>2021-08-08T15:49:20Z</time>
      </trkpt>
      <trkpt lat="48.98846" lon="0.05567">
        <ele>151.94</ele>
        <time>2021-08-08T15:49:21Z</time>
      </trkpt>
      <trkpt lat="48.98847" lon="0.05567">
        <ele>152.1</ele>
        <time>2021-08-08T15:49:22Z</time>
      </trkpt>
      <trkpt lat="48.98849" lon="0.05567">
        <ele>152.24</ele>
        <time>2021-08-08T15:49:23Z</time>
      </trkpt>
      <trkpt lat="48.9885" lon="0.05568">
        <ele>152.34</ele>
        <time>2021-08-08T15:49:24Z</time>
      </trkpt>
      <trkpt lat="48.98852" lon="0.05569">
        <ele>152.47</ele>
        <time>2021-08-08T15:49:25Z</time>
      </trkpt>
      <trkpt lat="48.98854" lon="0.05569">
        <ele>152.72</ele>
        <time>2021-08-08T15:49:26Z</time>
      </trkpt>
      <trkpt lat="48.98857" lon="0.05568">
        <ele>152.97</ele>
        <time>2021-08-08T15:49:27Z</time>
      </trkpt>
      <trkpt lat="48.98858" lon="0.05568">
        <ele>153.17</ele>
        <time>2021-08-08T15:49:28Z</time>
      </trkpt>
      <trkpt lat="48.9886" lon="0.05568">
        <ele>153.36</ele>
        <time>2021-08-08T15:49:29Z</time>
      </trkpt>
      <trkpt lat="48.98863" lon="0.05567">
        <ele>153.63</ele>
        <time>2021-08-08T15:49:30Z</time>
      </trkpt>
      <trkpt lat="48.98865" lon="0.05567">
        <ele>153.87</ele>
        <time>2021-08-08T15:49:31Z</time>
      </trkpt>
      <trkpt lat="48.98866" lon="0.05566">
        <ele>154.06</ele>
        <time>2021-08-08T15:49:32Z</time>
      </trkpt>
      <trkpt lat="48.98867" lon="0.05566">
        <ele>154.22</ele>
        <time>2021-08-08T15:49:33Z</time>
      </trkpt>
      <trkpt lat="48.98867" lon="0.05566">
        <ele>154.27</ele>
        <time>2021-08-08T15:49:34Z</time>
      </trkpt>
      <trkpt lat="48.98867" lon="0.05566">
        <ele>154.28</ele>
        <time>2021-08-08T15:49:35Z</time>
      </trkpt>
      <trkpt lat="48.98867" lon="0.05566">
        <ele>154.29</ele>
        <time>2021-08-08T15:49:36Z</time>
      </trkpt>
      <trkpt lat="48.98867" lon="0.05566">
        <ele>154.29</ele>
        <time>2021-08-08T15:49:37Z</time>
      </trkpt>
      <trkpt lat="48.98867" lon="0.05566">
        <ele>154.29</ele>
        <time>2021-08-08T15:49:38Z</time>
      </trkpt>
      <trkpt lat="48.98876" lon="0.05563">
        <ele>155.03</ele>
        <time>2021-08-08T15:49:39Z</time>
      </trkpt>
      <trkpt lat="48.98879" lon="0.05563">
        <ele>155.45</ele>
        <time>2021-08-08T15:49:40Z</time>
      </trkpt>
      <trkpt lat="48.98881" lon="0.05563">
        <ele>155.78</ele>
        <time>2021-08-08T15:49:41Z</time>
      </trkpt>
      <trkpt lat="48.98883" lon="0.05563">
        <ele>155.98</ele>
        <time>2021-08-08T15:49:42Z</time>
      </trkpt>
      <trkpt lat="48.98884" lon="0.05563">
        <ele>156.15</ele>
        <time>2021-08-08T15:49:43Z</time>
      </trkpt>
      <trkpt lat="48.98886" lon="0.05564">
        <ele>156.33</ele>
        <time>2021-08-08T15:49:44Z</time>
      </trkpt>
      <trkpt lat="48.98888" lon="0.05565">
        <ele>156.52</ele>
        <time>2021-08-08T15:49:45Z</time>
      </trkpt>
      <trkpt lat="48.9889" lon="0.05566">
        <ele>156.66</ele>
        <time>2021-08-08T15:49:46Z</time>
      </trkpt>
      <trkpt lat="48.98891" lon="0.05567">
        <ele>156.73</ele>
        <time>2021-08-08T15:49:47Z</time>
      </trkpt>
      <trkpt lat="48.98893" lon="0.05566">
        <ele>156.86</ele>
        <time>2021-08-08T15:49:48Z</time>
      </trkpt>
      <trkpt lat="48.98893" lon="0.05567">
        <ele>156.94</ele>
        <time>2021-08-08T15:49:49Z</time>
      </trkpt>
      <trkpt lat="48.98893" lon="0.05567">
        <ele>156.96</ele>
        <time>2021-08-08T15:49:50Z</time>
      </trkpt>
      <trkpt lat="48.98893" lon="0.05567">
        <ele>156.97</ele>
        <time>2021-08-08T15:49:51Z</time>
      </trkpt>
      <trkpt lat="48.98893" lon="0.05567">
        <ele>156.97</ele>
        <time>2021-08-08T15:49:52Z</time>
      </trkpt>
      <trkpt lat="48.98893" lon="0.05567">
        <ele>156.97</ele>
        <time>2021-08-08T15:49:53Z</time>
      </trkpt>
      <trkpt lat="48.98901" lon="0.05576">
        <ele>157.3</ele>
        <time>2021-08-08T15:49:54Z</time>
      </trkpt>
      <trkpt lat="48.98903" lon="0.05576">
        <ele>157.52</ele>
        <time>2021-08-08T15:49:55Z</time>
      </trkpt>
      <trkpt lat="48.98904" lon="0.05578">
        <ele>157.64</ele>
        <time>2021-08-08T15:49:56Z</time>
      </trkpt>
      <trkpt lat="48.98905" lon="0.0558">
        <ele>157.72</ele>
        <time>2021-08-08T15:49:57Z</time>
      </trkpt>
      <trkpt lat="48.98905" lon="0.0558">
        <ele>157.75</ele>
        <time>2021-08-08T15:49:58Z</time>
      </trkpt>
      <trkpt lat="48.98905" lon="0.0558">
        <ele>157.76</ele>
        <time>2021-08-08T15:49:59Z</time>
      </trkpt>
      <trkpt lat="48.98905" lon="0.0558">
        <ele>157.76</ele>
        <time>2021-08-08T15:50:00Z</time>
      </trkpt>
      <trkpt lat="48.98905" lon="0.0558">
        <ele>157.76</ele>
        <time>2021-08-08T15:50:01Z</time>
      </trkpt>
      <trkpt lat="48.98905" lon="0.0558">
        <ele>157.76</ele>
        <time>2021-08-08T15:50:02Z</time>
      </trkpt>
      <trkpt lat="48.98905" lon="0.0558">
        <ele>157.76</ele>
        <time>2021-08-08T15:50:03Z</time>
      </trkpt>
      <trkpt lat="48.98905" lon="0.0558">
        <ele>157.76</ele>
        <time>2021-08-08T15:50:04Z</time>
      </trkpt>
      <trkpt lat="48.98905" lon="0.0558">
        <ele>157.76</ele>
        <time>2021-08-08T15:50:05Z</time>
      </trkpt>
      <trkpt lat="48.98913" lon="0.05586">
        <ele>158.24</ele>
        <time>2021-08-08T15:50:06Z</time>
      </trkpt>
      <trkpt lat="48.98914" lon="0.05587">
        <ele>158.39</ele>
        <time>2021-08-08T15:50:07Z</time>
      </trkpt>
      <trkpt lat="48.98915" lon="0.05588">
        <ele>158.45</ele>
        <time>2021-08-08T15:50:08Z</time>
      </trkpt>
      <trkpt lat="48.98916" lon="0.05589">
        <ele>158.48</ele>
        <time>2021-08-08T15:50:09Z</time>
      </trkpt>
      <trkpt lat="48.98916" lon="0.05589">
        <ele>158.49</ele>
        <time>2021-08-08T15:50:10Z</time>
      </trkpt>
      <trkpt lat="48.98916" lon="0.05589">
        <ele>158.49</ele>
        <time>2021-08-08T15:50:11Z</time>
      </trkpt>
      <trkpt lat="48.98916" lon="0.05589">
        <ele>158.5</ele>
        <time>2021-08-08T15:50:12Z</time>
      </trkpt>
      <trkpt lat="48.98916" lon="0.05589">
        <ele>158.5</ele>
        <time>2021-08-08T15:50:13Z</time>
      </trkpt>
      <trkpt lat="48.98916" lon="0.05589">
        <ele>158.5</ele>
        <time>2021-08-08T15:50:14Z</time>
      </trkpt>
      <trkpt lat="48.98916" lon="0.05589">
        <ele>158.5</ele>
        <time>2021-08-08T15:50:15Z</time>
      </trkpt>
      <trkpt lat="48.98916" lon="0.05589">
        <ele>158.5</ele>
        <time>2021-08-08T15:50:16Z</time>
      </trkpt>
      <trkpt lat="48.98916" lon="0.05589">
        <ele>158.5</ele>
        <time>2021-08-08T15:50:17Z</time>
      </trkpt>
      <trkpt lat="48.98924" lon="0.05598">
        <ele>158.61</ele>
        <time>2021-08-08T15:50:18Z</time>
      </trkpt>
      <trkpt lat="48.98924" lon="0.05599">
        <ele>158.58</ele>
        <time>2021-08-08T15:50:19Z</time>
      </trkpt>
      <trkpt lat="48.98925" lon="0.05599">
        <ele>158.58</ele>
        <time>2021-08-08T15:50:20Z</time>
      </trkpt>
      <trkpt lat="48.98923" lon="0.056">
        <ele>158.47</ele>
        <time>2021-08-08T15:50:21Z</time>
      </trkpt>
      <trkpt lat="48.98923" lon="0.056">
        <ele>158.44</ele>
        <time>2021-08-08T15:50:22Z</time>
      </trkpt>
      <trkpt lat="48.98923" lon="0.056">
        <ele>158.43</ele>
        <time>2021-08-08T15:50:23Z</time>
      </trkpt>
      <trkpt lat="48.98923" lon="0.056">
        <ele>158.43</ele>
        <time>2021-08-08T15:50:24Z</time>
      </trkpt>
      <trkpt lat="48.98923" lon="0.056">
        <ele>158.43</ele>
        <time>2021-08-08T15:50:25Z</time>
      </trkpt>
      <trkpt lat="48.98923" lon="0.056">
        <ele>158.43</ele>
        <time>2021-08-08T15:50:26Z</time>
      </trkpt>
      <trkpt lat="48.98923" lon="0.056">
        <ele>158.43</ele>
        <time>2021-08-08T15:50:27Z</time>
      </trkpt>
      <trkpt lat="48.98923" lon="0.056">
        <ele>158.43</ele>
        <time>2021-08-08T15:50:28Z</time>
      </trkpt>
      <trkpt lat="48.98923" lon="0.056">
        <ele>158.43</ele>
        <time>2021-08-08T15:50:29Z</time>
      </trkpt>
      <trkpt lat="48.98923" lon="0.056">
        <ele>158.43</ele>
        <time>2021-08-08T15:50:30Z</time>
      </trkpt>
      <trkpt lat="48.98923" lon="0.056">
        <ele>158.43</ele>
        <time>2021-08-08T15:50:31Z</time>
      </trkpt>
      <trkpt lat="48.98923" lon="0.056">
        <ele>158.43</ele>
        <time>2021-08-08T15:50:32Z</time>
      </trkpt>
      <trkpt lat="48.98923" lon="0.056">
        <ele>158.43</ele>
        <time>2021-08-08T15:50:33Z</time>
      </trkpt>
      <trkpt lat="48.98932" lon="0.05607">
        <ele>158.71</ele>
        <time>2021-08-08T15:50:34Z</time>
      </trkpt>
      <trkpt lat="48.98933" lon="0.05607">
        <ele>158.92</ele>
        <time>2021-08-08T15:50:35Z</time>
      </trkpt>
      <trkpt lat="48.98935" lon="0.05607">
        <ele>159.08</ele>
        <time>2021-08-08T15:50:36Z</time>
      </trkpt>
      <trkpt lat="48.98937" lon="0.05605">
        <ele>159.33</ele>
        <time>2021-08-08T15:50:37Z</time>
      </trkpt>
      <trkpt lat="48.98939" lon="0.05605">
        <ele>159.61</ele>
        <time>2021-08-08T15:50:38Z</time>
      </trkpt>
      <trkpt lat="48.98941" lon="0.05603">
        <ele>159.85</ele>
        <time>2021-08-08T15:50:39Z</time>
      </trkpt>
      <trkpt lat="48.98943" lon="0.05603">
        <ele>160.08</ele>
        <time>2021-08-08T15:50:40Z</time>
      </trkpt>
      <trkpt lat="48.98945" lon="0.05602">
        <ele>160.29</ele>
        <time>2021-08-08T15:50:41Z</time>
      </trkpt>
      <trkpt lat="48.98946" lon="0.05601">
        <ele>160.44</ele>
        <time>2021-08-08T15:50:42Z</time>
      </trkpt>
      <trkpt lat="48.98949" lon="0.056">
        <ele>160.63</ele>
        <time>2021-08-08T15:50:43Z</time>
      </trkpt>
      <trkpt lat="48.98952" lon="0.05599">
        <ele>160.88</ele>
        <time>2021-08-08T15:50:44Z</time>
      </trkpt>
      <trkpt lat="48.98954" lon="0.05599">
        <ele>161.03</ele>
        <time>2021-08-08T15:50:45Z</time>
      </trkpt>
      <trkpt lat="48.98955" lon="0.05599">
        <ele>161.16</ele>
        <time>2021-08-08T15:50:46Z</time>
      </trkpt>
      <trkpt lat="48.98956" lon="0.056">
        <ele>161.22</ele>
        <time>2021-08-08T15:50:47Z</time>
      </trkpt>
      <trkpt lat="48.98956" lon="0.05601">
        <ele>161.23</ele>
        <time>2021-08-08T15:50:48Z</time>
      </trkpt>
      <trkpt lat="48.98958" lon="0.05602">
        <ele>161.27</ele>
        <time>2021-08-08T15:50:49Z</time>
      </trkpt>
      <trkpt lat="48.98959" lon="0.05604">
        <ele>161.29</ele>
        <time>2021-08-08T15:50:50Z</time>
      </trkpt>
      <trkpt lat="48.98959" lon="0.05605">
        <ele>161.31</ele>
        <time>2021-08-08T15:50:51Z</time>
      </trkpt>
      <trkpt lat="48.98961" lon="0.05605">
        <ele>161.35</ele>
        <time>2021-08-08T15:50:52Z</time>
      </trkpt>
      <trkpt lat="48.98961" lon="0.05606">
        <ele>161.35</ele>
        <time>2021-08-08T15:50:53Z</time>
      </trkpt>
      <trkpt lat="48.98962" lon="0.05607">
        <ele>161.38</ele>
        <time>2021-08-08T15:50:54Z</time>
      </trkpt>
      <trkpt lat="48.98962" lon="0.05607">
        <ele>161.39</ele>
        <time>2021-08-08T15:50:55Z</time>
      </trkpt>
      <trkpt lat="48.98962" lon="0.05607">
        <ele>161.39</ele>
        <time>2021-08-08T15:50:56Z</time>
      </trkpt>
      <trkpt lat="48.98962" lon="0.05607">
        <ele>161.39</ele>
        <time>2021-08-08T15:50:57Z</time>
      </trkpt>
      <trkpt lat="48.98962" lon="0.05607">
        <ele>161.39</ele>
        <time>2021-08-08T15:50:58Z</time>
      </trkpt>
      <trkpt lat="48.98962" lon="0.05607">
        <ele>161.39</ele>
        <time>2021-08-08T15:50:59Z</time>
      </trkpt>
      <trkpt lat="48.98962" lon="0.05607">
        <ele>161.39</ele>
        <time>2021-08-08T15:51:00Z</time>
      </trkpt>
      <trkpt lat="48.98962" lon="0.05607">
        <ele>161.39</ele>
        <time>2021-08-08T15:51:01Z</time>
      </trkpt>
      <trkpt lat="48.98962" lon="0.05607">
        <ele>161.39</ele>
        <time>2021-08-08T15:51:02Z</time>
      </trkpt>
      <trkpt lat="48.98962" lon="0.05607">
        <ele>161.39</ele>
        <time>2021-08-08T15:51:03Z</time>
      </trkpt>
      <trkpt lat="48.98962" lon="0.05607">
        <ele>161.39</ele>
        <time>2021-08-08T15:51:04Z</time>
      </trkpt>
      <trkpt lat="48.98962" lon="0.05607">
        <ele>161.39</ele>
        <time>2021-08-08T15:51:05Z</time>
      </trkpt>
      <trkpt lat="48.98962" lon="0.05607">
        <ele>161.39</ele>
        <time>2021-08-08T15:51:06Z</time>
      </trkpt>
      <trkpt lat="48.98962" lon="0.05607">
        <ele>161.39</ele>
        <time>2021-08-08T15:51:07Z</time>
      </trkpt>
      <trkpt lat="48.98962" lon="0.05607">
        <ele>161.39</ele>
        <time>2021-08-08T15:51:08Z</time>
      </trkpt>
      <trkpt lat="48.98962" lon="0.05607">
        <ele>161.39</ele>
        <time>2021-08-08T15:51:09Z</time>
      </trkpt>
      <trkpt lat="48.98962" lon="0.05607">
        <ele>161.39</ele>
        <time>2021-08-08T15:51:10Z</time>
      </trkpt>
      <trkpt lat="48.98962" lon="0.05607">
        <ele>161.39</ele>
        <time>2021-08-08T15:51:11Z</time>
      </trkpt>
      <trkpt lat="48.98968" lon="0.05617">
        <ele>161.46</ele>
        <time>2021-08-08T15:51:12Z</time>
      </trkpt>
      <trkpt lat="48.9897" lon="0.05616">
        <ele>161.6</ele>
        <time>2021-08-08T15:51:13Z</time>
      </trkpt>
      <trkpt lat="48.98972" lon="0.05614">
        <ele>161.8</ele>
        <time>2021-08-08T15:51:14Z</time>
      </trkpt>
      <trkpt lat="48.98973" lon="0.05614">
        <ele>161.92</ele>
        <time>2021-08-08T15:51:15Z</time>
      </trkpt>
      <trkpt lat="48.98973" lon="0.05614">
        <ele>161.96</ele>
        <time>2021-08-08T15:51:16Z</time>
      </trkpt>
      <trkpt lat="48.98976" lon="0.05614">
        <ele>162.1</ele>
        <time>2021-08-08T15:51:17Z</time>
      </trkpt>
      <trkpt lat="48.98977" lon="0.05614">
        <ele>162.21</ele>
        <time>2021-08-08T15:51:18Z</time>
      </trkpt>
      <trkpt lat="48.9898" lon="0.05614">
        <ele>162.39</ele>
        <time>2021-08-08T15:51:19Z</time>
      </trkpt>
      <trkpt lat="48.98982" lon="0.05614">
        <ele>162.55</ele>
        <time>2021-08-08T15:51:20Z</time>
      </trkpt>
      <trkpt lat="48.98983" lon="0.05614">
        <ele>162.65</ele>
        <time>2021-08-08T15:51:21Z</time>
      </trkpt>
      <trkpt lat="48.98985" lon="0.05613">
        <ele>162.78</ele>
        <time>2021-08-08T15:51:22Z</time>
      </trkpt>
      <trkpt lat="48.98986" lon="0.05613">
        <ele>162.92</ele>
        <time>2021-08-08T15:51:23Z</time>
      </trkpt>
      <trkpt lat="48.98988" lon="0.05613">
        <ele>163.06</ele>
        <time>2021-08-08T15:51:24Z</time>
      </trkpt>
      <trkpt lat="48.9899" lon="0.05614">
        <ele>163.17</ele>
        <time>2021-08-08T15:51:25Z</time>
      </trkpt>
      <trkpt lat="48.98991" lon="0.05614">
        <ele>163.29</ele>
        <time>2021-08-08T15:51:26Z</time>
      </trkpt>
      <trkpt lat="48.98993" lon="0.05613">
        <ele>163.44</ele>
        <time>2021-08-08T15:51:27Z</time>
      </trkpt>
      <trkpt lat="48.98997" lon="0.05611">
        <ele>163.65</ele>
        <time>2021-08-08T15:51:28Z</time>
      </trkpt>
      <trkpt lat="48.98999" lon="0.05609">
        <ele>163.89</ele>
        <time>2021-08-08T15:51:29Z</time>
      </trkpt>
      <trkpt lat="48.99002" lon="0.05608">
        <ele>164.19</ele>
        <time>2021-08-08T15:51:30Z</time>
      </trkpt>
      <trkpt lat="48.99005" lon="0.05605">
        <ele>164.47</ele>
        <time>2021-08-08T15:51:31Z</time>
      </trkpt>
      <trkpt lat="48.99007" lon="0.05602">
        <ele>164.74</ele>
        <time>2021-08-08T15:51:32Z</time>
      </trkpt>
      <trkpt lat="48.9901" lon="0.056">
        <ele>165.01</ele>
        <time>2021-08-08T15:51:33Z</time>
      </trkpt>
      <trkpt lat="48.99012" lon="0.05597">
        <ele>165.28</ele>
        <time>2021-08-08T15:51:34Z</time>
      </trkpt>
      <trkpt lat="48.99014" lon="0.05595">
        <ele>165.49</ele>
        <time>2021-08-08T15:51:35Z</time>
      </trkpt>
      <trkpt lat="48.99016" lon="0.05593">
        <ele>165.71</ele>
        <time>2021-08-08T15:51:36Z</time>
      </trkpt>
      <trkpt lat="48.99018" lon="0.0559">
        <ele>165.94</ele>
        <time>2021-08-08T15:51:37Z</time>
      </trkpt>
      <trkpt lat="48.99019" lon="0.05589">
        <ele>166.1</ele>
        <time>2021-08-08T15:51:38Z</time>
      </trkpt>
      <trkpt lat="48.9902" lon="0.05588">
        <ele>166.24</ele>
        <time>2021-08-08T15:51:39Z</time>
      </trkpt>
      <trkpt lat="48.99021" lon="0.05586">
        <ele>166.36</ele>
        <time>2021-08-08T15:51:40Z</time>
      </trkpt>
      <trkpt lat="48.99021" lon="0.05583">
        <ele>166.49</ele>
        <time>2021-08-08T15:51:41Z</time>
      </trkpt>
      <trkpt lat="48.99022" lon="0.05582">
        <ele>166.59</ele>
        <time>2021-08-08T15:51:42Z</time>
      </trkpt>
      <trkpt lat="48.99022" lon="0.05579">
        <ele>166.69</ele>
        <time>2021-08-08T15:51:43Z</time>
      </trkpt>
      <trkpt lat="48.99022" lon="0.05578">
        <ele>166.77</ele>
        <time>2021-08-08T15:51:44Z</time>
      </trkpt>
      <trkpt lat="48.99023" lon="0.05577">
        <ele>166.84</ele>
        <time>2021-08-08T15:51:45Z</time>
      </trkpt>
      <trkpt lat="48.99023" lon="0.05576">
        <ele>166.9</ele>
        <time>2021-08-08T15:51:46Z</time>
      </trkpt>
      <trkpt lat="48.99024" lon="0.05574">
        <ele>166.98</ele>
        <time>2021-08-08T15:51:47Z</time>
      </trkpt>
      <trkpt lat="48.99025" lon="0.05573">
        <ele>167.11</ele>
        <time>2021-08-08T15:51:48Z</time>
      </trkpt>
      <trkpt lat="48.99026" lon="0.0557">
        <ele>167.27</ele>
        <time>2021-08-08T15:51:49Z</time>
      </trkpt>
      <trkpt lat="48.99027" lon="0.05567">
        <ele>167.46</ele>
        <time>2021-08-08T15:51:50Z</time>
      </trkpt>
      <trkpt lat="48.99028" lon="0.05565">
        <ele>167.61</ele>
        <time>2021-08-08T15:51:51Z</time>
      </trkpt>
      <trkpt lat="48.9903" lon="0.05561">
        <ele>167.79</ele>
        <time>2021-08-08T15:51:52Z</time>
      </trkpt>
      <trkpt lat="48.99031" lon="0.05559">
        <ele>167.92</ele>
        <time>2021-08-08T15:51:53Z</time>
      </trkpt>
      <trkpt lat="48.99031" lon="0.05557">
        <ele>168.02</ele>
        <time>2021-08-08T15:51:54Z</time>
      </trkpt>
      <trkpt lat="48.99031" lon="0.05555">
        <ele>168.08</ele>
        <time>2021-08-08T15:51:55Z</time>
      </trkpt>
      <trkpt lat="48.9903" lon="0.05552">
        <ele>168.09</ele>
        <time>2021-08-08T15:51:56Z</time>
      </trkpt>
      <trkpt lat="48.9903" lon="0.05549">
        <ele>168.07</ele>
        <time>2021-08-08T15:51:57Z</time>
      </trkpt>
      <trkpt lat="48.9903" lon="0.05546">
        <ele>168.07</ele>
        <time>2021-08-08T15:51:58Z</time>
      </trkpt>
      <trkpt lat="48.9903" lon="0.05542">
        <ele>168.06</ele>
        <time>2021-08-08T15:51:59Z</time>
      </trkpt>
      <trkpt lat="48.99031" lon="0.05538">
        <ele>168.09</ele>
        <time>2021-08-08T15:52:00Z</time>
      </trkpt>
      <trkpt lat="48.99031" lon="0.05535">
        <ele>168.11</ele>
        <time>2021-08-08T15:52:01Z</time>
      </trkpt>
      <trkpt lat="48.99031" lon="0.05531">
        <ele>168.13</ele>
        <time>2021-08-08T15:52:02Z</time>
      </trkpt>
      <trkpt lat="48.99031" lon="0.05528">
        <ele>168.13</ele>
        <time>2021-08-08T15:52:03Z</time>
      </trkpt>
      <trkpt lat="48.99031" lon="0.05525">
        <ele>168.22</ele>
        <time>2021-08-08T15:52:04Z</time>
      </trkpt>
      <trkpt lat="48.99032" lon="0.05522">
        <ele>168.31</ele>
        <time>2021-08-08T15:52:05Z</time>
      </trkpt>
      <trkpt lat="48.99031" lon="0.05519">
        <ele>168.41</ele>
        <time>2021-08-08T15:52:06Z</time>
      </trkpt>
      <trkpt lat="48.99032" lon="0.05516">
        <ele>168.54</ele>
        <time>2021-08-08T15:52:07Z</time>
      </trkpt>
      <trkpt lat="48.99032" lon="0.05513">
        <ele>168.64</ele>
        <time>2021-08-08T15:52:08Z</time>
      </trkpt>
      <trkpt lat="48.99032" lon="0.0551">
        <ele>168.73</ele>
        <time>2021-08-08T15:52:09Z</time>
      </trkpt>
      <trkpt lat="48.99032" lon="0.05508">
        <ele>168.83</ele>
        <time>2021-08-08T15:52:10Z</time>
      </trkpt>
      <trkpt lat="48.99032" lon="0.05504">
        <ele>168.94</ele>
        <time>2021-08-08T15:52:11Z</time>
      </trkpt>
      <trkpt lat="48.99032" lon="0.05503">
        <ele>169.03</ele>
        <time>2021-08-08T15:52:12Z</time>
      </trkpt>
      <trkpt lat="48.99032" lon="0.055">
        <ele>169.12</ele>
        <time>2021-08-08T15:52:13Z</time>
      </trkpt>
      <trkpt lat="48.99032" lon="0.055">
        <ele>169.14</ele>
        <time>2021-08-08T15:52:14Z</time>
      </trkpt>
      <trkpt lat="48.99033" lon="0.05497">
        <ele>169.16</ele>
        <time>2021-08-08T15:52:15Z</time>
      </trkpt>
      <trkpt lat="48.99034" lon="0.05493">
        <ele>169.19</ele>
        <time>2021-08-08T15:52:16Z</time>
      </trkpt>
      <trkpt lat="48.99035" lon="0.0549">
        <ele>169.24</ele>
        <time>2021-08-08T15:52:17Z</time>
      </trkpt>
      <trkpt lat="48.99035" lon="0.05486">
        <ele>169.26</ele>
        <time>2021-08-08T15:52:18Z</time>
      </trkpt>
      <trkpt lat="48.99036" lon="0.05483">
        <ele>169.29</ele>
        <time>2021-08-08T15:52:19Z</time>
      </trkpt>
      <trkpt lat="48.99036" lon="0.05481">
        <ele>169.3</ele>
        <time>2021-08-08T15:52:20Z</time>
      </trkpt>
      <trkpt lat="48.99038" lon="0.05478">
        <ele>169.35</ele>
        <time>2021-08-08T15:52:21Z</time>
      </trkpt>
      <trkpt lat="48.9904" lon="0.05476">
        <ele>169.4</ele>
        <time>2021-08-08T15:52:22Z</time>
      </trkpt>
      <trkpt lat="48.99041" lon="0.05473">
        <ele>169.47</ele>
        <time>2021-08-08T15:52:23Z</time>
      </trkpt>
      <trkpt lat="48.99044" lon="0.05471">
        <ele>169.58</ele>
        <time>2021-08-08T15:52:24Z</time>
      </trkpt>
      <trkpt lat="48.99047" lon="0.05468">
        <ele>169.75</ele>
        <time>2021-08-08T15:52:25Z</time>
      </trkpt>
      <trkpt lat="48.99049" lon="0.05466">
        <ele>169.91</ele>
        <time>2021-08-08T15:52:26Z</time>
      </trkpt>
      <trkpt lat="48.99051" lon="0.05464">
        <ele>170.06</ele>
        <time>2021-08-08T15:52:27Z</time>
      </trkpt>
      <trkpt lat="48.99054" lon="0.05461">
        <ele>170.24</ele>
        <time>2021-08-08T15:52:28Z</time>
      </trkpt>
      <trkpt lat="48.99056" lon="0.0546">
        <ele>170.41</ele>
        <time>2021-08-08T15:52:29Z</time>
      </trkpt>
      <trkpt lat="48.99058" lon="0.05457">
        <ele>170.59</ele>
        <time>2021-08-08T15:52:30Z</time>
      </trkpt>
      <trkpt lat="48.9906" lon="0.05456">
        <ele>170.76</ele>
        <time>2021-08-08T15:52:31Z</time>
      </trkpt>
      <trkpt lat="48.99062" lon="0.05454">
        <ele>170.91</ele>
        <time>2021-08-08T15:52:32Z</time>
      </trkpt>
      <trkpt lat="48.99064" lon="0.05451">
        <ele>171.06</ele>
        <time>2021-08-08T15:52:33Z</time>
      </trkpt>
      <trkpt lat="48.99066" lon="0.05448">
        <ele>171.21</ele>
        <time>2021-08-08T15:52:34Z</time>
      </trkpt>
      <trkpt lat="48.99068" lon="0.05445">
        <ele>171.37</ele>
        <time>2021-08-08T15:52:35Z</time>
      </trkpt>
      <trkpt lat="48.9907" lon="0.05441">
        <ele>171.52</ele>
        <time>2021-08-08T15:52:36Z</time>
      </trkpt>
      <trkpt lat="48.99073" lon="0.05437">
        <ele>171.71</ele>
        <time>2021-08-08T15:52:37Z</time>
      </trkpt>
      <trkpt lat="48.99074" lon="0.05432">
        <ele>171.89</ele>
        <time>2021-08-08T15:52:38Z</time>
      </trkpt>
      <trkpt lat="48.99077" lon="0.05428">
        <ele>172.12</ele>
        <time>2021-08-08T15:52:39Z</time>
      </trkpt>
      <trkpt lat="48.9908" lon="0.05425">
        <ele>172.36</ele>
        <time>2021-08-08T15:52:40Z</time>
      </trkpt>
      <trkpt lat="48.99083" lon="0.05422">
        <ele>172.65</ele>
        <time>2021-08-08T15:52:41Z</time>
      </trkpt>
      <trkpt lat="48.99085" lon="0.0542">
        <ele>172.82</ele>
        <time>2021-08-08T15:52:42Z</time>
      </trkpt>
      <trkpt lat="48.99087" lon="0.05417">
        <ele>172.94</ele>
        <time>2021-08-08T15:52:43Z</time>
      </trkpt>
      <trkpt lat="48.9909" lon="0.05414">
        <ele>173</ele>
        <time>2021-08-08T15:52:44Z</time>
      </trkpt>
      <trkpt lat="48.99093" lon="0.0541">
        <ele>173.06</ele>
        <time>2021-08-08T15:52:45Z</time>
      </trkpt>
      <trkpt lat="48.99095" lon="0.05407">
        <ele>173.12</ele>
        <time>2021-08-08T15:52:46Z</time>
      </trkpt>
      <trkpt lat="48.99097" lon="0.05405">
        <ele>173.19</ele>
        <time>2021-08-08T15:52:47Z</time>
      </trkpt>
      <trkpt lat="48.99099" lon="0.05402">
        <ele>173.27</ele>
        <time>2021-08-08T15:52:48Z</time>
      </trkpt>
      <trkpt lat="48.99101" lon="0.05398">
        <ele>173.38</ele>
        <time>2021-08-08T15:52:49Z</time>
      </trkpt>
      <trkpt lat="48.99102" lon="0.05394">
        <ele>173.51</ele>
        <time>2021-08-08T15:52:50Z</time>
      </trkpt>
      <trkpt lat="48.99103" lon="0.0539">
        <ele>173.63</ele>
        <time>2021-08-08T15:52:51Z</time>
      </trkpt>
      <trkpt lat="48.99104" lon="0.05383">
        <ele>173.71</ele>
        <time>2021-08-08T15:52:52Z</time>
      </trkpt>
      <trkpt lat="48.99104" lon="0.05378">
        <ele>173.74</ele>
        <time>2021-08-08T15:52:53Z</time>
      </trkpt>
      <trkpt lat="48.99105" lon="0.05373">
        <ele>173.76</ele>
        <time>2021-08-08T15:52:54Z</time>
      </trkpt>
      <trkpt lat="48.99105" lon="0.05367">
        <ele>173.77</ele>
        <time>2021-08-08T15:52:55Z</time>
      </trkpt>
      <trkpt lat="48.99105" lon="0.05363">
        <ele>173.78</ele>
        <time>2021-08-08T15:52:56Z</time>
      </trkpt>
      <trkpt lat="48.99106" lon="0.05359">
        <ele>173.8</ele>
        <time>2021-08-08T15:52:57Z</time>
      </trkpt>
      <trkpt lat="48.99106" lon="0.05355">
        <ele>173.81</ele>
        <time>2021-08-08T15:52:58Z</time>
      </trkpt>
      <trkpt lat="48.99106" lon="0.05351">
        <ele>173.83</ele>
        <time>2021-08-08T15:52:59Z</time>
      </trkpt>
      <trkpt lat="48.99107" lon="0.05348">
        <ele>173.84</ele>
        <time>2021-08-08T15:53:00Z</time>
      </trkpt>
      <trkpt lat="48.99107" lon="0.05345">
        <ele>173.85</ele>
        <time>2021-08-08T15:53:01Z</time>
      </trkpt>
      <trkpt lat="48.99108" lon="0.05342">
        <ele>173.87</ele>
        <time>2021-08-08T15:53:02Z</time>
      </trkpt>
      <trkpt lat="48.99109" lon="0.05339">
        <ele>173.9</ele>
        <time>2021-08-08T15:53:03Z</time>
      </trkpt>
      <trkpt lat="48.99109" lon="0.05337">
        <ele>173.91</ele>
        <time>2021-08-08T15:53:04Z</time>
      </trkpt>
      <trkpt lat="48.99109" lon="0.05337">
        <ele>173.92</ele>
        <time>2021-08-08T15:53:05Z</time>
      </trkpt>
      <trkpt lat="48.99109" lon="0.05337">
        <ele>173.93</ele>
        <time>2021-08-08T15:53:06Z</time>
      </trkpt>
      <trkpt lat="48.99109" lon="0.05337">
        <ele>173.93</ele>
        <time>2021-08-08T15:53:07Z</time>
      </trkpt>
      <trkpt lat="48.99109" lon="0.05337">
        <ele>173.94</ele>
        <time>2021-08-08T15:53:08Z</time>
      </trkpt>
      <trkpt lat="48.99109" lon="0.05337">
        <ele>173.94</ele>
        <time>2021-08-08T15:53:09Z</time>
      </trkpt>
      <trkpt lat="48.99109" lon="0.05337">
        <ele>173.94</ele>
        <time>2021-08-08T15:53:10Z</time>
      </trkpt>
      <trkpt lat="48.99109" lon="0.05337">
        <ele>173.94</ele>
        <time>2021-08-08T15:53:11Z</time>
      </trkpt>
      <trkpt lat="48.99109" lon="0.05337">
        <ele>173.94</ele>
        <time>2021-08-08T15:53:12Z</time>
      </trkpt>
      <trkpt lat="48.99109" lon="0.05337">
        <ele>173.94</ele>
        <time>2021-08-08T15:53:13Z</time>
      </trkpt>
      <trkpt lat="48.99109" lon="0.05337">
        <ele>173.94</ele>
        <time>2021-08-08T15:53:14Z</time>
      </trkpt>
      <trkpt lat="48.99109" lon="0.05337">
        <ele>173.94</ele>
        <time>2021-08-08T15:53:15Z</time>
      </trkpt>
      <trkpt lat="48.99109" lon="0.05337">
        <ele>173.94</ele>
        <time>2021-08-08T15:53:16Z</time>
      </trkpt>
      <trkpt lat="48.99109" lon="0.05337">
        <ele>173.94</ele>
        <time>2021-08-08T15:53:17Z</time>
      </trkpt>
      <trkpt lat="48.99109" lon="0.05337">
        <ele>173.94</ele>
        <time>2021-08-08T15:53:18Z</time>
      </trkpt>
      <trkpt lat="48.99109" lon="0.05337">
        <ele>173.94</ele>
        <time>2021-08-08T15:53:19Z</time>
      </trkpt>
      <trkpt lat="48.99109" lon="0.05337">
        <ele>173.94</ele>
        <time>2021-08-08T15:53:20Z</time>
      </trkpt>
      <trkpt lat="48.99109" lon="0.05337">
        <ele>173.94</ele>
        <time>2021-08-08T15:53:21Z</time>
      </trkpt>
      <trkpt lat="48.99109" lon="0.05337">
        <ele>173.94</ele>
        <time>2021-08-08T15:53:22Z</time>
      </trkpt>
      <trkpt lat="48.99109" lon="0.05337">
        <ele>173.94</ele>
        <time>2021-08-08T15:53:23Z</time>
      </trkpt>
      <trkpt lat="48.99109" lon="0.05337">
        <ele>173.94</ele>
        <time>2021-08-08T15:53:24Z</time>
      </trkpt>
      <trkpt lat="48.99109" lon="0.05337">
        <ele>173.94</ele>
        <time>2021-08-08T15:53:25Z</time>
      </trkpt>
      <trkpt lat="48.99109" lon="0.05337">
        <ele>173.94</ele>
        <time>2021-08-08T15:53:26Z</time>
      </trkpt>
      <trkpt lat="48.99109" lon="0.05337">
        <ele>173.94</ele>
        <time>2021-08-08T15:53:27Z</time>
      </trkpt>
      <trkpt lat="48.99109" lon="0.05337">
        <ele>173.94</ele>
        <time>2021-08-08T15:53:28Z</time>
      </trkpt>
      <trkpt lat="48.99109" lon="0.05337">
        <ele>173.94</ele>
        <time>2021-08-08T15:53:29Z</time>
      </trkpt>
      <trkpt lat="48.99109" lon="0.05337">
        <ele>173.94</ele>
        <time>2021-08-08T15:53:30Z</time>
      </trkpt>
      <trkpt lat="48.99109" lon="0.05337">
        <ele>173.94</ele>
        <time>2021-08-08T15:53:31Z</time>
      </trkpt>
      <trkpt lat="48.99109" lon="0.05337">
        <ele>173.94</ele>
        <time>2021-08-08T15:53:32Z</time>
      </trkpt>
      <trkpt lat="48.99109" lon="0.05337">
        <ele>173.94</ele>
        <time>2021-08-08T15:53:33Z</time>
      </trkpt>
      <trkpt lat="48.99109" lon="0.05337">
        <ele>173.94</ele>
        <time>2021-08-08T15:53:34Z</time>
      </trkpt>
      <trkpt lat="48.99109" lon="0.05337">
        <ele>173.94</ele>
        <time>2021-08-08T15:53:35Z</time>
      </trkpt>
      <trkpt lat="48.99109" lon="0.05337">
        <ele>173.94</ele>
        <time>2021-08-08T15:53:36Z</time>
      </trkpt>
      <trkpt lat="48.99109" lon="0.05337">
        <ele>173.94</ele>
        <time>2021-08-08T15:53:37Z</time>
      </trkpt>
      <trkpt lat="48.99109" lon="0.05337">
        <ele>173.94</ele>
        <time>2021-08-08T15:53:38Z</time>
      </trkpt>
      <trkpt lat="48.99109" lon="0.05337">
        <ele>173.94</ele>
        <time>2021-08-08T15:53:39Z</time>
      </trkpt>
      <trkpt lat="48.99112" lon="0.05333">
        <ele>174.01</ele>
        <time>2021-08-08T15:53:40Z</time>
      </trkpt>
      <trkpt lat="48.99112" lon="0.05333">
        <ele>174.01</ele>
        <time>2021-08-08T15:53:41Z</time>
      </trkpt>
      <trkpt lat="48.99113" lon="0.0533">
        <ele>174.06</ele>
        <time>2021-08-08T15:53:42Z</time>
      </trkpt>
      <trkpt lat="48.99114" lon="0.05326">
        <ele>174.1</ele>
        <time>2021-08-08T15:53:43Z</time>
      </trkpt>
      <trkpt lat="48.99116" lon="0.05323">
        <ele>174.16</ele>
        <time>2021-08-08T15:53:44Z</time>
      </trkpt>
      <trkpt lat="48.99117" lon="0.05319">
        <ele>174.21</ele>
        <time>2021-08-08T15:53:45Z</time>
      </trkpt>
      <trkpt lat="48.99119" lon="0.05315">
        <ele>174.27</ele>
        <time>2021-08-08T15:53:46Z</time>
      </trkpt>
      <trkpt lat="48.99121" lon="0.05311">
        <ele>174.33</ele>
        <time>2021-08-08T15:53:47Z</time>
      </trkpt>
      <trkpt lat="48.99122" lon="0.05306">
        <ele>174.38</ele>
        <time>2021-08-08T15:53:48Z</time>
      </trkpt>
      <trkpt lat="48.99123" lon="0.05302">
        <ele>174.43</ele>
        <time>2021-08-08T15:53:49Z</time>
      </trkpt>
      <trkpt lat="48.99125" lon="0.05297">
        <ele>174.47</ele>
        <time>2021-08-08T15:53:50Z</time>
      </trkpt>
      <trkpt lat="48.99126" lon="0.05292">
        <ele>174.52</ele>
        <time>2021-08-08T15:53:51Z</time>
      </trkpt>
      <trkpt lat="48.99128" lon="0.05287">
        <ele>174.58</ele>
        <time>2021-08-08T15:53:52Z</time>
      </trkpt>
      <trkpt lat="48.9913" lon="0.05282">
        <ele>174.65</ele>
        <time>2021-08-08T15:53:53Z</time>
      </trkpt>
      <trkpt lat="48.99131" lon="0.05276">
        <ele>174.71</ele>
        <time>2021-08-08T15:53:54Z</time>
      </trkpt>
      <trkpt lat="48.99132" lon="0.05271">
        <ele>174.78</ele>
        <time>2021-08-08T15:53:55Z</time>
      </trkpt>
      <trkpt lat="48.99132" lon="0.05264">
        <ele>174.85</ele>
        <time>2021-08-08T15:53:56Z</time>
      </trkpt>
      <trkpt lat="48.99133" lon="0.05258">
        <ele>174.91</ele>
        <time>2021-08-08T15:53:57Z</time>
      </trkpt>
      <trkpt lat="48.99134" lon="0.05252">
        <ele>174.97</ele>
        <time>2021-08-08T15:53:58Z</time>
      </trkpt>
      <trkpt lat="48.99135" lon="0.05246">
        <ele>174.99</ele>
        <time>2021-08-08T15:53:59Z</time>
      </trkpt>
      <trkpt lat="48.99136" lon="0.0524">
        <ele>175</ele>
        <time>2021-08-08T15:54:00Z</time>
      </trkpt>
      <trkpt lat="48.99137" lon="0.05236">
        <ele>175</ele>
        <time>2021-08-08T15:54:01Z</time>
      </trkpt>
      <trkpt lat="48.99136" lon="0.0523">
        <ele>175</ele>
        <time>2021-08-08T15:54:02Z</time>
      </trkpt>
      <trkpt lat="48.99136" lon="0.05225">
        <ele>175</ele>
        <time>2021-08-08T15:54:03Z</time>
      </trkpt>
      <trkpt lat="48.99136" lon="0.05218">
        <ele>175.09</ele>
        <time>2021-08-08T15:54:04Z</time>
      </trkpt>
      <trkpt lat="48.99137" lon="0.05212">
        <ele>175.26</ele>
        <time>2021-08-08T15:54:05Z</time>
      </trkpt>
      <trkpt lat="48.99137" lon="0.05206">
        <ele>175.46</ele>
        <time>2021-08-08T15:54:06Z</time>
      </trkpt>
      <trkpt lat="48.99136" lon="0.05199">
        <ele>175.65</ele>
        <time>2021-08-08T15:54:07Z</time>
      </trkpt>
      <trkpt lat="48.99134" lon="0.05194">
        <ele>175.78</ele>
        <time>2021-08-08T15:54:08Z</time>
      </trkpt>
      <trkpt lat="48.99133" lon="0.05188">
        <ele>175.78</ele>
        <time>2021-08-08T15:54:09Z</time>
      </trkpt>
      <trkpt lat="48.99132" lon="0.05183">
        <ele>175.75</ele>
        <time>2021-08-08T15:54:10Z</time>
      </trkpt>
      <trkpt lat="48.9913" lon="0.05178">
        <ele>175.7</ele>
        <time>2021-08-08T15:54:11Z</time>
      </trkpt>
      <trkpt lat="48.99129" lon="0.05172">
        <ele>175.67</ele>
        <time>2021-08-08T15:54:12Z</time>
      </trkpt>
      <trkpt lat="48.99126" lon="0.05165">
        <ele>175.58</ele>
        <time>2021-08-08T15:54:13Z</time>
      </trkpt>
      <trkpt lat="48.99124" lon="0.05159">
        <ele>175.5</ele>
        <time>2021-08-08T15:54:14Z</time>
      </trkpt>
      <trkpt lat="48.99123" lon="0.05153">
        <ele>175.45</ele>
        <time>2021-08-08T15:54:15Z</time>
      </trkpt>
      <trkpt lat="48.99121" lon="0.05148">
        <ele>175.38</ele>
        <time>2021-08-08T15:54:16Z</time>
      </trkpt>
      <trkpt lat="48.99119" lon="0.05142">
        <ele>175.31</ele>
        <time>2021-08-08T15:54:17Z</time>
      </trkpt>
      <trkpt lat="48.99117" lon="0.05134">
        <ele>175.34</ele>
        <time>2021-08-08T15:54:18Z</time>
      </trkpt>
      <trkpt lat="48.99114" lon="0.05129">
        <ele>175.39</ele>
        <time>2021-08-08T15:54:19Z</time>
      </trkpt>
      <trkpt lat="48.99111" lon="0.05124">
        <ele>175.48</ele>
        <time>2021-08-08T15:54:20Z</time>
      </trkpt>
      <trkpt lat="48.99109" lon="0.05117">
        <ele>175.64</ele>
        <time>2021-08-08T15:54:21Z</time>
      </trkpt>
      <trkpt lat="48.99107" lon="0.05111">
        <ele>175.78</ele>
        <time>2021-08-08T15:54:22Z</time>
      </trkpt>
      <trkpt lat="48.99105" lon="0.05107">
        <ele>175.79</ele>
        <time>2021-08-08T15:54:23Z</time>
      </trkpt>
      <trkpt lat="48.99103" lon="0.05103">
        <ele>175.79</ele>
        <time>2021-08-08T15:54:24Z</time>
      </trkpt>
      <trkpt lat="48.991" lon="0.05099">
        <ele>175.79</ele>
        <time>2021-08-08T15:54:25Z</time>
      </trkpt>
      <trkpt lat="48.99098" lon="0.05093">
        <ele>175.82</ele>
        <time>2021-08-08T15:54:26Z</time>
      </trkpt>
      <trkpt lat="48.99096" lon="0.05089">
        <ele>175.87</ele>
        <time>2021-08-08T15:54:27Z</time>
      </trkpt>
      <trkpt lat="48.99094" lon="0.05086">
        <ele>175.92</ele>
        <time>2021-08-08T15:54:28Z</time>
      </trkpt>
      <trkpt lat="48.99094" lon="0.0508">
        <ele>175.98</ele>
        <time>2021-08-08T15:54:29Z</time>
      </trkpt>
      <trkpt lat="48.99093" lon="0.05073">
        <ele>175.99</ele>
        <time>2021-08-08T15:54:30Z</time>
      </trkpt>
      <trkpt lat="48.99093" lon="0.05066">
        <ele>176</ele>
        <time>2021-08-08T15:54:31Z</time>
      </trkpt>
      <trkpt lat="48.99093" lon="0.05058">
        <ele>176</ele>
        <time>2021-08-08T15:54:32Z</time>
      </trkpt>
      <trkpt lat="48.99092" lon="0.05052">
        <ele>176</ele>
        <time>2021-08-08T15:54:33Z</time>
      </trkpt>
      <trkpt lat="48.99091" lon="0.05047">
        <ele>176</ele>
        <time>2021-08-08T15:54:34Z</time>
      </trkpt>
      <trkpt lat="48.99089" lon="0.0504">
        <ele>176</ele>
        <time>2021-08-08T15:54:35Z</time>
      </trkpt>
      <trkpt lat="48.99088" lon="0.05035">
        <ele>176</ele>
        <time>2021-08-08T15:54:36Z</time>
      </trkpt>
      <trkpt lat="48.99087" lon="0.05028">
        <ele>176</ele>
        <time>2021-08-08T15:54:37Z</time>
      </trkpt>
      <trkpt lat="48.99086" lon="0.05022">
        <ele>176</ele>
        <time>2021-08-08T15:54:38Z</time>
      </trkpt>
      <trkpt lat="48.99086" lon="0.05014">
        <ele>176</ele>
        <time>2021-08-08T15:54:39Z</time>
      </trkpt>
      <trkpt lat="48.99086" lon="0.05007">
        <ele>176</ele>
        <time>2021-08-08T15:54:40Z</time>
      </trkpt>
      <trkpt lat="48.99085" lon="0.05002">
        <ele>176</ele>
        <time>2021-08-08T15:54:41Z</time>
      </trkpt>
      <trkpt lat="48.99084" lon="0.04997">
        <ele>176</ele>
        <time>2021-08-08T15:54:42Z</time>
      </trkpt>
      <trkpt lat="48.99084" lon="0.04991">
        <ele>176</ele>
        <time>2021-08-08T15:54:43Z</time>
      </trkpt>
      <trkpt lat="48.99083" lon="0.04985">
        <ele>176</ele>
        <time>2021-08-08T15:54:44Z</time>
      </trkpt>
      <trkpt lat="48.99083" lon="0.04976">
        <ele>176</ele>
        <time>2021-08-08T15:54:45Z</time>
      </trkpt>
      <trkpt lat="48.99082" lon="0.04967">
        <ele>176</ele>
        <time>2021-08-08T15:54:46Z</time>
      </trkpt>
      <trkpt lat="48.99081" lon="0.0496">
        <ele>176</ele>
        <time>2021-08-08T15:54:47Z</time>
      </trkpt>
      <trkpt lat="48.9908" lon="0.04952">
        <ele>176</ele>
        <time>2021-08-08T15:54:48Z</time>
      </trkpt>
      <trkpt lat="48.9908" lon="0.04944">
        <ele>175.99</ele>
        <time>2021-08-08T15:54:49Z</time>
      </trkpt>
      <trkpt lat="48.99078" lon="0.04936">
        <ele>175.78</ele>
        <time>2021-08-08T15:54:50Z</time>
      </trkpt>
      <trkpt lat="48.99078" lon="0.04929">
        <ele>175.56</ele>
        <time>2021-08-08T15:54:51Z</time>
      </trkpt>
      <trkpt lat="48.99077" lon="0.04922">
        <ele>175.31</ele>
        <time>2021-08-08T15:54:52Z</time>
      </trkpt>
      <trkpt lat="48.99078" lon="0.04916">
        <ele>175.09</ele>
        <time>2021-08-08T15:54:53Z</time>
      </trkpt>
      <trkpt lat="48.9908" lon="0.04912">
        <ele>175.03</ele>
        <time>2021-08-08T15:54:54Z</time>
      </trkpt>
      <trkpt lat="48.99081" lon="0.04906">
        <ele>175.01</ele>
        <time>2021-08-08T15:54:55Z</time>
      </trkpt>
      <trkpt lat="48.99081" lon="0.04901">
        <ele>175</ele>
        <time>2021-08-08T15:54:56Z</time>
      </trkpt>
      <trkpt lat="48.9908" lon="0.04896">
        <ele>175</ele>
        <time>2021-08-08T15:54:57Z</time>
      </trkpt>
      <trkpt lat="48.99079" lon="0.0489">
        <ele>175</ele>
        <time>2021-08-08T15:54:58Z</time>
      </trkpt>
      <trkpt lat="48.99078" lon="0.04885">
        <ele>174.91</ele>
        <time>2021-08-08T15:54:59Z</time>
      </trkpt>
      <trkpt lat="48.9908" lon="0.04878">
        <ele>174.7</ele>
        <time>2021-08-08T15:55:00Z</time>
      </trkpt>
      <trkpt lat="48.99079" lon="0.04871">
        <ele>174.47</ele>
        <time>2021-08-08T15:55:01Z</time>
      </trkpt>
      <trkpt lat="48.9908" lon="0.04865">
        <ele>174.23</ele>
        <time>2021-08-08T15:55:02Z</time>
      </trkpt>
      <trkpt lat="48.99079" lon="0.04858">
        <ele>173.99</ele>
        <time>2021-08-08T15:55:03Z</time>
      </trkpt>
      <trkpt lat="48.99079" lon="0.04853">
        <ele>173.78</ele>
        <time>2021-08-08T15:55:04Z</time>
      </trkpt>
      <trkpt lat="48.99076" lon="0.04845">
        <ele>173.53</ele>
        <time>2021-08-08T15:55:05Z</time>
      </trkpt>
      <trkpt lat="48.99076" lon="0.04839">
        <ele>173.31</ele>
        <time>2021-08-08T15:55:06Z</time>
      </trkpt>
      <trkpt lat="48.99075" lon="0.04833">
        <ele>173.09</ele>
        <time>2021-08-08T15:55:07Z</time>
      </trkpt>
      <trkpt lat="48.99075" lon="0.04827">
        <ele>172.77</ele>
        <time>2021-08-08T15:55:08Z</time>
      </trkpt>
      <trkpt lat="48.99075" lon="0.04819">
        <ele>172.33</ele>
        <time>2021-08-08T15:55:09Z</time>
      </trkpt>
      <trkpt lat="48.99076" lon="0.0481">
        <ele>171.8</ele>
        <time>2021-08-08T15:55:10Z</time>
      </trkpt>
      <trkpt lat="48.99076" lon="0.04801">
        <ele>171.3</ele>
        <time>2021-08-08T15:55:11Z</time>
      </trkpt>
      <trkpt lat="48.99075" lon="0.04794">
        <ele>170.91</ele>
        <time>2021-08-08T15:55:12Z</time>
      </trkpt>
      <trkpt lat="48.99076" lon="0.04785">
        <ele>170.51</ele>
        <time>2021-08-08T15:55:13Z</time>
      </trkpt>
      <trkpt lat="48.99078" lon="0.04778">
        <ele>170.17</ele>
        <time>2021-08-08T15:55:14Z</time>
      </trkpt>
      <trkpt lat="48.99079" lon="0.04772">
        <ele>169.75</ele>
        <time>2021-08-08T15:55:15Z</time>
      </trkpt>
      <trkpt lat="48.9908" lon="0.04765">
        <ele>169.3</ele>
        <time>2021-08-08T15:55:16Z</time>
      </trkpt>
      <trkpt lat="48.99079" lon="0.04758">
        <ele>168.77</ele>
        <time>2021-08-08T15:55:17Z</time>
      </trkpt>
      <trkpt lat="48.99079" lon="0.04749">
        <ele>168</ele>
        <time>2021-08-08T15:55:18Z</time>
      </trkpt>
      <trkpt lat="48.99078" lon="0.0474">
        <ele>166.31</ele>
        <time>2021-08-08T15:55:19Z</time>
      </trkpt>
      <trkpt lat="48.99076" lon="0.04731">
        <ele>164.19</ele>
        <time>2021-08-08T15:55:20Z</time>
      </trkpt>
      <trkpt lat="48.99073" lon="0.04721">
        <ele>162.07</ele>
        <time>2021-08-08T15:55:21Z</time>
      </trkpt>
      <trkpt lat="48.99069" lon="0.04713">
        <ele>160.29</ele>
        <time>2021-08-08T15:55:22Z</time>
      </trkpt>
      <trkpt lat="48.99066" lon="0.04704">
        <ele>158.49</ele>
        <time>2021-08-08T15:55:23Z</time>
      </trkpt>
      <trkpt lat="48.99063" lon="0.04696">
        <ele>156.84</ele>
        <time>2021-08-08T15:55:24Z</time>
      </trkpt>
      <trkpt lat="48.9906" lon="0.04688">
        <ele>155.16</ele>
        <time>2021-08-08T15:55:25Z</time>
      </trkpt>
      <trkpt lat="48.99057" lon="0.0468">
        <ele>153.52</ele>
        <time>2021-08-08T15:55:26Z</time>
      </trkpt>
      <trkpt lat="48.99054" lon="0.04671">
        <ele>151.81</ele>
        <time>2021-08-08T15:55:27Z</time>
      </trkpt>
      <trkpt lat="48.9905" lon="0.04662">
        <ele>150.2</ele>
        <time>2021-08-08T15:55:28Z</time>
      </trkpt>
      <trkpt lat="48.99043" lon="0.04649">
        <ele>148.45</ele>
        <time>2021-08-08T15:55:29Z</time>
      </trkpt>
      <trkpt lat="48.99037" lon="0.04638">
        <ele>146.92</ele>
        <time>2021-08-08T15:55:30Z</time>
      </trkpt>
      <trkpt lat="48.99033" lon="0.04631">
        <ele>146.14</ele>
        <time>2021-08-08T15:55:31Z</time>
      </trkpt>
      <trkpt lat="48.99031" lon="0.04627">
        <ele>145.65</ele>
        <time>2021-08-08T15:55:32Z</time>
      </trkpt>
      <trkpt lat="48.99029" lon="0.04621">
        <ele>145.21</ele>
        <time>2021-08-08T15:55:33Z</time>
      </trkpt>
      <trkpt lat="48.99028" lon="0.04618">
        <ele>144.87</ele>
        <time>2021-08-08T15:55:34Z</time>
      </trkpt>
      <trkpt lat="48.99027" lon="0.04617">
        <ele>144.69</ele>
        <time>2021-08-08T15:55:35Z</time>
      </trkpt>
      <trkpt lat="48.99027" lon="0.04618">
        <ele>144.79</ele>
        <time>2021-08-08T15:55:36Z</time>
      </trkpt>
      <trkpt lat="48.99028" lon="0.0462">
        <ele>144.9</ele>
        <time>2021-08-08T15:55:37Z</time>
      </trkpt>
      <trkpt lat="48.99028" lon="0.0462">
        <ele>144.95</ele>
        <time>2021-08-08T15:55:38Z</time>
      </trkpt>
      <trkpt lat="48.99028" lon="0.0462">
        <ele>144.97</ele>
        <time>2021-08-08T15:55:39Z</time>
      </trkpt>
      <trkpt lat="48.99028" lon="0.0462">
        <ele>144.97</ele>
        <time>2021-08-08T15:55:40Z</time>
      </trkpt>
      <trkpt lat="48.99028" lon="0.0462">
        <ele>144.97</ele>
        <time>2021-08-08T15:55:41Z</time>
      </trkpt>
      <trkpt lat="48.99028" lon="0.0462">
        <ele>144.97</ele>
        <time>2021-08-08T15:55:42Z</time>
      </trkpt>
      <trkpt lat="48.99028" lon="0.0462">
        <ele>144.97</ele>
        <time>2021-08-08T15:55:43Z</time>
      </trkpt>
      <trkpt lat="48.99028" lon="0.0462">
        <ele>144.97</ele>
        <time>2021-08-08T15:55:44Z</time>
      </trkpt>
      <trkpt lat="48.99028" lon="0.0462">
        <ele>144.97</ele>
        <time>2021-08-08T15:55:45Z</time>
      </trkpt>
      <trkpt lat="48.99023" lon="0.04612">
        <ele>144.47</ele>
        <time>2021-08-08T15:55:46Z</time>
      </trkpt>
      <trkpt lat="48.99023" lon="0.04605">
        <ele>143.67</ele>
        <time>2021-08-08T15:55:47Z</time>
      </trkpt>
      <trkpt lat="48.99021" lon="0.04596">
        <ele>142.57</ele>
        <time>2021-08-08T15:55:48Z</time>
      </trkpt>
      <trkpt lat="48.99021" lon="0.04591">
        <ele>141.68</ele>
        <time>2021-08-08T15:55:49Z</time>
      </trkpt>
      <trkpt lat="48.9902" lon="0.04584">
        <ele>140.72</ele>
        <time>2021-08-08T15:55:50Z</time>
      </trkpt>
      <trkpt lat="48.99019" lon="0.04575">
        <ele>139.65</ele>
        <time>2021-08-08T15:55:51Z</time>
      </trkpt>
      <trkpt lat="48.99017" lon="0.04572">
        <ele>138.99</ele>
        <time>2021-08-08T15:55:52Z</time>
      </trkpt>
      <trkpt lat="48.99013" lon="0.04569">
        <ele>138.6</ele>
        <time>2021-08-08T15:55:53Z</time>
      </trkpt>
      <trkpt lat="48.99011" lon="0.04567">
        <ele>138.33</ele>
        <time>2021-08-08T15:55:54Z</time>
      </trkpt>
      <trkpt lat="48.99011" lon="0.04567">
        <ele>138.3</ele>
        <time>2021-08-08T15:55:55Z</time>
      </trkpt>
      <trkpt lat="48.9901" lon="0.04567">
        <ele>138.29</ele>
        <time>2021-08-08T15:55:56Z</time>
      </trkpt>
      <trkpt lat="48.99009" lon="0.04567">
        <ele>138.33</ele>
        <time>2021-08-08T15:55:57Z</time>
      </trkpt>
      <trkpt lat="48.99009" lon="0.04567">
        <ele>138.34</ele>
        <time>2021-08-08T15:55:58Z</time>
      </trkpt>
      <trkpt lat="48.99009" lon="0.04567">
        <ele>138.34</ele>
        <time>2021-08-08T15:55:59Z</time>
      </trkpt>
      <trkpt lat="48.99009" lon="0.04567">
        <ele>138.34</ele>
        <time>2021-08-08T15:56:00Z</time>
      </trkpt>
      <trkpt lat="48.99009" lon="0.04567">
        <ele>138.34</ele>
        <time>2021-08-08T15:56:01Z</time>
      </trkpt>
      <trkpt lat="48.99005" lon="0.04573">
        <ele>139.06</ele>
        <time>2021-08-08T15:56:02Z</time>
      </trkpt>
      <trkpt lat="48.99004" lon="0.04576">
        <ele>139.55</ele>
        <time>2021-08-08T15:56:03Z</time>
      </trkpt>
      <trkpt lat="48.99003" lon="0.04577">
        <ele>139.81</ele>
        <time>2021-08-08T15:56:04Z</time>
      </trkpt>
      <trkpt lat="48.99001" lon="0.04578">
        <ele>140.07</ele>
        <time>2021-08-08T15:56:05Z</time>
      </trkpt>
      <trkpt lat="48.99" lon="0.04581">
        <ele>140.45</ele>
        <time>2021-08-08T15:56:06Z</time>
      </trkpt>
      <trkpt lat="48.98999" lon="0.04583">
        <ele>140.75</ele>
        <time>2021-08-08T15:56:07Z</time>
      </trkpt>
      <trkpt lat="48.98998" lon="0.04584">
        <ele>140.96</ele>
        <time>2021-08-08T15:56:08Z</time>
      </trkpt>
      <trkpt lat="48.98995" lon="0.04585">
        <ele>141.21</ele>
        <time>2021-08-08T15:56:09Z</time>
      </trkpt>
      <trkpt lat="48.98994" lon="0.04588">
        <ele>141.52</ele>
        <time>2021-08-08T15:56:10Z</time>
      </trkpt>
      <trkpt lat="48.98991" lon="0.0459">
        <ele>141.86</ele>
        <time>2021-08-08T15:56:11Z</time>
      </trkpt>
      <trkpt lat="48.98989" lon="0.04593">
        <ele>142.23</ele>
        <time>2021-08-08T15:56:12Z</time>
      </trkpt>
      <trkpt lat="48.98987" lon="0.04595">
        <ele>142.58</ele>
        <time>2021-08-08T15:56:13Z</time>
      </trkpt>
      <trkpt lat="48.98985" lon="0.04598">
        <ele>142.95</ele>
        <time>2021-08-08T15:56:14Z</time>
      </trkpt>
      <trkpt lat="48.98984" lon="0.046">
        <ele>143.32</ele>
        <time>2021-08-08T15:56:15Z</time>
      </trkpt>
      <trkpt lat="48.98983" lon="0.04602">
        <ele>143.59</ele>
        <time>2021-08-08T15:56:16Z</time>
      </trkpt>
      <trkpt lat="48.98982" lon="0.04604">
        <ele>143.83</ele>
        <time>2021-08-08T15:56:17Z</time>
      </trkpt>
      <trkpt lat="48.9898" lon="0.04606">
        <ele>144.12</ele>
        <time>2021-08-08T15:56:18Z</time>
      </trkpt>
      <trkpt lat="48.98978" lon="0.0461">
        <ele>144.61</ele>
        <time>2021-08-08T15:56:19Z</time>
      </trkpt>
      <trkpt lat="48.98977" lon="0.04613">
        <ele>145.03</ele>
        <time>2021-08-08T15:56:20Z</time>
      </trkpt>
      <trkpt lat="48.98976" lon="0.04616">
        <ele>145.36</ele>
        <time>2021-08-08T15:56:21Z</time>
      </trkpt>
      <trkpt lat="48.98975" lon="0.04617">
        <ele>145.59</ele>
        <time>2021-08-08T15:56:22Z</time>
      </trkpt>
      <trkpt lat="48.98973" lon="0.0462">
        <ele>145.88</ele>
        <time>2021-08-08T15:56:23Z</time>
      </trkpt>
      <trkpt lat="48.98972" lon="0.04623">
        <ele>146.14</ele>
        <time>2021-08-08T15:56:24Z</time>
      </trkpt>
      <trkpt lat="48.98971" lon="0.04624">
        <ele>146.3</ele>
        <time>2021-08-08T15:56:25Z</time>
      </trkpt>
      <trkpt lat="48.9897" lon="0.04626">
        <ele>146.49</ele>
        <time>2021-08-08T15:56:26Z</time>
      </trkpt>
      <trkpt lat="48.98969" lon="0.04627">
        <ele>146.69</ele>
        <time>2021-08-08T15:56:27Z</time>
      </trkpt>
      <trkpt lat="48.98967" lon="0.0463">
        <ele>146.9</ele>
        <time>2021-08-08T15:56:28Z</time>
      </trkpt>
      <trkpt lat="48.98966" lon="0.04633">
        <ele>147.2</ele>
        <time>2021-08-08T15:56:29Z</time>
      </trkpt>
      <trkpt lat="48.98964" lon="0.04635">
        <ele>147.48</ele>
        <time>2021-08-08T15:56:30Z</time>
      </trkpt>
      <trkpt lat="48.98962" lon="0.04637">
        <ele>147.71</ele>
        <time>2021-08-08T15:56:31Z</time>
      </trkpt>
      <trkpt lat="48.98961" lon="0.0464">
        <ele>148.04</ele>
        <time>2021-08-08T15:56:32Z</time>
      </trkpt>
      <trkpt lat="48.98959" lon="0.04642">
        <ele>148.37</ele>
        <time>2021-08-08T15:56:33Z</time>
      </trkpt>
      <trkpt lat="48.98957" lon="0.04645">
        <ele>148.8</ele>
        <time>2021-08-08T15:56:34Z</time>
      </trkpt>
      <trkpt lat="48.98955" lon="0.04649">
        <ele>149.3</ele>
        <time>2021-08-08T15:56:35Z</time>
      </trkpt>
      <trkpt lat="48.98954" lon="0.04651">
        <ele>149.71</ele>
        <time>2021-08-08T15:56:36Z</time>
      </trkpt>
      <trkpt lat="48.98952" lon="0.04653">
        <ele>150.09</ele>
        <time>2021-08-08T15:56:37Z</time>
      </trkpt>
      <trkpt lat="48.9895" lon="0.04656">
        <ele>150.42</ele>
        <time>2021-08-08T15:56:38Z</time>
      </trkpt>
      <trkpt lat="48.98948" lon="0.04658">
        <ele>150.7</ele>
        <time>2021-08-08T15:56:39Z</time>
      </trkpt>
      <trkpt lat="48.98947" lon="0.0466">
        <ele>151</ele>
        <time>2021-08-08T15:56:40Z</time>
      </trkpt>
      <trkpt lat="48.98945" lon="0.04662">
        <ele>151.26</ele>
        <time>2021-08-08T15:56:41Z</time>
      </trkpt>
      <trkpt lat="48.98943" lon="0.04664">
        <ele>151.4</ele>
        <time>2021-08-08T15:56:42Z</time>
      </trkpt>
      <trkpt lat="48.98942" lon="0.04666">
        <ele>151.44</ele>
        <time>2021-08-08T15:56:43Z</time>
      </trkpt>
      <trkpt lat="48.9894" lon="0.04667">
        <ele>151.53</ele>
        <time>2021-08-08T15:56:44Z</time>
      </trkpt>
      <trkpt lat="48.98939" lon="0.0467">
        <ele>151.69</ele>
        <time>2021-08-08T15:56:45Z</time>
      </trkpt>
      <trkpt lat="48.98937" lon="0.04672">
        <ele>151.85</ele>
        <time>2021-08-08T15:56:46Z</time>
      </trkpt>
      <trkpt lat="48.98935" lon="0.04673">
        <ele>151.76</ele>
        <time>2021-08-08T15:56:47Z</time>
      </trkpt>
      <trkpt lat="48.98933" lon="0.04674">
        <ele>151.72</ele>
        <time>2021-08-08T15:56:48Z</time>
      </trkpt>
      <trkpt lat="48.9893" lon="0.04675">
        <ele>151.62</ele>
        <time>2021-08-08T15:56:49Z</time>
      </trkpt>
      <trkpt lat="48.98928" lon="0.04677">
        <ele>151.73</ele>
        <time>2021-08-08T15:56:50Z</time>
      </trkpt>
      <trkpt lat="48.98925" lon="0.0468">
        <ele>151.9</ele>
        <time>2021-08-08T15:56:51Z</time>
      </trkpt>
      <trkpt lat="48.98923" lon="0.04682">
        <ele>152.05</ele>
        <time>2021-08-08T15:56:52Z</time>
      </trkpt>
      <trkpt lat="48.98921" lon="0.04684">
        <ele>152.19</ele>
        <time>2021-08-08T15:56:53Z</time>
      </trkpt>
      <trkpt lat="48.98919" lon="0.04688">
        <ele>152.71</ele>
        <time>2021-08-08T15:56:54Z</time>
      </trkpt>
      <trkpt lat="48.98917" lon="0.0469">
        <ele>153.01</ele>
        <time>2021-08-08T15:56:55Z</time>
      </trkpt>
      <trkpt lat="48.98915" lon="0.04692">
        <ele>153.14</ele>
        <time>2021-08-08T15:56:56Z</time>
      </trkpt>
      <trkpt lat="48.98912" lon="0.04692">
        <ele>153.06</ele>
        <time>2021-08-08T15:56:57Z</time>
      </trkpt>
      <trkpt lat="48.9891" lon="0.04694">
        <ele>153.16</ele>
        <time>2021-08-08T15:56:58Z</time>
      </trkpt>
      <trkpt lat="48.98908" lon="0.04696">
        <ele>153.28</ele>
        <time>2021-08-08T15:56:59Z</time>
      </trkpt>
      <trkpt lat="48.98906" lon="0.04698">
        <ele>153.45</ele>
        <time>2021-08-08T15:57:00Z</time>
      </trkpt>
      <trkpt lat="48.98904" lon="0.04699">
        <ele>153.62</ele>
        <time>2021-08-08T15:57:01Z</time>
      </trkpt>
      <trkpt lat="48.98902" lon="0.04701">
        <ele>153.74</ele>
        <time>2021-08-08T15:57:02Z</time>
      </trkpt>
      <trkpt lat="48.989" lon="0.04702">
        <ele>153.75</ele>
        <time>2021-08-08T15:57:03Z</time>
      </trkpt>
      <trkpt lat="48.98898" lon="0.04703">
        <ele>153.86</ele>
        <time>2021-08-08T15:57:04Z</time>
      </trkpt>
      <trkpt lat="48.98896" lon="0.04702">
        <ele>153.59</ele>
        <time>2021-08-08T15:57:05Z</time>
      </trkpt>
      <trkpt lat="48.98893" lon="0.04703">
        <ele>153.42</ele>
        <time>2021-08-08T15:57:06Z</time>
      </trkpt>
      <trkpt lat="48.98891" lon="0.04705">
        <ele>153.47</ele>
        <time>2021-08-08T15:57:07Z</time>
      </trkpt>
      <trkpt lat="48.98889" lon="0.04707">
        <ele>153.56</ele>
        <time>2021-08-08T15:57:08Z</time>
      </trkpt>
      <trkpt lat="48.98886" lon="0.04709">
        <ele>153.85</ele>
        <time>2021-08-08T15:57:09Z</time>
      </trkpt>
      <trkpt lat="48.98882" lon="0.04713">
        <ele>154.2</ele>
        <time>2021-08-08T15:57:10Z</time>
      </trkpt>
      <trkpt lat="48.98879" lon="0.04715">
        <ele>154.41</ele>
        <time>2021-08-08T15:57:11Z</time>
      </trkpt>
      <trkpt lat="48.98876" lon="0.04718">
        <ele>154.89</ele>
        <time>2021-08-08T15:57:12Z</time>
      </trkpt>
      <trkpt lat="48.98874" lon="0.0472">
        <ele>155.3</ele>
        <time>2021-08-08T15:57:13Z</time>
      </trkpt>
      <trkpt lat="48.98872" lon="0.04721">
        <ele>155.42</ele>
        <time>2021-08-08T15:57:14Z</time>
      </trkpt>
      <trkpt lat="48.9887" lon="0.04721">
        <ele>155.41</ele>
        <time>2021-08-08T15:57:15Z</time>
      </trkpt>
      <trkpt lat="48.98868" lon="0.04723">
        <ele>155.67</ele>
        <time>2021-08-08T15:57:16Z</time>
      </trkpt>
      <trkpt lat="48.98865" lon="0.04725">
        <ele>155.98</ele>
        <time>2021-08-08T15:57:17Z</time>
      </trkpt>
      <trkpt lat="48.98863" lon="0.04726">
        <ele>156.13</ele>
        <time>2021-08-08T15:57:18Z</time>
      </trkpt>
      <trkpt lat="48.98861" lon="0.04727">
        <ele>156.29</ele>
        <time>2021-08-08T15:57:19Z</time>
      </trkpt>
      <trkpt lat="48.98859" lon="0.04728">
        <ele>156.59</ele>
        <time>2021-08-08T15:57:20Z</time>
      </trkpt>
      <trkpt lat="48.98856" lon="0.0473">
        <ele>156.94</ele>
        <time>2021-08-08T15:57:21Z</time>
      </trkpt>
      <trkpt lat="48.98853" lon="0.04732">
        <ele>157.33</ele>
        <time>2021-08-08T15:57:22Z</time>
      </trkpt>
      <trkpt lat="48.98851" lon="0.04733">
        <ele>157.59</ele>
        <time>2021-08-08T15:57:23Z</time>
      </trkpt>
      <trkpt lat="48.9885" lon="0.04733">
        <ele>157.7</ele>
        <time>2021-08-08T15:57:24Z</time>
      </trkpt>
      <trkpt lat="48.98848" lon="0.04733">
        <ele>157.73</ele>
        <time>2021-08-08T15:57:25Z</time>
      </trkpt>
      <trkpt lat="48.98846" lon="0.04735">
        <ele>158.05</ele>
        <time>2021-08-08T15:57:26Z</time>
      </trkpt>
      <trkpt lat="48.98845" lon="0.04737">
        <ele>158.42</ele>
        <time>2021-08-08T15:57:27Z</time>
      </trkpt>
      <trkpt lat="48.98842" lon="0.04739">
        <ele>158.96</ele>
        <time>2021-08-08T15:57:28Z</time>
      </trkpt>
      <trkpt lat="48.9884" lon="0.04741">
        <ele>159.47</ele>
        <time>2021-08-08T15:57:29Z</time>
      </trkpt>
      <trkpt lat="48.98838" lon="0.04743">
        <ele>159.97</ele>
        <time>2021-08-08T15:57:30Z</time>
      </trkpt>
      <trkpt lat="48.98835" lon="0.04746">
        <ele>160.63</ele>
        <time>2021-08-08T15:57:31Z</time>
      </trkpt>
      <trkpt lat="48.98833" lon="0.04747">
        <ele>161.04</ele>
        <time>2021-08-08T15:57:32Z</time>
      </trkpt>
      <trkpt lat="48.98831" lon="0.04749">
        <ele>161.39</ele>
        <time>2021-08-08T15:57:33Z</time>
      </trkpt>
      <trkpt lat="48.98829" lon="0.04751">
        <ele>161.77</ele>
        <time>2021-08-08T15:57:34Z</time>
      </trkpt>
      <trkpt lat="48.98826" lon="0.04752">
        <ele>162.01</ele>
        <time>2021-08-08T15:57:35Z</time>
      </trkpt>
      <trkpt lat="48.98824" lon="0.04754">
        <ele>162.27</ele>
        <time>2021-08-08T15:57:36Z</time>
      </trkpt>
      <trkpt lat="48.98822" lon="0.04757">
        <ele>162.61</ele>
        <time>2021-08-08T15:57:37Z</time>
      </trkpt>
      <trkpt lat="48.98819" lon="0.04759">
        <ele>162.95</ele>
        <time>2021-08-08T15:57:38Z</time>
      </trkpt>
      <trkpt lat="48.98817" lon="0.04761">
        <ele>163.24</ele>
        <time>2021-08-08T15:57:39Z</time>
      </trkpt>
      <trkpt lat="48.98814" lon="0.04762">
        <ele>163.41</ele>
        <time>2021-08-08T15:57:40Z</time>
      </trkpt>
      <trkpt lat="48.98812" lon="0.04764">
        <ele>163.69</ele>
        <time>2021-08-08T15:57:41Z</time>
      </trkpt>
      <trkpt lat="48.9881" lon="0.04766">
        <ele>163.97</ele>
        <time>2021-08-08T15:57:42Z</time>
      </trkpt>
      <trkpt lat="48.98806" lon="0.0477">
        <ele>164.37</ele>
        <time>2021-08-08T15:57:43Z</time>
      </trkpt>
      <trkpt lat="48.98804" lon="0.04771">
        <ele>164.69</ele>
        <time>2021-08-08T15:57:44Z</time>
      </trkpt>
      <trkpt lat="48.98801" lon="0.04772">
        <ele>164.92</ele>
        <time>2021-08-08T15:57:45Z</time>
      </trkpt>
      <trkpt lat="48.98799" lon="0.04775">
        <ele>165.29</ele>
        <time>2021-08-08T15:57:46Z</time>
      </trkpt>
      <trkpt lat="48.98796" lon="0.04777">
        <ele>165.68</ele>
        <time>2021-08-08T15:57:47Z</time>
      </trkpt>
      <trkpt lat="48.98794" lon="0.04778">
        <ele>165.94</ele>
        <time>2021-08-08T15:57:48Z</time>
      </trkpt>
      <trkpt lat="48.98791" lon="0.0478">
        <ele>166.11</ele>
        <time>2021-08-08T15:57:49Z</time>
      </trkpt>
      <trkpt lat="48.98789" lon="0.04782">
        <ele>166.25</ele>
        <time>2021-08-08T15:57:50Z</time>
      </trkpt>
      <trkpt lat="48.98785" lon="0.04784">
        <ele>166.39</ele>
        <time>2021-08-08T15:57:51Z</time>
      </trkpt>
      <trkpt lat="48.98782" lon="0.04786">
        <ele>166.51</ele>
        <time>2021-08-08T15:57:52Z</time>
      </trkpt>
      <trkpt lat="48.9878" lon="0.04788">
        <ele>166.65</ele>
        <time>2021-08-08T15:57:53Z</time>
      </trkpt>
      <trkpt lat="48.98778" lon="0.04789">
        <ele>166.75</ele>
        <time>2021-08-08T15:57:54Z</time>
      </trkpt>
      <trkpt lat="48.98776" lon="0.04791">
        <ele>166.88</ele>
        <time>2021-08-08T15:57:55Z</time>
      </trkpt>
      <trkpt lat="48.98774" lon="0.04794">
        <ele>167.07</ele>
        <time>2021-08-08T15:57:56Z</time>
      </trkpt>
      <trkpt lat="48.98772" lon="0.04797">
        <ele>167.32</ele>
        <time>2021-08-08T15:57:57Z</time>
      </trkpt>
      <trkpt lat="48.9877" lon="0.048">
        <ele>167.53</ele>
        <time>2021-08-08T15:57:58Z</time>
      </trkpt>
      <trkpt lat="48.98768" lon="0.04803">
        <ele>167.72</ele>
        <time>2021-08-08T15:57:59Z</time>
      </trkpt>
      <trkpt lat="48.98766" lon="0.04805">
        <ele>167.91</ele>
        <time>2021-08-08T15:58:00Z</time>
      </trkpt>
      <trkpt lat="48.98763" lon="0.0481">
        <ele>168.17</ele>
        <time>2021-08-08T15:58:01Z</time>
      </trkpt>
      <trkpt lat="48.98763" lon="0.04811">
        <ele>168.34</ele>
        <time>2021-08-08T15:58:02Z</time>
      </trkpt>
      <trkpt lat="48.98761" lon="0.04815">
        <ele>168.59</ele>
        <time>2021-08-08T15:58:03Z</time>
      </trkpt>
      <trkpt lat="48.98761" lon="0.04818">
        <ele>168.79</ele>
        <time>2021-08-08T15:58:04Z</time>
      </trkpt>
      <trkpt lat="48.98761" lon="0.04821">
        <ele>169</ele>
        <time>2021-08-08T15:58:05Z</time>
      </trkpt>
      <trkpt lat="48.98761" lon="0.04825">
        <ele>169.27</ele>
        <time>2021-08-08T15:58:06Z</time>
      </trkpt>
      <trkpt lat="48.98762" lon="0.04828">
        <ele>169.5</ele>
        <time>2021-08-08T15:58:07Z</time>
      </trkpt>
      <trkpt lat="48.98762" lon="0.04831">
        <ele>169.73</ele>
        <time>2021-08-08T15:58:08Z</time>
      </trkpt>
      <trkpt lat="48.98762" lon="0.04834">
        <ele>169.97</ele>
        <time>2021-08-08T15:58:09Z</time>
      </trkpt>
      <trkpt lat="48.98762" lon="0.04838">
        <ele>170.23</ele>
        <time>2021-08-08T15:58:10Z</time>
      </trkpt>
      <trkpt lat="48.98762" lon="0.04842">
        <ele>170.52</ele>
        <time>2021-08-08T15:58:11Z</time>
      </trkpt>
      <trkpt lat="48.98762" lon="0.04847">
        <ele>170.82</ele>
        <time>2021-08-08T15:58:12Z</time>
      </trkpt>
      <trkpt lat="48.98764" lon="0.04851">
        <ele>171.15</ele>
        <time>2021-08-08T15:58:13Z</time>
      </trkpt>
      <trkpt lat="48.98764" lon="0.04856">
        <ele>171.48</ele>
        <time>2021-08-08T15:58:14Z</time>
      </trkpt>
      <trkpt lat="48.98763" lon="0.0486">
        <ele>171.8</ele>
        <time>2021-08-08T15:58:15Z</time>
      </trkpt>
      <trkpt lat="48.98762" lon="0.04864">
        <ele>172.02</ele>
        <time>2021-08-08T15:58:16Z</time>
      </trkpt>
      <trkpt lat="48.98763" lon="0.04867">
        <ele>172.16</ele>
        <time>2021-08-08T15:58:17Z</time>
      </trkpt>
      <trkpt lat="48.98762" lon="0.0487">
        <ele>172.28</ele>
        <time>2021-08-08T15:58:18Z</time>
      </trkpt>
      <trkpt lat="48.98762" lon="0.04873">
        <ele>172.39</ele>
        <time>2021-08-08T15:58:19Z</time>
      </trkpt>
      <trkpt lat="48.98762" lon="0.04876">
        <ele>172.48</ele>
        <time>2021-08-08T15:58:20Z</time>
      </trkpt>
      <trkpt lat="48.98762" lon="0.04879">
        <ele>172.59</ele>
        <time>2021-08-08T15:58:21Z</time>
      </trkpt>
      <trkpt lat="48.98764" lon="0.04882">
        <ele>172.69</ele>
        <time>2021-08-08T15:58:22Z</time>
      </trkpt>
      <trkpt lat="48.98765" lon="0.04884">
        <ele>172.78</ele>
        <time>2021-08-08T15:58:23Z</time>
      </trkpt>
      <trkpt lat="48.98767" lon="0.04886">
        <ele>172.86</ele>
        <time>2021-08-08T15:58:24Z</time>
      </trkpt>
      <trkpt lat="48.98768" lon="0.04889">
        <ele>172.96</ele>
        <time>2021-08-08T15:58:25Z</time>
      </trkpt>
      <trkpt lat="48.98769" lon="0.04892">
        <ele>173.07</ele>
        <time>2021-08-08T15:58:26Z</time>
      </trkpt>
      <trkpt lat="48.98771" lon="0.04894">
        <ele>173.14</ele>
        <time>2021-08-08T15:58:27Z</time>
      </trkpt>
      <trkpt lat="48.98772" lon="0.04896">
        <ele>173.23</ele>
        <time>2021-08-08T15:58:28Z</time>
      </trkpt>
      <trkpt lat="48.98774" lon="0.049">
        <ele>173.34</ele>
        <time>2021-08-08T15:58:29Z</time>
      </trkpt>
      <trkpt lat="48.98775" lon="0.04904">
        <ele>173.48</ele>
        <time>2021-08-08T15:58:30Z</time>
      </trkpt>
      <trkpt lat="48.98777" lon="0.04908">
        <ele>173.63</ele>
        <time>2021-08-08T15:58:31Z</time>
      </trkpt>
      <trkpt lat="48.9878" lon="0.04914">
        <ele>173.83</ele>
        <time>2021-08-08T15:58:32Z</time>
      </trkpt>
      <trkpt lat="48.98782" lon="0.04919">
        <ele>174.01</ele>
        <time>2021-08-08T15:58:33Z</time>
      </trkpt>
      <trkpt lat="48.98784" lon="0.04923">
        <ele>174.17</ele>
        <time>2021-08-08T15:58:34Z</time>
      </trkpt>
      <trkpt lat="48.98786" lon="0.04929">
        <ele>174.36</ele>
        <time>2021-08-08T15:58:35Z</time>
      </trkpt>
      <trkpt lat="48.98789" lon="0.04933">
        <ele>174.52</ele>
        <time>2021-08-08T15:58:36Z</time>
      </trkpt>
      <trkpt lat="48.98791" lon="0.04937">
        <ele>174.67</ele>
        <time>2021-08-08T15:58:37Z</time>
      </trkpt>
      <trkpt lat="48.98794" lon="0.04939">
        <ele>174.77</ele>
        <time>2021-08-08T15:58:38Z</time>
      </trkpt>
      <trkpt lat="48.98795" lon="0.04942">
        <ele>174.86</ele>
        <time>2021-08-08T15:58:39Z</time>
      </trkpt>
      <trkpt lat="48.98798" lon="0.04943">
        <ele>174.92</ele>
        <time>2021-08-08T15:58:40Z</time>
      </trkpt>
      <trkpt lat="48.98801" lon="0.04946">
        <ele>175.02</ele>
        <time>2021-08-08T15:58:41Z</time>
      </trkpt>
      <trkpt lat="48.98804" lon="0.04948">
        <ele>175.1</ele>
        <time>2021-08-08T15:58:42Z</time>
      </trkpt>
      <trkpt lat="48.98807" lon="0.04951">
        <ele>175.2</ele>
        <time>2021-08-08T15:58:43Z</time>
      </trkpt>
      <trkpt lat="48.98807" lon="0.04961">
        <ele>175.63</ele>
        <time>2021-08-08T16:02:40Z</time>
      </trkpt>
      <trkpt lat="48.98803" lon="0.04959">
        <ele>175.57</ele>
        <time>2021-08-08T16:02:41Z</time>
      </trkpt>
      <trkpt lat="48.98798" lon="0.04959">
        <ele>175.55</ele>
        <time>2021-08-08T16:02:42Z</time>
      </trkpt>
      <trkpt lat="48.98795" lon="0.0496">
        <ele>175.57</ele>
        <time>2021-08-08T16:02:43Z</time>
      </trkpt>
      <trkpt lat="48.98793" lon="0.04963">
        <ele>175.65</ele>
        <time>2021-08-08T16:02:44Z</time>
      </trkpt>
      <trkpt lat="48.9879" lon="0.04968">
        <ele>175.78</ele>
        <time>2021-08-08T16:02:45Z</time>
      </trkpt>
      <trkpt lat="48.98787" lon="0.04974">
        <ele>175.91</ele>
        <time>2021-08-08T16:02:46Z</time>
      </trkpt>
      <trkpt lat="48.98784" lon="0.0498">
        <ele>175.82</ele>
        <time>2021-08-08T16:02:47Z</time>
      </trkpt>
      <trkpt lat="48.98781" lon="0.04986">
        <ele>175.64</ele>
        <time>2021-08-08T16:02:48Z</time>
      </trkpt>
      <trkpt lat="48.98778" lon="0.04992">
        <ele>175.41</ele>
        <time>2021-08-08T16:02:49Z</time>
      </trkpt>
      <trkpt lat="48.98776" lon="0.04997">
        <ele>175.2</ele>
        <time>2021-08-08T16:02:50Z</time>
      </trkpt>
      <trkpt lat="48.98772" lon="0.05002">
        <ele>175.06</ele>
        <time>2021-08-08T16:02:51Z</time>
      </trkpt>
      <trkpt lat="48.98769" lon="0.05007">
        <ele>175.02</ele>
        <time>2021-08-08T16:02:52Z</time>
      </trkpt>
      <trkpt lat="48.98765" lon="0.05011">
        <ele>175.01</ele>
        <time>2021-08-08T16:02:53Z</time>
      </trkpt>
      <trkpt lat="48.98762" lon="0.05017">
        <ele>175</ele>
        <time>2021-08-08T16:02:54Z</time>
      </trkpt>
      <trkpt lat="48.98759" lon="0.05022">
        <ele>175</ele>
        <time>2021-08-08T16:02:55Z</time>
      </trkpt>
      <trkpt lat="48.98757" lon="0.05026">
        <ele>175</ele>
        <time>2021-08-08T16:02:56Z</time>
      </trkpt>
      <trkpt lat="48.98754" lon="0.05031">
        <ele>175</ele>
        <time>2021-08-08T16:02:57Z</time>
      </trkpt>
      <trkpt lat="48.9875" lon="0.05035">
        <ele>175</ele>
        <time>2021-08-08T16:02:58Z</time>
      </trkpt>
      <trkpt lat="48.98747" lon="0.05038">
        <ele>175</ele>
        <time>2021-08-08T16:02:59Z</time>
      </trkpt>
      <trkpt lat="48.98744" lon="0.05041">
        <ele>175</ele>
        <time>2021-08-08T16:03:00Z</time>
      </trkpt>
      <trkpt lat="48.98739" lon="0.05044">
        <ele>175</ele>
        <time>2021-08-08T16:03:01Z</time>
      </trkpt>
      <trkpt lat="48.98735" lon="0.05047">
        <ele>175</ele>
        <time>2021-08-08T16:03:02Z</time>
      </trkpt>
      <trkpt lat="48.98731" lon="0.05049">
        <ele>175</ele>
        <time>2021-08-08T16:03:03Z</time>
      </trkpt>
      <trkpt lat="48.98727" lon="0.05051">
        <ele>175</ele>
        <time>2021-08-08T16:03:04Z</time>
      </trkpt>
      <trkpt lat="48.98723" lon="0.05053">
        <ele>175</ele>
        <time>2021-08-08T16:03:05Z</time>
      </trkpt>
      <trkpt lat="48.98718" lon="0.05055">
        <ele>174.9</ele>
        <time>2021-08-08T16:03:06Z</time>
      </trkpt>
      <trkpt lat="48.98713" lon="0.05057">
        <ele>174.72</ele>
        <time>2021-08-08T16:03:07Z</time>
      </trkpt>
      <trkpt lat="48.98709" lon="0.0506">
        <ele>174.51</ele>
        <time>2021-08-08T16:03:08Z</time>
      </trkpt>
      <trkpt lat="48.98703" lon="0.05064">
        <ele>174.31</ele>
        <time>2021-08-08T16:03:09Z</time>
      </trkpt>
      <trkpt lat="48.98699" lon="0.05067">
        <ele>174.16</ele>
        <time>2021-08-08T16:03:10Z</time>
      </trkpt>
      <trkpt lat="48.98693" lon="0.05069">
        <ele>174.06</ele>
        <time>2021-08-08T16:03:11Z</time>
      </trkpt>
      <trkpt lat="48.98688" lon="0.0507">
        <ele>174.1</ele>
        <time>2021-08-08T16:03:12Z</time>
      </trkpt>
      <trkpt lat="48.98684" lon="0.05071">
        <ele>174.15</ele>
        <time>2021-08-08T16:03:13Z</time>
      </trkpt>
      <trkpt lat="48.98679" lon="0.05072">
        <ele>174.2</ele>
        <time>2021-08-08T16:03:14Z</time>
      </trkpt>
      <trkpt lat="48.98676" lon="0.05072">
        <ele>174.25</ele>
        <time>2021-08-08T16:03:15Z</time>
      </trkpt>
      <trkpt lat="48.98672" lon="0.05073">
        <ele>174.29</ele>
        <time>2021-08-08T16:03:16Z</time>
      </trkpt>
      <trkpt lat="48.98669" lon="0.05073">
        <ele>174.33</ele>
        <time>2021-08-08T16:03:17Z</time>
      </trkpt>
      <trkpt lat="48.98665" lon="0.05074">
        <ele>174.37</ele>
        <time>2021-08-08T16:03:18Z</time>
      </trkpt>
      <trkpt lat="48.98661" lon="0.05074">
        <ele>174.43</ele>
        <time>2021-08-08T16:03:19Z</time>
      </trkpt>
      <trkpt lat="48.98656" lon="0.05076">
        <ele>174.52</ele>
        <time>2021-08-08T16:03:20Z</time>
      </trkpt>
      <trkpt lat="48.98651" lon="0.05077">
        <ele>174.62</ele>
        <time>2021-08-08T16:03:21Z</time>
      </trkpt>
      <trkpt lat="48.98646" lon="0.05077">
        <ele>174.75</ele>
        <time>2021-08-08T16:03:22Z</time>
      </trkpt>
      <trkpt lat="48.98641" lon="0.05077">
        <ele>174.89</ele>
        <time>2021-08-08T16:03:23Z</time>
      </trkpt>
      <trkpt lat="48.98635" lon="0.05076">
        <ele>174.97</ele>
        <time>2021-08-08T16:03:24Z</time>
      </trkpt>
      <trkpt lat="48.9863" lon="0.05075">
        <ele>174.99</ele>
        <time>2021-08-08T16:03:25Z</time>
      </trkpt>
      <trkpt lat="48.98624" lon="0.05074">
        <ele>175</ele>
        <time>2021-08-08T16:03:26Z</time>
      </trkpt>
      <trkpt lat="48.98619" lon="0.05073">
        <ele>175</ele>
        <time>2021-08-08T16:03:27Z</time>
      </trkpt>
      <trkpt lat="48.98613" lon="0.05072">
        <ele>175</ele>
        <time>2021-08-08T16:03:28Z</time>
      </trkpt>
      <trkpt lat="48.98608" lon="0.05071">
        <ele>175</ele>
        <time>2021-08-08T16:03:29Z</time>
      </trkpt>
      <trkpt lat="48.98603" lon="0.05069">
        <ele>175</ele>
        <time>2021-08-08T16:03:30Z</time>
      </trkpt>
      <trkpt lat="48.98598" lon="0.05067">
        <ele>175</ele>
        <time>2021-08-08T16:03:31Z</time>
      </trkpt>
      <trkpt lat="48.98591" lon="0.05067">
        <ele>175</ele>
        <time>2021-08-08T16:03:32Z</time>
      </trkpt>
      <trkpt lat="48.98585" lon="0.05068">
        <ele>175</ele>
        <time>2021-08-08T16:03:33Z</time>
      </trkpt>
      <trkpt lat="48.98581" lon="0.05068">
        <ele>175.07</ele>
        <time>2021-08-08T16:03:34Z</time>
      </trkpt>
      <trkpt lat="48.98576" lon="0.05067">
        <ele>175.2</ele>
        <time>2021-08-08T16:03:35Z</time>
      </trkpt>
      <trkpt lat="48.98572" lon="0.05067">
        <ele>175.35</ele>
        <time>2021-08-08T16:03:36Z</time>
      </trkpt>
      <trkpt lat="48.98568" lon="0.05068">
        <ele>175.5</ele>
        <time>2021-08-08T16:03:37Z</time>
      </trkpt>
      <trkpt lat="48.98562" lon="0.05069">
        <ele>175.68</ele>
        <time>2021-08-08T16:03:38Z</time>
      </trkpt>
      <trkpt lat="48.98558" lon="0.05069">
        <ele>175.85</ele>
        <time>2021-08-08T16:03:39Z</time>
      </trkpt>
      <trkpt lat="48.98551" lon="0.05069">
        <ele>175.96</ele>
        <time>2021-08-08T16:03:40Z</time>
      </trkpt>
      <trkpt lat="48.98545" lon="0.0507">
        <ele>175.99</ele>
        <time>2021-08-08T16:03:41Z</time>
      </trkpt>
      <trkpt lat="48.98539" lon="0.05071">
        <ele>176</ele>
        <time>2021-08-08T16:03:42Z</time>
      </trkpt>
      <trkpt lat="48.98532" lon="0.05071">
        <ele>176</ele>
        <time>2021-08-08T16:03:43Z</time>
      </trkpt>
      <trkpt lat="48.98525" lon="0.05072">
        <ele>175.93</ele>
        <time>2021-08-08T16:03:44Z</time>
      </trkpt>
      <trkpt lat="48.98518" lon="0.05073">
        <ele>175.73</ele>
        <time>2021-08-08T16:03:45Z</time>
      </trkpt>
      <trkpt lat="48.98511" lon="0.05073">
        <ele>175.49</ele>
        <time>2021-08-08T16:03:46Z</time>
      </trkpt>
      <trkpt lat="48.98504" lon="0.05073">
        <ele>175.25</ele>
        <time>2021-08-08T16:03:47Z</time>
      </trkpt>
      <trkpt lat="48.98496" lon="0.05072">
        <ele>175.08</ele>
        <time>2021-08-08T16:03:48Z</time>
      </trkpt>
      <trkpt lat="48.98487" lon="0.05071">
        <ele>175.02</ele>
        <time>2021-08-08T16:03:49Z</time>
      </trkpt>
      <trkpt lat="48.98481" lon="0.05071">
        <ele>175.01</ele>
        <time>2021-08-08T16:03:50Z</time>
      </trkpt>
      <trkpt lat="48.98476" lon="0.0507">
        <ele>175</ele>
        <time>2021-08-08T16:03:51Z</time>
      </trkpt>
      <trkpt lat="48.98472" lon="0.0507">
        <ele>175</ele>
        <time>2021-08-08T16:03:52Z</time>
      </trkpt>
      <trkpt lat="48.98467" lon="0.05069">
        <ele>175</ele>
        <time>2021-08-08T16:03:53Z</time>
      </trkpt>
      <trkpt lat="48.98461" lon="0.05069">
        <ele>175</ele>
        <time>2021-08-08T16:03:54Z</time>
      </trkpt>
      <trkpt lat="48.98454" lon="0.05067">
        <ele>175</ele>
        <time>2021-08-08T16:03:55Z</time>
      </trkpt>
      <trkpt lat="48.98448" lon="0.05065">
        <ele>175</ele>
        <time>2021-08-08T16:03:56Z</time>
      </trkpt>
      <trkpt lat="48.98442" lon="0.05063">
        <ele>174.98</ele>
        <time>2021-08-08T16:03:57Z</time>
      </trkpt>
      <trkpt lat="48.98435" lon="0.0506">
        <ele>174.95</ele>
        <time>2021-08-08T16:03:58Z</time>
      </trkpt>
      <trkpt lat="48.98429" lon="0.05059">
        <ele>174.93</ele>
        <time>2021-08-08T16:03:59Z</time>
      </trkpt>
      <trkpt lat="48.98424" lon="0.05057">
        <ele>174.94</ele>
        <time>2021-08-08T16:04:00Z</time>
      </trkpt>
      <trkpt lat="48.98418" lon="0.05056">
        <ele>174.97</ele>
        <time>2021-08-08T16:04:01Z</time>
      </trkpt>
      <trkpt lat="48.98411" lon="0.05054">
        <ele>174.84</ele>
        <time>2021-08-08T16:04:02Z</time>
      </trkpt>
      <trkpt lat="48.98404" lon="0.05053">
        <ele>174.64</ele>
        <time>2021-08-08T16:04:03Z</time>
      </trkpt>
      <trkpt lat="48.98397" lon="0.05051">
        <ele>174.39</ele>
        <time>2021-08-08T16:04:04Z</time>
      </trkpt>
      <trkpt lat="48.98388" lon="0.05049">
        <ele>174.12</ele>
        <time>2021-08-08T16:04:05Z</time>
      </trkpt>
      <trkpt lat="48.98381" lon="0.05048">
        <ele>174.03</ele>
        <time>2021-08-08T16:04:06Z</time>
      </trkpt>
      <trkpt lat="48.98375" lon="0.05049">
        <ele>174.01</ele>
        <time>2021-08-08T16:04:07Z</time>
      </trkpt>
      <trkpt lat="48.98367" lon="0.0505">
        <ele>174</ele>
        <time>2021-08-08T16:04:08Z</time>
      </trkpt>
      <trkpt lat="48.98359" lon="0.05052">
        <ele>173.94</ele>
        <time>2021-08-08T16:04:09Z</time>
      </trkpt>
      <trkpt lat="48.98351" lon="0.05053">
        <ele>173.74</ele>
        <time>2021-08-08T16:04:10Z</time>
      </trkpt>
      <trkpt lat="48.98344" lon="0.05053">
        <ele>173.49</ele>
        <time>2021-08-08T16:04:11Z</time>
      </trkpt>
      <trkpt lat="48.98337" lon="0.05051">
        <ele>173.25</ele>
        <time>2021-08-08T16:04:12Z</time>
      </trkpt>
      <trkpt lat="48.98332" lon="0.05051">
        <ele>173.07</ele>
        <time>2021-08-08T16:04:13Z</time>
      </trkpt>
      <trkpt lat="48.98326" lon="0.05048">
        <ele>173.02</ele>
        <time>2021-08-08T16:04:14Z</time>
      </trkpt>
      <trkpt lat="48.98319" lon="0.05046">
        <ele>173.01</ele>
        <time>2021-08-08T16:04:15Z</time>
      </trkpt>
      <trkpt lat="48.98312" lon="0.05044">
        <ele>173</ele>
        <time>2021-08-08T16:04:16Z</time>
      </trkpt>
      <trkpt lat="48.98307" lon="0.05041">
        <ele>173</ele>
        <time>2021-08-08T16:04:17Z</time>
      </trkpt>
      <trkpt lat="48.98301" lon="0.0504">
        <ele>172.89</ele>
        <time>2021-08-08T16:04:18Z</time>
      </trkpt>
      <trkpt lat="48.98296" lon="0.05038">
        <ele>172.73</ele>
        <time>2021-08-08T16:04:19Z</time>
      </trkpt>
      <trkpt lat="48.9829" lon="0.05037">
        <ele>172.53</ele>
        <time>2021-08-08T16:04:20Z</time>
      </trkpt>
      <trkpt lat="48.98283" lon="0.05036">
        <ele>172.3</ele>
        <time>2021-08-08T16:04:21Z</time>
      </trkpt>
      <trkpt lat="48.98276" lon="0.05036">
        <ele>172.04</ele>
        <time>2021-08-08T16:04:22Z</time>
      </trkpt>
      <trkpt lat="48.98269" lon="0.05035">
        <ele>171.78</ele>
        <time>2021-08-08T16:04:23Z</time>
      </trkpt>
      <trkpt lat="48.98262" lon="0.05035">
        <ele>171.53</ele>
        <time>2021-08-08T16:04:24Z</time>
      </trkpt>
      <trkpt lat="48.98256" lon="0.05037">
        <ele>171.3</ele>
        <time>2021-08-08T16:04:25Z</time>
      </trkpt>
      <trkpt lat="48.98251" lon="0.05039">
        <ele>171.12</ele>
        <time>2021-08-08T16:04:26Z</time>
      </trkpt>
      <trkpt lat="48.98248" lon="0.0504">
        <ele>171.01</ele>
        <time>2021-08-08T16:04:27Z</time>
      </trkpt>
      <trkpt lat="48.98246" lon="0.05039">
        <ele>170.93</ele>
        <time>2021-08-08T16:04:51Z</time>
      </trkpt>
      <trkpt lat="48.98245" lon="0.05035">
        <ele>170.88</ele>
        <time>2021-08-08T16:04:52Z</time>
      </trkpt>
      <trkpt lat="48.98245" lon="0.05031">
        <ele>170.84</ele>
        <time>2021-08-08T16:04:53Z</time>
      </trkpt>
      <trkpt lat="48.98245" lon="0.05027">
        <ele>170.78</ele>
        <time>2021-08-08T16:04:54Z</time>
      </trkpt>
      <trkpt lat="48.98244" lon="0.05022">
        <ele>170.64</ele>
        <time>2021-08-08T16:04:55Z</time>
      </trkpt>
      <trkpt lat="48.98244" lon="0.05017">
        <ele>170.46</ele>
        <time>2021-08-08T16:04:56Z</time>
      </trkpt>
      <trkpt lat="48.98242" lon="0.05012">
        <ele>170.24</ele>
        <time>2021-08-08T16:04:57Z</time>
      </trkpt>
      <trkpt lat="48.98241" lon="0.05007">
        <ele>170</ele>
        <time>2021-08-08T16:04:58Z</time>
      </trkpt>
      <trkpt lat="48.98238" lon="0.05001">
        <ele>169.73</ele>
        <time>2021-08-08T16:04:59Z</time>
      </trkpt>
      <trkpt lat="48.98235" lon="0.04995">
        <ele>169.07</ele>
        <time>2021-08-08T16:05:00Z</time>
      </trkpt>
      <trkpt lat="48.98231" lon="0.04989">
        <ele>168.04</ele>
        <time>2021-08-08T16:05:01Z</time>
      </trkpt>
      <trkpt lat="48.98226" lon="0.04982">
        <ele>166.7</ele>
        <time>2021-08-08T16:05:02Z</time>
      </trkpt>
      <trkpt lat="48.98222" lon="0.04977">
        <ele>165.35</ele>
        <time>2021-08-08T16:05:03Z</time>
      </trkpt>
      <trkpt lat="48.98217" lon="0.04971">
        <ele>164.06</ele>
        <time>2021-08-08T16:05:04Z</time>
      </trkpt>
      <trkpt lat="48.98211" lon="0.04965">
        <ele>162.62</ele>
        <time>2021-08-08T16:05:05Z</time>
      </trkpt>
      <trkpt lat="48.98204" lon="0.04961">
        <ele>161.27</ele>
        <time>2021-08-08T16:05:06Z</time>
      </trkpt>
      <trkpt lat="48.98195" lon="0.04957">
        <ele>159.89</ele>
        <time>2021-08-08T16:05:07Z</time>
      </trkpt>
      <trkpt lat="48.98186" lon="0.04953">
        <ele>158.63</ele>
        <time>2021-08-08T16:05:08Z</time>
      </trkpt>
      <trkpt lat="48.98177" lon="0.04951">
        <ele>157.49</ele>
        <time>2021-08-08T16:05:09Z</time>
      </trkpt>
      <trkpt lat="48.98169" lon="0.04948">
        <ele>156.36</ele>
        <time>2021-08-08T16:05:10Z</time>
      </trkpt>
      <trkpt lat="48.9816" lon="0.04946">
        <ele>155.31</ele>
        <time>2021-08-08T16:05:11Z</time>
      </trkpt>
      <trkpt lat="48.98152" lon="0.04944">
        <ele>154.25</ele>
        <time>2021-08-08T16:05:12Z</time>
      </trkpt>
      <trkpt lat="48.98144" lon="0.0494">
        <ele>153.03</ele>
        <time>2021-08-08T16:05:13Z</time>
      </trkpt>
      <trkpt lat="48.98137" lon="0.04937">
        <ele>151.97</ele>
        <time>2021-08-08T16:05:14Z</time>
      </trkpt>
      <trkpt lat="48.98129" lon="0.04934">
        <ele>151.02</ele>
        <time>2021-08-08T16:05:15Z</time>
      </trkpt>
      <trkpt lat="48.98121" lon="0.04929">
        <ele>149.83</ele>
        <time>2021-08-08T16:05:16Z</time>
      </trkpt>
      <trkpt lat="48.98113" lon="0.04927">
        <ele>148.78</ele>
        <time>2021-08-08T16:05:17Z</time>
      </trkpt>
      <trkpt lat="48.98107" lon="0.04924">
        <ele>147.75</ele>
        <time>2021-08-08T16:05:18Z</time>
      </trkpt>
      <trkpt lat="48.98102" lon="0.04922">
        <ele>146.87</ele>
        <time>2021-08-08T16:05:19Z</time>
      </trkpt>
      <trkpt lat="48.98096" lon="0.04919">
        <ele>145.9</ele>
        <time>2021-08-08T16:05:20Z</time>
      </trkpt>
      <trkpt lat="48.9809" lon="0.04917">
        <ele>144.96</ele>
        <time>2021-08-08T16:05:21Z</time>
      </trkpt>
      <trkpt lat="48.98083" lon="0.04913">
        <ele>143.69</ele>
        <time>2021-08-08T16:05:22Z</time>
      </trkpt>
      <trkpt lat="48.98076" lon="0.04909">
        <ele>142.67</ele>
        <time>2021-08-08T16:05:23Z</time>
      </trkpt>
      <trkpt lat="48.98069" lon="0.04905">
        <ele>141.61</ele>
        <time>2021-08-08T16:05:24Z</time>
      </trkpt>
      <trkpt lat="48.98062" lon="0.04901">
        <ele>140.63</ele>
        <time>2021-08-08T16:05:25Z</time>
      </trkpt>
      <trkpt lat="48.98053" lon="0.04896">
        <ele>139.81</ele>
        <time>2021-08-08T16:05:26Z</time>
      </trkpt>
      <trkpt lat="48.98044" lon="0.04893">
        <ele>139.3</ele>
        <time>2021-08-08T16:05:27Z</time>
      </trkpt>
      <trkpt lat="48.98036" lon="0.0489">
        <ele>139.02</ele>
        <time>2021-08-08T16:05:28Z</time>
      </trkpt>
      <trkpt lat="48.98028" lon="0.04887">
        <ele>138.76</ele>
        <time>2021-08-08T16:05:29Z</time>
      </trkpt>
      <trkpt lat="48.9802" lon="0.04885">
        <ele>138.45</ele>
        <time>2021-08-08T16:05:30Z</time>
      </trkpt>
      <trkpt lat="48.98013" lon="0.04879">
        <ele>137.78</ele>
        <time>2021-08-08T16:05:31Z</time>
      </trkpt>
      <trkpt lat="48.98005" lon="0.04874">
        <ele>137.01</ele>
        <time>2021-08-08T16:05:32Z</time>
      </trkpt>
      <trkpt lat="48.97997" lon="0.0487">
        <ele>136.25</ele>
        <time>2021-08-08T16:05:33Z</time>
      </trkpt>
      <trkpt lat="48.97987" lon="0.04864">
        <ele>135.42</ele>
        <time>2021-08-08T16:05:34Z</time>
      </trkpt>
      <trkpt lat="48.97978" lon="0.04858">
        <ele>134.63</ele>
        <time>2021-08-08T16:05:35Z</time>
      </trkpt>
      <trkpt lat="48.97967" lon="0.04852">
        <ele>133.95</ele>
        <time>2021-08-08T16:05:36Z</time>
      </trkpt>
      <trkpt lat="48.9796" lon="0.04844">
        <ele>133.01</ele>
        <time>2021-08-08T16:05:37Z</time>
      </trkpt>
      <trkpt lat="48.97954" lon="0.04837">
        <ele>132.19</ele>
        <time>2021-08-08T16:05:38Z</time>
      </trkpt>
      <trkpt lat="48.97949" lon="0.04829">
        <ele>131.39</ele>
        <time>2021-08-08T16:05:39Z</time>
      </trkpt>
      <trkpt lat="48.97943" lon="0.04823">
        <ele>130.73</ele>
        <time>2021-08-08T16:05:40Z</time>
      </trkpt>
      <trkpt lat="48.97937" lon="0.04816">
        <ele>129.83</ele>
        <time>2021-08-08T16:05:41Z</time>
      </trkpt>
      <trkpt lat="48.97933" lon="0.04808">
        <ele>128.82</ele>
        <time>2021-08-08T16:05:42Z</time>
      </trkpt>
      <trkpt lat="48.97927" lon="0.04804">
        <ele>128.17</ele>
        <time>2021-08-08T16:05:43Z</time>
      </trkpt>
      <trkpt lat="48.97924" lon="0.04799">
        <ele>127.54</ele>
        <time>2021-08-08T16:05:44Z</time>
      </trkpt>
      <trkpt lat="48.9792" lon="0.04792">
        <ele>126.81</ele>
        <time>2021-08-08T16:05:45Z</time>
      </trkpt>
      <trkpt lat="48.97915" lon="0.04785">
        <ele>126.1</ele>
        <time>2021-08-08T16:05:46Z</time>
      </trkpt>
      <trkpt lat="48.97911" lon="0.0478">
        <ele>125.33</ele>
        <time>2021-08-08T16:05:47Z</time>
      </trkpt>
      <trkpt lat="48.97907" lon="0.04772">
        <ele>124.57</ele>
        <time>2021-08-08T16:05:48Z</time>
      </trkpt>
      <trkpt lat="48.97904" lon="0.04763">
        <ele>123.81</ele>
        <time>2021-08-08T16:05:49Z</time>
      </trkpt>
      <trkpt lat="48.97899" lon="0.04754">
        <ele>123.01</ele>
        <time>2021-08-08T16:05:50Z</time>
      </trkpt>
      <trkpt lat="48.97895" lon="0.04746">
        <ele>122.17</ele>
        <time>2021-08-08T16:05:51Z</time>
      </trkpt>
      <trkpt lat="48.9789" lon="0.04737">
        <ele>121.1</ele>
        <time>2021-08-08T16:05:52Z</time>
      </trkpt>
      <trkpt lat="48.97883" lon="0.04732">
        <ele>120.02</ele>
        <time>2021-08-08T16:05:53Z</time>
      </trkpt>
      <trkpt lat="48.97877" lon="0.04727">
        <ele>119.04</ele>
        <time>2021-08-08T16:05:54Z</time>
      </trkpt>
      <trkpt lat="48.97872" lon="0.04721">
        <ele>118.11</ele>
        <time>2021-08-08T16:05:55Z</time>
      </trkpt>
      <trkpt lat="48.97869" lon="0.04716">
        <ele>117.36</ele>
        <time>2021-08-08T16:05:56Z</time>
      </trkpt>
      <trkpt lat="48.97865" lon="0.04711">
        <ele>116.69</ele>
        <time>2021-08-08T16:05:57Z</time>
      </trkpt>
      <trkpt lat="48.97861" lon="0.04708">
        <ele>116.16</ele>
        <time>2021-08-08T16:05:58Z</time>
      </trkpt>
      <trkpt lat="48.97856" lon="0.04709">
        <ele>115.66</ele>
        <time>2021-08-08T16:05:59Z</time>
      </trkpt>
      <trkpt lat="48.97853" lon="0.04713">
        <ele>115.35</ele>
        <time>2021-08-08T16:06:00Z</time>
      </trkpt>
      <trkpt lat="48.97847" lon="0.04713">
        <ele>114.74</ele>
        <time>2021-08-08T16:06:01Z</time>
      </trkpt>
      <trkpt lat="48.97841" lon="0.04716">
        <ele>114.14</ele>
        <time>2021-08-08T16:06:02Z</time>
      </trkpt>
      <trkpt lat="48.97837" lon="0.04718">
        <ele>113.57</ele>
        <time>2021-08-08T16:06:03Z</time>
      </trkpt>
      <trkpt lat="48.97831" lon="0.04721">
        <ele>112.96</ele>
        <time>2021-08-08T16:06:04Z</time>
      </trkpt>
      <trkpt lat="48.97823" lon="0.04725">
        <ele>112.33</ele>
        <time>2021-08-08T16:06:05Z</time>
      </trkpt>
      <trkpt lat="48.97815" lon="0.04728">
        <ele>111.6</ele>
        <time>2021-08-08T16:06:06Z</time>
      </trkpt>
      <trkpt lat="48.97806" lon="0.04731">
        <ele>110.71</ele>
        <time>2021-08-08T16:06:07Z</time>
      </trkpt>
      <trkpt lat="48.97796" lon="0.04732">
        <ele>109.46</ele>
        <time>2021-08-08T16:06:08Z</time>
      </trkpt>
      <trkpt lat="48.97786" lon="0.04734">
        <ele>108.13</ele>
        <time>2021-08-08T16:06:09Z</time>
      </trkpt>
      <trkpt lat="48.97772" lon="0.04736">
        <ele>106.64</ele>
        <time>2021-08-08T16:06:10Z</time>
      </trkpt>
      <trkpt lat="48.9776" lon="0.04737">
        <ele>105.41</ele>
        <time>2021-08-08T16:06:11Z</time>
      </trkpt>
      <trkpt lat="48.97752" lon="0.04738">
        <ele>104.54</ele>
        <time>2021-08-08T16:06:12Z</time>
      </trkpt>
      <trkpt lat="48.97742" lon="0.04736">
        <ele>103.57</ele>
        <time>2021-08-08T16:06:13Z</time>
      </trkpt>
      <trkpt lat="48.97731" lon="0.04737">
        <ele>102.45</ele>
        <time>2021-08-08T16:06:14Z</time>
      </trkpt>
      <trkpt lat="48.97722" lon="0.04742">
        <ele>101.42</ele>
        <time>2021-08-08T16:06:15Z</time>
      </trkpt>
      <trkpt lat="48.97711" lon="0.04744">
        <ele>100.35</ele>
        <time>2021-08-08T16:06:16Z</time>
      </trkpt>
      <trkpt lat="48.977" lon="0.04745">
        <ele>99.21</ele>
        <time>2021-08-08T16:06:17Z</time>
      </trkpt>
      <trkpt lat="48.97686" lon="0.04748">
        <ele>98.02</ele>
        <time>2021-08-08T16:06:18Z</time>
      </trkpt>
      <trkpt lat="48.97676" lon="0.04751">
        <ele>97.08</ele>
        <time>2021-08-08T16:06:19Z</time>
      </trkpt>
      <trkpt lat="48.97665" lon="0.04756">
        <ele>96.08</ele>
        <time>2021-08-08T16:06:20Z</time>
      </trkpt>
      <trkpt lat="48.97653" lon="0.04758">
        <ele>95.14</ele>
        <time>2021-08-08T16:06:21Z</time>
      </trkpt>
      <trkpt lat="48.97639" lon="0.04764">
        <ele>93.98</ele>
        <time>2021-08-08T16:06:22Z</time>
      </trkpt>
      <trkpt lat="48.97629" lon="0.04767">
        <ele>93.32</ele>
        <time>2021-08-08T16:06:23Z</time>
      </trkpt>
      <trkpt lat="48.97616" lon="0.04769">
        <ele>92.75</ele>
        <time>2021-08-08T16:06:24Z</time>
      </trkpt>
      <trkpt lat="48.97608" lon="0.04769">
        <ele>92.38</ele>
        <time>2021-08-08T16:06:25Z</time>
      </trkpt>
      <trkpt lat="48.97597" lon="0.04768">
        <ele>92.01</ele>
        <time>2021-08-08T16:06:26Z</time>
      </trkpt>
      <trkpt lat="48.97586" lon="0.04764">
        <ele>91.72</ele>
        <time>2021-08-08T16:06:27Z</time>
      </trkpt>
      <trkpt lat="48.97579" lon="0.04761">
        <ele>91.58</ele>
        <time>2021-08-08T16:06:28Z</time>
      </trkpt>
      <trkpt lat="48.97571" lon="0.04761">
        <ele>91.48</ele>
        <time>2021-08-08T16:06:29Z</time>
      </trkpt>
      <trkpt lat="48.97563" lon="0.04764">
        <ele>91.23</ele>
        <time>2021-08-08T16:06:30Z</time>
      </trkpt>
      <trkpt lat="48.97556" lon="0.04766">
        <ele>90.95</ele>
        <time>2021-08-08T16:06:31Z</time>
      </trkpt>
      <trkpt lat="48.97548" lon="0.04771">
        <ele>90.6</ele>
        <time>2021-08-08T16:06:32Z</time>
      </trkpt>
      <trkpt lat="48.9754" lon="0.04778">
        <ele>90.17</ele>
        <time>2021-08-08T16:06:33Z</time>
      </trkpt>
      <trkpt lat="48.97532" lon="0.04784">
        <ele>89.9</ele>
        <time>2021-08-08T16:06:34Z</time>
      </trkpt>
      <trkpt lat="48.97524" lon="0.0479">
        <ele>89.54</ele>
        <time>2021-08-08T16:06:35Z</time>
      </trkpt>
      <trkpt lat="48.97516" lon="0.04797">
        <ele>88.87</ele>
        <time>2021-08-08T16:06:36Z</time>
      </trkpt>
      <trkpt lat="48.97508" lon="0.04804">
        <ele>88.05</ele>
        <time>2021-08-08T16:06:37Z</time>
      </trkpt>
      <trkpt lat="48.97501" lon="0.04811">
        <ele>87.23</ele>
        <time>2021-08-08T16:06:38Z</time>
      </trkpt>
      <trkpt lat="48.97494" lon="0.04819">
        <ele>86.59</ele>
        <time>2021-08-08T16:06:39Z</time>
      </trkpt>
      <trkpt lat="48.97488" lon="0.04825">
        <ele>86.07</ele>
        <time>2021-08-08T16:06:40Z</time>
      </trkpt>
      <trkpt lat="48.97481" lon="0.04832">
        <ele>85.58</ele>
        <time>2021-08-08T16:06:41Z</time>
      </trkpt>
      <trkpt lat="48.97474" lon="0.04837">
        <ele>85.12</ele>
        <time>2021-08-08T16:06:42Z</time>
      </trkpt>
      <trkpt lat="48.97468" lon="0.04842">
        <ele>84.81</ele>
        <time>2021-08-08T16:06:43Z</time>
      </trkpt>
      <trkpt lat="48.97461" lon="0.04847">
        <ele>84.6</ele>
        <time>2021-08-08T16:06:44Z</time>
      </trkpt>
      <trkpt lat="48.97456" lon="0.04851">
        <ele>84.44</ele>
        <time>2021-08-08T16:06:45Z</time>
      </trkpt>
      <trkpt lat="48.97449" lon="0.04853">
        <ele>84.34</ele>
        <time>2021-08-08T16:06:46Z</time>
      </trkpt>
      <trkpt lat="48.97447" lon="0.0485">
        <ele>84.39</ele>
        <time>2021-08-08T16:06:47Z</time>
      </trkpt>
      <trkpt lat="48.97445" lon="0.04846">
        <ele>84.49</ele>
        <time>2021-08-08T16:06:48Z</time>
      </trkpt>
      <trkpt lat="48.97444" lon="0.04841">
        <ele>84.65</ele>
        <time>2021-08-08T16:06:49Z</time>
      </trkpt>
      <trkpt lat="48.97445" lon="0.04836">
        <ele>84.84</ele>
        <time>2021-08-08T16:06:50Z</time>
      </trkpt>
      <trkpt lat="48.97445" lon="0.0483">
        <ele>85.03</ele>
        <time>2021-08-08T16:06:51Z</time>
      </trkpt>
      <trkpt lat="48.97447" lon="0.04824">
        <ele>85.25</ele>
        <time>2021-08-08T16:06:52Z</time>
      </trkpt>
      <trkpt lat="48.97448" lon="0.04817">
        <ele>85.47</ele>
        <time>2021-08-08T16:06:53Z</time>
      </trkpt>
      <trkpt lat="48.97448" lon="0.04811">
        <ele>85.7</ele>
        <time>2021-08-08T16:06:54Z</time>
      </trkpt>
      <trkpt lat="48.97448" lon="0.04805">
        <ele>85.93</ele>
        <time>2021-08-08T16:06:55Z</time>
      </trkpt>
      <trkpt lat="48.97448" lon="0.04799">
        <ele>86.18</ele>
        <time>2021-08-08T16:06:56Z</time>
      </trkpt>
      <trkpt lat="48.97449" lon="0.04793">
        <ele>86.43</ele>
        <time>2021-08-08T16:06:57Z</time>
      </trkpt>
      <trkpt lat="48.97449" lon="0.04786">
        <ele>86.7</ele>
        <time>2021-08-08T16:06:58Z</time>
      </trkpt>
      <trkpt lat="48.9745" lon="0.0478">
        <ele>86.98</ele>
        <time>2021-08-08T16:06:59Z</time>
      </trkpt>
      <trkpt lat="48.97449" lon="0.04774">
        <ele>87.22</ele>
        <time>2021-08-08T16:07:00Z</time>
      </trkpt>
      <trkpt lat="48.97449" lon="0.04769">
        <ele>87.41</ele>
        <time>2021-08-08T16:07:01Z</time>
      </trkpt>
      <trkpt lat="48.97449" lon="0.04764">
        <ele>87.58</ele>
        <time>2021-08-08T16:07:02Z</time>
      </trkpt>
      <trkpt lat="48.97448" lon="0.04759">
        <ele>87.76</ele>
        <time>2021-08-08T16:07:03Z</time>
      </trkpt>
      <trkpt lat="48.97447" lon="0.04753">
        <ele>87.92</ele>
        <time>2021-08-08T16:07:04Z</time>
      </trkpt>
      <trkpt lat="48.97446" lon="0.04748">
        <ele>88.07</ele>
        <time>2021-08-08T16:07:05Z</time>
      </trkpt>
      <trkpt lat="48.97444" lon="0.04743">
        <ele>88.19</ele>
        <time>2021-08-08T16:07:06Z</time>
      </trkpt>
      <trkpt lat="48.97442" lon="0.04737">
        <ele>88.29</ele>
        <time>2021-08-08T16:07:07Z</time>
      </trkpt>
      <trkpt lat="48.9744" lon="0.04732">
        <ele>88.37</ele>
        <time>2021-08-08T16:07:08Z</time>
      </trkpt>
      <trkpt lat="48.97439" lon="0.04726">
        <ele>88.44</ele>
        <time>2021-08-08T16:07:09Z</time>
      </trkpt>
      <trkpt lat="48.97436" lon="0.0472">
        <ele>88.43</ele>
        <time>2021-08-08T16:07:10Z</time>
      </trkpt>
      <trkpt lat="48.97434" lon="0.04715">
        <ele>88.38</ele>
        <time>2021-08-08T16:07:11Z</time>
      </trkpt>
      <trkpt lat="48.97433" lon="0.0471">
        <ele>88.35</ele>
        <time>2021-08-08T16:07:12Z</time>
      </trkpt>
      <trkpt lat="48.97431" lon="0.04706">
        <ele>88.33</ele>
        <time>2021-08-08T16:07:13Z</time>
      </trkpt>
      <trkpt lat="48.9743" lon="0.04703">
        <ele>88.33</ele>
        <time>2021-08-08T16:07:14Z</time>
      </trkpt>
      <trkpt lat="48.97429" lon="0.04699">
        <ele>88.34</ele>
        <time>2021-08-08T16:07:15Z</time>
      </trkpt>
      <trkpt lat="48.97427" lon="0.04695">
        <ele>88.36</ele>
        <time>2021-08-08T16:07:16Z</time>
      </trkpt>
      <trkpt lat="48.97425" lon="0.0469">
        <ele>88.35</ele>
        <time>2021-08-08T16:07:17Z</time>
      </trkpt>
      <trkpt lat="48.97423" lon="0.04685">
        <ele>88.31</ele>
        <time>2021-08-08T16:07:18Z</time>
      </trkpt>
      <trkpt lat="48.97421" lon="0.04681">
        <ele>88.25</ele>
        <time>2021-08-08T16:07:19Z</time>
      </trkpt>
      <trkpt lat="48.97419" lon="0.04676">
        <ele>88.17</ele>
        <time>2021-08-08T16:07:20Z</time>
      </trkpt>
      <trkpt lat="48.97417" lon="0.04671">
        <ele>88.07</ele>
        <time>2021-08-08T16:07:21Z</time>
      </trkpt>
      <trkpt lat="48.97415" lon="0.04665">
        <ele>87.99</ele>
        <time>2021-08-08T16:07:22Z</time>
      </trkpt>
      <trkpt lat="48.97414" lon="0.04658">
        <ele>87.93</ele>
        <time>2021-08-08T16:07:23Z</time>
      </trkpt>
      <trkpt lat="48.97413" lon="0.0465">
        <ele>87.88</ele>
        <time>2021-08-08T16:07:24Z</time>
      </trkpt>
      <trkpt lat="48.97411" lon="0.04643">
        <ele>87.83</ele>
        <time>2021-08-08T16:07:25Z</time>
      </trkpt>
      <trkpt lat="48.9741" lon="0.04635">
        <ele>87.68</ele>
        <time>2021-08-08T16:07:26Z</time>
      </trkpt>
      <trkpt lat="48.97409" lon="0.04628">
        <ele>87.44</ele>
        <time>2021-08-08T16:07:27Z</time>
      </trkpt>
      <trkpt lat="48.97409" lon="0.0462">
        <ele>87.15</ele>
        <time>2021-08-08T16:07:28Z</time>
      </trkpt>
      <trkpt lat="48.97407" lon="0.04611">
        <ele>86.81</ele>
        <time>2021-08-08T16:07:29Z</time>
      </trkpt>
      <trkpt lat="48.97407" lon="0.04603">
        <ele>86.49</ele>
        <time>2021-08-08T16:07:30Z</time>
      </trkpt>
      <trkpt lat="48.97407" lon="0.04594">
        <ele>86.17</ele>
        <time>2021-08-08T16:07:31Z</time>
      </trkpt>
      <trkpt lat="48.97407" lon="0.04585">
        <ele>85.86</ele>
        <time>2021-08-08T16:07:32Z</time>
      </trkpt>
      <trkpt lat="48.97409" lon="0.04577">
        <ele>85.58</ele>
        <time>2021-08-08T16:07:33Z</time>
      </trkpt>
      <trkpt lat="48.9741" lon="0.04568">
        <ele>85.33</ele>
        <time>2021-08-08T16:07:34Z</time>
      </trkpt>
      <trkpt lat="48.97412" lon="0.04559">
        <ele>85.07</ele>
        <time>2021-08-08T16:07:35Z</time>
      </trkpt>
      <trkpt lat="48.97412" lon="0.04549">
        <ele>84.73</ele>
        <time>2021-08-08T16:07:36Z</time>
      </trkpt>
      <trkpt lat="48.97413" lon="0.04538">
        <ele>84.32</ele>
        <time>2021-08-08T16:07:37Z</time>
      </trkpt>
      <trkpt lat="48.97415" lon="0.04527">
        <ele>83.94</ele>
        <time>2021-08-08T16:07:38Z</time>
      </trkpt>
      <trkpt lat="48.97417" lon="0.04515">
        <ele>83.36</ele>
        <time>2021-08-08T16:07:39Z</time>
      </trkpt>
      <trkpt lat="48.9742" lon="0.04504">
        <ele>82.71</ele>
        <time>2021-08-08T16:07:40Z</time>
      </trkpt>
      <trkpt lat="48.97423" lon="0.04493">
        <ele>82.04</ele>
        <time>2021-08-08T16:07:41Z</time>
      </trkpt>
      <trkpt lat="48.97426" lon="0.04482">
        <ele>81.37</ele>
        <time>2021-08-08T16:07:42Z</time>
      </trkpt>
      <trkpt lat="48.9743" lon="0.04471">
        <ele>80.67</ele>
        <time>2021-08-08T16:07:43Z</time>
      </trkpt>
      <trkpt lat="48.97434" lon="0.0446">
        <ele>79.89</ele>
        <time>2021-08-08T16:07:44Z</time>
      </trkpt>
      <trkpt lat="48.97437" lon="0.04448">
        <ele>79.1</ele>
        <time>2021-08-08T16:07:45Z</time>
      </trkpt>
      <trkpt lat="48.97438" lon="0.04435">
        <ele>78.47</ele>
        <time>2021-08-08T16:07:46Z</time>
      </trkpt>
      <trkpt lat="48.97439" lon="0.04424">
        <ele>78.06</ele>
        <time>2021-08-08T16:07:47Z</time>
      </trkpt>
      <trkpt lat="48.97439" lon="0.04414">
        <ele>77.7</ele>
        <time>2021-08-08T16:07:48Z</time>
      </trkpt>
      <trkpt lat="48.97439" lon="0.04405">
        <ele>77.39</ele>
        <time>2021-08-08T16:07:49Z</time>
      </trkpt>
      <trkpt lat="48.97438" lon="0.04396">
        <ele>77.09</ele>
        <time>2021-08-08T16:07:50Z</time>
      </trkpt>
      <trkpt lat="48.97438" lon="0.04388">
        <ele>76.83</ele>
        <time>2021-08-08T16:07:51Z</time>
      </trkpt>
      <trkpt lat="48.97438" lon="0.04379">
        <ele>76.54</ele>
        <time>2021-08-08T16:07:52Z</time>
      </trkpt>
      <trkpt lat="48.97437" lon="0.04371">
        <ele>76.22</ele>
        <time>2021-08-08T16:07:53Z</time>
      </trkpt>
      <trkpt lat="48.97436" lon="0.04363">
        <ele>75.88</ele>
        <time>2021-08-08T16:07:54Z</time>
      </trkpt>
      <trkpt lat="48.97435" lon="0.04354">
        <ele>75.54</ele>
        <time>2021-08-08T16:07:55Z</time>
      </trkpt>
      <trkpt lat="48.97434" lon="0.04345">
        <ele>75.2</ele>
        <time>2021-08-08T16:07:56Z</time>
      </trkpt>
      <trkpt lat="48.97433" lon="0.04337">
        <ele>74.86</ele>
        <time>2021-08-08T16:07:57Z</time>
      </trkpt>
      <trkpt lat="48.97432" lon="0.04328">
        <ele>74.43</ele>
        <time>2021-08-08T16:07:58Z</time>
      </trkpt>
      <trkpt lat="48.97431" lon="0.0432">
        <ele>73.97</ele>
        <time>2021-08-08T16:07:59Z</time>
      </trkpt>
      <trkpt lat="48.9743" lon="0.0431">
        <ele>73.44</ele>
        <time>2021-08-08T16:08:00Z</time>
      </trkpt>
      <trkpt lat="48.97428" lon="0.04302">
        <ele>72.94</ele>
        <time>2021-08-08T16:08:01Z</time>
      </trkpt>
      <trkpt lat="48.97427" lon="0.04293">
        <ele>72.36</ele>
        <time>2021-08-08T16:08:02Z</time>
      </trkpt>
      <trkpt lat="48.97425" lon="0.04286">
        <ele>71.81</ele>
        <time>2021-08-08T16:08:03Z</time>
      </trkpt>
      <trkpt lat="48.97425" lon="0.04279">
        <ele>71.31</ele>
        <time>2021-08-08T16:08:04Z</time>
      </trkpt>
      <trkpt lat="48.97423" lon="0.04272">
        <ele>70.79</ele>
        <time>2021-08-08T16:08:05Z</time>
      </trkpt>
      <trkpt lat="48.97422" lon="0.04264">
        <ele>70.23</ele>
        <time>2021-08-08T16:08:06Z</time>
      </trkpt>
      <trkpt lat="48.97422" lon="0.04256">
        <ele>69.66</ele>
        <time>2021-08-08T16:08:07Z</time>
      </trkpt>
      <trkpt lat="48.9742" lon="0.04248">
        <ele>69.15</ele>
        <time>2021-08-08T16:08:08Z</time>
      </trkpt>
      <trkpt lat="48.9742" lon="0.04241">
        <ele>68.81</ele>
        <time>2021-08-08T16:08:09Z</time>
      </trkpt>
      <trkpt lat="48.97419" lon="0.04233">
        <ele>68.5</ele>
        <time>2021-08-08T16:08:10Z</time>
      </trkpt>
      <trkpt lat="48.97418" lon="0.04225">
        <ele>68.23</ele>
        <time>2021-08-08T16:08:11Z</time>
      </trkpt>
      <trkpt lat="48.97415" lon="0.04218">
        <ele>67.88</ele>
        <time>2021-08-08T16:08:12Z</time>
      </trkpt>
      <trkpt lat="48.97414" lon="0.04212">
        <ele>67.45</ele>
        <time>2021-08-08T16:08:13Z</time>
      </trkpt>
      <trkpt lat="48.97413" lon="0.04204">
        <ele>66.96</ele>
        <time>2021-08-08T16:08:14Z</time>
      </trkpt>
      <trkpt lat="48.97412" lon="0.04197">
        <ele>66.49</ele>
        <time>2021-08-08T16:08:15Z</time>
      </trkpt>
      <trkpt lat="48.97411" lon="0.04189">
        <ele>66.14</ele>
        <time>2021-08-08T16:08:16Z</time>
      </trkpt>
      <trkpt lat="48.97409" lon="0.0418">
        <ele>65.78</ele>
        <time>2021-08-08T16:08:17Z</time>
      </trkpt>
      <trkpt lat="48.97408" lon="0.04173">
        <ele>65.45</ele>
        <time>2021-08-08T16:08:18Z</time>
      </trkpt>
      <trkpt lat="48.97408" lon="0.04166">
        <ele>65.12</ele>
        <time>2021-08-08T16:08:19Z</time>
      </trkpt>
      <trkpt lat="48.97407" lon="0.04159">
        <ele>64.83</ele>
        <time>2021-08-08T16:08:20Z</time>
      </trkpt>
      <trkpt lat="48.97405" lon="0.04151">
        <ele>64.55</ele>
        <time>2021-08-08T16:08:21Z</time>
      </trkpt>
      <trkpt lat="48.97403" lon="0.04146">
        <ele>64.35</ele>
        <time>2021-08-08T16:08:22Z</time>
      </trkpt>
      <trkpt lat="48.97402" lon="0.04143">
        <ele>64.22</ele>
        <time>2021-08-08T16:08:23Z</time>
      </trkpt>
      <trkpt lat="48.97401" lon="0.04143">
        <ele>64.16</ele>
        <time>2021-08-08T16:08:24Z</time>
      </trkpt>
      <trkpt lat="48.97399" lon="0.0414">
        <ele>64.07</ele>
        <time>2021-08-08T16:08:25Z</time>
      </trkpt>
      <trkpt lat="48.97396" lon="0.04136">
        <ele>63.95</ele>
        <time>2021-08-08T16:08:26Z</time>
      </trkpt>
      <trkpt lat="48.97393" lon="0.04135">
        <ele>63.89</ele>
        <time>2021-08-08T16:08:27Z</time>
      </trkpt>
      <trkpt lat="48.97389" lon="0.04135">
        <ele>63.87</ele>
        <time>2021-08-08T16:08:28Z</time>
      </trkpt>
      <trkpt lat="48.97386" lon="0.04136">
        <ele>63.89</ele>
        <time>2021-08-08T16:08:29Z</time>
      </trkpt>
      <trkpt lat="48.97383" lon="0.04134">
        <ele>63.86</ele>
        <time>2021-08-08T16:08:30Z</time>
      </trkpt>
      <trkpt lat="48.9738" lon="0.0413">
        <ele>63.81</ele>
        <time>2021-08-08T16:08:31Z</time>
      </trkpt>
      <trkpt lat="48.97379" lon="0.04126">
        <ele>63.73</ele>
        <time>2021-08-08T16:08:32Z</time>
      </trkpt>
      <trkpt lat="48.9738" lon="0.04119">
        <ele>63.58</ele>
        <time>2021-08-08T16:08:33Z</time>
      </trkpt>
      <trkpt lat="48.97382" lon="0.04112">
        <ele>63.36</ele>
        <time>2021-08-08T16:08:34Z</time>
      </trkpt>
      <trkpt lat="48.97385" lon="0.04105">
        <ele>63.06</ele>
        <time>2021-08-08T16:08:35Z</time>
      </trkpt>
      <trkpt lat="48.97388" lon="0.04099">
        <ele>62.74</ele>
        <time>2021-08-08T16:08:36Z</time>
      </trkpt>
      <trkpt lat="48.97391" lon="0.04093">
        <ele>62.47</ele>
        <time>2021-08-08T16:08:37Z</time>
      </trkpt>
      <trkpt lat="48.97393" lon="0.04087">
        <ele>62.22</ele>
        <time>2021-08-08T16:08:38Z</time>
      </trkpt>
      <trkpt lat="48.97396" lon="0.0408">
        <ele>62.05</ele>
        <time>2021-08-08T16:08:39Z</time>
      </trkpt>
      <trkpt lat="48.974" lon="0.04073">
        <ele>61.92</ele>
        <time>2021-08-08T16:08:40Z</time>
      </trkpt>
      <trkpt lat="48.97402" lon="0.04067">
        <ele>61.77</ele>
        <time>2021-08-08T16:08:41Z</time>
      </trkpt>
      <trkpt lat="48.97406" lon="0.04059">
        <ele>61.57</ele>
        <time>2021-08-08T16:08:42Z</time>
      </trkpt>
      <trkpt lat="48.97409" lon="0.04052">
        <ele>61.33</ele>
        <time>2021-08-08T16:08:43Z</time>
      </trkpt>
      <trkpt lat="48.97412" lon="0.04044">
        <ele>61.16</ele>
        <time>2021-08-08T16:08:44Z</time>
      </trkpt>
      <trkpt lat="48.97416" lon="0.04037">
        <ele>61.06</ele>
        <time>2021-08-08T16:08:45Z</time>
      </trkpt>
      <trkpt lat="48.97419" lon="0.04029">
        <ele>60.95</ele>
        <time>2021-08-08T16:08:46Z</time>
      </trkpt>
      <trkpt lat="48.97423" lon="0.04022">
        <ele>60.86</ele>
        <time>2021-08-08T16:08:47Z</time>
      </trkpt>
      <trkpt lat="48.97426" lon="0.04015">
        <ele>60.84</ele>
        <time>2021-08-08T16:08:48Z</time>
      </trkpt>
      <trkpt lat="48.97429" lon="0.04007">
        <ele>60.87</ele>
        <time>2021-08-08T16:08:49Z</time>
      </trkpt>
      <trkpt lat="48.97433" lon="0.04">
        <ele>60.96</ele>
        <time>2021-08-08T16:08:50Z</time>
      </trkpt>
      <trkpt lat="48.97436" lon="0.03993">
        <ele>61.04</ele>
        <time>2021-08-08T16:08:51Z</time>
      </trkpt>
      <trkpt lat="48.9744" lon="0.03986">
        <ele>61.07</ele>
        <time>2021-08-08T16:08:52Z</time>
      </trkpt>
      <trkpt lat="48.97444" lon="0.03978">
        <ele>61.04</ele>
        <time>2021-08-08T16:08:53Z</time>
      </trkpt>
      <trkpt lat="48.97448" lon="0.03971">
        <ele>61.05</ele>
        <time>2021-08-08T16:08:54Z</time>
      </trkpt>
      <trkpt lat="48.97452" lon="0.03963">
        <ele>61.24</ele>
        <time>2021-08-08T16:08:55Z</time>
      </trkpt>
      <trkpt lat="48.97456" lon="0.03955">
        <ele>61.5</ele>
        <time>2021-08-08T16:08:56Z</time>
      </trkpt>
      <trkpt lat="48.9746" lon="0.03947">
        <ele>61.78</ele>
        <time>2021-08-08T16:08:57Z</time>
      </trkpt>
      <trkpt lat="48.97464" lon="0.0394">
        <ele>61.97</ele>
        <time>2021-08-08T16:08:58Z</time>
      </trkpt>
      <trkpt lat="48.97468" lon="0.03931">
        <ele>62.04</ele>
        <time>2021-08-08T16:08:59Z</time>
      </trkpt>
      <trkpt lat="48.97471" lon="0.03924">
        <ele>62.03</ele>
        <time>2021-08-08T16:09:00Z</time>
      </trkpt>
      <trkpt lat="48.97475" lon="0.03916">
        <ele>62.02</ele>
        <time>2021-08-08T16:09:01Z</time>
      </trkpt>
      <trkpt lat="48.97478" lon="0.03909">
        <ele>62.16</ele>
        <time>2021-08-08T16:09:02Z</time>
      </trkpt>
      <trkpt lat="48.9748" lon="0.03902">
        <ele>62.31</ele>
        <time>2021-08-08T16:09:03Z</time>
      </trkpt>
      <trkpt lat="48.97483" lon="0.03896">
        <ele>62.41</ele>
        <time>2021-08-08T16:09:04Z</time>
      </trkpt>
      <trkpt lat="48.97487" lon="0.03889">
        <ele>62.45</ele>
        <time>2021-08-08T16:09:05Z</time>
      </trkpt>
      <trkpt lat="48.97491" lon="0.03882">
        <ele>62.36</ele>
        <time>2021-08-08T16:09:06Z</time>
      </trkpt>
      <trkpt lat="48.97495" lon="0.03874">
        <ele>62.24</ele>
        <time>2021-08-08T16:09:07Z</time>
      </trkpt>
      <trkpt lat="48.97498" lon="0.03865">
        <ele>62.12</ele>
        <time>2021-08-08T16:09:08Z</time>
      </trkpt>
      <trkpt lat="48.97501" lon="0.03858">
        <ele>61.92</ele>
        <time>2021-08-08T16:09:09Z</time>
      </trkpt>
      <trkpt lat="48.97504" lon="0.0385">
        <ele>61.63</ele>
        <time>2021-08-08T16:09:10Z</time>
      </trkpt>
      <trkpt lat="48.97507" lon="0.03843">
        <ele>61.36</ele>
        <time>2021-08-08T16:09:11Z</time>
      </trkpt>
      <trkpt lat="48.97509" lon="0.03835">
        <ele>61.14</ele>
        <time>2021-08-08T16:09:12Z</time>
      </trkpt>
      <trkpt lat="48.97512" lon="0.03826">
        <ele>61.04</ele>
        <time>2021-08-08T16:09:13Z</time>
      </trkpt>
      <trkpt lat="48.97515" lon="0.03817">
        <ele>61.01</ele>
        <time>2021-08-08T16:09:14Z</time>
      </trkpt>
      <trkpt lat="48.97517" lon="0.03808">
        <ele>61</ele>
        <time>2021-08-08T16:09:15Z</time>
      </trkpt>
      <trkpt lat="48.9752" lon="0.03799">
        <ele>61.05</ele>
        <time>2021-08-08T16:09:16Z</time>
      </trkpt>
      <trkpt lat="48.97522" lon="0.03789">
        <ele>61.1</ele>
        <time>2021-08-08T16:09:17Z</time>
      </trkpt>
      <trkpt lat="48.97524" lon="0.0378">
        <ele>61.13</ele>
        <time>2021-08-08T16:09:18Z</time>
      </trkpt>
      <trkpt lat="48.97526" lon="0.03772">
        <ele>61.23</ele>
        <time>2021-08-08T16:09:19Z</time>
      </trkpt>
      <trkpt lat="48.97528" lon="0.03763">
        <ele>61.43</ele>
        <time>2021-08-08T16:09:20Z</time>
      </trkpt>
      <trkpt lat="48.97531" lon="0.03755">
        <ele>61.65</ele>
        <time>2021-08-08T16:09:21Z</time>
      </trkpt>
      <trkpt lat="48.97534" lon="0.03747">
        <ele>61.75</ele>
        <time>2021-08-08T16:09:22Z</time>
      </trkpt>
      <trkpt lat="48.97537" lon="0.03739">
        <ele>61.7</ele>
        <time>2021-08-08T16:09:23Z</time>
      </trkpt>
      <trkpt lat="48.97541" lon="0.03731">
        <ele>61.59</ele>
        <time>2021-08-08T16:09:24Z</time>
      </trkpt>
      <trkpt lat="48.97545" lon="0.03724">
        <ele>61.44</ele>
        <time>2021-08-08T16:09:25Z</time>
      </trkpt>
      <trkpt lat="48.9755" lon="0.03718">
        <ele>61.45</ele>
        <time>2021-08-08T16:09:26Z</time>
      </trkpt>
      <trkpt lat="48.97554" lon="0.03713">
        <ele>61.63</ele>
        <time>2021-08-08T16:09:27Z</time>
      </trkpt>
      <trkpt lat="48.97559" lon="0.03708">
        <ele>61.98</ele>
        <time>2021-08-08T16:09:28Z</time>
      </trkpt>
      <trkpt lat="48.97564" lon="0.03702">
        <ele>62.35</ele>
        <time>2021-08-08T16:09:29Z</time>
      </trkpt>
      <trkpt lat="48.97568" lon="0.03698">
        <ele>62.67</ele>
        <time>2021-08-08T16:09:30Z</time>
      </trkpt>
      <trkpt lat="48.97572" lon="0.03694">
        <ele>62.94</ele>
        <time>2021-08-08T16:09:31Z</time>
      </trkpt>
      <trkpt lat="48.97577" lon="0.0369">
        <ele>63.18</ele>
        <time>2021-08-08T16:09:32Z</time>
      </trkpt>
      <trkpt lat="48.97582" lon="0.03688">
        <ele>63.38</ele>
        <time>2021-08-08T16:09:33Z</time>
      </trkpt>
      <trkpt lat="48.97586" lon="0.03685">
        <ele>63.59</ele>
        <time>2021-08-08T16:09:34Z</time>
      </trkpt>
      <trkpt lat="48.97591" lon="0.03682">
        <ele>63.8</ele>
        <time>2021-08-08T16:09:35Z</time>
      </trkpt>
      <trkpt lat="48.97596" lon="0.0368">
        <ele>63.98</ele>
        <time>2021-08-08T16:09:36Z</time>
      </trkpt>
      <trkpt lat="48.976" lon="0.03678">
        <ele>64.14</ele>
        <time>2021-08-08T16:09:37Z</time>
      </trkpt>
      <trkpt lat="48.97605" lon="0.03675">
        <ele>64.3</ele>
        <time>2021-08-08T16:09:38Z</time>
      </trkpt>
      <trkpt lat="48.97609" lon="0.03674">
        <ele>64.44</ele>
        <time>2021-08-08T16:09:39Z</time>
      </trkpt>
      <trkpt lat="48.97614" lon="0.03671">
        <ele>64.61</ele>
        <time>2021-08-08T16:09:40Z</time>
      </trkpt>
      <trkpt lat="48.97619" lon="0.0367">
        <ele>64.75</ele>
        <time>2021-08-08T16:09:41Z</time>
      </trkpt>
      <trkpt lat="48.97624" lon="0.03668">
        <ele>64.89</ele>
        <time>2021-08-08T16:09:42Z</time>
      </trkpt>
      <trkpt lat="48.97629" lon="0.03665">
        <ele>65.05</ele>
        <time>2021-08-08T16:09:43Z</time>
      </trkpt>
      <trkpt lat="48.97633" lon="0.03663">
        <ele>65.22</ele>
        <time>2021-08-08T16:09:44Z</time>
      </trkpt>
      <trkpt lat="48.97638" lon="0.0366">
        <ele>65.4</ele>
        <time>2021-08-08T16:09:45Z</time>
      </trkpt>
      <trkpt lat="48.97641" lon="0.03658">
        <ele>65.53</ele>
        <time>2021-08-08T16:09:46Z</time>
      </trkpt>
      <trkpt lat="48.97645" lon="0.03657">
        <ele>65.58</ele>
        <time>2021-08-08T16:09:47Z</time>
      </trkpt>
      <trkpt lat="48.97648" lon="0.03656">
        <ele>65.61</ele>
        <time>2021-08-08T16:09:48Z</time>
      </trkpt>
      <trkpt lat="48.97651" lon="0.03655">
        <ele>65.62</ele>
        <time>2021-08-08T16:09:49Z</time>
      </trkpt>
      <trkpt lat="48.97654" lon="0.03654">
        <ele>65.67</ele>
        <time>2021-08-08T16:09:50Z</time>
      </trkpt>
      <trkpt lat="48.97658" lon="0.03651">
        <ele>65.71</ele>
        <time>2021-08-08T16:09:51Z</time>
      </trkpt>
      <trkpt lat="48.97662" lon="0.03649">
        <ele>65.74</ele>
        <time>2021-08-08T16:09:52Z</time>
      </trkpt>
      <trkpt lat="48.97666" lon="0.03646">
        <ele>65.75</ele>
        <time>2021-08-08T16:09:53Z</time>
      </trkpt>
      <trkpt lat="48.9767" lon="0.03644">
        <ele>65.78</ele>
        <time>2021-08-08T16:09:54Z</time>
      </trkpt>
      <trkpt lat="48.97674" lon="0.03642">
        <ele>65.84</ele>
        <time>2021-08-08T16:09:55Z</time>
      </trkpt>
      <trkpt lat="48.97678" lon="0.03639">
        <ele>65.94</ele>
        <time>2021-08-08T16:09:56Z</time>
      </trkpt>
      <trkpt lat="48.97681" lon="0.03637">
        <ele>66.06</ele>
        <time>2021-08-08T16:09:57Z</time>
      </trkpt>
      <trkpt lat="48.97685" lon="0.03634">
        <ele>66.19</ele>
        <time>2021-08-08T16:09:58Z</time>
      </trkpt>
      <trkpt lat="48.97689" lon="0.03631">
        <ele>66.29</ele>
        <time>2021-08-08T16:09:59Z</time>
      </trkpt>
      <trkpt lat="48.97693" lon="0.03628">
        <ele>66.37</ele>
        <time>2021-08-08T16:10:00Z</time>
      </trkpt>
      <trkpt lat="48.97696" lon="0.03625">
        <ele>66.45</ele>
        <time>2021-08-08T16:10:01Z</time>
      </trkpt>
      <trkpt lat="48.977" lon="0.03622">
        <ele>66.51</ele>
        <time>2021-08-08T16:10:02Z</time>
      </trkpt>
      <trkpt lat="48.97704" lon="0.03619">
        <ele>66.58</ele>
        <time>2021-08-08T16:10:03Z</time>
      </trkpt>
      <trkpt lat="48.97708" lon="0.03616">
        <ele>66.67</ele>
        <time>2021-08-08T16:10:04Z</time>
      </trkpt>
      <trkpt lat="48.97712" lon="0.03612">
        <ele>66.86</ele>
        <time>2021-08-08T16:10:05Z</time>
      </trkpt>
      <trkpt lat="48.97714" lon="0.03606">
        <ele>67.11</ele>
        <time>2021-08-08T16:10:06Z</time>
      </trkpt>
      <trkpt lat="48.97714" lon="0.036">
        <ele>67.39</ele>
        <time>2021-08-08T16:10:07Z</time>
      </trkpt>
      <trkpt lat="48.97713" lon="0.03594">
        <ele>67.7</ele>
        <time>2021-08-08T16:10:08Z</time>
      </trkpt>
      <trkpt lat="48.97712" lon="0.03588">
        <ele>68.01</ele>
        <time>2021-08-08T16:10:09Z</time>
      </trkpt>
      <trkpt lat="48.97711" lon="0.03582">
        <ele>68.35</ele>
        <time>2021-08-08T16:10:10Z</time>
      </trkpt>
      <trkpt lat="48.97711" lon="0.03576">
        <ele>68.78</ele>
        <time>2021-08-08T16:10:11Z</time>
      </trkpt>
      <trkpt lat="48.97711" lon="0.03569">
        <ele>69.22</ele>
        <time>2021-08-08T16:10:12Z</time>
      </trkpt>
      <trkpt lat="48.97711" lon="0.03563">
        <ele>69.65</ele>
        <time>2021-08-08T16:10:13Z</time>
      </trkpt>
      <trkpt lat="48.97711" lon="0.03557">
        <ele>70.08</ele>
        <time>2021-08-08T16:10:14Z</time>
      </trkpt>
      <trkpt lat="48.97711" lon="0.03551">
        <ele>70.41</ele>
        <time>2021-08-08T16:10:15Z</time>
      </trkpt>
      <trkpt lat="48.97711" lon="0.03545">
        <ele>70.65</ele>
        <time>2021-08-08T16:10:16Z</time>
      </trkpt>
      <trkpt lat="48.97712" lon="0.03539">
        <ele>70.87</ele>
        <time>2021-08-08T16:10:17Z</time>
      </trkpt>
      <trkpt lat="48.97713" lon="0.03532">
        <ele>71.07</ele>
        <time>2021-08-08T16:10:18Z</time>
      </trkpt>
      <trkpt lat="48.97715" lon="0.03526">
        <ele>71.29</ele>
        <time>2021-08-08T16:10:19Z</time>
      </trkpt>
      <trkpt lat="48.97716" lon="0.03521">
        <ele>71.59</ele>
        <time>2021-08-08T16:10:20Z</time>
      </trkpt>
      <trkpt lat="48.97718" lon="0.03515">
        <ele>71.92</ele>
        <time>2021-08-08T16:10:21Z</time>
      </trkpt>
      <trkpt lat="48.9772" lon="0.03509">
        <ele>72.27</ele>
        <time>2021-08-08T16:10:22Z</time>
      </trkpt>
      <trkpt lat="48.97722" lon="0.03504">
        <ele>72.62</ele>
        <time>2021-08-08T16:10:23Z</time>
      </trkpt>
      <trkpt lat="48.97725" lon="0.03498">
        <ele>72.82</ele>
        <time>2021-08-08T16:10:24Z</time>
      </trkpt>
      <trkpt lat="48.97727" lon="0.03492">
        <ele>72.83</ele>
        <time>2021-08-08T16:10:25Z</time>
      </trkpt>
      <trkpt lat="48.97729" lon="0.03488">
        <ele>72.77</ele>
        <time>2021-08-08T16:10:26Z</time>
      </trkpt>
      <trkpt lat="48.97732" lon="0.03484">
        <ele>72.68</ele>
        <time>2021-08-08T16:10:27Z</time>
      </trkpt>
      <trkpt lat="48.97735" lon="0.03479">
        <ele>72.58</ele>
        <time>2021-08-08T16:10:28Z</time>
      </trkpt>
      <trkpt lat="48.97738" lon="0.03475">
        <ele>72.46</ele>
        <time>2021-08-08T16:10:29Z</time>
      </trkpt>
      <trkpt lat="48.97742" lon="0.03471">
        <ele>72.34</ele>
        <time>2021-08-08T16:10:30Z</time>
      </trkpt>
      <trkpt lat="48.97745" lon="0.03468">
        <ele>72.21</ele>
        <time>2021-08-08T16:10:31Z</time>
      </trkpt>
      <trkpt lat="48.97748" lon="0.03465">
        <ele>72.1</ele>
        <time>2021-08-08T16:10:32Z</time>
      </trkpt>
      <trkpt lat="48.97751" lon="0.03462">
        <ele>71.99</ele>
        <time>2021-08-08T16:10:33Z</time>
      </trkpt>
      <trkpt lat="48.97754" lon="0.03458">
        <ele>71.89</ele>
        <time>2021-08-08T16:10:34Z</time>
      </trkpt>
      <trkpt lat="48.97757" lon="0.03455">
        <ele>71.78</ele>
        <time>2021-08-08T16:10:35Z</time>
      </trkpt>
      <trkpt lat="48.9776" lon="0.03451">
        <ele>71.67</ele>
        <time>2021-08-08T16:10:36Z</time>
      </trkpt>
      <trkpt lat="48.97764" lon="0.03448">
        <ele>71.56</ele>
        <time>2021-08-08T16:10:37Z</time>
      </trkpt>
      <trkpt lat="48.97767" lon="0.03445">
        <ele>71.43</ele>
        <time>2021-08-08T16:10:38Z</time>
      </trkpt>
      <trkpt lat="48.97771" lon="0.03442">
        <ele>71.35</ele>
        <time>2021-08-08T16:10:39Z</time>
      </trkpt>
      <trkpt lat="48.97776" lon="0.03438">
        <ele>71.3</ele>
        <time>2021-08-08T16:10:40Z</time>
      </trkpt>
      <trkpt lat="48.9778" lon="0.03433">
        <ele>71.36</ele>
        <time>2021-08-08T16:10:41Z</time>
      </trkpt>
      <trkpt lat="48.97785" lon="0.03428">
        <ele>71.42</ele>
        <time>2021-08-08T16:10:42Z</time>
      </trkpt>
      <trkpt lat="48.9779" lon="0.03423">
        <ele>71.43</ele>
        <time>2021-08-08T16:10:43Z</time>
      </trkpt>
      <trkpt lat="48.97794" lon="0.03419">
        <ele>71.41</ele>
        <time>2021-08-08T16:10:44Z</time>
      </trkpt>
      <trkpt lat="48.97799" lon="0.03414">
        <ele>71.3</ele>
        <time>2021-08-08T16:10:45Z</time>
      </trkpt>
      <trkpt lat="48.97803" lon="0.03409">
        <ele>71.15</ele>
        <time>2021-08-08T16:10:46Z</time>
      </trkpt>
      <trkpt lat="48.97808" lon="0.03404">
        <ele>70.98</ele>
        <time>2021-08-08T16:10:47Z</time>
      </trkpt>
      <trkpt lat="48.97813" lon="0.03399">
        <ele>70.81</ele>
        <time>2021-08-08T16:10:48Z</time>
      </trkpt>
      <trkpt lat="48.97818" lon="0.03393">
        <ele>70.63</ele>
        <time>2021-08-08T16:10:49Z</time>
      </trkpt>
      <trkpt lat="48.97823" lon="0.03387">
        <ele>70.43</ele>
        <time>2021-08-08T16:10:50Z</time>
      </trkpt>
      <trkpt lat="48.97828" lon="0.03381">
        <ele>70.22</ele>
        <time>2021-08-08T16:10:51Z</time>
      </trkpt>
      <trkpt lat="48.97833" lon="0.03375">
        <ele>70.06</ele>
        <time>2021-08-08T16:10:52Z</time>
      </trkpt>
      <trkpt lat="48.97839" lon="0.03369">
        <ele>69.92</ele>
        <time>2021-08-08T16:10:53Z</time>
      </trkpt>
      <trkpt lat="48.97845" lon="0.03363">
        <ele>69.71</ele>
        <time>2021-08-08T16:10:54Z</time>
      </trkpt>
      <trkpt lat="48.9785" lon="0.03356">
        <ele>69.49</ele>
        <time>2021-08-08T16:10:55Z</time>
      </trkpt>
      <trkpt lat="48.97856" lon="0.03349">
        <ele>69.28</ele>
        <time>2021-08-08T16:10:56Z</time>
      </trkpt>
      <trkpt lat="48.97861" lon="0.03341">
        <ele>69.08</ele>
        <time>2021-08-08T16:10:57Z</time>
      </trkpt>
      <trkpt lat="48.97866" lon="0.03334">
        <ele>69.03</ele>
        <time>2021-08-08T16:10:58Z</time>
      </trkpt>
      <trkpt lat="48.97872" lon="0.03326">
        <ele>69.01</ele>
        <time>2021-08-08T16:10:59Z</time>
      </trkpt>
      <trkpt lat="48.97876" lon="0.03318">
        <ele>69</ele>
        <time>2021-08-08T16:11:00Z</time>
      </trkpt>
      <trkpt lat="48.9788" lon="0.0331">
        <ele>69</ele>
        <time>2021-08-08T16:11:01Z</time>
      </trkpt>
      <trkpt lat="48.97883" lon="0.03301">
        <ele>69</ele>
        <time>2021-08-08T16:11:02Z</time>
      </trkpt>
      <trkpt lat="48.97885" lon="0.03293">
        <ele>69</ele>
        <time>2021-08-08T16:11:03Z</time>
      </trkpt>
      <trkpt lat="48.97888" lon="0.03284">
        <ele>69</ele>
        <time>2021-08-08T16:11:04Z</time>
      </trkpt>
      <trkpt lat="48.9789" lon="0.03275">
        <ele>69</ele>
        <time>2021-08-08T16:11:05Z</time>
      </trkpt>
      <trkpt lat="48.97892" lon="0.03265">
        <ele>68.96</ele>
        <time>2021-08-08T16:11:06Z</time>
      </trkpt>
      <trkpt lat="48.97894" lon="0.03256">
        <ele>68.89</ele>
        <time>2021-08-08T16:11:07Z</time>
      </trkpt>
      <trkpt lat="48.97896" lon="0.03247">
        <ele>68.8</ele>
        <time>2021-08-08T16:11:08Z</time>
      </trkpt>
      <trkpt lat="48.97898" lon="0.03238">
        <ele>68.71</ele>
        <time>2021-08-08T16:11:09Z</time>
      </trkpt>
      <trkpt lat="48.979" lon="0.03229">
        <ele>68.63</ele>
        <time>2021-08-08T16:11:10Z</time>
      </trkpt>
      <trkpt lat="48.97903" lon="0.03219">
        <ele>68.5</ele>
        <time>2021-08-08T16:11:11Z</time>
      </trkpt>
      <trkpt lat="48.97906" lon="0.0321">
        <ele>68.31</ele>
        <time>2021-08-08T16:11:12Z</time>
      </trkpt>
      <trkpt lat="48.97908" lon="0.03201">
        <ele>68.14</ele>
        <time>2021-08-08T16:11:13Z</time>
      </trkpt>
      <trkpt lat="48.97911" lon="0.03191">
        <ele>68.04</ele>
        <time>2021-08-08T16:11:14Z</time>
      </trkpt>
      <trkpt lat="48.97913" lon="0.03182">
        <ele>68.01</ele>
        <time>2021-08-08T16:11:15Z</time>
      </trkpt>
      <trkpt lat="48.97916" lon="0.03173">
        <ele>68</ele>
        <time>2021-08-08T16:11:16Z</time>
      </trkpt>
      <trkpt lat="48.97918" lon="0.03164">
        <ele>67.97</ele>
        <time>2021-08-08T16:11:17Z</time>
      </trkpt>
      <trkpt lat="48.97921" lon="0.03156">
        <ele>67.88</ele>
        <time>2021-08-08T16:11:18Z</time>
      </trkpt>
      <trkpt lat="48.97924" lon="0.03147">
        <ele>67.78</ele>
        <time>2021-08-08T16:11:19Z</time>
      </trkpt>
      <trkpt lat="48.97927" lon="0.03139">
        <ele>67.67</ele>
        <time>2021-08-08T16:11:20Z</time>
      </trkpt>
      <trkpt lat="48.9793" lon="0.0313">
        <ele>67.57</ele>
        <time>2021-08-08T16:11:21Z</time>
      </trkpt>
      <trkpt lat="48.97933" lon="0.0312">
        <ele>67.46</ele>
        <time>2021-08-08T16:11:22Z</time>
      </trkpt>
      <trkpt lat="48.97937" lon="0.03112">
        <ele>67.34</ele>
        <time>2021-08-08T16:11:23Z</time>
      </trkpt>
      <trkpt lat="48.97941" lon="0.03104">
        <ele>67.19</ele>
        <time>2021-08-08T16:11:24Z</time>
      </trkpt>
      <trkpt lat="48.97946" lon="0.03096">
        <ele>67.06</ele>
        <time>2021-08-08T16:11:25Z</time>
      </trkpt>
      <trkpt lat="48.9795" lon="0.03088">
        <ele>67.02</ele>
        <time>2021-08-08T16:11:26Z</time>
      </trkpt>
      <trkpt lat="48.97955" lon="0.0308">
        <ele>67.05</ele>
        <time>2021-08-08T16:11:27Z</time>
      </trkpt>
      <trkpt lat="48.97959" lon="0.03073">
        <ele>67.14</ele>
        <time>2021-08-08T16:11:28Z</time>
      </trkpt>
      <trkpt lat="48.97964" lon="0.03066">
        <ele>67.18</ele>
        <time>2021-08-08T16:11:29Z</time>
      </trkpt>
      <trkpt lat="48.97968" lon="0.03059">
        <ele>67.15</ele>
        <time>2021-08-08T16:11:30Z</time>
      </trkpt>
      <trkpt lat="48.97973" lon="0.03053">
        <ele>67.04</ele>
        <time>2021-08-08T16:11:31Z</time>
      </trkpt>
      <trkpt lat="48.97977" lon="0.03047">
        <ele>67.01</ele>
        <time>2021-08-08T16:11:32Z</time>
      </trkpt>
      <trkpt lat="48.97981" lon="0.03041">
        <ele>67</ele>
        <time>2021-08-08T16:11:33Z</time>
      </trkpt>
      <trkpt lat="48.97985" lon="0.03034">
        <ele>67</ele>
        <time>2021-08-08T16:11:34Z</time>
      </trkpt>
      <trkpt lat="48.97989" lon="0.03027">
        <ele>67</ele>
        <time>2021-08-08T16:11:35Z</time>
      </trkpt>
      <trkpt lat="48.97994" lon="0.03021">
        <ele>67.04</ele>
        <time>2021-08-08T16:11:36Z</time>
      </trkpt>
      <trkpt lat="48.97999" lon="0.03015">
        <ele>67.03</ele>
        <time>2021-08-08T16:11:37Z</time>
      </trkpt>
      <trkpt lat="48.98003" lon="0.03009">
        <ele>66.98</ele>
        <time>2021-08-08T16:11:38Z</time>
      </trkpt>
      <trkpt lat="48.98007" lon="0.03003">
        <ele>66.98</ele>
        <time>2021-08-08T16:11:39Z</time>
      </trkpt>
      <trkpt lat="48.98012" lon="0.02997">
        <ele>66.99</ele>
        <time>2021-08-08T16:11:40Z</time>
      </trkpt>
      <trkpt lat="48.98016" lon="0.02992">
        <ele>67</ele>
        <time>2021-08-08T16:11:41Z</time>
      </trkpt>
      <trkpt lat="48.98021" lon="0.02986">
        <ele>67</ele>
        <time>2021-08-08T16:11:42Z</time>
      </trkpt>
      <trkpt lat="48.98025" lon="0.0298">
        <ele>67</ele>
        <time>2021-08-08T16:11:43Z</time>
      </trkpt>
      <trkpt lat="48.9803" lon="0.02975">
        <ele>66.99</ele>
        <time>2021-08-08T16:11:44Z</time>
      </trkpt>
      <trkpt lat="48.98035" lon="0.0297">
        <ele>67.04</ele>
        <time>2021-08-08T16:11:45Z</time>
      </trkpt>
      <trkpt lat="48.98039" lon="0.02965">
        <ele>67.13</ele>
        <time>2021-08-08T16:11:46Z</time>
      </trkpt>
      <trkpt lat="48.98043" lon="0.02959">
        <ele>67.19</ele>
        <time>2021-08-08T16:11:47Z</time>
      </trkpt>
      <trkpt lat="48.98047" lon="0.02955">
        <ele>67.19</ele>
        <time>2021-08-08T16:11:48Z</time>
      </trkpt>
      <trkpt lat="48.98051" lon="0.0295">
        <ele>67.15</ele>
        <time>2021-08-08T16:11:49Z</time>
      </trkpt>
      <trkpt lat="48.98054" lon="0.02946">
        <ele>67.07</ele>
        <time>2021-08-08T16:11:50Z</time>
      </trkpt>
      <trkpt lat="48.98057" lon="0.02942">
        <ele>67.08</ele>
        <time>2021-08-08T16:11:51Z</time>
      </trkpt>
      <trkpt lat="48.9806" lon="0.02939">
        <ele>67.16</ele>
        <time>2021-08-08T16:11:52Z</time>
      </trkpt>
      <trkpt lat="48.98062" lon="0.02937">
        <ele>67.22</ele>
        <time>2021-08-08T16:11:53Z</time>
      </trkpt>
      <trkpt lat="48.98063" lon="0.02936">
        <ele>67.28</ele>
        <time>2021-08-08T16:11:54Z</time>
      </trkpt>
      <trkpt lat="48.98065" lon="0.02935">
        <ele>67.32</ele>
        <time>2021-08-08T16:11:55Z</time>
      </trkpt>
      <trkpt lat="48.98067" lon="0.02932">
        <ele>67.4</ele>
        <time>2021-08-08T16:11:56Z</time>
      </trkpt>
      <trkpt lat="48.98069" lon="0.02929">
        <ele>67.51</ele>
        <time>2021-08-08T16:11:57Z</time>
      </trkpt>
      <trkpt lat="48.98071" lon="0.02926">
        <ele>67.61</ele>
        <time>2021-08-08T16:11:58Z</time>
      </trkpt>
      <trkpt lat="48.98073" lon="0.02923">
        <ele>67.72</ele>
        <time>2021-08-08T16:11:59Z</time>
      </trkpt>
      <trkpt lat="48.98075" lon="0.0292">
        <ele>67.83</ele>
        <time>2021-08-08T16:12:00Z</time>
      </trkpt>
      <trkpt lat="48.98077" lon="0.02917">
        <ele>67.95</ele>
        <time>2021-08-08T16:12:01Z</time>
      </trkpt>
      <trkpt lat="48.98079" lon="0.02913">
        <ele>68.07</ele>
        <time>2021-08-08T16:12:02Z</time>
      </trkpt>
      <trkpt lat="48.98082" lon="0.0291">
        <ele>68.2</ele>
        <time>2021-08-08T16:12:03Z</time>
      </trkpt>
      <trkpt lat="48.98083" lon="0.02906">
        <ele>68.33</ele>
        <time>2021-08-08T16:12:04Z</time>
      </trkpt>
      <trkpt lat="48.98085" lon="0.02902">
        <ele>68.44</ele>
        <time>2021-08-08T16:12:05Z</time>
      </trkpt>
      <trkpt lat="48.98087" lon="0.02899">
        <ele>68.52</ele>
        <time>2021-08-08T16:12:06Z</time>
      </trkpt>
      <trkpt lat="48.9809" lon="0.02895">
        <ele>68.56</ele>
        <time>2021-08-08T16:12:07Z</time>
      </trkpt>
      <trkpt lat="48.98093" lon="0.02892">
        <ele>68.57</ele>
        <time>2021-08-08T16:12:08Z</time>
      </trkpt>
      <trkpt lat="48.98095" lon="0.02889">
        <ele>68.56</ele>
        <time>2021-08-08T16:12:09Z</time>
      </trkpt>
      <trkpt lat="48.98098" lon="0.02886">
        <ele>68.55</ele>
        <time>2021-08-08T16:12:10Z</time>
      </trkpt>
      <trkpt lat="48.981" lon="0.02882">
        <ele>68.55</ele>
        <time>2021-08-08T16:12:11Z</time>
      </trkpt>
      <trkpt lat="48.98104" lon="0.02878">
        <ele>68.56</ele>
        <time>2021-08-08T16:12:12Z</time>
      </trkpt>
      <trkpt lat="48.98107" lon="0.02874">
        <ele>68.59</ele>
        <time>2021-08-08T16:12:13Z</time>
      </trkpt>
      <trkpt lat="48.9811" lon="0.0287">
        <ele>68.66</ele>
        <time>2021-08-08T16:12:14Z</time>
      </trkpt>
      <trkpt lat="48.98112" lon="0.02866">
        <ele>68.77</ele>
        <time>2021-08-08T16:12:15Z</time>
      </trkpt>
      <trkpt lat="48.98114" lon="0.02862">
        <ele>68.92</ele>
        <time>2021-08-08T16:12:16Z</time>
      </trkpt>
      <trkpt lat="48.98116" lon="0.02858">
        <ele>69.06</ele>
        <time>2021-08-08T16:12:17Z</time>
      </trkpt>
      <trkpt lat="48.98118" lon="0.02854">
        <ele>69.2</ele>
        <time>2021-08-08T16:12:18Z</time>
      </trkpt>
      <trkpt lat="48.98121" lon="0.02849">
        <ele>69.37</ele>
        <time>2021-08-08T16:12:19Z</time>
      </trkpt>
      <trkpt lat="48.98123" lon="0.02845">
        <ele>69.52</ele>
        <time>2021-08-08T16:12:20Z</time>
      </trkpt>
      <trkpt lat="48.98125" lon="0.02841">
        <ele>69.66</ele>
        <time>2021-08-08T16:12:21Z</time>
      </trkpt>
      <trkpt lat="48.98129" lon="0.02837">
        <ele>69.8</ele>
        <time>2021-08-08T16:12:22Z</time>
      </trkpt>
      <trkpt lat="48.98133" lon="0.02833">
        <ele>69.95</ele>
        <time>2021-08-08T16:12:23Z</time>
      </trkpt>
      <trkpt lat="48.98136" lon="0.02828">
        <ele>70.12</ele>
        <time>2021-08-08T16:12:24Z</time>
      </trkpt>
      <trkpt lat="48.9814" lon="0.02823">
        <ele>70.29</ele>
        <time>2021-08-08T16:12:25Z</time>
      </trkpt>
      <trkpt lat="48.98144" lon="0.02818">
        <ele>70.47</ele>
        <time>2021-08-08T16:12:26Z</time>
      </trkpt>
      <trkpt lat="48.98147" lon="0.02814">
        <ele>70.63</ele>
        <time>2021-08-08T16:12:27Z</time>
      </trkpt>
      <trkpt lat="48.98149" lon="0.02811">
        <ele>70.75</ele>
        <time>2021-08-08T16:12:28Z</time>
      </trkpt>
      <trkpt lat="48.9815" lon="0.02808">
        <ele>70.86</ele>
        <time>2021-08-08T16:12:29Z</time>
      </trkpt>
      <trkpt lat="48.98151" lon="0.02804">
        <ele>70.98</ele>
        <time>2021-08-08T16:12:30Z</time>
      </trkpt>
      <trkpt lat="48.98152" lon="0.02801">
        <ele>71.06</ele>
        <time>2021-08-08T16:12:31Z</time>
      </trkpt>
      <trkpt lat="48.98154" lon="0.02797">
        <ele>71.12</ele>
        <time>2021-08-08T16:12:32Z</time>
      </trkpt>
      <trkpt lat="48.98156" lon="0.02793">
        <ele>71.16</ele>
        <time>2021-08-08T16:12:33Z</time>
      </trkpt>
      <trkpt lat="48.98157" lon="0.02789">
        <ele>71.19</ele>
        <time>2021-08-08T16:12:34Z</time>
      </trkpt>
      <trkpt lat="48.9816" lon="0.02786">
        <ele>71.18</ele>
        <time>2021-08-08T16:12:35Z</time>
      </trkpt>
      <trkpt lat="48.98162" lon="0.02782">
        <ele>71.14</ele>
        <time>2021-08-08T16:12:36Z</time>
      </trkpt>
      <trkpt lat="48.98164" lon="0.02778">
        <ele>71.12</ele>
        <time>2021-08-08T16:12:37Z</time>
      </trkpt>
      <trkpt lat="48.98165" lon="0.02772">
        <ele>71.2</ele>
        <time>2021-08-08T16:12:38Z</time>
      </trkpt>
      <trkpt lat="48.98167" lon="0.02768">
        <ele>71.31</ele>
        <time>2021-08-08T16:12:39Z</time>
      </trkpt>
      <trkpt lat="48.9817" lon="0.02764">
        <ele>71.45</ele>
        <time>2021-08-08T16:12:40Z</time>
      </trkpt>
      <trkpt lat="48.98174" lon="0.02756">
        <ele>71.67</ele>
        <time>2021-08-08T16:12:42Z</time>
      </trkpt>
      <trkpt lat="48.98176" lon="0.02752">
        <ele>71.84</ele>
        <time>2021-08-08T16:12:43Z</time>
      </trkpt>
      <trkpt lat="48.98179" lon="0.02748">
        <ele>72</ele>
        <time>2021-08-08T16:12:44Z</time>
      </trkpt>
      <trkpt lat="48.98181" lon="0.02745">
        <ele>72.13</ele>
        <time>2021-08-08T16:12:45Z</time>
      </trkpt>
      <trkpt lat="48.98183" lon="0.02741">
        <ele>72.27</ele>
        <time>2021-08-08T16:12:46Z</time>
      </trkpt>
      <trkpt lat="48.98184" lon="0.02737">
        <ele>72.42</ele>
        <time>2021-08-08T16:12:47Z</time>
      </trkpt>
      <trkpt lat="48.98186" lon="0.02733">
        <ele>72.55</ele>
        <time>2021-08-08T16:12:48Z</time>
      </trkpt>
      <trkpt lat="48.98188" lon="0.0273">
        <ele>72.68</ele>
        <time>2021-08-08T16:12:49Z</time>
      </trkpt>
      <trkpt lat="48.9819" lon="0.02726">
        <ele>72.8</ele>
        <time>2021-08-08T16:12:50Z</time>
      </trkpt>
      <trkpt lat="48.9819" lon="0.02723">
        <ele>72.91</ele>
        <time>2021-08-08T16:12:51Z</time>
      </trkpt>
      <trkpt lat="48.98192" lon="0.02721">
        <ele>73.01</ele>
        <time>2021-08-08T16:12:52Z</time>
      </trkpt>
      <trkpt lat="48.98193" lon="0.02718">
        <ele>73.11</ele>
        <time>2021-08-08T16:12:53Z</time>
      </trkpt>
      <trkpt lat="48.98195" lon="0.02715">
        <ele>73.2</ele>
        <time>2021-08-08T16:12:54Z</time>
      </trkpt>
      <trkpt lat="48.98196" lon="0.02713">
        <ele>73.26</ele>
        <time>2021-08-08T16:12:55Z</time>
      </trkpt>
      <trkpt lat="48.98198" lon="0.02708">
        <ele>73.33</ele>
        <time>2021-08-08T16:12:56Z</time>
      </trkpt>
      <trkpt lat="48.982" lon="0.02703">
        <ele>73.42</ele>
        <time>2021-08-08T16:12:57Z</time>
      </trkpt>
      <trkpt lat="48.98203" lon="0.02699">
        <ele>73.5</ele>
        <time>2021-08-08T16:12:58Z</time>
      </trkpt>
      <trkpt lat="48.98205" lon="0.02695">
        <ele>73.58</ele>
        <time>2021-08-08T16:12:59Z</time>
      </trkpt>
      <trkpt lat="48.98207" lon="0.02691">
        <ele>73.6</ele>
        <time>2021-08-08T16:13:00Z</time>
      </trkpt>
      <trkpt lat="48.98208" lon="0.02687">
        <ele>73.63</ele>
        <time>2021-08-08T16:13:01Z</time>
      </trkpt>
      <trkpt lat="48.9821" lon="0.02682">
        <ele>73.68</ele>
        <time>2021-08-08T16:13:02Z</time>
      </trkpt>
      <trkpt lat="48.98211" lon="0.02677">
        <ele>73.75</ele>
        <time>2021-08-08T16:13:03Z</time>
      </trkpt>
      <trkpt lat="48.98213" lon="0.02673">
        <ele>73.82</ele>
        <time>2021-08-08T16:13:04Z</time>
      </trkpt>
      <trkpt lat="48.98214" lon="0.02668">
        <ele>73.92</ele>
        <time>2021-08-08T16:13:05Z</time>
      </trkpt>
      <trkpt lat="48.98216" lon="0.02664">
        <ele>74.04</ele>
        <time>2021-08-08T16:13:06Z</time>
      </trkpt>
      <trkpt lat="48.98218" lon="0.0266">
        <ele>74.19</ele>
        <time>2021-08-08T16:13:07Z</time>
      </trkpt>
      <trkpt lat="48.9822" lon="0.02656">
        <ele>74.32</ele>
        <time>2021-08-08T16:13:08Z</time>
      </trkpt>
      <trkpt lat="48.98222" lon="0.02653">
        <ele>74.44</ele>
        <time>2021-08-08T16:13:09Z</time>
      </trkpt>
      <trkpt lat="48.98223" lon="0.0265">
        <ele>74.54</ele>
        <time>2021-08-08T16:13:10Z</time>
      </trkpt>
      <trkpt lat="48.98225" lon="0.02645">
        <ele>74.65</ele>
        <time>2021-08-08T16:13:11Z</time>
      </trkpt>
      <trkpt lat="48.98227" lon="0.02641">
        <ele>74.73</ele>
        <time>2021-08-08T16:13:12Z</time>
      </trkpt>
      <trkpt lat="48.98228" lon="0.02637">
        <ele>74.83</ele>
        <time>2021-08-08T16:13:13Z</time>
      </trkpt>
      <trkpt lat="48.9823" lon="0.02631">
        <ele>74.97</ele>
        <time>2021-08-08T16:13:14Z</time>
      </trkpt>
      <trkpt lat="48.98231" lon="0.02624">
        <ele>75.12</ele>
        <time>2021-08-08T16:13:15Z</time>
      </trkpt>
      <trkpt lat="48.98233" lon="0.0262">
        <ele>75.25</ele>
        <time>2021-08-08T16:13:16Z</time>
      </trkpt>
      <trkpt lat="48.98234" lon="0.02616">
        <ele>75.36</ele>
        <time>2021-08-08T16:13:17Z</time>
      </trkpt>
      <trkpt lat="48.98235" lon="0.02611">
        <ele>75.48</ele>
        <time>2021-08-08T16:13:18Z</time>
      </trkpt>
      <trkpt lat="48.98236" lon="0.02607">
        <ele>75.54</ele>
        <time>2021-08-08T16:13:19Z</time>
      </trkpt>
      <trkpt lat="48.98237" lon="0.02602">
        <ele>75.6</ele>
        <time>2021-08-08T16:13:20Z</time>
      </trkpt>
      <trkpt lat="48.98239" lon="0.02598">
        <ele>75.66</ele>
        <time>2021-08-08T16:13:21Z</time>
      </trkpt>
      <trkpt lat="48.98239" lon="0.02593">
        <ele>75.74</ele>
        <time>2021-08-08T16:13:22Z</time>
      </trkpt>
      <trkpt lat="48.98241" lon="0.02588">
        <ele>75.84</ele>
        <time>2021-08-08T16:13:23Z</time>
      </trkpt>
      <trkpt lat="48.98242" lon="0.02582">
        <ele>75.98</ele>
        <time>2021-08-08T16:13:24Z</time>
      </trkpt>
      <trkpt lat="48.98243" lon="0.02577">
        <ele>76.14</ele>
        <time>2021-08-08T16:13:25Z</time>
      </trkpt>
      <trkpt lat="48.98244" lon="0.02573">
        <ele>76.3</ele>
        <time>2021-08-08T16:13:26Z</time>
      </trkpt>
      <trkpt lat="48.98246" lon="0.0257">
        <ele>76.43</ele>
        <time>2021-08-08T16:13:27Z</time>
      </trkpt>
      <trkpt lat="48.98247" lon="0.02567">
        <ele>76.54</ele>
        <time>2021-08-08T16:13:28Z</time>
      </trkpt>
      <trkpt lat="48.98248" lon="0.02565">
        <ele>76.64</ele>
        <time>2021-08-08T16:13:29Z</time>
      </trkpt>
      <trkpt lat="48.98249" lon="0.02563">
        <ele>76.71</ele>
        <time>2021-08-08T16:13:30Z</time>
      </trkpt>
      <trkpt lat="48.9825" lon="0.02561">
        <ele>76.78</ele>
        <time>2021-08-08T16:13:31Z</time>
      </trkpt>
      <trkpt lat="48.98251" lon="0.02559">
        <ele>76.86</ele>
        <time>2021-08-08T16:13:32Z</time>
      </trkpt>
      <trkpt lat="48.98252" lon="0.02556">
        <ele>76.95</ele>
        <time>2021-08-08T16:13:33Z</time>
      </trkpt>
      <trkpt lat="48.98253" lon="0.02553">
        <ele>76.99</ele>
        <time>2021-08-08T16:13:34Z</time>
      </trkpt>
      <trkpt lat="48.98256" lon="0.02549">
        <ele>77</ele>
        <time>2021-08-08T16:13:35Z</time>
      </trkpt>
      <trkpt lat="48.98257" lon="0.02546">
        <ele>77</ele>
        <time>2021-08-08T16:13:36Z</time>
      </trkpt>
      <trkpt lat="48.98259" lon="0.02543">
        <ele>77</ele>
        <time>2021-08-08T16:13:37Z</time>
      </trkpt>
      <trkpt lat="48.9826" lon="0.02541">
        <ele>77</ele>
        <time>2021-08-08T16:13:38Z</time>
      </trkpt>
      <trkpt lat="48.9826" lon="0.02539">
        <ele>77</ele>
        <time>2021-08-08T16:13:39Z</time>
      </trkpt>
      <trkpt lat="48.98261" lon="0.02537">
        <ele>77</ele>
        <time>2021-08-08T16:13:40Z</time>
      </trkpt>
      <trkpt lat="48.98262" lon="0.02535">
        <ele>77</ele>
        <time>2021-08-08T16:13:41Z</time>
      </trkpt>
      <trkpt lat="48.98262" lon="0.02531">
        <ele>77</ele>
        <time>2021-08-08T16:13:42Z</time>
      </trkpt>
      <trkpt lat="48.98263" lon="0.02528">
        <ele>77</ele>
        <time>2021-08-08T16:13:43Z</time>
      </trkpt>
      <trkpt lat="48.98266" lon="0.02524">
        <ele>77.1</ele>
        <time>2021-08-08T16:13:44Z</time>
      </trkpt>
      <trkpt lat="48.98268" lon="0.02519">
        <ele>77.26</ele>
        <time>2021-08-08T16:13:45Z</time>
      </trkpt>
      <trkpt lat="48.9827" lon="0.02514">
        <ele>77.43</ele>
        <time>2021-08-08T16:13:46Z</time>
      </trkpt>
      <trkpt lat="48.98272" lon="0.02509">
        <ele>77.6</ele>
        <time>2021-08-08T16:13:47Z</time>
      </trkpt>
      <trkpt lat="48.98275" lon="0.02506">
        <ele>77.74</ele>
        <time>2021-08-08T16:13:48Z</time>
      </trkpt>
      <trkpt lat="48.98277" lon="0.02501">
        <ele>77.9</ele>
        <time>2021-08-08T16:13:49Z</time>
      </trkpt>
      <trkpt lat="48.98278" lon="0.02496">
        <ele>77.96</ele>
        <time>2021-08-08T16:13:50Z</time>
      </trkpt>
      <trkpt lat="48.9828" lon="0.02492">
        <ele>77.95</ele>
        <time>2021-08-08T16:13:51Z</time>
      </trkpt>
      <trkpt lat="48.98281" lon="0.02488">
        <ele>77.94</ele>
        <time>2021-08-08T16:13:52Z</time>
      </trkpt>
      <trkpt lat="48.98283" lon="0.02484">
        <ele>77.93</ele>
        <time>2021-08-08T16:13:53Z</time>
      </trkpt>
      <trkpt lat="48.98284" lon="0.0248">
        <ele>77.93</ele>
        <time>2021-08-08T16:13:54Z</time>
      </trkpt>
      <trkpt lat="48.98286" lon="0.02476">
        <ele>77.95</ele>
        <time>2021-08-08T16:13:55Z</time>
      </trkpt>
      <trkpt lat="48.98288" lon="0.02472">
        <ele>77.99</ele>
        <time>2021-08-08T16:13:56Z</time>
      </trkpt>
      <trkpt lat="48.98289" lon="0.02467">
        <ele>78.07</ele>
        <time>2021-08-08T16:13:57Z</time>
      </trkpt>
      <trkpt lat="48.98291" lon="0.02463">
        <ele>78.15</ele>
        <time>2021-08-08T16:13:58Z</time>
      </trkpt>
      <trkpt lat="48.98292" lon="0.02459">
        <ele>78.2</ele>
        <time>2021-08-08T16:13:59Z</time>
      </trkpt>
      <trkpt lat="48.98295" lon="0.02455">
        <ele>78.23</ele>
        <time>2021-08-08T16:14:00Z</time>
      </trkpt>
      <trkpt lat="48.98296" lon="0.0245">
        <ele>78.26</ele>
        <time>2021-08-08T16:14:01Z</time>
      </trkpt>
      <trkpt lat="48.98298" lon="0.02444">
        <ele>78.27</ele>
        <time>2021-08-08T16:14:02Z</time>
      </trkpt>
      <trkpt lat="48.98299" lon="0.02439">
        <ele>78.34</ele>
        <time>2021-08-08T16:14:03Z</time>
      </trkpt>
      <trkpt lat="48.98301" lon="0.02434">
        <ele>78.44</ele>
        <time>2021-08-08T16:14:04Z</time>
      </trkpt>
      <trkpt lat="48.98302" lon="0.02429">
        <ele>78.56</ele>
        <time>2021-08-08T16:14:05Z</time>
      </trkpt>
      <trkpt lat="48.98304" lon="0.02425">
        <ele>78.67</ele>
        <time>2021-08-08T16:14:06Z</time>
      </trkpt>
      <trkpt lat="48.98305" lon="0.02421">
        <ele>78.8</ele>
        <time>2021-08-08T16:14:07Z</time>
      </trkpt>
      <trkpt lat="48.98306" lon="0.02416">
        <ele>78.93</ele>
        <time>2021-08-08T16:14:08Z</time>
      </trkpt>
      <trkpt lat="48.98307" lon="0.02411">
        <ele>78.95</ele>
        <time>2021-08-08T16:14:09Z</time>
      </trkpt>
      <trkpt lat="48.98308" lon="0.02407">
        <ele>78.93</ele>
        <time>2021-08-08T16:14:10Z</time>
      </trkpt>
      <trkpt lat="48.98309" lon="0.02402">
        <ele>78.9</ele>
        <time>2021-08-08T16:14:11Z</time>
      </trkpt>
      <trkpt lat="48.98309" lon="0.02398">
        <ele>78.87</ele>
        <time>2021-08-08T16:14:12Z</time>
      </trkpt>
      <trkpt lat="48.9831" lon="0.02394">
        <ele>78.85</ele>
        <time>2021-08-08T16:14:13Z</time>
      </trkpt>
      <trkpt lat="48.98311" lon="0.0239">
        <ele>78.83</ele>
        <time>2021-08-08T16:14:14Z</time>
      </trkpt>
      <trkpt lat="48.98311" lon="0.02387">
        <ele>78.81</ele>
        <time>2021-08-08T16:14:15Z</time>
      </trkpt>
      <trkpt lat="48.98311" lon="0.02383">
        <ele>78.8</ele>
        <time>2021-08-08T16:14:16Z</time>
      </trkpt>
      <trkpt lat="48.98312" lon="0.02379">
        <ele>78.78</ele>
        <time>2021-08-08T16:14:17Z</time>
      </trkpt>
      <trkpt lat="48.98313" lon="0.02376">
        <ele>78.75</ele>
        <time>2021-08-08T16:14:18Z</time>
      </trkpt>
      <trkpt lat="48.98314" lon="0.02372">
        <ele>78.72</ele>
        <time>2021-08-08T16:14:19Z</time>
      </trkpt>
      <trkpt lat="48.98314" lon="0.02369">
        <ele>78.7</ele>
        <time>2021-08-08T16:14:20Z</time>
      </trkpt>
      <trkpt lat="48.98315" lon="0.02365">
        <ele>78.68</ele>
        <time>2021-08-08T16:14:21Z</time>
      </trkpt>
      <trkpt lat="48.98315" lon="0.02362">
        <ele>78.67</ele>
        <time>2021-08-08T16:14:22Z</time>
      </trkpt>
      <trkpt lat="48.98315" lon="0.02358">
        <ele>78.73</ele>
        <time>2021-08-08T16:14:23Z</time>
      </trkpt>
      <trkpt lat="48.98315" lon="0.02355">
        <ele>78.81</ele>
        <time>2021-08-08T16:14:24Z</time>
      </trkpt>
      <trkpt lat="48.98315" lon="0.02353">
        <ele>78.91</ele>
        <time>2021-08-08T16:14:25Z</time>
      </trkpt>
      <trkpt lat="48.98316" lon="0.0235">
        <ele>78.99</ele>
        <time>2021-08-08T16:14:26Z</time>
      </trkpt>
      <trkpt lat="48.98317" lon="0.02347">
        <ele>79.07</ele>
        <time>2021-08-08T16:14:27Z</time>
      </trkpt>
      <trkpt lat="48.98318" lon="0.02343">
        <ele>79.16</ele>
        <time>2021-08-08T16:14:28Z</time>
      </trkpt>
      <trkpt lat="48.98318" lon="0.0234">
        <ele>79.26</ele>
        <time>2021-08-08T16:14:29Z</time>
      </trkpt>
      <trkpt lat="48.98319" lon="0.02336">
        <ele>79.38</ele>
        <time>2021-08-08T16:14:30Z</time>
      </trkpt>
      <trkpt lat="48.9832" lon="0.02332">
        <ele>79.45</ele>
        <time>2021-08-08T16:14:31Z</time>
      </trkpt>
      <trkpt lat="48.9832" lon="0.02327">
        <ele>79.46</ele>
        <time>2021-08-08T16:14:32Z</time>
      </trkpt>
      <trkpt lat="48.98321" lon="0.02323">
        <ele>79.46</ele>
        <time>2021-08-08T16:14:33Z</time>
      </trkpt>
      <trkpt lat="48.98321" lon="0.02319">
        <ele>79.44</ele>
        <time>2021-08-08T16:14:34Z</time>
      </trkpt>
      <trkpt lat="48.98322" lon="0.02316">
        <ele>79.41</ele>
        <time>2021-08-08T16:14:35Z</time>
      </trkpt>
      <trkpt lat="48.98323" lon="0.02313">
        <ele>79.39</ele>
        <time>2021-08-08T16:14:36Z</time>
      </trkpt>
      <trkpt lat="48.98324" lon="0.02309">
        <ele>79.37</ele>
        <time>2021-08-08T16:14:37Z</time>
      </trkpt>
      <trkpt lat="48.98324" lon="0.02305">
        <ele>79.36</ele>
        <time>2021-08-08T16:14:38Z</time>
      </trkpt>
      <trkpt lat="48.98325" lon="0.02301">
        <ele>79.45</ele>
        <time>2021-08-08T16:14:39Z</time>
      </trkpt>
      <trkpt lat="48.98325" lon="0.02297">
        <ele>79.57</ele>
        <time>2021-08-08T16:14:40Z</time>
      </trkpt>
      <trkpt lat="48.98324" lon="0.02293">
        <ele>79.71</ele>
        <time>2021-08-08T16:14:41Z</time>
      </trkpt>
      <trkpt lat="48.98324" lon="0.0229">
        <ele>79.85</ele>
        <time>2021-08-08T16:14:42Z</time>
      </trkpt>
      <trkpt lat="48.98324" lon="0.02285">
        <ele>80.01</ele>
        <time>2021-08-08T16:14:43Z</time>
      </trkpt>
      <trkpt lat="48.98323" lon="0.02281">
        <ele>80.17</ele>
        <time>2021-08-08T16:14:44Z</time>
      </trkpt>
      <trkpt lat="48.98323" lon="0.02277">
        <ele>80.32</ele>
        <time>2021-08-08T16:14:45Z</time>
      </trkpt>
      <trkpt lat="48.98323" lon="0.02273">
        <ele>80.43</ele>
        <time>2021-08-08T16:14:46Z</time>
      </trkpt>
      <trkpt lat="48.98323" lon="0.02269">
        <ele>80.53</ele>
        <time>2021-08-08T16:14:47Z</time>
      </trkpt>
      <trkpt lat="48.98322" lon="0.02264">
        <ele>80.64</ele>
        <time>2021-08-08T16:14:48Z</time>
      </trkpt>
      <trkpt lat="48.98322" lon="0.0226">
        <ele>80.75</ele>
        <time>2021-08-08T16:14:49Z</time>
      </trkpt>
      <trkpt lat="48.98321" lon="0.02256">
        <ele>80.85</ele>
        <time>2021-08-08T16:14:50Z</time>
      </trkpt>
      <trkpt lat="48.9832" lon="0.02251">
        <ele>80.94</ele>
        <time>2021-08-08T16:14:51Z</time>
      </trkpt>
      <trkpt lat="48.98319" lon="0.02247">
        <ele>81.06</ele>
        <time>2021-08-08T16:14:52Z</time>
      </trkpt>
      <trkpt lat="48.98318" lon="0.02243">
        <ele>81.2</ele>
        <time>2021-08-08T16:14:53Z</time>
      </trkpt>
      <trkpt lat="48.98318" lon="0.02239">
        <ele>81.33</ele>
        <time>2021-08-08T16:14:54Z</time>
      </trkpt>
      <trkpt lat="48.98318" lon="0.02236">
        <ele>81.47</ele>
        <time>2021-08-08T16:14:55Z</time>
      </trkpt>
      <trkpt lat="48.98316" lon="0.02232">
        <ele>81.58</ele>
        <time>2021-08-08T16:14:56Z</time>
      </trkpt>
      <trkpt lat="48.98315" lon="0.02229">
        <ele>81.71</ele>
        <time>2021-08-08T16:14:57Z</time>
      </trkpt>
      <trkpt lat="48.98314" lon="0.02225">
        <ele>81.85</ele>
        <time>2021-08-08T16:14:58Z</time>
      </trkpt>
      <trkpt lat="48.98314" lon="0.02219">
        <ele>81.95</ele>
        <time>2021-08-08T16:14:59Z</time>
      </trkpt>
      <trkpt lat="48.98314" lon="0.02214">
        <ele>81.99</ele>
        <time>2021-08-08T16:15:00Z</time>
      </trkpt>
      <trkpt lat="48.98313" lon="0.0221">
        <ele>82</ele>
        <time>2021-08-08T16:15:01Z</time>
      </trkpt>
      <trkpt lat="48.98313" lon="0.02205">
        <ele>82</ele>
        <time>2021-08-08T16:15:02Z</time>
      </trkpt>
      <trkpt lat="48.98314" lon="0.02201">
        <ele>82</ele>
        <time>2021-08-08T16:15:03Z</time>
      </trkpt>
      <trkpt lat="48.98314" lon="0.02197">
        <ele>82</ele>
        <time>2021-08-08T16:15:04Z</time>
      </trkpt>
      <trkpt lat="48.98314" lon="0.02193">
        <ele>82.04</ele>
        <time>2021-08-08T16:15:05Z</time>
      </trkpt>
      <trkpt lat="48.98313" lon="0.0219">
        <ele>82.12</ele>
        <time>2021-08-08T16:15:06Z</time>
      </trkpt>
      <trkpt lat="48.98312" lon="0.02187">
        <ele>82.24</ele>
        <time>2021-08-08T16:15:07Z</time>
      </trkpt>
      <trkpt lat="48.98312" lon="0.02183">
        <ele>82.36</ele>
        <time>2021-08-08T16:15:08Z</time>
      </trkpt>
      <trkpt lat="48.98311" lon="0.02179">
        <ele>82.49</ele>
        <time>2021-08-08T16:15:09Z</time>
      </trkpt>
      <trkpt lat="48.98312" lon="0.02176">
        <ele>82.6</ele>
        <time>2021-08-08T16:15:10Z</time>
      </trkpt>
      <trkpt lat="48.98312" lon="0.02174">
        <ele>82.7</ele>
        <time>2021-08-08T16:15:11Z</time>
      </trkpt>
      <trkpt lat="48.98312" lon="0.02171">
        <ele>82.8</ele>
        <time>2021-08-08T16:15:12Z</time>
      </trkpt>
      <trkpt lat="48.98312" lon="0.02168">
        <ele>82.89</ele>
        <time>2021-08-08T16:15:13Z</time>
      </trkpt>
      <trkpt lat="48.98311" lon="0.02165">
        <ele>83</ele>
        <time>2021-08-08T16:15:14Z</time>
      </trkpt>
      <trkpt lat="48.9831" lon="0.02162">
        <ele>83.11</ele>
        <time>2021-08-08T16:15:15Z</time>
      </trkpt>
      <trkpt lat="48.98309" lon="0.02158">
        <ele>83.26</ele>
        <time>2021-08-08T16:15:16Z</time>
      </trkpt>
      <trkpt lat="48.98308" lon="0.02153">
        <ele>83.41</ele>
        <time>2021-08-08T16:15:17Z</time>
      </trkpt>
      <trkpt lat="48.98307" lon="0.02149">
        <ele>83.58</ele>
        <time>2021-08-08T16:15:18Z</time>
      </trkpt>
      <trkpt lat="48.98306" lon="0.02144">
        <ele>83.75</ele>
        <time>2021-08-08T16:15:19Z</time>
      </trkpt>
      <trkpt lat="48.98305" lon="0.02139">
        <ele>83.91</ele>
        <time>2021-08-08T16:15:20Z</time>
      </trkpt>
      <trkpt lat="48.98305" lon="0.02135">
        <ele>83.95</ele>
        <time>2021-08-08T16:15:21Z</time>
      </trkpt>
      <trkpt lat="48.98305" lon="0.02131">
        <ele>83.97</ele>
        <time>2021-08-08T16:15:22Z</time>
      </trkpt>
      <trkpt lat="48.98305" lon="0.02127">
        <ele>83.97</ele>
        <time>2021-08-08T16:15:23Z</time>
      </trkpt>
      <trkpt lat="48.98305" lon="0.02122">
        <ele>83.96</ele>
        <time>2021-08-08T16:15:24Z</time>
      </trkpt>
      <trkpt lat="48.98305" lon="0.02118">
        <ele>83.96</ele>
        <time>2021-08-08T16:15:25Z</time>
      </trkpt>
      <trkpt lat="48.98304" lon="0.02112">
        <ele>83.96</ele>
        <time>2021-08-08T16:15:26Z</time>
      </trkpt>
      <trkpt lat="48.98305" lon="0.02106">
        <ele>83.96</ele>
        <time>2021-08-08T16:15:27Z</time>
      </trkpt>
      <trkpt lat="48.98304" lon="0.021">
        <ele>83.96</ele>
        <time>2021-08-08T16:15:28Z</time>
      </trkpt>
      <trkpt lat="48.98305" lon="0.02095">
        <ele>83.96</ele>
        <time>2021-08-08T16:15:29Z</time>
      </trkpt>
      <trkpt lat="48.98305" lon="0.02089">
        <ele>83.96</ele>
        <time>2021-08-08T16:15:30Z</time>
      </trkpt>
      <trkpt lat="48.98305" lon="0.02083">
        <ele>83.99</ele>
        <time>2021-08-08T16:15:31Z</time>
      </trkpt>
      <trkpt lat="48.98305" lon="0.02076">
        <ele>84.17</ele>
        <time>2021-08-08T16:15:32Z</time>
      </trkpt>
      <trkpt lat="48.98306" lon="0.0207">
        <ele>84.41</ele>
        <time>2021-08-08T16:15:33Z</time>
      </trkpt>
      <trkpt lat="48.98307" lon="0.02063">
        <ele>84.68</ele>
        <time>2021-08-08T16:15:34Z</time>
      </trkpt>
      <trkpt lat="48.98308" lon="0.02056">
        <ele>84.95</ele>
        <time>2021-08-08T16:15:35Z</time>
      </trkpt>
      <trkpt lat="48.98309" lon="0.02049">
        <ele>85.08</ele>
        <time>2021-08-08T16:15:36Z</time>
      </trkpt>
      <trkpt lat="48.98311" lon="0.02043">
        <ele>85.15</ele>
        <time>2021-08-08T16:15:37Z</time>
      </trkpt>
      <trkpt lat="48.98312" lon="0.02036">
        <ele>85.2</ele>
        <time>2021-08-08T16:15:38Z</time>
      </trkpt>
      <trkpt lat="48.98313" lon="0.02029">
        <ele>85.25</ele>
        <time>2021-08-08T16:15:39Z</time>
      </trkpt>
      <trkpt lat="48.98314" lon="0.02022">
        <ele>85.3</ele>
        <time>2021-08-08T16:15:40Z</time>
      </trkpt>
      <trkpt lat="48.98316" lon="0.02016">
        <ele>85.35</ele>
        <time>2021-08-08T16:15:41Z</time>
      </trkpt>
      <trkpt lat="48.98318" lon="0.02009">
        <ele>85.41</ele>
        <time>2021-08-08T16:15:42Z</time>
      </trkpt>
      <trkpt lat="48.9832" lon="0.02001">
        <ele>85.48</ele>
        <time>2021-08-08T16:15:43Z</time>
      </trkpt>
      <trkpt lat="48.98321" lon="0.01995">
        <ele>85.53</ele>
        <time>2021-08-08T16:15:44Z</time>
      </trkpt>
      <trkpt lat="48.98322" lon="0.01988">
        <ele>85.58</ele>
        <time>2021-08-08T16:15:45Z</time>
      </trkpt>
      <trkpt lat="48.98323" lon="0.0198">
        <ele>85.62</ele>
        <time>2021-08-08T16:15:46Z</time>
      </trkpt>
      <trkpt lat="48.98325" lon="0.01973">
        <ele>85.68</ele>
        <time>2021-08-08T16:15:47Z</time>
      </trkpt>
      <trkpt lat="48.98327" lon="0.01966">
        <ele>85.74</ele>
        <time>2021-08-08T16:15:48Z</time>
      </trkpt>
      <trkpt lat="48.9833" lon="0.01959">
        <ele>85.83</ele>
        <time>2021-08-08T16:15:49Z</time>
      </trkpt>
      <trkpt lat="48.98332" lon="0.01952">
        <ele>85.92</ele>
        <time>2021-08-08T16:15:50Z</time>
      </trkpt>
      <trkpt lat="48.98334" lon="0.01945">
        <ele>86.04</ele>
        <time>2021-08-08T16:15:51Z</time>
      </trkpt>
      <trkpt lat="48.98336" lon="0.01938">
        <ele>86.31</ele>
        <time>2021-08-08T16:15:52Z</time>
      </trkpt>
      <trkpt lat="48.98339" lon="0.0193">
        <ele>86.63</ele>
        <time>2021-08-08T16:15:53Z</time>
      </trkpt>
      <trkpt lat="48.98341" lon="0.01923">
        <ele>86.95</ele>
        <time>2021-08-08T16:15:54Z</time>
      </trkpt>
      <trkpt lat="48.98342" lon="0.01916">
        <ele>87.2</ele>
        <time>2021-08-08T16:15:55Z</time>
      </trkpt>
      <trkpt lat="48.98344" lon="0.01909">
        <ele>87.39</ele>
        <time>2021-08-08T16:15:56Z</time>
      </trkpt>
      <trkpt lat="48.98346" lon="0.01901">
        <ele>87.51</ele>
        <time>2021-08-08T16:15:57Z</time>
      </trkpt>
      <trkpt lat="48.98348" lon="0.01894">
        <ele>87.59</ele>
        <time>2021-08-08T16:15:58Z</time>
      </trkpt>
      <trkpt lat="48.98349" lon="0.01886">
        <ele>87.57</ele>
        <time>2021-08-08T16:15:59Z</time>
      </trkpt>
      <trkpt lat="48.9835" lon="0.01878">
        <ele>87.43</ele>
        <time>2021-08-08T16:16:00Z</time>
      </trkpt>
      <trkpt lat="48.9835" lon="0.0187">
        <ele>87.21</ele>
        <time>2021-08-08T16:16:01Z</time>
      </trkpt>
      <trkpt lat="48.9835" lon="0.01862">
        <ele>86.94</ele>
        <time>2021-08-08T16:16:02Z</time>
      </trkpt>
      <trkpt lat="48.98351" lon="0.01852">
        <ele>86.75</ele>
        <time>2021-08-08T16:16:03Z</time>
      </trkpt>
      <trkpt lat="48.98352" lon="0.01842">
        <ele>86.63</ele>
        <time>2021-08-08T16:16:04Z</time>
      </trkpt>
      <trkpt lat="48.98353" lon="0.01833">
        <ele>86.47</ele>
        <time>2021-08-08T16:16:05Z</time>
      </trkpt>
      <trkpt lat="48.98354" lon="0.01825">
        <ele>86.24</ele>
        <time>2021-08-08T16:16:06Z</time>
      </trkpt>
      <trkpt lat="48.98355" lon="0.01816">
        <ele>86.01</ele>
        <time>2021-08-08T16:16:07Z</time>
      </trkpt>
      <trkpt lat="48.98356" lon="0.01807">
        <ele>85.79</ele>
        <time>2021-08-08T16:16:08Z</time>
      </trkpt>
      <trkpt lat="48.98358" lon="0.01798">
        <ele>85.61</ele>
        <time>2021-08-08T16:16:09Z</time>
      </trkpt>
      <trkpt lat="48.98362" lon="0.0179">
        <ele>85.53</ele>
        <time>2021-08-08T16:16:10Z</time>
      </trkpt>
      <trkpt lat="48.98366" lon="0.01782">
        <ele>85.54</ele>
        <time>2021-08-08T16:16:11Z</time>
      </trkpt>
      <trkpt lat="48.98371" lon="0.01776">
        <ele>85.6</ele>
        <time>2021-08-08T16:16:12Z</time>
      </trkpt>
      <trkpt lat="48.98377" lon="0.0177">
        <ele>85.65</ele>
        <time>2021-08-08T16:16:13Z</time>
      </trkpt>
      <trkpt lat="48.98382" lon="0.01763">
        <ele>85.6</ele>
        <time>2021-08-08T16:16:14Z</time>
      </trkpt>
      <trkpt lat="48.98387" lon="0.01757">
        <ele>85.45</ele>
        <time>2021-08-08T16:16:15Z</time>
      </trkpt>
      <trkpt lat="48.98392" lon="0.0175">
        <ele>85.39</ele>
        <time>2021-08-08T16:16:16Z</time>
      </trkpt>
      <trkpt lat="48.98397" lon="0.01744">
        <ele>85.55</ele>
        <time>2021-08-08T16:16:17Z</time>
      </trkpt>
      <trkpt lat="48.98402" lon="0.01738">
        <ele>85.73</ele>
        <time>2021-08-08T16:16:18Z</time>
      </trkpt>
      <trkpt lat="48.98407" lon="0.01732">
        <ele>85.86</ele>
        <time>2021-08-08T16:16:19Z</time>
      </trkpt>
      <trkpt lat="48.98413" lon="0.01726">
        <ele>85.91</ele>
        <time>2021-08-08T16:16:20Z</time>
      </trkpt>
      <trkpt lat="48.98417" lon="0.01719">
        <ele>85.96</ele>
        <time>2021-08-08T16:16:21Z</time>
      </trkpt>
      <trkpt lat="48.98423" lon="0.01714">
        <ele>86.17</ele>
        <time>2021-08-08T16:16:22Z</time>
      </trkpt>
      <trkpt lat="48.98428" lon="0.01707">
        <ele>86.35</ele>
        <time>2021-08-08T16:16:23Z</time>
      </trkpt>
      <trkpt lat="48.98433" lon="0.017">
        <ele>86.43</ele>
        <time>2021-08-08T16:16:24Z</time>
      </trkpt>
      <trkpt lat="48.98438" lon="0.01693">
        <ele>86.42</ele>
        <time>2021-08-08T16:16:25Z</time>
      </trkpt>
      <trkpt lat="48.98443" lon="0.01686">
        <ele>86.33</ele>
        <time>2021-08-08T16:16:26Z</time>
      </trkpt>
      <trkpt lat="48.98448" lon="0.01679">
        <ele>86.25</ele>
        <time>2021-08-08T16:16:27Z</time>
      </trkpt>
      <trkpt lat="48.98453" lon="0.01672">
        <ele>86.13</ele>
        <time>2021-08-08T16:16:28Z</time>
      </trkpt>
      <trkpt lat="48.98458" lon="0.01666">
        <ele>85.97</ele>
        <time>2021-08-08T16:16:29Z</time>
      </trkpt>
      <trkpt lat="48.98463" lon="0.01658">
        <ele>85.78</ele>
        <time>2021-08-08T16:16:30Z</time>
      </trkpt>
      <trkpt lat="48.98467" lon="0.0165">
        <ele>85.56</ele>
        <time>2021-08-08T16:16:31Z</time>
      </trkpt>
      <trkpt lat="48.98472" lon="0.01642">
        <ele>85.34</ele>
        <time>2021-08-08T16:16:32Z</time>
      </trkpt>
      <trkpt lat="48.98477" lon="0.01634">
        <ele>84.84</ele>
        <time>2021-08-08T16:16:33Z</time>
      </trkpt>
      <trkpt lat="48.98482" lon="0.01626">
        <ele>84.24</ele>
        <time>2021-08-08T16:16:34Z</time>
      </trkpt>
      <trkpt lat="48.98487" lon="0.01618">
        <ele>83.57</ele>
        <time>2021-08-08T16:16:35Z</time>
      </trkpt>
      <trkpt lat="48.98492" lon="0.0161">
        <ele>82.94</ele>
        <time>2021-08-08T16:16:36Z</time>
      </trkpt>
      <trkpt lat="48.98497" lon="0.01602">
        <ele>82.68</ele>
        <time>2021-08-08T16:16:37Z</time>
      </trkpt>
      <trkpt lat="48.98502" lon="0.01594">
        <ele>82.5</ele>
        <time>2021-08-08T16:16:38Z</time>
      </trkpt>
      <trkpt lat="48.98508" lon="0.01587">
        <ele>82.25</ele>
        <time>2021-08-08T16:16:39Z</time>
      </trkpt>
      <trkpt lat="48.98514" lon="0.01578">
        <ele>81.95</ele>
        <time>2021-08-08T16:16:40Z</time>
      </trkpt>
      <trkpt lat="48.9852" lon="0.0157">
        <ele>81.64</ele>
        <time>2021-08-08T16:16:41Z</time>
      </trkpt>
      <trkpt lat="48.98526" lon="0.01561">
        <ele>81.33</ele>
        <time>2021-08-08T16:16:42Z</time>
      </trkpt>
      <trkpt lat="48.98532" lon="0.01553">
        <ele>81.03</ele>
        <time>2021-08-08T16:16:43Z</time>
      </trkpt>
      <trkpt lat="48.98538" lon="0.01545">
        <ele>80.74</ele>
        <time>2021-08-08T16:16:44Z</time>
      </trkpt>
      <trkpt lat="48.98545" lon="0.01536">
        <ele>80.43</ele>
        <time>2021-08-08T16:16:45Z</time>
      </trkpt>
      <trkpt lat="48.98551" lon="0.01527">
        <ele>80.09</ele>
        <time>2021-08-08T16:16:46Z</time>
      </trkpt>
      <trkpt lat="48.98557" lon="0.01518">
        <ele>79.53</ele>
        <time>2021-08-08T16:16:47Z</time>
      </trkpt>
      <trkpt lat="48.98564" lon="0.01508">
        <ele>78.89</ele>
        <time>2021-08-08T16:16:48Z</time>
      </trkpt>
      <trkpt lat="48.9857" lon="0.01499">
        <ele>78.23</ele>
        <time>2021-08-08T16:16:49Z</time>
      </trkpt>
      <trkpt lat="48.98576" lon="0.01489">
        <ele>77.79</ele>
        <time>2021-08-08T16:16:50Z</time>
      </trkpt>
      <trkpt lat="48.98582" lon="0.0148">
        <ele>77.44</ele>
        <time>2021-08-08T16:16:51Z</time>
      </trkpt>
      <trkpt lat="48.98588" lon="0.01472">
        <ele>77.12</ele>
        <time>2021-08-08T16:16:52Z</time>
      </trkpt>
      <trkpt lat="48.98594" lon="0.01463">
        <ele>76.8</ele>
        <time>2021-08-08T16:16:53Z</time>
      </trkpt>
      <trkpt lat="48.986" lon="0.01455">
        <ele>76.5</ele>
        <time>2021-08-08T16:16:54Z</time>
      </trkpt>
      <trkpt lat="48.98606" lon="0.01446">
        <ele>76.2</ele>
        <time>2021-08-08T16:16:55Z</time>
      </trkpt>
      <trkpt lat="48.98612" lon="0.01438">
        <ele>75.9</ele>
        <time>2021-08-08T16:16:56Z</time>
      </trkpt>
      <trkpt lat="48.98618" lon="0.0143">
        <ele>75.6</ele>
        <time>2021-08-08T16:16:57Z</time>
      </trkpt>
      <trkpt lat="48.98624" lon="0.01421">
        <ele>75.3</ele>
        <time>2021-08-08T16:16:58Z</time>
      </trkpt>
      <trkpt lat="48.9863" lon="0.01413">
        <ele>74.99</ele>
        <time>2021-08-08T16:16:59Z</time>
      </trkpt>
      <trkpt lat="48.98637" lon="0.01404">
        <ele>74.68</ele>
        <time>2021-08-08T16:17:00Z</time>
      </trkpt>
      <trkpt lat="48.98643" lon="0.01396">
        <ele>74.38</ele>
        <time>2021-08-08T16:17:01Z</time>
      </trkpt>
      <trkpt lat="48.9865" lon="0.01387">
        <ele>74.03</ele>
        <time>2021-08-08T16:17:02Z</time>
      </trkpt>
      <trkpt lat="48.98656" lon="0.0138">
        <ele>73.53</ele>
        <time>2021-08-08T16:17:03Z</time>
      </trkpt>
      <trkpt lat="48.98664" lon="0.01372">
        <ele>73</ele>
        <time>2021-08-08T16:17:04Z</time>
      </trkpt>
      <trkpt lat="48.98671" lon="0.01365">
        <ele>72.39</ele>
        <time>2021-08-08T16:17:05Z</time>
      </trkpt>
      <trkpt lat="48.98679" lon="0.01359">
        <ele>71.75</ele>
        <time>2021-08-08T16:17:06Z</time>
      </trkpt>
      <trkpt lat="48.98686" lon="0.01354">
        <ele>71.21</ele>
        <time>2021-08-08T16:17:07Z</time>
      </trkpt>
      <trkpt lat="48.98694" lon="0.01348">
        <ele>70.74</ele>
        <time>2021-08-08T16:17:08Z</time>
      </trkpt>
      <trkpt lat="48.98702" lon="0.01342">
        <ele>70.33</ele>
        <time>2021-08-08T16:17:09Z</time>
      </trkpt>
      <trkpt lat="48.98709" lon="0.01337">
        <ele>69.85</ele>
        <time>2021-08-08T16:17:10Z</time>
      </trkpt>
      <trkpt lat="48.98717" lon="0.01331">
        <ele>69.31</ele>
        <time>2021-08-08T16:17:11Z</time>
      </trkpt>
      <trkpt lat="48.98725" lon="0.01324">
        <ele>68.81</ele>
        <time>2021-08-08T16:17:12Z</time>
      </trkpt>
      <trkpt lat="48.98732" lon="0.01319">
        <ele>68.33</ele>
        <time>2021-08-08T16:17:13Z</time>
      </trkpt>
      <trkpt lat="48.98739" lon="0.01312">
        <ele>67.86</ele>
        <time>2021-08-08T16:17:14Z</time>
      </trkpt>
      <trkpt lat="48.98746" lon="0.01306">
        <ele>67.36</ele>
        <time>2021-08-08T16:17:15Z</time>
      </trkpt>
      <trkpt lat="48.98753" lon="0.01299">
        <ele>66.88</ele>
        <time>2021-08-08T16:17:16Z</time>
      </trkpt>
      <trkpt lat="48.98761" lon="0.01294">
        <ele>66.39</ele>
        <time>2021-08-08T16:17:17Z</time>
      </trkpt>
      <trkpt lat="48.98769" lon="0.01288">
        <ele>65.9</ele>
        <time>2021-08-08T16:17:18Z</time>
      </trkpt>
      <trkpt lat="48.98778" lon="0.01282">
        <ele>65.38</ele>
        <time>2021-08-08T16:17:19Z</time>
      </trkpt>
      <trkpt lat="48.98785" lon="0.01275">
        <ele>64.86</ele>
        <time>2021-08-08T16:17:20Z</time>
      </trkpt>
      <trkpt lat="48.98792" lon="0.0127">
        <ele>64.4</ele>
        <time>2021-08-08T16:17:21Z</time>
      </trkpt>
      <trkpt lat="48.98798" lon="0.01266">
        <ele>64.02</ele>
        <time>2021-08-08T16:17:22Z</time>
      </trkpt>
      <trkpt lat="48.98803" lon="0.01262">
        <ele>63.68</ele>
        <time>2021-08-08T16:17:23Z</time>
      </trkpt>
      <trkpt lat="48.98806" lon="0.01255">
        <ele>63.32</ele>
        <time>2021-08-08T16:17:24Z</time>
      </trkpt>
      <trkpt lat="48.98808" lon="0.01246">
        <ele>62.93</ele>
        <time>2021-08-08T16:17:25Z</time>
      </trkpt>
      <trkpt lat="48.98809" lon="0.01236">
        <ele>62.55</ele>
        <time>2021-08-08T16:17:26Z</time>
      </trkpt>
      <trkpt lat="48.98809" lon="0.01226">
        <ele>62.17</ele>
        <time>2021-08-08T16:17:27Z</time>
      </trkpt>
      <trkpt lat="48.9881" lon="0.01216">
        <ele>61.79</ele>
        <time>2021-08-08T16:17:28Z</time>
      </trkpt>
      <trkpt lat="48.9881" lon="0.01204">
        <ele>61.39</ele>
        <time>2021-08-08T16:17:29Z</time>
      </trkpt>
      <trkpt lat="48.9881" lon="0.01193">
        <ele>60.97</ele>
        <time>2021-08-08T16:17:30Z</time>
      </trkpt>
      <trkpt lat="48.98809" lon="0.01181">
        <ele>60.55</ele>
        <time>2021-08-08T16:17:31Z</time>
      </trkpt>
      <trkpt lat="48.98809" lon="0.01168">
        <ele>60.12</ele>
        <time>2021-08-08T16:17:32Z</time>
      </trkpt>
      <trkpt lat="48.98808" lon="0.01156">
        <ele>59.73</ele>
        <time>2021-08-08T16:17:33Z</time>
      </trkpt>
      <trkpt lat="48.98807" lon="0.01144">
        <ele>59.35</ele>
        <time>2021-08-08T16:17:34Z</time>
      </trkpt>
      <trkpt lat="48.98807" lon="0.01133">
        <ele>58.96</ele>
        <time>2021-08-08T16:17:35Z</time>
      </trkpt>
      <trkpt lat="48.98807" lon="0.01122">
        <ele>58.56</ele>
        <time>2021-08-08T16:17:36Z</time>
      </trkpt>
      <trkpt lat="48.98807" lon="0.0111">
        <ele>58.17</ele>
        <time>2021-08-08T16:17:37Z</time>
      </trkpt>
      <trkpt lat="48.98807" lon="0.01098">
        <ele>58.04</ele>
        <time>2021-08-08T16:17:38Z</time>
      </trkpt>
      <trkpt lat="48.98806" lon="0.01087">
        <ele>58.01</ele>
        <time>2021-08-08T16:17:39Z</time>
      </trkpt>
      <trkpt lat="48.98805" lon="0.01075">
        <ele>57.8</ele>
        <time>2021-08-08T16:17:40Z</time>
      </trkpt>
      <trkpt lat="48.98805" lon="0.01064">
        <ele>57.47</ele>
        <time>2021-08-08T16:17:41Z</time>
      </trkpt>
      <trkpt lat="48.98805" lon="0.01052">
        <ele>57.16</ele>
        <time>2021-08-08T16:17:42Z</time>
      </trkpt>
      <trkpt lat="48.98805" lon="0.01041">
        <ele>57.06</ele>
        <time>2021-08-08T16:17:43Z</time>
      </trkpt>
      <trkpt lat="48.98804" lon="0.01029">
        <ele>57.02</ele>
        <time>2021-08-08T16:17:44Z</time>
      </trkpt>
      <trkpt lat="48.98804" lon="0.01018">
        <ele>56.77</ele>
        <time>2021-08-08T16:17:45Z</time>
      </trkpt>
      <trkpt lat="48.98804" lon="0.01006">
        <ele>56.43</ele>
        <time>2021-08-08T16:17:46Z</time>
      </trkpt>
      <trkpt lat="48.98804" lon="0.00995">
        <ele>56.16</ele>
        <time>2021-08-08T16:17:47Z</time>
      </trkpt>
      <trkpt lat="48.98804" lon="0.00983">
        <ele>56.07</ele>
        <time>2021-08-08T16:17:48Z</time>
      </trkpt>
      <trkpt lat="48.98803" lon="0.00972">
        <ele>56.02</ele>
        <time>2021-08-08T16:17:49Z</time>
      </trkpt>
      <trkpt lat="48.98803" lon="0.00961">
        <ele>56.01</ele>
        <time>2021-08-08T16:17:50Z</time>
      </trkpt>
      <trkpt lat="48.98803" lon="0.0095">
        <ele>56</ele>
        <time>2021-08-08T16:17:51Z</time>
      </trkpt>
      <trkpt lat="48.98803" lon="0.0094">
        <ele>56</ele>
        <time>2021-08-08T16:17:52Z</time>
      </trkpt>
      <trkpt lat="48.98803" lon="0.00929">
        <ele>56</ele>
        <time>2021-08-08T16:17:53Z</time>
      </trkpt>
      <trkpt lat="48.98803" lon="0.00918">
        <ele>56</ele>
        <time>2021-08-08T16:17:54Z</time>
      </trkpt>
      <trkpt lat="48.98803" lon="0.00908">
        <ele>56</ele>
        <time>2021-08-08T16:17:55Z</time>
      </trkpt>
      <trkpt lat="48.98803" lon="0.00899">
        <ele>56</ele>
        <time>2021-08-08T16:17:56Z</time>
      </trkpt>
      <trkpt lat="48.98803" lon="0.00891">
        <ele>56</ele>
        <time>2021-08-08T16:17:57Z</time>
      </trkpt>
      <trkpt lat="48.98803" lon="0.00884">
        <ele>56</ele>
        <time>2021-08-08T16:17:58Z</time>
      </trkpt>
      <trkpt lat="48.98802" lon="0.00876">
        <ele>56</ele>
        <time>2021-08-08T16:17:59Z</time>
      </trkpt>
      <trkpt lat="48.98802" lon="0.00868">
        <ele>56</ele>
        <time>2021-08-08T16:18:00Z</time>
      </trkpt>
      <trkpt lat="48.98802" lon="0.0086">
        <ele>56</ele>
        <time>2021-08-08T16:18:01Z</time>
      </trkpt>
      <trkpt lat="48.98802" lon="0.00851">
        <ele>56.03</ele>
        <time>2021-08-08T16:18:02Z</time>
      </trkpt>
      <trkpt lat="48.98802" lon="0.00843">
        <ele>56.07</ele>
        <time>2021-08-08T16:18:03Z</time>
      </trkpt>
      <trkpt lat="48.98802" lon="0.00834">
        <ele>56.11</ele>
        <time>2021-08-08T16:18:04Z</time>
      </trkpt>
      <trkpt lat="48.98802" lon="0.00825">
        <ele>56.12</ele>
        <time>2021-08-08T16:18:05Z</time>
      </trkpt>
      <trkpt lat="48.98802" lon="0.00816">
        <ele>56.12</ele>
        <time>2021-08-08T16:18:06Z</time>
      </trkpt>
      <trkpt lat="48.98802" lon="0.00807">
        <ele>56.13</ele>
        <time>2021-08-08T16:18:07Z</time>
      </trkpt>
      <trkpt lat="48.98802" lon="0.00797">
        <ele>56.3</ele>
        <time>2021-08-08T16:18:08Z</time>
      </trkpt>
      <trkpt lat="48.98802" lon="0.00788">
        <ele>56.56</ele>
        <time>2021-08-08T16:18:09Z</time>
      </trkpt>
      <trkpt lat="48.98802" lon="0.00779">
        <ele>56.84</ele>
        <time>2021-08-08T16:18:10Z</time>
      </trkpt>
      <trkpt lat="48.98802" lon="0.0077">
        <ele>56.95</ele>
        <time>2021-08-08T16:18:11Z</time>
      </trkpt>
      <trkpt lat="48.98802" lon="0.0076">
        <ele>56.99</ele>
        <time>2021-08-08T16:18:12Z</time>
      </trkpt>
      <trkpt lat="48.98802" lon="0.00751">
        <ele>57</ele>
        <time>2021-08-08T16:18:13Z</time>
      </trkpt>
      <trkpt lat="48.98802" lon="0.00742">
        <ele>57</ele>
        <time>2021-08-08T16:18:14Z</time>
      </trkpt>
      <trkpt lat="48.98802" lon="0.00733">
        <ele>57</ele>
        <time>2021-08-08T16:18:15Z</time>
      </trkpt>
      <trkpt lat="48.98801" lon="0.00724">
        <ele>57</ele>
        <time>2021-08-08T16:18:16Z</time>
      </trkpt>
      <trkpt lat="48.98801" lon="0.00715">
        <ele>57.03</ele>
        <time>2021-08-08T16:18:17Z</time>
      </trkpt>
      <trkpt lat="48.98801" lon="0.00705">
        <ele>57.08</ele>
        <time>2021-08-08T16:18:18Z</time>
      </trkpt>
      <trkpt lat="48.98801" lon="0.00696">
        <ele>57.13</ele>
        <time>2021-08-08T16:18:19Z</time>
      </trkpt>
      <trkpt lat="48.98801" lon="0.00688">
        <ele>57.3</ele>
        <time>2021-08-08T16:18:20Z</time>
      </trkpt>
      <trkpt lat="48.98801" lon="0.00678">
        <ele>57.55</ele>
        <time>2021-08-08T16:18:21Z</time>
      </trkpt>
      <trkpt lat="48.98801" lon="0.00669">
        <ele>57.82</ele>
        <time>2021-08-08T16:18:22Z</time>
      </trkpt>
      <trkpt lat="48.98801" lon="0.00659">
        <ele>57.95</ele>
        <time>2021-08-08T16:18:23Z</time>
      </trkpt>
      <trkpt lat="48.98801" lon="0.0065">
        <ele>57.98</ele>
        <time>2021-08-08T16:18:24Z</time>
      </trkpt>
      <trkpt lat="48.98801" lon="0.00641">
        <ele>58</ele>
        <time>2021-08-08T16:18:25Z</time>
      </trkpt>
      <trkpt lat="48.988" lon="0.00632">
        <ele>58.17</ele>
        <time>2021-08-08T16:18:26Z</time>
      </trkpt>
      <trkpt lat="48.988" lon="0.00623">
        <ele>58.44</ele>
        <time>2021-08-08T16:18:27Z</time>
      </trkpt>
      <trkpt lat="48.988" lon="0.00615">
        <ele>58.74</ele>
        <time>2021-08-08T16:18:28Z</time>
      </trkpt>
      <trkpt lat="48.98799" lon="0.00606">
        <ele>58.92</ele>
        <time>2021-08-08T16:18:29Z</time>
      </trkpt>
      <trkpt lat="48.98799" lon="0.00597">
        <ele>58.98</ele>
        <time>2021-08-08T16:18:30Z</time>
      </trkpt>
      <trkpt lat="48.98799" lon="0.00589">
        <ele>58.99</ele>
        <time>2021-08-08T16:18:31Z</time>
      </trkpt>
      <trkpt lat="48.98799" lon="0.0058">
        <ele>59.09</ele>
        <time>2021-08-08T16:18:32Z</time>
      </trkpt>
      <trkpt lat="48.98799" lon="0.00571">
        <ele>59.34</ele>
        <time>2021-08-08T16:18:33Z</time>
      </trkpt>
      <trkpt lat="48.98799" lon="0.00562">
        <ele>59.63</ele>
        <time>2021-08-08T16:18:34Z</time>
      </trkpt>
      <trkpt lat="48.98799" lon="0.00553">
        <ele>59.9</ele>
        <time>2021-08-08T16:18:35Z</time>
      </trkpt>
      <trkpt lat="48.98798" lon="0.00544">
        <ele>60.04</ele>
        <time>2021-08-08T16:18:36Z</time>
      </trkpt>
      <trkpt lat="48.98798" lon="0.00535">
        <ele>60.14</ele>
        <time>2021-08-08T16:18:37Z</time>
      </trkpt>
      <trkpt lat="48.98798" lon="0.00526">
        <ele>60.25</ele>
        <time>2021-08-08T16:18:38Z</time>
      </trkpt>
      <trkpt lat="48.98798" lon="0.00517">
        <ele>60.45</ele>
        <time>2021-08-08T16:18:39Z</time>
      </trkpt>
      <trkpt lat="48.98798" lon="0.00509">
        <ele>60.67</ele>
        <time>2021-08-08T16:18:40Z</time>
      </trkpt>
      <trkpt lat="48.98798" lon="0.00501">
        <ele>60.89</ele>
        <time>2021-08-08T16:18:41Z</time>
      </trkpt>
      <trkpt lat="48.98798" lon="0.00492">
        <ele>61.17</ele>
        <time>2021-08-08T16:18:42Z</time>
      </trkpt>
      <trkpt lat="48.98799" lon="0.00484">
        <ele>61.45</ele>
        <time>2021-08-08T16:18:43Z</time>
      </trkpt>
      <trkpt lat="48.98798" lon="0.00476">
        <ele>61.73</ele>
        <time>2021-08-08T16:18:44Z</time>
      </trkpt>
      <trkpt lat="48.98799" lon="0.00468">
        <ele>62.02</ele>
        <time>2021-08-08T16:18:45Z</time>
      </trkpt>
      <trkpt lat="48.98798" lon="0.0046">
        <ele>62.3</ele>
        <time>2021-08-08T16:18:46Z</time>
      </trkpt>
      <trkpt lat="48.98798" lon="0.00453">
        <ele>62.58</ele>
        <time>2021-08-08T16:18:47Z</time>
      </trkpt>
      <trkpt lat="48.98797" lon="0.00445">
        <ele>62.85</ele>
        <time>2021-08-08T16:18:48Z</time>
      </trkpt>
      <trkpt lat="48.98797" lon="0.00438">
        <ele>62.95</ele>
        <time>2021-08-08T16:18:49Z</time>
      </trkpt>
      <trkpt lat="48.98797" lon="0.00431">
        <ele>62.99</ele>
        <time>2021-08-08T16:18:50Z</time>
      </trkpt>
      <trkpt lat="48.98797" lon="0.00423">
        <ele>63</ele>
        <time>2021-08-08T16:18:51Z</time>
      </trkpt>
      <trkpt lat="48.98796" lon="0.00416">
        <ele>63.01</ele>
        <time>2021-08-08T16:18:52Z</time>
      </trkpt>
      <trkpt lat="48.98796" lon="0.00409">
        <ele>63.2</ele>
        <time>2021-08-08T16:18:53Z</time>
      </trkpt>
      <trkpt lat="48.98795" lon="0.00401">
        <ele>63.45</ele>
        <time>2021-08-08T16:18:54Z</time>
      </trkpt>
      <trkpt lat="48.98795" lon="0.00394">
        <ele>63.71</ele>
        <time>2021-08-08T16:18:55Z</time>
      </trkpt>
      <trkpt lat="48.98795" lon="0.00386">
        <ele>63.98</ele>
        <time>2021-08-08T16:18:56Z</time>
      </trkpt>
      <trkpt lat="48.98796" lon="0.00379">
        <ele>64.24</ele>
        <time>2021-08-08T16:18:57Z</time>
      </trkpt>
      <trkpt lat="48.98796" lon="0.00372">
        <ele>64.51</ele>
        <time>2021-08-08T16:18:58Z</time>
      </trkpt>
      <trkpt lat="48.98796" lon="0.00364">
        <ele>64.77</ele>
        <time>2021-08-08T16:18:59Z</time>
      </trkpt>
      <trkpt lat="48.98796" lon="0.00357">
        <ele>65.04</ele>
        <time>2021-08-08T16:19:00Z</time>
      </trkpt>
      <trkpt lat="48.98796" lon="0.00349">
        <ele>65.32</ele>
        <time>2021-08-08T16:19:01Z</time>
      </trkpt>
      <trkpt lat="48.98797" lon="0.00341">
        <ele>65.59</ele>
        <time>2021-08-08T16:19:02Z</time>
      </trkpt>
      <trkpt lat="48.98797" lon="0.00334">
        <ele>65.87</ele>
        <time>2021-08-08T16:19:03Z</time>
      </trkpt>
      <trkpt lat="48.98797" lon="0.00327">
        <ele>66.13</ele>
        <time>2021-08-08T16:19:04Z</time>
      </trkpt>
      <trkpt lat="48.98798" lon="0.0032">
        <ele>66.38</ele>
        <time>2021-08-08T16:19:05Z</time>
      </trkpt>
      <trkpt lat="48.98797" lon="0.00313">
        <ele>66.63</ele>
        <time>2021-08-08T16:19:06Z</time>
      </trkpt>
      <trkpt lat="48.98797" lon="0.00305">
        <ele>66.89</ele>
        <time>2021-08-08T16:19:07Z</time>
      </trkpt>
      <trkpt lat="48.98798" lon="0.00298">
        <ele>67.16</ele>
        <time>2021-08-08T16:19:08Z</time>
      </trkpt>
      <trkpt lat="48.98798" lon="0.00291">
        <ele>67.43</ele>
        <time>2021-08-08T16:19:09Z</time>
      </trkpt>
      <trkpt lat="48.98798" lon="0.00283">
        <ele>67.69</ele>
        <time>2021-08-08T16:19:10Z</time>
      </trkpt>
      <trkpt lat="48.98798" lon="0.00276">
        <ele>67.92</ele>
        <time>2021-08-08T16:19:11Z</time>
      </trkpt>
      <trkpt lat="48.98798" lon="0.00269">
        <ele>68.03</ele>
        <time>2021-08-08T16:19:12Z</time>
      </trkpt>
      <trkpt lat="48.98798" lon="0.00263">
        <ele>68.11</ele>
        <time>2021-08-08T16:19:13Z</time>
      </trkpt>
      <trkpt lat="48.98798" lon="0.00256">
        <ele>68.18</ele>
        <time>2021-08-08T16:19:14Z</time>
      </trkpt>
      <trkpt lat="48.98797" lon="0.00249">
        <ele>68.28</ele>
        <time>2021-08-08T16:19:15Z</time>
      </trkpt>
      <trkpt lat="48.98797" lon="0.00243">
        <ele>68.47</ele>
        <time>2021-08-08T16:19:16Z</time>
      </trkpt>
      <trkpt lat="48.98797" lon="0.00237">
        <ele>68.69</ele>
        <time>2021-08-08T16:19:17Z</time>
      </trkpt>
      <trkpt lat="48.98797" lon="0.00231">
        <ele>68.91</ele>
        <time>2021-08-08T16:19:18Z</time>
      </trkpt>
      <trkpt lat="48.98797" lon="0.00225">
        <ele>69.11</ele>
        <time>2021-08-08T16:19:19Z</time>
      </trkpt>
      <trkpt lat="48.98797" lon="0.00219">
        <ele>69.33</ele>
        <time>2021-08-08T16:19:20Z</time>
      </trkpt>
      <trkpt lat="48.98797" lon="0.00213">
        <ele>69.56</ele>
        <time>2021-08-08T16:19:21Z</time>
      </trkpt>
      <trkpt lat="48.98796" lon="0.00206">
        <ele>69.81</ele>
        <time>2021-08-08T16:19:22Z</time>
      </trkpt>
      <trkpt lat="48.98796" lon="0.00199">
        <ele>70.06</ele>
        <time>2021-08-08T16:19:23Z</time>
      </trkpt>
      <trkpt lat="48.98796" lon="0.00193">
        <ele>70.27</ele>
        <time>2021-08-08T16:19:24Z</time>
      </trkpt>
      <trkpt lat="48.98796" lon="0.00187">
        <ele>70.44</ele>
        <time>2021-08-08T16:19:25Z</time>
      </trkpt>
      <trkpt lat="48.98797" lon="0.0018">
        <ele>70.61</ele>
        <time>2021-08-08T16:19:26Z</time>
      </trkpt>
      <trkpt lat="48.98797" lon="0.00172">
        <ele>70.79</ele>
        <time>2021-08-08T16:19:27Z</time>
      </trkpt>
      <trkpt lat="48.98797" lon="0.00165">
        <ele>70.98</ele>
        <time>2021-08-08T16:19:28Z</time>
      </trkpt>
      <trkpt lat="48.98797" lon="0.00158">
        <ele>71.2</ele>
        <time>2021-08-08T16:19:29Z</time>
      </trkpt>
      <trkpt lat="48.98796" lon="0.00151">
        <ele>71.45</ele>
        <time>2021-08-08T16:19:30Z</time>
      </trkpt>
      <trkpt lat="48.98796" lon="0.00145">
        <ele>71.69</ele>
        <time>2021-08-08T16:19:31Z</time>
      </trkpt>
      <trkpt lat="48.98796" lon="0.00139">
        <ele>71.92</ele>
        <time>2021-08-08T16:19:32Z</time>
      </trkpt>
      <trkpt lat="48.98795" lon="0.00132">
        <ele>72.21</ele>
        <time>2021-08-08T16:19:33Z</time>
      </trkpt>
      <trkpt lat="48.98795" lon="0.00126">
        <ele>72.52</ele>
        <time>2021-08-08T16:19:34Z</time>
      </trkpt>
      <trkpt lat="48.98796" lon="0.00119">
        <ele>72.83</ele>
        <time>2021-08-08T16:19:35Z</time>
      </trkpt>
      <trkpt lat="48.98796" lon="0.00113">
        <ele>73.13</ele>
        <time>2021-08-08T16:19:36Z</time>
      </trkpt>
      <trkpt lat="48.98796" lon="0.00106">
        <ele>73.47</ele>
        <time>2021-08-08T16:19:37Z</time>
      </trkpt>
      <trkpt lat="48.98797" lon="0.001">
        <ele>73.86</ele>
        <time>2021-08-08T16:19:38Z</time>
      </trkpt>
      <trkpt lat="48.98797" lon="0.00093">
        <ele>74.27</ele>
        <time>2021-08-08T16:19:39Z</time>
      </trkpt>
      <trkpt lat="48.98797" lon="0.00086">
        <ele>74.67</ele>
        <time>2021-08-08T16:19:40Z</time>
      </trkpt>
      <trkpt lat="48.98798" lon="0.00079">
        <ele>75.01</ele>
        <time>2021-08-08T16:19:41Z</time>
      </trkpt>
      <trkpt lat="48.98798" lon="0.00072">
        <ele>75.29</ele>
        <time>2021-08-08T16:19:42Z</time>
      </trkpt>
      <trkpt lat="48.98799" lon="0.00065">
        <ele>75.55</ele>
        <time>2021-08-08T16:19:43Z</time>
      </trkpt>
      <trkpt lat="48.988" lon="0.00058">
        <ele>75.79</ele>
        <time>2021-08-08T16:19:44Z</time>
      </trkpt>
      <trkpt lat="48.98801" lon="0.00052">
        <ele>75.94</ele>
        <time>2021-08-08T16:19:45Z</time>
      </trkpt>
      <trkpt lat="48.98802" lon="0.00046">
        <ele>75.98</ele>
        <time>2021-08-08T16:19:46Z</time>
      </trkpt>
      <trkpt lat="48.98803" lon="0.0004">
        <ele>75.99</ele>
        <time>2021-08-08T16:19:47Z</time>
      </trkpt>
      <trkpt lat="48.98804" lon="0.00033">
        <ele>76</ele>
        <time>2021-08-08T16:19:48Z</time>
      </trkpt>
      <trkpt lat="48.98804" lon="0.00027">
        <ele>76</ele>
        <time>2021-08-08T16:19:49Z</time>
      </trkpt>
      <trkpt lat="48.98806" lon="0.0002">
        <ele>76</ele>
        <time>2021-08-08T16:19:50Z</time>
      </trkpt>
      <trkpt lat="48.98807" lon="0.00014">
        <ele>76</ele>
        <time>2021-08-08T16:19:51Z</time>
      </trkpt>
      <trkpt lat="48.98809" lon="8.0E-5">
        <ele>76</ele>
        <time>2021-08-08T16:19:52Z</time>
      </trkpt>
      <trkpt lat="48.98811" lon="1.0E-5">
        <ele>76</ele>
        <time>2021-08-08T16:19:53Z</time>
      </trkpt>
      <trkpt lat="48.98812" lon="-6.0E-5">
        <ele>76</ele>
        <time>2021-08-08T16:19:54Z</time>
      </trkpt>
      <trkpt lat="48.98812" lon="-0.00013">
        <ele>76</ele>
        <time>2021-08-08T16:19:55Z</time>
      </trkpt>
      <trkpt lat="48.98813" lon="-0.0002">
        <ele>76</ele>
        <time>2021-08-08T16:19:56Z</time>
      </trkpt>
      <trkpt lat="48.98815" lon="-0.00027">
        <ele>76</ele>
        <time>2021-08-08T16:19:57Z</time>
      </trkpt>
      <trkpt lat="48.98817" lon="-0.00033">
        <ele>76</ele>
        <time>2021-08-08T16:19:58Z</time>
      </trkpt>
      <trkpt lat="48.98819" lon="-0.0004">
        <ele>76</ele>
        <time>2021-08-08T16:19:59Z</time>
      </trkpt>
      <trkpt lat="48.98821" lon="-0.00047">
        <ele>76</ele>
        <time>2021-08-08T16:20:00Z</time>
      </trkpt>
      <trkpt lat="48.98823" lon="-0.00055">
        <ele>76</ele>
        <time>2021-08-08T16:20:01Z</time>
      </trkpt>
      <trkpt lat="48.98826" lon="-0.00063">
        <ele>75.62</ele>
        <time>2021-08-08T16:20:02Z</time>
      </trkpt>
      <trkpt lat="48.98828" lon="-0.00072">
        <ele>75.07</ele>
        <time>2021-08-08T16:20:03Z</time>
      </trkpt>
      <trkpt lat="48.98831" lon="-0.00081">
        <ele>74.44</ele>
        <time>2021-08-08T16:20:04Z</time>
      </trkpt>
      <trkpt lat="48.98833" lon="-0.00091">
        <ele>73.75</ele>
        <time>2021-08-08T16:20:05Z</time>
      </trkpt>
      <trkpt lat="48.98836" lon="-0.00102">
        <ele>72.99</ele>
        <time>2021-08-08T16:20:06Z</time>
      </trkpt>
      <trkpt lat="48.98838" lon="-0.00113">
        <ele>72.2</ele>
        <time>2021-08-08T16:20:07Z</time>
      </trkpt>
      <trkpt lat="48.98841" lon="-0.00123">
        <ele>71.44</ele>
        <time>2021-08-08T16:20:08Z</time>
      </trkpt>
      <trkpt lat="48.98845" lon="-0.00134">
        <ele>70.69</ele>
        <time>2021-08-08T16:20:09Z</time>
      </trkpt>
      <trkpt lat="48.9885" lon="-0.00143">
        <ele>70.01</ele>
        <time>2021-08-08T16:20:10Z</time>
      </trkpt>
      <trkpt lat="48.98856" lon="-0.00151">
        <ele>69.4</ele>
        <time>2021-08-08T16:20:11Z</time>
      </trkpt>
      <trkpt lat="48.98863" lon="-0.00157">
        <ele>68.92</ele>
        <time>2021-08-08T16:20:12Z</time>
      </trkpt>
      <trkpt lat="48.9887" lon="-0.00161">
        <ele>68.57</ele>
        <time>2021-08-08T16:20:13Z</time>
      </trkpt>
      <trkpt lat="48.98877" lon="-0.00164">
        <ele>68.31</ele>
        <time>2021-08-08T16:20:14Z</time>
      </trkpt>
      <trkpt lat="48.98884" lon="-0.00166">
        <ele>68.11</ele>
        <time>2021-08-08T16:20:15Z</time>
      </trkpt>
      <trkpt lat="48.98892" lon="-0.00169">
        <ele>67.9</ele>
        <time>2021-08-08T16:20:16Z</time>
      </trkpt>
      <trkpt lat="48.989" lon="-0.00171">
        <ele>67.58</ele>
        <time>2021-08-08T16:20:17Z</time>
      </trkpt>
      <trkpt lat="48.98908" lon="-0.00173">
        <ele>67.23</ele>
        <time>2021-08-08T16:20:18Z</time>
      </trkpt>
      <trkpt lat="48.98915" lon="-0.00176">
        <ele>66.86</ele>
        <time>2021-08-08T16:20:19Z</time>
      </trkpt>
      <trkpt lat="48.98923" lon="-0.00179">
        <ele>66.65</ele>
        <time>2021-08-08T16:20:20Z</time>
      </trkpt>
      <trkpt lat="48.9893" lon="-0.00182">
        <ele>66.51</ele>
        <time>2021-08-08T16:20:21Z</time>
      </trkpt>
      <trkpt lat="48.98938" lon="-0.00185">
        <ele>66.39</ele>
        <time>2021-08-08T16:20:22Z</time>
      </trkpt>
      <trkpt lat="48.98945" lon="-0.00188">
        <ele>66.28</ele>
        <time>2021-08-08T16:20:23Z</time>
      </trkpt>
      <trkpt lat="48.98952" lon="-0.0019">
        <ele>66.05</ele>
        <time>2021-08-08T16:20:24Z</time>
      </trkpt>
      <trkpt lat="48.98958" lon="-0.0019">
        <ele>65.84</ele>
        <time>2021-08-08T16:20:25Z</time>
      </trkpt>
      <trkpt lat="48.98964" lon="-0.00188">
        <ele>65.73</ele>
        <time>2021-08-08T16:20:26Z</time>
      </trkpt>
      <trkpt lat="48.98969" lon="-0.00184">
        <ele>65.79</ele>
        <time>2021-08-08T16:20:27Z</time>
      </trkpt>
      <trkpt lat="48.98972" lon="-0.00177">
        <ele>66.11</ele>
        <time>2021-08-08T16:20:28Z</time>
      </trkpt>
      <trkpt lat="48.98974" lon="-0.00169">
        <ele>66.59</ele>
        <time>2021-08-08T16:20:29Z</time>
      </trkpt>
      <trkpt lat="48.98974" lon="-0.00162">
        <ele>66.99</ele>
        <time>2021-08-08T16:20:30Z</time>
      </trkpt>
      <trkpt lat="48.98973" lon="-0.00156">
        <ele>67.28</ele>
        <time>2021-08-08T16:20:31Z</time>
      </trkpt>
      <trkpt lat="48.98972" lon="-0.00149">
        <ele>67.54</ele>
        <time>2021-08-08T16:20:32Z</time>
      </trkpt>
      <trkpt lat="48.98971" lon="-0.00142">
        <ele>67.8</ele>
        <time>2021-08-08T16:20:33Z</time>
      </trkpt>
      <trkpt lat="48.98972" lon="-0.00135">
        <ele>68.13</ele>
        <time>2021-08-08T16:20:34Z</time>
      </trkpt>
      <trkpt lat="48.98973" lon="-0.00129">
        <ele>68.58</ele>
        <time>2021-08-08T16:20:35Z</time>
      </trkpt>
      <trkpt lat="48.98975" lon="-0.00123">
        <ele>69.07</ele>
        <time>2021-08-08T16:20:36Z</time>
      </trkpt>
      <trkpt lat="48.98978" lon="-0.00118">
        <ele>69.51</ele>
        <time>2021-08-08T16:20:37Z</time>
      </trkpt>
      <trkpt lat="48.98982" lon="-0.00115">
        <ele>69.88</ele>
        <time>2021-08-08T16:20:38Z</time>
      </trkpt>
      <trkpt lat="48.98986" lon="-0.00113">
        <ele>70.19</ele>
        <time>2021-08-08T16:20:39Z</time>
      </trkpt>
      <trkpt lat="48.98991" lon="-0.00112">
        <ele>70.47</ele>
        <time>2021-08-08T16:20:40Z</time>
      </trkpt>
      <trkpt lat="48.98996" lon="-0.00112">
        <ele>70.72</ele>
        <time>2021-08-08T16:20:41Z</time>
      </trkpt>
      <trkpt lat="48.99001" lon="-0.00112">
        <ele>70.86</ele>
        <time>2021-08-08T16:20:42Z</time>
      </trkpt>
      <trkpt lat="48.99007" lon="-0.00113">
        <ele>70.86</ele>
        <time>2021-08-08T16:20:43Z</time>
      </trkpt>
      <trkpt lat="48.99012" lon="-0.00114">
        <ele>70.81</ele>
        <time>2021-08-08T16:20:44Z</time>
      </trkpt>
      <trkpt lat="48.99018" lon="-0.00115">
        <ele>70.73</ele>
        <time>2021-08-08T16:20:45Z</time>
      </trkpt>
      <trkpt lat="48.99024" lon="-0.00117">
        <ele>70.64</ele>
        <time>2021-08-08T16:20:46Z</time>
      </trkpt>
      <trkpt lat="48.9903" lon="-0.00118">
        <ele>70.56</ele>
        <time>2021-08-08T16:20:47Z</time>
      </trkpt>
      <trkpt lat="48.99036" lon="-0.00118">
        <ele>70.51</ele>
        <time>2021-08-08T16:20:48Z</time>
      </trkpt>
      <trkpt lat="48.99042" lon="-0.00118">
        <ele>70.5</ele>
        <time>2021-08-08T16:20:49Z</time>
      </trkpt>
      <trkpt lat="48.99048" lon="-0.00118">
        <ele>70.52</ele>
        <time>2021-08-08T16:20:50Z</time>
      </trkpt>
      <trkpt lat="48.99054" lon="-0.00117">
        <ele>70.58</ele>
        <time>2021-08-08T16:20:51Z</time>
      </trkpt>
      <trkpt lat="48.9906" lon="-0.00115">
        <ele>70.69</ele>
        <time>2021-08-08T16:20:52Z</time>
      </trkpt>
      <trkpt lat="48.99066" lon="-0.00112">
        <ele>70.85</ele>
        <time>2021-08-08T16:20:53Z</time>
      </trkpt>
      <trkpt lat="48.99072" lon="-0.00109">
        <ele>71.05</ele>
        <time>2021-08-08T16:20:54Z</time>
      </trkpt>
      <trkpt lat="48.99078" lon="-0.00106">
        <ele>71.26</ele>
        <time>2021-08-08T16:20:55Z</time>
      </trkpt>
      <trkpt lat="48.99084" lon="-0.00104">
        <ele>71.45</ele>
        <time>2021-08-08T16:20:56Z</time>
      </trkpt>
      <trkpt lat="48.9909" lon="-0.00101">
        <ele>71.63</ele>
        <time>2021-08-08T16:20:57Z</time>
      </trkpt>
      <trkpt lat="48.99096" lon="-0.00099">
        <ele>71.78</ele>
        <time>2021-08-08T16:20:58Z</time>
      </trkpt>
      <trkpt lat="48.99102" lon="-0.00098">
        <ele>71.9</ele>
        <time>2021-08-08T16:20:59Z</time>
      </trkpt>
      <trkpt lat="48.99108" lon="-0.00096">
        <ele>72.02</ele>
        <time>2021-08-08T16:21:00Z</time>
      </trkpt>
      <trkpt lat="48.99114" lon="-0.00095">
        <ele>72.12</ele>
        <time>2021-08-08T16:21:01Z</time>
      </trkpt>
      <trkpt lat="48.9912" lon="-0.00094">
        <ele>72.19</ele>
        <time>2021-08-08T16:21:02Z</time>
      </trkpt>
      <trkpt lat="48.99127" lon="-0.00093">
        <ele>72.26</ele>
        <time>2021-08-08T16:21:03Z</time>
      </trkpt>
      <trkpt lat="48.99133" lon="-0.00093">
        <ele>72.29</ele>
        <time>2021-08-08T16:21:04Z</time>
      </trkpt>
      <trkpt lat="48.9914" lon="-0.00093">
        <ele>72.29</ele>
        <time>2021-08-08T16:21:05Z</time>
      </trkpt>
      <trkpt lat="48.99147" lon="-0.00094">
        <ele>72.28</ele>
        <time>2021-08-08T16:21:06Z</time>
      </trkpt>
      <trkpt lat="48.99153" lon="-0.00094">
        <ele>72.26</ele>
        <time>2021-08-08T16:21:07Z</time>
      </trkpt>
      <trkpt lat="48.9916" lon="-0.00094">
        <ele>72.24</ele>
        <time>2021-08-08T16:21:08Z</time>
      </trkpt>
      <trkpt lat="48.99167" lon="-0.00094">
        <ele>72.23</ele>
        <time>2021-08-08T16:21:09Z</time>
      </trkpt>
      <trkpt lat="48.99174" lon="-0.00094">
        <ele>72.22</ele>
        <time>2021-08-08T16:21:10Z</time>
      </trkpt>
      <trkpt lat="48.99181" lon="-0.00094">
        <ele>72.21</ele>
        <time>2021-08-08T16:21:11Z</time>
      </trkpt>
      <trkpt lat="48.99188" lon="-0.00095">
        <ele>72.19</ele>
        <time>2021-08-08T16:21:12Z</time>
      </trkpt>
      <trkpt lat="48.99195" lon="-0.00094">
        <ele>72.19</ele>
        <time>2021-08-08T16:21:13Z</time>
      </trkpt>
      <trkpt lat="48.99202" lon="-0.00095">
        <ele>72.18</ele>
        <time>2021-08-08T16:21:14Z</time>
      </trkpt>
      <trkpt lat="48.9921" lon="-0.00096">
        <ele>72.13</ele>
        <time>2021-08-08T16:21:15Z</time>
      </trkpt>
      <trkpt lat="48.99217" lon="-0.00097">
        <ele>72.05</ele>
        <time>2021-08-08T16:21:16Z</time>
      </trkpt>
      <trkpt lat="48.99224" lon="-0.00099">
        <ele>71.91</ele>
        <time>2021-08-08T16:21:17Z</time>
      </trkpt>
      <trkpt lat="48.99231" lon="-0.00102">
        <ele>71.72</ele>
        <time>2021-08-08T16:21:18Z</time>
      </trkpt>
      <trkpt lat="48.99238" lon="-0.00105">
        <ele>71.51</ele>
        <time>2021-08-08T16:21:19Z</time>
      </trkpt>
      <trkpt lat="48.99245" lon="-0.00109">
        <ele>71.28</ele>
        <time>2021-08-08T16:21:20Z</time>
      </trkpt>
      <trkpt lat="48.99252" lon="-0.00112">
        <ele>71.11</ele>
        <time>2021-08-08T16:21:21Z</time>
      </trkpt>
      <trkpt lat="48.9926" lon="-0.00116">
        <ele>71.15</ele>
        <time>2021-08-08T16:21:22Z</time>
      </trkpt>
      <trkpt lat="48.99267" lon="-0.0012">
        <ele>71.24</ele>
        <time>2021-08-08T16:21:23Z</time>
      </trkpt>
      <trkpt lat="48.99273" lon="-0.00124">
        <ele>71.32</ele>
        <time>2021-08-08T16:21:24Z</time>
      </trkpt>
      <trkpt lat="48.9928" lon="-0.00128">
        <ele>71.36</ele>
        <time>2021-08-08T16:21:25Z</time>
      </trkpt>
      <trkpt lat="48.99287" lon="-0.00131">
        <ele>71.3</ele>
        <time>2021-08-08T16:21:26Z</time>
      </trkpt>
      <trkpt lat="48.99293" lon="-0.00134">
        <ele>71.22</ele>
        <time>2021-08-08T16:21:27Z</time>
      </trkpt>
      <trkpt lat="48.993" lon="-0.00136">
        <ele>71.13</ele>
        <time>2021-08-08T16:21:28Z</time>
      </trkpt>
      <trkpt lat="48.99307" lon="-0.00139">
        <ele>71.05</ele>
        <time>2021-08-08T16:21:29Z</time>
      </trkpt>
      <trkpt lat="48.99314" lon="-0.00141">
        <ele>70.98</ele>
        <time>2021-08-08T16:21:30Z</time>
      </trkpt>
      <trkpt lat="48.99321" lon="-0.00143">
        <ele>70.94</ele>
        <time>2021-08-08T16:21:31Z</time>
      </trkpt>
      <trkpt lat="48.99328" lon="-0.00146">
        <ele>70.95</ele>
        <time>2021-08-08T16:21:32Z</time>
      </trkpt>
      <trkpt lat="48.99336" lon="-0.00148">
        <ele>71.03</ele>
        <time>2021-08-08T16:21:33Z</time>
      </trkpt>
      <trkpt lat="48.99343" lon="-0.00151">
        <ele>71.15</ele>
        <time>2021-08-08T16:21:34Z</time>
      </trkpt>
      <trkpt lat="48.9935" lon="-0.00153">
        <ele>71.25</ele>
        <time>2021-08-08T16:21:35Z</time>
      </trkpt>
      <trkpt lat="48.99358" lon="-0.00156">
        <ele>71.3</ele>
        <time>2021-08-08T16:21:36Z</time>
      </trkpt>
      <trkpt lat="48.99364" lon="-0.0016">
        <ele>71.32</ele>
        <time>2021-08-08T16:21:37Z</time>
      </trkpt>
      <trkpt lat="48.99371" lon="-0.00164">
        <ele>71.39</ele>
        <time>2021-08-08T16:21:38Z</time>
      </trkpt>
      <trkpt lat="48.99378" lon="-0.00168">
        <ele>71.54</ele>
        <time>2021-08-08T16:21:39Z</time>
      </trkpt>
      <trkpt lat="48.99384" lon="-0.00172">
        <ele>71.74</ele>
        <time>2021-08-08T16:21:40Z</time>
      </trkpt>
      <trkpt lat="48.99391" lon="-0.00176">
        <ele>71.97</ele>
        <time>2021-08-08T16:21:41Z</time>
      </trkpt>
      <trkpt lat="48.99397" lon="-0.0018">
        <ele>72.2</ele>
        <time>2021-08-08T16:21:42Z</time>
      </trkpt>
      <trkpt lat="48.99404" lon="-0.00184">
        <ele>72.45</ele>
        <time>2021-08-08T16:21:43Z</time>
      </trkpt>
      <trkpt lat="48.99411" lon="-0.00188">
        <ele>72.7</ele>
        <time>2021-08-08T16:21:44Z</time>
      </trkpt>
      <trkpt lat="48.99418" lon="-0.00192">
        <ele>72.91</ele>
        <time>2021-08-08T16:21:45Z</time>
      </trkpt>
      <trkpt lat="48.99425" lon="-0.00195">
        <ele>72.93</ele>
        <time>2021-08-08T16:21:46Z</time>
      </trkpt>
      <trkpt lat="48.99432" lon="-0.00198">
        <ele>72.86</ele>
        <time>2021-08-08T16:21:47Z</time>
      </trkpt>
      <trkpt lat="48.99439" lon="-0.00201">
        <ele>72.75</ele>
        <time>2021-08-08T16:21:48Z</time>
      </trkpt>
      <trkpt lat="48.99445" lon="-0.00205">
        <ele>72.65</ele>
        <time>2021-08-08T16:21:49Z</time>
      </trkpt>
      <trkpt lat="48.99452" lon="-0.00209">
        <ele>72.53</ele>
        <time>2021-08-08T16:21:50Z</time>
      </trkpt>
      <trkpt lat="48.99458" lon="-0.00213">
        <ele>72.4</ele>
        <time>2021-08-08T16:21:51Z</time>
      </trkpt>
      <trkpt lat="48.99465" lon="-0.00217">
        <ele>72.25</ele>
        <time>2021-08-08T16:21:52Z</time>
      </trkpt>
      <trkpt lat="48.99471" lon="-0.00221">
        <ele>72.11</ele>
        <time>2021-08-08T16:21:53Z</time>
      </trkpt>
      <trkpt lat="48.99477" lon="-0.00225">
        <ele>71.96</ele>
        <time>2021-08-08T16:21:54Z</time>
      </trkpt>
      <trkpt lat="48.99484" lon="-0.00229">
        <ele>71.81</ele>
        <time>2021-08-08T16:21:55Z</time>
      </trkpt>
      <trkpt lat="48.99491" lon="-0.00233">
        <ele>71.67</ele>
        <time>2021-08-08T16:21:56Z</time>
      </trkpt>
      <trkpt lat="48.99498" lon="-0.00237">
        <ele>71.53</ele>
        <time>2021-08-08T16:21:57Z</time>
      </trkpt>
      <trkpt lat="48.99505" lon="-0.00241">
        <ele>71.39</ele>
        <time>2021-08-08T16:21:58Z</time>
      </trkpt>
      <trkpt lat="48.99511" lon="-0.00245">
        <ele>71.24</ele>
        <time>2021-08-08T16:21:59Z</time>
      </trkpt>
      <trkpt lat="48.99518" lon="-0.0025">
        <ele>71.07</ele>
        <time>2021-08-08T16:22:00Z</time>
      </trkpt>
      <trkpt lat="48.99525" lon="-0.00255">
        <ele>71.01</ele>
        <time>2021-08-08T16:22:01Z</time>
      </trkpt>
      <trkpt lat="48.99532" lon="-0.0026">
        <ele>71.06</ele>
        <time>2021-08-08T16:22:02Z</time>
      </trkpt>
      <trkpt lat="48.99538" lon="-0.00265">
        <ele>71.14</ele>
        <time>2021-08-08T16:22:03Z</time>
      </trkpt>
      <trkpt lat="48.99545" lon="-0.00269">
        <ele>71.19</ele>
        <time>2021-08-08T16:22:04Z</time>
      </trkpt>
      <trkpt lat="48.99552" lon="-0.00273">
        <ele>71.17</ele>
        <time>2021-08-08T16:22:05Z</time>
      </trkpt>
      <trkpt lat="48.99559" lon="-0.00277">
        <ele>71.15</ele>
        <time>2021-08-08T16:22:06Z</time>
      </trkpt>
      <trkpt lat="48.99566" lon="-0.00281">
        <ele>71.28</ele>
        <time>2021-08-08T16:22:07Z</time>
      </trkpt>
      <trkpt lat="48.99573" lon="-0.00286">
        <ele>71.4</ele>
        <time>2021-08-08T16:22:08Z</time>
      </trkpt>
      <trkpt lat="48.99581" lon="-0.0029">
        <ele>71.48</ele>
        <time>2021-08-08T16:22:09Z</time>
      </trkpt>
      <trkpt lat="48.99588" lon="-0.00293">
        <ele>71.52</ele>
        <time>2021-08-08T16:22:10Z</time>
      </trkpt>
      <trkpt lat="48.99595" lon="-0.00297">
        <ele>71.59</ele>
        <time>2021-08-08T16:22:11Z</time>
      </trkpt>
      <trkpt lat="48.99603" lon="-0.003">
        <ele>71.71</ele>
        <time>2021-08-08T16:22:12Z</time>
      </trkpt>
      <trkpt lat="48.9961" lon="-0.00304">
        <ele>71.88</ele>
        <time>2021-08-08T16:22:13Z</time>
      </trkpt>
      <trkpt lat="48.99617" lon="-0.00308">
        <ele>71.91</ele>
        <time>2021-08-08T16:22:14Z</time>
      </trkpt>
      <trkpt lat="48.99624" lon="-0.00312">
        <ele>71.88</ele>
        <time>2021-08-08T16:22:15Z</time>
      </trkpt>
      <trkpt lat="48.9963" lon="-0.00317">
        <ele>71.87</ele>
        <time>2021-08-08T16:22:16Z</time>
      </trkpt>
      <trkpt lat="48.99636" lon="-0.00321">
        <ele>71.92</ele>
        <time>2021-08-08T16:22:17Z</time>
      </trkpt>
      <trkpt lat="48.99643" lon="-0.00325">
        <ele>71.98</ele>
        <time>2021-08-08T16:22:18Z</time>
      </trkpt>
      <trkpt lat="48.9965" lon="-0.0033">
        <ele>71.99</ele>
        <time>2021-08-08T16:22:19Z</time>
      </trkpt>
      <trkpt lat="48.99656" lon="-0.00335">
        <ele>71.99</ele>
        <time>2021-08-08T16:22:20Z</time>
      </trkpt>
      <trkpt lat="48.99663" lon="-0.00339">
        <ele>71.98</ele>
        <time>2021-08-08T16:22:21Z</time>
      </trkpt>
      <trkpt lat="48.9967" lon="-0.00343">
        <ele>71.99</ele>
        <time>2021-08-08T16:22:22Z</time>
      </trkpt>
      <trkpt lat="48.99677" lon="-0.00348">
        <ele>72</ele>
        <time>2021-08-08T16:22:23Z</time>
      </trkpt>
      <trkpt lat="48.99684" lon="-0.00352">
        <ele>72</ele>
        <time>2021-08-08T16:22:24Z</time>
      </trkpt>
      <trkpt lat="48.99691" lon="-0.00357">
        <ele>72</ele>
        <time>2021-08-08T16:22:25Z</time>
      </trkpt>
      <trkpt lat="48.99697" lon="-0.00363">
        <ele>72</ele>
        <time>2021-08-08T16:22:26Z</time>
      </trkpt>
      <trkpt lat="48.99704" lon="-0.00368">
        <ele>72</ele>
        <time>2021-08-08T16:22:27Z</time>
      </trkpt>
      <trkpt lat="48.99711" lon="-0.00373">
        <ele>72</ele>
        <time>2021-08-08T16:22:28Z</time>
      </trkpt>
      <trkpt lat="48.99719" lon="-0.00378">
        <ele>72</ele>
        <time>2021-08-08T16:22:29Z</time>
      </trkpt>
      <trkpt lat="48.99725" lon="-0.00383">
        <ele>72.06</ele>
        <time>2021-08-08T16:22:30Z</time>
      </trkpt>
      <trkpt lat="48.99732" lon="-0.00389">
        <ele>72.26</ele>
        <time>2021-08-08T16:22:31Z</time>
      </trkpt>
      <trkpt lat="48.99738" lon="-0.00395">
        <ele>72.48</ele>
        <time>2021-08-08T16:22:32Z</time>
      </trkpt>
      <trkpt lat="48.99745" lon="-0.00401">
        <ele>72.71</ele>
        <time>2021-08-08T16:22:33Z</time>
      </trkpt>
      <trkpt lat="48.99751" lon="-0.00406">
        <ele>72.91</ele>
        <time>2021-08-08T16:22:34Z</time>
      </trkpt>
      <trkpt lat="48.99757" lon="-0.00412">
        <ele>72.97</ele>
        <time>2021-08-08T16:22:35Z</time>
      </trkpt>
      <trkpt lat="48.99763" lon="-0.00417">
        <ele>72.99</ele>
        <time>2021-08-08T16:22:36Z</time>
      </trkpt>
      <trkpt lat="48.99768" lon="-0.00421">
        <ele>72.96</ele>
        <time>2021-08-08T16:22:37Z</time>
      </trkpt>
      <trkpt lat="48.99773" lon="-0.00426">
        <ele>72.95</ele>
        <time>2021-08-08T16:22:38Z</time>
      </trkpt>
      <trkpt lat="48.99778" lon="-0.0043">
        <ele>72.98</ele>
        <time>2021-08-08T16:22:39Z</time>
      </trkpt>
      <trkpt lat="48.99782" lon="-0.00435">
        <ele>73</ele>
        <time>2021-08-08T16:22:40Z</time>
      </trkpt>
      <trkpt lat="48.99786" lon="-0.0044">
        <ele>73</ele>
        <time>2021-08-08T16:22:41Z</time>
      </trkpt>
      <trkpt lat="48.99789" lon="-0.00443">
        <ele>73</ele>
        <time>2021-08-08T16:22:42Z</time>
      </trkpt>
      <trkpt lat="48.99793" lon="-0.00443">
        <ele>73</ele>
        <time>2021-08-08T16:22:43Z</time>
      </trkpt>
      <trkpt lat="48.99796" lon="-0.00439">
        <ele>73</ele>
        <time>2021-08-08T16:22:44Z</time>
      </trkpt>
      <trkpt lat="48.99798" lon="-0.00436">
        <ele>73</ele>
        <time>2021-08-08T16:22:45Z</time>
      </trkpt>
      <trkpt lat="48.99799" lon="-0.00433">
        <ele>73</ele>
        <time>2021-08-08T16:22:46Z</time>
      </trkpt>
      <trkpt lat="48.99799" lon="-0.00431">
        <ele>73</ele>
        <time>2021-08-08T16:22:47Z</time>
      </trkpt>
      <trkpt lat="48.99799" lon="-0.00431">
        <ele>73</ele>
        <time>2021-08-08T16:22:48Z</time>
      </trkpt>
      <trkpt lat="48.99798" lon="-0.00431">
        <ele>73</ele>
        <time>2021-08-08T16:22:49Z</time>
      </trkpt>
      <trkpt lat="48.99798" lon="-0.00431">
        <ele>73</ele>
        <time>2021-08-08T16:22:50Z</time>
      </trkpt>
      <trkpt lat="48.99798" lon="-0.00431">
        <ele>73</ele>
        <time>2021-08-08T16:22:51Z</time>
      </trkpt>
      <trkpt lat="48.99798" lon="-0.00431">
        <ele>73</ele>
        <time>2021-08-08T16:22:52Z</time>
      </trkpt>
      <trkpt lat="48.99798" lon="-0.00431">
        <ele>73</ele>
        <time>2021-08-08T16:22:53Z</time>
      </trkpt>
      <trkpt lat="48.99798" lon="-0.00431">
        <ele>73</ele>
        <time>2021-08-08T16:22:54Z</time>
      </trkpt>
      <trkpt lat="48.99798" lon="-0.00431">
        <ele>73</ele>
        <time>2021-08-08T16:22:55Z</time>
      </trkpt>
      <trkpt lat="48.99798" lon="-0.00431">
        <ele>73</ele>
        <time>2021-08-08T16:22:57Z</time>
      </trkpt>
      <trkpt lat="48.99798" lon="-0.00431">
        <ele>73</ele>
        <time>2021-08-08T16:22:58Z</time>
      </trkpt>
    </trkseg>
  </trk>
</gpx>